# Wetter Temperatur Luftdruck Luftfeuchtigkeit Sichtweite Windgeschwindigkeit Windrichtung Zeit
1 Clouds 23 1004 41 0 5.34 323 07:19 14.07.2020
2 Clouds 23 1004 41 0 5.34 323 06:53 14.07.2020
3 Clouds 24 1004 40 0 5.41 308 06:25 14.07.2020
4 Clouds 24 1004 40 0 5.41 308 05:49 14.07.2020
5 Clouds 23 1004 42 0 4.84 307 04:39 14.07.2020
6 Clouds 23 1004 42 0 4.82 295 03:54 14.07.2020
7 Clouds 23 1004 47 0 5.11 258 03:27 14.07.2020
8 Clouds 22 1004 50 0 5.87 247 02:27 14.07.2020
9 Clouds 22 1006 49 0 5.2 251 01:41 14.07.2020
10 Clouds 21 1006 55 0 4.97 241 01:21 14.07.2020
11 Clouds 21 1006 55 0 4.97 241 00:41 14.07.2020
12 Clouds 19 1006 61 0 2.81 234 00:21 14.07.2020
13 Clouds 19 1006 61 0 2.81 234 23:38 13.07.2020
14 Clouds 17 1006 71 0 2.29 233 23:19 13.07.2020
15 Clouds 17 1006 71 0 2.29 233 22:57 13.07.2020
16 Clouds 17 1006 71 0 2.29 233 22:38 13.07.2020
17 Clouds 16 1006 75 0 1.97 224 22:19 13.07.2020
18 Clouds 16 1006 75 0 1.97 224 21:54 13.07.2020
19 Clouds 16 1007 72 0 3.77 283 21:36 13.07.2020
20 Clouds 16 1006 75 0 1.97 224 21:36 13.07.2020
21 Clouds 15 1005 76 0 3.43 265 21:18 13.07.2020
22 Clouds 15 1006 76 0 4.3 277 20:42 13.07.2020
23 Clouds 14 1006 80 0 4.8 267 20:23 13.07.2020
24 Clouds 14 1006 80 0 4.8 267 19:59 13.07.2020
25 Clouds 14 1006 80 0 4.8 267 19:41 13.07.2020
26 Clouds 15 1004 81 0 4.04 270 19:22 13.07.2020
27 Clouds 15 1004 81 0 4.04 270 18:56 13.07.2020
28 Clouds 15 1004 81 0 4.04 270 18:38 13.07.2020
29 Clouds 16 1004 77 0 3.16 279 18:19 13.07.2020
30 Clouds 16 1004 77 0 3.16 279 17:55 13.07.2020
31 Clouds 16 1004 77 0 3.16 279 17:37 13.07.2020
32 Rain 16 1003 77 0 4.87 341 17:18 13.07.2020
33 Rain 16 1003 77 0 4.87 341 16:42 13.07.2020
34 Rain 16 1002 82 0 7.73 321 16:21 13.07.2020
35 Rain 16 1002 82 0 7.73 321 15:58 13.07.2020
36 Rain 16 1002 82 0 7.73 321 15:39 13.07.2020
37 Rain 18 1002 85 0 5.85 306 15:20 13.07.2020
38 Rain 18 1002 85 0 5.85 306 14:57 13.07.2020
39 Rain 18 1002 85 0 5.85 306 14:39 13.07.2020
40 Clouds 25 1001 47 0 8.59 290 14:20 13.07.2020
41 Clouds 25 1001 47 0 8.59 290 13:55 13.07.2020
42 Clouds 25 1001 47 0 8.59 290 13:37 13.07.2020
43 Clouds 27 1001 44 0 2.06 257 13:18 13.07.2020
44 Clouds 27 1001 44 0 2.06 257 12:42 13.07.2020
45 Clouds 28 1001 41 0 1.71 62 12:22 13.07.2020
46 Clouds 28 1001 41 0 1.71 62 11:54 13.07.2020
47 Clouds 28 1001 41 0 1.71 62 11:36 13.07.2020
48 Clouds 30 1001 32 0 0.68 23 11:18 13.07.2020
49 Clouds 30 1001 32 0 0.68 23 10:38 13.07.2020
50 Clouds 30 1001 32 0 0.53 229 10:19 13.07.2020
51 Clouds 30 1001 32 0 0.53 229 09:42 13.07.2020
52 Clear 30 1001 35 0 0.3 193 09:23 13.07.2020
53 Clear 30 1001 35 0 0.3 193 08:51 13.07.2020
54 Clear 30 1001 35 0 0.3 193 08:33 13.07.2020
55 Clouds 29 1002 38 0 1.26 282 07:37 13.07.2020
56 Clouds 29 1002 41 0 2.38 279 06:56 13.07.2020
57 Clouds 29 1002 41 0 2.38 279 06:38 13.07.2020
58 Clouds 28 1003 43 0 2.79 273 06:20 13.07.2020
59 Clouds 28 1003 43 0 2.79 273 06:20 13.07.2020
60 Clouds 28 1004 46 0 3.21 271 04:35 13.07.2020
61 Clouds 25 1004 59 0 1.07 237 01:53 13.07.2020
62 Clouds 24 1004 64 0 0.33 261 01:26 13.07.2020
63 Clouds 24 1004 64 0 0.33 261 00:58 13.07.2020
64 Clouds 23 1005 68 0 0.91 211 00:26 13.07.2020
65 Clouds 23 1005 68 0 0.91 211 23:58 12.07.2020
66 Clouds 23 1005 68 0 0.91 211 23:39 12.07.2020
67 Clouds 22 1005 72 0 1.4 196 23:21 12.07.2020
68 Clouds 22 1005 72 0 1.4 196 22:39 12.07.2020
69 Clear 21 1005 75 0 1.47 188 22:21 12.07.2020
70 Clear 21 1005 75 0 1.47 188 21:59 12.07.2020
71 Clear 21 1005 75 0 1.47 188 21:40 12.07.2020
72 Clouds 20 1005 79 0 1.22 173 21:20 12.07.2020
73 Clear 20 1005 80 0 1.24 164 20:58 12.07.2020
74 Clear 20 1005 80 0 1.24 164 20:40 12.07.2020
75 Clouds 18 1005 84 0 0.77 143 20:20 12.07.2020
76 Clouds 18 1005 84 0 0.77 143 19:55 12.07.2020
77 Clouds 18 1005 84 0 0.77 143 19:37 12.07.2020
78 Clouds 18 1005 85 0 0.8 133 19:18 12.07.2020
79 Clouds 18 1005 85 0 0.8 133 18:42 12.07.2020
80 Clouds 19 1004 83 0 0.75 127 18:20 12.07.2020
81 Clouds 19 1004 83 0 0.75 127 17:58 12.07.2020
82 Clouds 19 1004 83 0 0.75 127 17:37 12.07.2020
83 Clouds 19 1004 84 0 0.69 122 17:19 12.07.2020
84 Clouds 19 1004 84 0 0.69 122 16:44 12.07.2020
85 Clouds 20 1005 83 0 0.99 148 16:20 12.07.2020
86 Clouds 20 1005 83 0 0.99 148 15:43 12.07.2020
87 Rain 19 1004 87 0 0.88 51 15:25 12.07.2020
88 Rain 19 1004 87 0 0.88 51 14:56 12.07.2020
89 Rain 19 1004 87 0 0.88 51 14:37 12.07.2020
90 Clouds 22 1004 65 0 3.05 229 14:18 12.07.2020
91 Clouds 22 1004 65 0 3.05 229 13:39 12.07.2020
92 Clouds 22 1005 64 0 6.41 276 13:20 12.07.2020
93 Clouds 22 1005 64 0 6.41 276 12:54 12.07.2020
94 Clouds 22 1005 64 0 6.41 276 12:36 12.07.2020
95 Clouds 27 1005 45 0 7.58 251 12:18 12.07.2020
96 Clouds 27 1005 45 0 7.58 251 12:18 12.07.2020
97 Clouds 27 1005 45 0 7.58 251 12:18 12.07.2020
98 Clouds 27 1005 45 0 7.58 251 11:43 12.07.2020
99 Clouds 30 1005 32 0 3.91 196 11:20 12.07.2020
100 Clouds 30 1005 32 0 3.91 196 10:42 12.07.2020
101 Clouds 31 1004 28 0 4.22 189 10:22 12.07.2020
102 Clouds 31 1004 28 0 4.22 189 09:58 12.07.2020
103 Clouds 31 1004 28 0 4.22 189 09:39 12.07.2020
104 Clouds 31 1004 28 0 4.92 188 09:19 12.07.2020
105 Clouds 31 1004 28 0 4.92 188 08:43 12.07.2020
106 Clouds 31 1004 25 0 5.07 184 08:23 12.07.2020
107 Clouds 31 1004 25 0 5.07 184 07:58 12.07.2020
108 Clouds 31 1004 25 0 5.07 184 07:40 12.07.2020
109 Clouds 31 1005 24 0 5.25 182 07:21 12.07.2020
110 Clouds 31 1005 24 0 5.25 182 06:49 12.07.2020
111 Clouds 30 1005 25 0 5.2 182 06:21 12.07.2020
112 Clouds 30 1006 26 0 4.51 176 05:23 12.07.2020
113 Clouds 30 1006 26 0 4.51 176 04:55 12.07.2020
114 Clouds 29 1007 27 0 4.09 179 04:25 12.07.2020
115 Clouds 29 1007 27 0 4.09 179 03:34 12.07.2020
116 Clouds 29 1007 27 0 4.09 179 03:34 12.07.2020
117 Clouds 28 1007 28 0 3.85 178 02:47 12.07.2020
118 Clouds 26 1007 30 0 2.98 151 01:44 12.07.2020
119 Clouds 25 1008 30 0 2.06 147 00:49 12.07.2020
120 Clouds 24 1009 32 0 1.59 113 00:23 12.07.2020
121 Clouds 24 1009 32 0 1.59 113 23:57 11.07.2020
122 Clouds 24 1009 32 0 1.59 113 23:57 11.07.2020
123 Clouds 24 1009 32 0 1.59 113 23:38 11.07.2020
124 Clouds 22 1009 35 0 1.39 97 23:20 11.07.2020
125 Clouds 22 1009 35 0 1.39 97 22:55 11.07.2020
126 Clouds 22 1009 35 0 1.39 97 22:37 11.07.2020
127 Clouds 21 1009 41 0 1.5 88 22:18 11.07.2020
128 Clouds 21 1009 41 0 1.5 88 21:41 11.07.2020
129 Clouds 19 1010 45 0 1.67 77 21:23 11.07.2020
130 Clouds 19 1010 45 0 1.62 80 20:57 11.07.2020
131 Clouds 19 1010 45 0 1.62 80 20:39 11.07.2020
132 Clouds 18 1010 45 0 1.36 83 20:20 11.07.2020
133 Clouds 18 1010 45 0 1.36 83 19:58 11.07.2020
134 Clouds 18 1010 45 0 1.36 83 19:40 11.07.2020
135 Clouds 17 1010 44 0 1.17 77 19:21 11.07.2020
136 Clouds 17 1010 44 0 1.17 77 18:56 11.07.2020
137 Clouds 17 1010 44 0 1.17 77 18:37 11.07.2020
138 Clouds 17 1010 43 0 1.22 82 18:19 11.07.2020
139 Clouds 17 1010 43 0 1.22 82 17:42 11.07.2020
140 Clouds 18 1010 42 0 1.44 91 17:22 11.07.2020
141 Clouds 18 1010 42 0 1.44 91 16:59 11.07.2020
142 Clouds 18 1010 42 0 1.44 91 16:39 11.07.2020
143 Clouds 19 1010 40 0 1.89 102 16:20 11.07.2020
144 Clouds 19 1010 40 0 1.89 102 15:57 11.07.2020
145 Clouds 19 1010 40 0 1.89 102 15:37 11.07.2020
146 Clouds 21 1010 39 0 2.63 113 15:19 11.07.2020
147 Clouds 21 1010 39 0 2.63 113 14:47 11.07.2020
148 Clouds 23 1010 37 0 3.02 99 14:24 11.07.2020
149 Clouds 23 1010 37 0 3.02 99 13:58 11.07.2020
150 Clouds 23 1010 37 0 3.02 99 13:40 11.07.2020
151 Clouds 25 1011 33 0 2.68 105 13:21 11.07.2020
152 Clouds 25 1011 33 0 2.68 105 12:45 11.07.2020
153 Clouds 25 1011 33 0 2.68 105 12:45 11.07.2020
154 Clouds 26 1010 27 0 2.8 117 12:23 11.07.2020
155 Clouds 26 1010 27 0 2.8 117 12:23 11.07.2020
156 Clouds 26 1010 27 0 2.8 117 11:59 11.07.2020
157 Clouds 26 1010 27 0 2.8 117 11:41 11.07.2020
158 Clouds 27 1010 25 0 3.17 120 11:20 11.07.2020
159 Clouds 27 1010 25 0 3.17 120 10:55 11.07.2020
160 Clouds 27 1010 25 0 3.17 120 10:36 11.07.2020
161 Clouds 27 1010 25 0 3.75 125 10:18 11.07.2020
162 Clouds 27 1010 25 0 3.75 125 09:39 11.07.2020
163 Clouds 27 1010 23 0 2.75 75 09:19 11.07.2020
164 Clouds 27 1010 23 0 2.75 75 08:46 11.07.2020
165 Clouds 27 1010 23 0 2.4 85 08:27 11.07.2020
166 Clouds 27 1010 23 0 2.4 85 07:55 11.07.2020
167 Clouds 27 1010 23 0 2.4 85 07:36 11.07.2020
168 Clouds 27 1010 23 0 2.46 94 07:18 11.07.2020
169 Clouds 27 1011 24 0 2.54 97 06:26 11.07.2020
170 Clouds 27 1011 24 0 2.54 97 05:54 11.07.2020
171 Clouds 27 1011 24 0 2.54 97 05:54 11.07.2020
172 Clouds 26 1011 26 0 2.18 106 05:19 11.07.2020
173 Clouds 26 1011 26 0 2.18 106 04:50 11.07.2020
174 Clouds 26 1011 27 0 1.85 119 04:20 11.07.2020
175 Clouds 26 1011 27 0 1.85 119 04:20 11.07.2020
176 Clouds 26 1011 27 0 1.85 119 04:20 11.07.2020
177 Clouds 25 1012 30 0 1.7 126 02:55 11.07.2020
178 Clouds 24 1012 33 0 1.89 120 02:27 11.07.2020
179 Clouds 23 1012 36 0 1.48 114 01:25 11.07.2020
180 Clouds 23 1012 36 0 1.48 114 00:58 11.07.2020
181 Clouds 23 1012 36 0 1.48 114 00:38 11.07.2020
182 Clouds 22 1012 39 0 1.46 105 00:19 11.07.2020
183 Clouds 22 1012 39 0 1.46 105 23:46 10.07.2020
184 Clear 21 1012 42 0 1.37 95 23:27 10.07.2020
185 Clear 21 1012 42 0 1.37 95 22:59 10.07.2020
186 Clear 21 1012 42 0 1.37 95 22:41 10.07.2020
187 Clear 19 1012 47 0 1.18 88 22:19 10.07.2020
188 Clear 19 1012 47 0 1.18 88 21:40 10.07.2020
189 Clear 17 1013 57 0 0.9 93 21:21 10.07.2020
190 Clear 17 1013 57 0 0.9 93 20:59 10.07.2020
191 Clear 17 1013 57 0 0.9 93 20:40 10.07.2020
192 Clear 15 1012 58 0 1.05 88 20:21 10.07.2020
193 Clear 15 1012 58 0 1.05 88 19:57 10.07.2020
194 Clear 15 1012 58 0 1.05 88 19:39 10.07.2020
195 Clear 14 1012 63 0 1.04 84 19:19 10.07.2020
196 Clear 14 1012 63 0 1.04 84 18:41 10.07.2020
197 Clear 14 1012 62 0 1.23 98 18:20 10.07.2020
198 Clear 14 1012 62 0 1.23 98 17:57 10.07.2020
199 Clear 14 1012 62 0 1.23 98 17:39 10.07.2020
200 Clear 15 1011 60 0 1.35 102 17:20 10.07.2020
201 Clear 15 1011 60 0 1.35 102 16:43 10.07.2020
202 Clear 16 1011 58 0 1.65 118 16:21 10.07.2020
203 Clear 16 1011 58 0 1.65 118 15:48 10.07.2020
204 Clear 18 1011 49 0 2.67 117 15:26 10.07.2020
205 Clear 18 1011 49 0 2.67 117 14:59 10.07.2020
206 Clear 18 1011 49 0 2.67 117 14:40 10.07.2020
207 Clouds 21 1010 44 0 3.37 107 14:20 10.07.2020
208 Clouds 21 1010 44 0 3.37 107 13:58 10.07.2020
209 Clouds 21 1010 44 0 3.37 107 13:38 10.07.2020
210 Clouds 22 1011 39 0 3.69 102 13:20 10.07.2020
211 Clouds 22 1011 39 0 3.69 102 12:56 10.07.2020
212 Clouds 22 1011 39 0 3.69 102 12:37 10.07.2020
213 Clouds 23 1010 37 0 3.77 100 12:19 10.07.2020
214 Clouds 23 1010 37 0 3.77 100 11:42 10.07.2020
215 Clouds 24 1010 35 0 2.45 96 11:21 10.07.2020
216 Clouds 24 1010 35 0 2.45 96 10:58 10.07.2020
217 Clouds 24 1010 35 0 2.45 96 10:39 10.07.2020
218 Clouds 25 1009 28 0 0.99 87 10:20 10.07.2020
219 Clouds 25 1009 28 0 0.99 87 09:41 10.07.2020
220 Clouds 24 1010 31 0 1.71 78 09:23 10.07.2020
221 Clouds 24 1010 31 0 1.71 78 08:59 10.07.2020
222 Clouds 24 1010 31 0 1.71 78 08:41 10.07.2020
223 Clouds 25 1010 30 0 0.89 94 08:23 10.07.2020
224 Clouds 25 1010 30 0 0.89 94 08:23 10.07.2020
225 Clouds 25 1010 30 0 0.89 94 07:47 10.07.2020
226 Clear 25 1010 32 0 1.03 114 07:24 10.07.2020
227 Clear 25 1010 32 0 1.03 114 06:58 10.07.2020
228 Clear 25 1010 32 0 1.03 114 06:40 10.07.2020
229 Clear 24 1010 34 0 1.58 118 05:40 10.07.2020
230 Clear 22 1010 38 0 2.95 108 03:55 10.07.2020
231 Clouds 21 1010 40 0 3.07 100 02:55 10.07.2020
232 Clouds 21 1010 40 0 3.07 100 02:35 10.07.2020
233 Clouds 19 1011 46 0 2.15 94 00:56 10.07.2020
234 Clouds 19 1011 46 0 2.15 94 00:38 10.07.2020
235 Clouds 18 1011 51 0 1.79 79 00:18 10.07.2020
236 Clouds 18 1011 51 0 1.79 79 23:38 09.07.2020
237 Clouds 16 1011 55 0 1.85 71 23:19 09.07.2020
238 Clouds 16 1011 55 0 1.85 71 22:57 09.07.2020
239 Clouds 16 1011 55 0 1.85 71 22:39 09.07.2020
240 Clouds 14 1011 62 0 1.47 79 22:20 09.07.2020
241 Clouds 14 1011 62 0 1.47 79 21:55 09.07.2020
242 Clouds 14 1011 68 0 1.63 80 21:36 09.07.2020
243 Clouds 13 1011 70 0 1.76 55 21:18 09.07.2020
244 Clouds 13 1011 70 0 1.76 55 20:42 09.07.2020
245 Rain 13 1011 69 0 1.81 36 20:24 09.07.2020
246 Rain 13 1011 69 0 1.81 36 19:56 09.07.2020
247 Rain 13 1011 69 0 1.81 36 19:38 09.07.2020
248 Clouds 13 1010 69 0 1.57 50 19:19 09.07.2020
249 Clouds 13 1010 69 0 1.57 50 18:41 09.07.2020
250 Clouds 14 1010 64 0 2.07 77 18:20 09.07.2020
251 Clouds 14 1010 64 0 2.07 77 17:55 09.07.2020
252 Clouds 14 1010 64 0 2.07 77 17:37 09.07.2020
253 Clouds 14 1010 64 0 2.14 70 17:18 09.07.2020
254 Clouds 14 1010 64 0 2.14 70 16:54 09.07.2020
255 Clouds 14 1010 64 0 2.14 70 16:36 09.07.2020
256 Clouds 13 1010 67 0 2.64 61 16:18 09.07.2020
257 Clouds 13 1010 67 0 2.64 61 15:45 09.07.2020
258 Clouds 13 1010 67 0 2.64 61 15:45 09.07.2020
259 Clear 14 1009 64 0 2.55 55 15:27 09.07.2020
260 Clear 14 1009 64 0 2.55 55 14:59 09.07.2020
261 Clear 14 1009 64 0 2.55 55 14:40 09.07.2020
262 Clear 16 1009 58 0 2.99 52 14:22 09.07.2020
263 Clear 16 1009 58 0 2.99 52 13:58 09.07.2020
264 Clear 16 1009 58 0 2.99 52 13:39 09.07.2020
265 Clouds 18 1009 50 0 3.06 56 13:20 09.07.2020
266 Clouds 18 1009 50 0 3.06 56 12:56 09.07.2020
267 Clouds 18 1009 50 0 3.06 56 12:38 09.07.2020
268 Clouds 19 1008 46 0 2.91 58 12:19 09.07.2020
269 Clouds 19 1008 46 0 2.91 58 11:43 09.07.2020
270 Clouds 19 1008 45 0 2.29 55 11:24 09.07.2020
271 Clouds 19 1008 45 0 2.29 55 10:58 09.07.2020
272 Clouds 19 1008 45 0 2.29 55 10:40 09.07.2020
273 Clouds 19 1008 45 0 2.29 55 10:40 09.07.2020
274 Clouds 19 1007 47 0 1.6 42 10:22 09.07.2020
275 Clouds 19 1007 47 0 1.6 42 09:58 09.07.2020
276 Clouds 19 1007 47 0 1.6 42 09:39 09.07.2020
277 Clear 19 1008 46 0 1.56 1 09:21 09.07.2020
278 Clear 19 1008 46 0 1.56 1 08:43 09.07.2020
279 Clouds 18 1008 50 0 1.37 347 08:24 09.07.2020
280 Clouds 18 1008 50 0 1.37 347 07:47 09.07.2020
281 Clouds 16 1008 59 0 1.64 349 07:22 09.07.2020
282 Clouds 16 1008 59 0 1.64 349 06:50 09.07.2020
283 Clouds 15 1008 65 0 1.87 345 06:19 09.07.2020
284 Clouds 13 1009 72 0 1.33 69 04:29 09.07.2020
285 Clouds 13 1009 72 0 1.33 69 03:48 09.07.2020
286 Clouds 13 1009 76 0 1.33 57 02:20 09.07.2020
287 Clouds 13 1009 76 0 1.33 57 01:37 09.07.2020
288 Clouds 12 1009 79 0 0.98 38 00:49 09.07.2020
289 Rain 11 1009 83 0 0.66 49 00:24 09.07.2020
290 Rain 11 1009 83 0 0.66 49 23:46 08.07.2020
291 Clouds 11 1009 84 0 1.2 26 23:28 08.07.2020
292 Clouds 11 1009 84 0 1.2 26 22:58 08.07.2020
293 Clouds 11 1009 84 0 1.2 26 22:40 08.07.2020
294 Rain 10 1009 87 0 0.92 30 22:22 08.07.2020
295 Rain 10 1009 87 0 0.92 30 21:58 08.07.2020
296 Rain 10 1009 87 0 0.92 30 21:39 08.07.2020
297 Clouds 10 1010 86 0 0.84 321 21:20 08.07.2020
298 Clouds 10 1010 86 0 0.84 321 20:55 08.07.2020
299 Clouds 10 1010 86 0 0.84 321 20:37 08.07.2020
300 Clouds 9 1010 88 0 0.67 341 20:19 08.07.2020
301 Clouds 9 1010 88 0 0.67 341 19:43 08.07.2020
302 Clouds 9 1009 88 0 0.99 26 19:23 08.07.2020
303 Clouds 9 1009 88 0 0.99 26 18:57 08.07.2020
304 Clouds 9 1009 88 0 0.99 26 18:39 08.07.2020
305 Clouds 9 1009 88 0 1.42 19 18:20 08.07.2020
306 Clouds 9 1009 88 0 1.42 19 17:56 08.07.2020
307 Clouds 9 1009 88 0 1.42 19 17:37 08.07.2020
308 Clouds 9 1010 88 0 1.49 6 17:19 08.07.2020
309 Clouds 9 1010 88 0 1.49 6 16:43 08.07.2020
310 Clouds 9 1009 88 0 1.63 7 16:24 08.07.2020
311 Clouds 9 1009 88 0 1.63 7 15:59 08.07.2020
312 Clouds 9 1009 88 0 1.63 7 15:41 08.07.2020
313 Clouds 10 1009 86 0 1.54 13 15:20 08.07.2020
314 Clouds 10 1009 86 0 1.54 13 14:58 08.07.2020
315 Clouds 10 1009 86 0 1.54 13 14:40 08.07.2020
316 Clouds 10 1009 82 0 1.55 31 14:19 08.07.2020
317 Clouds 10 1009 82 0 1.55 31 13:44 08.07.2020
318 Clouds 11 1009 79 0 2.01 25 13:26 08.07.2020
319 Clouds 11 1009 79 0 2.01 25 12:46 08.07.2020
320 Clouds 11 1009 80 0 2.02 30 12:22 08.07.2020
321 Clouds 11 1009 80 0 2.02 30 11:59 08.07.2020
322 Clouds 11 1009 80 0 2.02 30 11:38 08.07.2020
323 Clouds 11 1009 80 0 2.02 30 11:38 08.07.2020
324 Clouds 11 1008 82 0 1.9 38 11:20 08.07.2020
325 Clouds 11 1008 82 0 1.9 38 10:55 08.07.2020
326 Clouds 11 1008 82 0 1.9 38 10:36 08.07.2020
327 Clouds 11 1008 83 0 1.86 48 10:18 08.07.2020
328 Clouds 11 1008 83 0 1.86 48 09:41 08.07.2020
329 Clouds 12 1008 81 0 1.83 38 09:21 08.07.2020
330 Clouds 13 1008 69 0 2.19 46 08:43 08.07.2020
331 Clouds 12 1008 73 0 2.17 52 08:24 08.07.2020
332 Clouds 12 1008 73 0 2.17 52 07:47 08.07.2020
333 Rain 13 1008 72 0 2.86 33 07:24 08.07.2020
334 Rain 13 1008 72 0 2.86 33 06:55 08.07.2020
335 Rain 13 1008 72 0 2.86 33 06:36 08.07.2020
336 Clouds 13 1008 68 0 2.07 11 05:55 08.07.2020
337 Clouds 13 1008 68 0 2.07 11 05:33 08.07.2020
338 Clouds 12 1008 72 0 1.61 8 04:36 08.07.2020
339 Rain 12 1008 75 0 1.8 24 02:48 08.07.2020
340 Clouds 15 1008 56 0 3.06 46 01:54 08.07.2020
341 Clouds 15 1008 56 0 3.06 46 01:32 08.07.2020
342 Clouds 14 1008 58 0 1.83 35 00:28 08.07.2020
343 Clouds 14 1008 58 0 1.83 35 23:59 07.07.2020
344 Clouds 14 1008 58 0 1.83 35 23:41 07.07.2020
345 Clouds 14 1008 60 0 1.22 48 23:19 07.07.2020
346 Clouds 14 1008 60 0 1.22 48 22:44 07.07.2020
347 Clouds 13 1008 64 0 1.35 43 22:24 07.07.2020
348 Clouds 13 1008 64 0 1.35 43 21:59 07.07.2020
349 Clouds 13 1008 64 0 1.35 43 21:41 07.07.2020
350 Clouds 13 1008 69 0 1.56 29 21:21 07.07.2020
351 Clouds 12 1008 70 0 1.94 18 20:57 07.07.2020
352 Clouds 12 1008 70 0 1.94 18 20:39 07.07.2020
353 Clouds 12 1008 70 0 1.94 18 20:39 07.07.2020
354 Clouds 11 1008 76 0 1.8 18 20:21 07.07.2020
355 Clouds 11 1008 76 0 1.8 18 19:43 07.07.2020
356 Clouds 10 1008 77 0 2 17 19:22 07.07.2020
357 Clouds 10 1008 77 0 2 17 18:59 07.07.2020
358 Clouds 10 1008 77 0 2 17 18:41 07.07.2020
359 Clouds 11 1008 74 0 2.37 22 18:23 07.07.2020
360 Clouds 11 1008 74 0 2.37 22 17:59 07.07.2020
361 Clouds 11 1008 74 0 2.37 22 17:40 07.07.2020
362 Clouds 11 1008 69 0 2.14 24 17:22 07.07.2020
363 Clouds 11 1008 69 0 2.14 24 16:58 07.07.2020
364 Clouds 11 1008 69 0 2.14 24 16:40 07.07.2020
365 Clear 12 1007 63 0 1.85 25 16:21 07.07.2020
366 Clear 12 1007 63 0 1.85 25 15:54 07.07.2020
367 Clear 12 1007 63 0 1.85 25 15:36 07.07.2020
368 Clouds 14 1007 54 0 1.32 45 15:18 07.07.2020
369 Clouds 14 1007 54 0 1.32 45 14:42 07.07.2020
370 Clouds 17 1007 45 0 3.24 39 14:22 07.07.2020
371 Clouds 17 1007 45 0 3.24 39 13:40 07.07.2020
372 Clouds 19 1007 39 0 3.53 32 13:19 07.07.2020
373 Clouds 19 1007 39 0 3.53 32 12:43 07.07.2020
374 Clouds 20 1007 32 0 4.22 18 12:25 07.07.2020
375 Clouds 20 1007 32 0 4.22 18 11:58 07.07.2020
376 Clouds 20 1007 32 0 4.22 18 11:40 07.07.2020
377 Clouds 21 1007 30 0 4.32 11 11:20 07.07.2020
378 Clouds 21 1007 30 0 4.32 11 10:57 07.07.2020
379 Clouds 21 1007 30 0 4.32 11 10:38 07.07.2020
380 Clouds 21 1007 28 0 4.08 2 10:19 07.07.2020
381 Clouds 20 1006 32 0 4 28 09:41 07.07.2020
382 Clouds 21 1007 27 0 3.49 355 09:21 07.07.2020
383 Clouds 20 1007 32 0 3.36 24 08:42 07.07.2020
384 Clouds 20 1007 33 0 2.77 30 08:24 07.07.2020
385 Clouds 20 1007 33 0 2.77 30 07:49 07.07.2020
386 Clouds 19 1006 36 0 3.19 40 07:27 07.07.2020
387 Clouds 19 1006 36 0 3.19 40 06:50 07.07.2020
388 Clouds 19 1006 36 0 3.19 40 06:32 07.07.2020
389 Clouds 19 1007 36 0 3.58 34 05:58 07.07.2020
390 Clear 20 1007 35 0 3.11 27 05:24 07.07.2020
391 Clear 20 1007 35 0 3.11 27 04:43 07.07.2020
392 Clear 19 1008 36 0 2.69 21 03:42 07.07.2020
393 Clear 18 1008 38 0 2.83 24 02:57 07.07.2020
394 Clear 18 1008 42 0 2.92 28 01:34 07.07.2020
395 Clear 17 1008 46 0 2.79 26 00:59 07.07.2020
396 Clear 17 1008 46 0 2.79 26 00:40 07.07.2020
397 Clear 16 1008 48 0 2.37 12 00:20 07.07.2020
398 Clear 16 1008 48 0 2.37 12 23:43 06.07.2020
399 Clear 14 1008 51 0 1.73 351 23:25 06.07.2020
400 Clear 14 1008 51 0 1.73 351 22:57 06.07.2020
401 Clear 14 1008 51 0 1.73 351 22:38 06.07.2020
402 Clear 13 1008 56 0 1.31 339 22:18 06.07.2020
403 Clear 13 1008 56 0 1.31 339 21:56 06.07.2020
404 Clear 13 1008 51 0 1.05 353 21:36 06.07.2020
405 Clouds 11 1008 60 0 1.21 4 21:18 06.07.2020
406 Clear 11 1008 65 0 1.27 347 21:18 06.07.2020
407 Clouds 11 1008 60 0 1.21 4 20:40 06.07.2020
408 Clouds 9 1008 65 0 1.13 6 20:21 06.07.2020
409 Clouds 9 1008 65 0 1.13 6 19:59 06.07.2020
410 Clouds 9 1008 65 0 1.13 6 19:40 06.07.2020
411 Clouds 9 1008 65 0 1.13 6 19:40 06.07.2020
412 Clouds 8 1008 68 0 0.87 18 19:22 06.07.2020
413 Clouds 8 1008 68 0 0.87 18 18:58 06.07.2020
414 Clouds 8 1008 68 0 0.87 18 18:40 06.07.2020
415 Clouds 8 1007 67 0 0.77 42 18:22 06.07.2020
416 Clouds 8 1007 67 0 0.77 42 17:54 06.07.2020
417 Clouds 8 1007 67 0 0.77 42 17:36 06.07.2020
418 Clouds 8 1007 66 0 0.88 62 17:18 06.07.2020
419 Clouds 8 1007 66 0 0.88 62 16:42 06.07.2020
420 Clouds 9 1007 63 0 1 66 16:22 06.07.2020
421 Clouds 9 1007 63 0 1 66 15:45 06.07.2020
422 Clouds 11 1007 55 0 0.85 56 15:27 06.07.2020
423 Clouds 11 1007 55 0 0.85 56 14:58 06.07.2020
424 Clouds 11 1007 55 0 0.85 56 14:40 06.07.2020
425 Clear 14 1006 49 0 1.39 40 14:22 06.07.2020
426 Clear 14 1006 49 0 1.39 40 13:59 06.07.2020
427 Clear 14 1006 49 0 1.39 40 13:40 06.07.2020
428 Clear 16 1006 39 0 1.26 36 13:20 06.07.2020
429 Clear 16 1006 39 0 1.26 36 12:44 06.07.2020
430 Clear 16 1005 34 0 1.04 33 12:20 06.07.2020
431 Clear 16 1005 34 0 1.04 33 11:58 06.07.2020
432 Clear 16 1005 34 0 1.04 33 11:40 06.07.2020
433 Clear 17 1005 33 0 0.77 19 11:22 06.07.2020
434 Clear 17 1005 33 0 0.77 19 10:58 06.07.2020
435 Clear 17 1005 33 0 0.77 19 10:39 06.07.2020
436 Clouds 17 1005 33 0 0.5 359 10:18 06.07.2020
437 Clouds 17 1005 33 0 0.5 359 09:45 06.07.2020
438 Clouds 15 1006 41 0 1.27 78 09:22 06.07.2020
439 Clouds 15 1006 41 0 1.27 78 08:59 06.07.2020
440 Clouds 15 1006 41 0 1.27 78 08:40 06.07.2020
441 Clouds 15 1006 41 0 0.74 84 08:20 06.07.2020
442 Clouds 15 1006 41 0 0.74 84 07:47 06.07.2020
443 Clouds 15 1006 42 0 0.43 96 07:29 06.07.2020
444 Clouds 15 1006 42 0 0.43 96 06:49 06.07.2020
445 Clouds 15 1006 42 0 0.43 96 06:31 06.07.2020
446 Clouds 14 1006 43 0 0.43 134 05:47 06.07.2020
447 Clouds 14 1007 45 0 0.61 133 05:26 06.07.2020
448 Clouds 13 1007 47 0 0.47 112 03:53 06.07.2020
449 Clear 10 1007 55 0 0.58 321 02:29 06.07.2020
450 Clouds 11 1007 56 0 0.85 303 01:45 06.07.2020
451 Clouds 9 1007 62 0 1.39 311 00:49 06.07.2020
452 Clouds 8 1008 68 0 0.93 331 00:23 06.07.2020
453 Clouds 8 1008 68 0 0.93 331 23:56 05.07.2020
454 Clouds 8 1008 68 0 0.93 331 23:38 05.07.2020
455 Clouds 7 1008 74 0 0.69 321 23:19 05.07.2020
456 Clouds 7 1008 74 0 0.69 321 22:41 05.07.2020
457 Clouds 7 1008 74 0 0.69 321 22:41 05.07.2020
458 Clouds 6 1008 78 0 0.71 310 22:21 05.07.2020
459 Clouds 6 1008 78 0 0.71 310 21:58 05.07.2020
460 Clouds 6 1008 78 0 0.71 310 21:40 05.07.2020
461 Clouds 5 1008 82 0 0.68 297 21:19 05.07.2020
462 Clouds 5 1007 82 0 0.99 324 20:59 05.07.2020
463 Clouds 5 1007 82 0 0.99 324 20:40 05.07.2020
464 Clouds 4 1007 88 0 0.58 355 20:22 05.07.2020
465 Clouds 4 1007 88 0 0.58 355 19:57 05.07.2020
466 Clouds 4 1007 88 0 0.58 355 19:38 05.07.2020
467 Clouds 3 1007 88 0 0.84 313 19:19 05.07.2020
468 Clouds 3 1007 88 0 0.84 313 18:42 05.07.2020
469 Clouds 2 1007 88 0 0.29 312 18:23 05.07.2020
470 Clouds 2 1007 88 0 0.29 312 17:58 05.07.2020
471 Clouds 2 1007 88 0 0.29 312 17:39 05.07.2020
472 Clouds 3 1007 87 0 0.24 249 17:19 05.07.2020
473 Clouds 3 1007 87 0 0.24 249 16:44 05.07.2020
474 Clouds 5 1007 86 0 0.55 259 16:25 05.07.2020
475 Clouds 5 1007 86 0 0.55 259 15:58 05.07.2020
476 Clouds 5 1007 86 0 0.55 259 15:38 05.07.2020
477 Clouds 6 1007 81 0 0.79 236 15:19 05.07.2020
478 Clouds 6 1007 81 0 0.79 236 14:42 05.07.2020
479 Clouds 7 1007 78 0 0.7 176 14:23 05.07.2020
480 Clouds 7 1006 78 0 0.29 9 13:58 05.07.2020
481 Clouds 7 1006 78 0 0.29 9 13:39 05.07.2020
482 Clouds 7 1006 77 0 0.51 286 13:19 05.07.2020
483 Clouds 7 1006 77 0 0.51 286 12:40 05.07.2020
484 Clouds 6 1006 79 0 0.85 282 12:20 05.07.2020
485 Clouds 6 1006 79 0 0.85 282 11:55 05.07.2020
486 Clouds 6 1006 79 0 0.85 282 11:37 05.07.2020
487 Clouds 6 1006 81 0 0.88 296 11:18 05.07.2020
488 Clouds 6 1006 81 0 0.88 296 10:42 05.07.2020
489 Clouds 6 1006 85 0 0.78 304 10:21 05.07.2020
490 Clouds 6 1006 85 0 0.78 304 09:59 05.07.2020
491 Clouds 6 1006 85 0 0.78 304 09:41 05.07.2020
492 Rain 7 1005 82 0 0.85 288 09:20 05.07.2020
493 Rain 7 1005 82 0 0.85 288 08:55 05.07.2020
494 Rain 7 1005 82 0 0.85 288 08:37 05.07.2020
495 Rain 6 1006 83 0 1.02 315 07:59 05.07.2020
496 Rain 6 1006 83 0 1.02 315 07:33 05.07.2020
497 Rain 6 1005 84 0 1.45 355 06:58 05.07.2020
498 Rain 6 1005 84 0 1.45 355 06:30 05.07.2020
499 Rain 6 1005 87 0 2.18 344 04:24 05.07.2020
500 Rain 6 1005 86 0 2.35 328 02:59 05.07.2020
501 Rain 6 1005 86 0 2.35 328 02:37 05.07.2020
502 Rain 7 1004 85 0 2.74 313 01:59 05.07.2020
503 Rain 7 1005 82 0 2.61 307 01:28 05.07.2020
504 Rain 7 1005 82 0 2.61 307 00:52 05.07.2020
505 Rain 7 1005 82 0 2.61 307 00:31 05.07.2020
506 Rain 7 1005 76 0 2.34 304 23:57 04.07.2020
507 Rain 7 1005 76 0 2.34 304 23:38 04.07.2020
508 Clouds 7 1006 70 0 2.44 310 23:20 04.07.2020
509 Clouds 7 1006 70 0 2.44 310 22:42 04.07.2020
510 Clouds 7 1006 66 0 3.26 328 22:24 04.07.2020
511 Clouds 7 1006 66 0 3.26 328 21:58 04.07.2020
512 Clouds 7 1006 66 0 3.26 328 21:40 04.07.2020
513 Clouds 7 1006 68 0 3.97 339 21:22 04.07.2020
514 Clouds 7 1006 68 0 3.97 339 20:43 04.07.2020
515 Clouds 7 1007 68 0 4.05 343 20:22 04.07.2020
516 Clouds 7 1007 68 0 4.05 343 19:59 04.07.2020
517 Clouds 7 1007 68 0 4.05 343 19:41 04.07.2020
518 Clouds 7 1007 70 0 4.96 352 19:21 04.07.2020
519 Clouds 7 1007 70 0 4.96 352 18:46 04.07.2020
520 Clouds 7 1007 69 0 5.38 356 18:24 04.07.2020
521 Clouds 7 1007 69 0 5.38 356 17:59 04.07.2020
522 Clouds 7 1007 69 0 5.38 356 17:41 04.07.2020
523 Clouds 7 1007 69 0 5.81 359 17:22 04.07.2020
524 Clouds 7 1007 69 0 5.81 359 16:56 04.07.2020
525 Clouds 7 1007 69 0 5.81 359 16:37 04.07.2020
526 Clouds 7 1007 67 0 6.86 1 16:18 04.07.2020
527 Clouds 7 1007 67 0 6.86 1 15:42 04.07.2020
528 Clouds 9 1006 62 0 8.03 2 15:24 04.07.2020
529 Clouds 9 1006 62 0 8.03 2 14:58 04.07.2020
530 Clouds 9 1006 62 0 8.03 2 14:37 04.07.2020
531 Clouds 10 1006 57 0 9.32 4 14:18 04.07.2020
532 Clouds 10 1006 55 0 8.85 5 13:56 04.07.2020
533 Clouds 10 1006 55 0 8.85 5 13:36 04.07.2020
534 Clouds 11 1005 50 0 10.12 5 13:18 04.07.2020
535 Clouds 11 1005 50 0 10.12 5 12:40 04.07.2020
536 Clouds 12 1005 47 0 10.4 4 12:20 04.07.2020
537 Clouds 12 1005 47 0 10.4 4 11:45 04.07.2020
538 Clouds 13 1005 46 0 10.34 5 11:25 04.07.2020
539 Clouds 13 1005 46 0 10.34 5 10:59 04.07.2020
540 Clouds 13 1005 46 0 10.34 5 10:39 04.07.2020
541 Clouds 14 1004 44 0 10.47 10 10:20 04.07.2020
542 Clouds 14 1004 44 0 10.47 10 09:55 04.07.2020
543 Clouds 14 1004 44 0 10.55 6 09:36 04.07.2020
544 Clouds 13 1004 46 0 9.92 10 09:18 04.07.2020
545 Clouds 14 1004 45 0 10.15 10 08:45 04.07.2020
546 Clouds 13 1004 47 0 10.03 13 08:26 04.07.2020
547 Clouds 13 1004 47 0 10.03 13 07:43 04.07.2020
548 Clouds 14 1004 48 0 9.92 11 07:25 04.07.2020
549 Clouds 14 1004 48 0 9.92 11 06:48 04.07.2020
550 Clouds 14 1004 48 0 10.22 10 06:20 04.07.2020
551 Clouds 14 1004 48 0 10.22 10 05:32 04.07.2020
552 Clouds 14 1004 50 0 9.82 12 04:31 04.07.2020
553 Clouds 11 1004 61 0 8.98 12 02:49 04.07.2020
554 Clouds 10 1004 65 0 8.58 14 01:54 04.07.2020
555 Clouds 10 1004 66 0 8.52 13 01:24 04.07.2020
556 Clouds 10 1004 66 0 8.52 13 00:40 04.07.2020
557 Clouds 10 1004 68 0 8.57 13 00:21 04.07.2020
558 Clouds 10 1004 68 0 8.57 13 23:40 03.07.2020
559 Clouds 10 1004 69 0 8.96 13 23:19 03.07.2020
560 Clouds 10 1004 69 0 8.96 13 22:55 03.07.2020
561 Clouds 10 1004 69 0 8.96 13 22:37 03.07.2020
562 Clouds 10 1004 71 0 8.97 12 22:18 03.07.2020
563 Clouds 10 1004 71 0 8.97 12 21:40 03.07.2020
564 Clouds 10 1004 68 0 9.46 10 21:20 03.07.2020
565 Clouds 10 1004 68 0 9.46 10 20:55 03.07.2020
566 Clouds 10 1004 68 0 9.46 10 20:37 03.07.2020
567 Clouds 10 1004 66 0 9.59 12 20:18 03.07.2020
568 Clouds 10 1004 66 0 9.59 12 19:41 03.07.2020
569 Clouds 11 1004 62 0 9.97 15 19:19 03.07.2020
570 Clouds 11 1004 62 0 9.97 15 18:56 03.07.2020
571 Clouds 11 1004 62 0 9.97 15 18:38 03.07.2020
572 Clouds 12 1004 59 0 9.96 17 18:19 03.07.2020
573 Clouds 12 1004 59 0 9.96 17 17:42 03.07.2020
574 Clouds 12 1003 56 0 9.87 18 17:22 03.07.2020
575 Clouds 12 1003 56 0 9.87 18 16:46 03.07.2020
576 Clouds 12 1003 53 0 10.42 16 16:27 03.07.2020
577 Clouds 12 1003 53 0 10.42 16 15:48 03.07.2020
578 Clouds 12 1002 51 0 11.37 19 15:26 03.07.2020
579 Clouds 12 1002 51 0 11.37 19 14:59 03.07.2020
580 Clouds 12 1002 51 0 11.37 19 14:41 03.07.2020
581 Clouds 13 1001 49 0 11.51 20 14:22 03.07.2020
582 Clouds 13 1001 49 0 11.51 20 13:56 03.07.2020
583 Clouds 13 1001 49 0 11.51 20 13:37 03.07.2020
584 Clouds 15 1000 45 0 11.54 21 13:19 03.07.2020
585 Clouds 15 1000 45 0 11.54 21 12:40 03.07.2020
586 Clouds 17 999 37 0 11.63 21 12:21 03.07.2020
587 Clouds 17 999 37 0 11.63 21 11:44 03.07.2020
588 Clouds 19 999 32 0 10.76 17 11:25 03.07.2020
589 Clouds 19 999 32 0 10.76 17 10:59 03.07.2020
590 Clouds 19 999 32 0 10.76 17 10:41 03.07.2020
591 Clouds 21 998 30 0 10.45 20 10:21 03.07.2020
592 Clouds 21 998 30 0 10.45 20 09:58 03.07.2020
593 Clouds 21 998 30 0 10.45 20 09:38 03.07.2020
594 Clouds 21 998 28 0 10.56 21 09:19 03.07.2020
595 Clouds 21 998 28 0 10.56 21 08:55 03.07.2020
596 Clouds 21 998 28 0 10.56 21 08:37 03.07.2020
597 Clear 22 997 26 0 9.92 22 08:18 03.07.2020
598 Clear 22 997 26 0 9.92 22 07:41 03.07.2020
599 Clear 23 998 24 0 8.49 25 07:21 03.07.2020
600 Clear 22 997 24 0 7.61 22 06:25 03.07.2020
601 Clear 22 998 28 0 6.3 23 05:28 03.07.2020
602 Clear 22 998 33 0 4.82 33 03:59 03.07.2020
603 Clear 21 998 37 0 4.24 37 02:52 03.07.2020
604 Clear 21 998 37 0 4.24 37 02:30 03.07.2020
605 Clouds 20 998 43 0 4.02 38 01:41 03.07.2020
606 Clouds 18 999 53 0 2.91 52 01:20 03.07.2020
607 Clouds 18 999 53 0 2.91 52 00:40 03.07.2020
608 Clouds 17 999 58 0 2.45 64 23:53 02.07.2020
609 Clouds 16 998 62 0 1.9 55 23:22 02.07.2020
610 Clouds 16 998 62 0 1.9 55 22:59 02.07.2020
611 Clouds 16 998 62 0 1.9 55 22:41 02.07.2020
612 Clouds 15 998 67 0 1.11 14 22:21 02.07.2020
613 Clouds 15 998 67 0 1.11 14 22:00 02.07.2020
614 Clouds 15 998 67 0 1.11 14 21:41 02.07.2020
615 Clouds 14 998 65 0 1.24 313 21:19 02.07.2020
616 Clouds 14 998 65 0 1.24 313 20:58 02.07.2020
617 Clouds 14 998 65 0 1.24 313 20:40 02.07.2020
618 Clouds 13 998 68 0 1.75 324 20:20 02.07.2020
619 Clouds 13 998 68 0 1.75 324 19:43 02.07.2020
620 Clouds 13 998 70 0 2.67 314 19:24 02.07.2020
621 Clouds 13 998 70 0 2.67 314 18:59 02.07.2020
622 Clouds 13 998 70 0 2.67 314 18:40 02.07.2020
623 Clouds 13 998 77 0 2.55 284 18:22 02.07.2020
624 Clouds 13 998 77 0 2.55 284 17:58 02.07.2020
625 Clouds 13 998 77 0 2.55 284 17:39 02.07.2020
626 Clouds 14 998 78 0 3.03 257 17:18 02.07.2020
627 Clouds 14 998 78 0 3.03 257 16:43 02.07.2020
628 Clouds 14 998 74 0 3.38 256 16:22 02.07.2020
629 Clouds 14 998 74 0 3.38 256 15:59 02.07.2020
630 Clouds 14 998 74 0 3.38 256 15:38 02.07.2020
631 Clouds 15 998 68 0 3.67 255 15:20 02.07.2020
632 Clouds 15 998 68 0 3.67 255 14:46 02.07.2020
633 Clouds 16 998 64 0 3.62 298 14:25 02.07.2020
634 Clouds 16 997 64 0 5.28 270 13:57 02.07.2020
635 Clouds 16 997 64 0 5.28 270 13:39 02.07.2020
636 Clouds 17 998 61 0 6.65 282 13:20 02.07.2020
637 Clouds 17 998 61 0 6.65 282 12:58 02.07.2020
638 Clouds 17 998 61 0 6.65 282 12:38 02.07.2020
639 Clouds 18 998 56 0 6.96 288 12:20 02.07.2020
640 Clouds 18 998 56 0 6.96 288 11:43 02.07.2020
641 Clouds 19 998 49 0 6.9 267 11:25 02.07.2020
642 Clouds 19 998 49 0 6.9 267 10:48 02.07.2020
643 Clouds 21 999 40 0 5.33 289 10:27 02.07.2020
644 Clouds 21 999 40 0 5.33 289 09:57 02.07.2020
645 Clouds 21 999 40 0 5.33 289 09:39 02.07.2020
646 Clouds 23 999 26 0 5.06 307 09:20 02.07.2020
647 Clouds 23 999 26 0 5.06 307 08:55 02.07.2020
648 Clouds 23 999 26 0 5.06 307 08:37 02.07.2020
649 Clouds 23 999 26 0 5 300 08:18 02.07.2020
650 Clouds 23 999 26 0 5 300 07:40 02.07.2020
651 Clouds 23 999 25 0 3.72 293 07:19 02.07.2020
652 Clouds 23 999 25 0 3.72 293 06:40 02.07.2020
653 Clouds 23 1000 23 0 2.72 303 06:20 02.07.2020
654 Clouds 23 1000 23 0 2.72 303 05:44 02.07.2020
655 Clouds 22 1001 23 0 1.7 345 04:21 02.07.2020
656 Clouds 22 1001 23 0 1.7 345 03:32 02.07.2020
657 Clouds 21 1003 30 0 2.61 31 01:23 02.07.2020
658 Clouds 20 1004 32 0 3.05 29 00:25 02.07.2020
659 Clouds 20 1004 32 0 3.05 29 23:51 01.07.2020
660 Clouds 20 1004 32 0 3.05 29 23:30 01.07.2020
661 Clouds 20 1004 35 0 2.15 11 22:57 01.07.2020
662 Clouds 20 1004 35 0 2.15 11 22:38 01.07.2020
663 Clouds 18 1004 40 0 1.62 353 22:20 01.07.2020
664 Clouds 18 1004 40 0 1.62 353 21:59 01.07.2020
665 Clouds 18 1004 40 0 1.62 353 21:41 01.07.2020
666 Clouds 17 1005 47 0 1.7 346 21:22 01.07.2020
667 Clouds 17 1005 43 0 1.63 333 20:59 01.07.2020
668 Clouds 17 1005 43 0 1.63 333 20:41 01.07.2020
669 Clouds 16 1005 44 0 1.81 334 20:23 01.07.2020
670 Clouds 16 1005 44 0 1.81 334 19:56 01.07.2020
671 Clouds 16 1005 44 0 1.81 334 19:38 01.07.2020
672 Clouds 15 1006 46 0 2.02 339 19:19 01.07.2020
673 Clouds 15 1006 46 0 2.02 339 18:42 01.07.2020
674 Clouds 15 1006 46 0 2.2 355 18:21 01.07.2020
675 Clouds 15 1006 46 0 2.2 355 17:59 01.07.2020
676 Clouds 15 1006 46 0 2.2 355 17:40 01.07.2020
677 Clouds 15 1007 46 0 2.6 9 17:19 01.07.2020
678 Clouds 15 1007 46 0 2.6 9 16:48 01.07.2020
679 Clouds 15 1007 46 0 2.6 9 16:48 01.07.2020
680 Clouds 16 1007 41 0 2.7 7 16:29 01.07.2020
681 Clouds 16 1007 41 0 2.7 7 15:58 01.07.2020
682 Clouds 16 1007 41 0 2.7 7 15:39 01.07.2020
683 Clear 18 1007 38 0 2.2 358 15:21 01.07.2020
684 Clear 18 1007 38 0 2.2 358 14:45 01.07.2020
685 Clouds 20 1008 35 0 2.46 359 14:22 01.07.2020
686 Clouds 20 1008 35 0 2.46 359 13:59 01.07.2020
687 Clouds 20 1008 35 0 2.46 359 13:39 01.07.2020
688 Clouds 23 1008 30 0 3.19 19 13:20 01.07.2020
689 Clouds 23 1008 30 0 3.19 19 12:58 01.07.2020
690 Clouds 23 1008 30 0 3.19 19 12:39 01.07.2020
691 Clouds 24 1008 24 0 4.48 28 12:20 01.07.2020
692 Clouds 24 1008 24 0 4.48 28 11:55 01.07.2020
693 Clouds 24 1008 24 0 4.48 28 11:37 01.07.2020
694 Clouds 25 1008 23 0 4.13 24 11:18 01.07.2020
695 Clouds 25 1008 23 0 4.13 24 10:41 01.07.2020
696 Clouds 25 1009 24 0 3.92 14 10:23 01.07.2020
697 Clouds 25 1009 24 0 3.92 14 09:59 01.07.2020
698 Clouds 25 1009 24 0 3.92 14 09:37 01.07.2020
699 Clouds 25 1009 26 0 3.67 11 09:19 01.07.2020
700 Clouds 26 1009 27 0 4.68 14 08:41 01.07.2020
701 Clouds 26 1009 28 0 4.1 15 08:23 01.07.2020
702 Clouds 26 1009 28 0 4.1 15 07:58 01.07.2020
703 Clouds 26 1009 28 0 4.1 15 07:39 01.07.2020
704 Clouds 26 1010 28 0 3.72 14 07:20 01.07.2020
705 Clouds 26 1010 28 0 3.72 14 06:50 01.07.2020
706 Clouds 26 1010 28 0 3.59 20 06:28 01.07.2020
707 Clouds 25 1011 28 0 3.53 33 04:56 01.07.2020
708 Clouds 25 1011 29 0 3.44 40 03:48 01.07.2020
709 Clear 24 1012 29 0 2.92 44 03:27 01.07.2020
710 Clear 24 1012 30 0 3.02 40 02:41 01.07.2020
711 Clouds 23 1012 30 0 2.41 46 01:47 01.07.2020
712 Clouds 22 1013 30 0 1.94 51 00:43 01.07.2020
713 Clouds 21 1013 31 0 1.37 46 00:24 01.07.2020
714 Clouds 21 1013 31 0 1.37 46 23:42 30.06.2020
715 Clouds 20 1013 36 0 1.23 49 23:22 30.06.2020
716 Clouds 20 1013 36 0 1.23 49 22:59 30.06.2020
717 Clouds 20 1013 36 0 1.23 49 22:40 30.06.2020
718 Clouds 19 1013 40 0 1.43 18 22:18 30.06.2020
719 Clouds 19 1013 40 0 1.43 18 21:41 30.06.2020
720 Clouds 18 1014 51 0 0.3 181 21:19 30.06.2020
721 Clouds 18 1014 51 0 0.3 181 20:54 30.06.2020
722 Clouds 18 1014 51 0 0.3 181 20:54 30.06.2020
723 Clouds 18 1014 51 0 0.3 181 20:36 30.06.2020
724 Clouds 18 1014 52 0 0.19 330 20:18 30.06.2020
725 Clouds 18 1014 52 0 0.19 330 19:41 30.06.2020
726 Clouds 18 1014 49 0 0.67 60 19:19 30.06.2020
727 Clouds 18 1014 49 0 0.67 60 18:43 30.06.2020
728 Clouds 18 1014 47 0 1.39 10 18:21 30.06.2020
729 Clouds 18 1014 47 0 1.39 10 17:59 30.06.2020
730 Clouds 18 1014 47 0 1.39 10 17:37 30.06.2020
731 Clouds 18 1014 49 0 1.38 18 17:19 30.06.2020
732 Clouds 18 1014 49 0 1.38 18 16:43 30.06.2020
733 Clouds 20 1014 44 0 2.57 53 16:24 30.06.2020
734 Clouds 20 1014 44 0 2.57 53 15:59 30.06.2020
735 Clouds 20 1014 44 0 2.57 53 15:40 30.06.2020
736 Clouds 20 1014 44 0 2.14 42 15:22 30.06.2020
737 Clouds 20 1014 44 0 2.14 42 14:56 30.06.2020
738 Clouds 20 1014 44 0 2.14 42 14:38 30.06.2020
739 Clear 21 1014 43 0 2.85 33 14:18 30.06.2020
740 Clear 21 1014 43 0 2.85 33 13:40 30.06.2020
741 Clear 23 1014 37 0 3.59 20 13:20 30.06.2020
742 Clear 23 1014 37 0 3.59 20 12:58 30.06.2020
743 Clear 23 1014 37 0 3.59 20 12:40 30.06.2020
744 Clear 23 1014 33 0 3.98 17 12:21 30.06.2020
745 Clear 23 1014 33 0 3.98 17 11:58 30.06.2020
746 Clear 23 1014 33 0 3.98 17 11:58 30.06.2020
747 Clear 23 1014 33 0 3.98 17 11:39 30.06.2020
748 Clear 23 1014 33 0 3.98 17 11:39 30.06.2020
749 Clear 24 1014 32 0 4.75 28 11:19 30.06.2020
750 Clear 24 1014 32 0 4.75 28 10:58 30.06.2020
751 Clear 24 1014 32 0 4.75 28 10:58 30.06.2020
752 Clouds 21 1010 53 0 2.78 24 16:40 28.06.2020
753 Clouds 22 1010 49 0 3.52 29 16:22 28.06.2020
754 Clouds 22 1010 49 0 3.52 29 15:56 28.06.2020
755 Clouds 22 1010 49 0 3.52 29 15:38 28.06.2020
756 Clouds 23 1009 47 0 3.64 34 15:18 28.06.2020
757 Clouds 23 1009 47 0 3.64 34 14:46 28.06.2020
758 Clouds 24 1008 48 0 1.9 41 14:27 28.06.2020
759 Clouds 22 1008 59 0 2.44 177 13:58 28.06.2020
760 Clouds 22 1008 59 0 2.44 177 13:37 28.06.2020
761 Clouds 22 1008 59 0 2.44 177 13:37 28.06.2020
762 Rain 24 1008 52 0 2.5 178 13:19 28.06.2020
763 Rain 24 1008 52 0 2.5 178 12:56 28.06.2020
764 Rain 24 1008 52 0 2.5 178 12:37 28.06.2020
765 Clouds 26 1008 40 0 1.37 275 12:18 28.06.2020
766 Clouds 26 1008 40 0 1.37 275 12:18 28.06.2020
767 Clouds 26 1008 40 0 1.37 275 11:56 28.06.2020
768 Clouds 26 1008 40 0 1.37 275 11:37 28.06.2020
769 Rain 27 1007 36 0 2.87 349 11:19 28.06.2020
770 Rain 27 1007 36 0 2.87 349 10:42 28.06.2020
771 Clouds 28 1007 33 0 5.25 1 10:23 28.06.2020
772 -273 0 0 0 0 0 09:59 28.06.2020
773 Clouds 28 1007 33 0 5.25 1 09:39 28.06.2020
774 Clouds 30 1006 28 0 4.68 3 09:20 28.06.2020
775 Clear 31 1006 24 0 1.42 356 08:46 28.06.2020
776 Clouds 31 1006 24 0 1.06 333 08:25 28.06.2020
777 Clouds 31 1006 24 0 1.06 333 07:47 28.06.2020
778 Clouds 30 1006 24 0 1.39 305 07:28 28.06.2020
779 Clouds 30 1006 24 0 1.39 305 06:41 28.06.2020
780 Clouds 30 1006 26 0 1.35 311 06:22 28.06.2020
781 Clouds 29 1006 32 0 1.73 356 05:26 28.06.2020
782 Clouds 27 1006 38 0 2.25 11 03:32 28.06.2020
783 Clouds 26 1006 42 0 2.85 13 02:39 28.06.2020
784 Clouds 28 1007 32 0 1.97 37 01:53 28.06.2020
785 Clouds 27 1007 35 0 1.56 45 01:26 28.06.2020
786 Clouds 27 1007 35 0 1.56 45 00:48 28.06.2020
787 Clouds 27 1007 36 0 1.19 40 00:24 28.06.2020
788 Clouds 27 1007 36 0 1.19 40 23:42 27.06.2020
789 Clouds 26 1007 39 0 0.64 24 23:23 27.06.2020
790 Clouds 26 1007 39 0 0.64 24 22:58 27.06.2020
791 Clouds 26 1007 39 0 0.64 24 22:40 27.06.2020
792 Clouds 25 1006 42 0 0.81 62 22:20 27.06.2020
793 Clouds 25 1006 42 0 0.81 62 21:55 27.06.2020
794 Clouds 24 1007 44 0 1.66 9 21:37 27.06.2020
795 Clouds 22 1006 49 0 1.96 1 21:19 27.06.2020
796 Clouds 22 1006 49 0 1.96 1 20:43 27.06.2020
797 Clouds 21 1006 48 0 2.6 0 20:19 27.06.2020
798 Clouds 21 1006 48 0 2.6 0 19:55 27.06.2020
799 Clouds 21 1006 48 0 2.6 0 19:36 27.06.2020
800 Clouds 21 1006 49 0 1.08 23 19:18 27.06.2020
801 Clouds 21 1006 49 0 1.08 23 19:18 27.06.2020
802 Clouds 21 1006 49 0 1.08 23 18:45 27.06.2020
803 Clouds 21 1006 48 0 0.97 91 18:25 27.06.2020
804 Clouds 21 1006 48 0 0.97 91 17:57 27.06.2020
805 Clouds 21 1006 48 0 0.97 91 17:38 27.06.2020
806 Clouds 21 1006 47 0 1.39 63 17:19 27.06.2020
807 Clouds 21 1006 47 0 1.39 63 16:46 27.06.2020
808 Clouds 23 1005 44 0 2.16 34 16:27 27.06.2020
809 Clouds 23 1005 44 0 2.16 34 15:59 27.06.2020
810 Clouds 23 1005 44 0 2.16 34 15:39 27.06.2020
811 Clouds 24 1005 40 0 2.41 24 15:21 27.06.2020
812 Clouds 24 1005 40 0 2.41 24 14:43 27.06.2020
813 Clouds 26 1005 36 0 1.97 43 14:24 27.06.2020
814 Clouds 26 1004 37 0 2.14 41 13:59 27.06.2020
815 Clouds 26 1004 37 0 2.14 41 13:38 27.06.2020
816 Clouds 28 1004 31 0 2.25 62 13:19 27.06.2020
817 Clouds 28 1004 31 0 2.25 62 12:57 27.06.2020
818 Clouds 28 1004 31 0 2.25 62 12:39 27.06.2020
819 Clouds 30 1004 24 0 2.72 71 12:21 27.06.2020
820 Clouds 30 1004 24 0 2.72 71 11:55 27.06.2020
821 Clouds 30 1004 24 0 2.72 71 11:36 27.06.2020
822 Clouds 31 1005 23 0 2.99 70 11:18 27.06.2020
823 Clouds 31 1005 23 0 2.99 70 10:38 27.06.2020
824 Clouds 30 1005 24 0 3.01 66 10:19 27.06.2020
825 Clouds 30 1005 24 0 3.01 66 09:41 27.06.2020
826 Clouds 30 1004 25 0 1.51 34 09:23 27.06.2020
827 Clouds 30 1004 25 0 1.51 34 08:59 27.06.2020
828 Clouds 30 1004 25 0 1.51 34 08:39 27.06.2020
829 Clouds 30 1004 24 0 1.36 44 08:21 27.06.2020
830 Clouds 30 1004 24 0 1.36 44 07:45 27.06.2020
831 Clear 30 1004 24 0 0.96 62 07:24 27.06.2020
832 Clear 30 1004 24 0 0.96 62 06:45 27.06.2020
833 Clear 30 1005 24 0 0.85 88 06:27 27.06.2020
834 Clear 29 1006 26 0 0.84 122 04:23 27.06.2020
835 Clear 29 1006 26 0 0.84 122 03:52 27.06.2020
836 Clear 29 1006 26 0 0.8 133 02:56 27.06.2020
837 Clear 29 1006 26 0 0.8 133 02:34 27.06.2020
838 Clear 28 1006 26 0 1.5 195 01:43 27.06.2020
839 Clear 27 1006 28 0 1.18 190 00:57 27.06.2020
840 Clear 27 1006 28 0 1.18 190 00:30 27.06.2020
841 Clear 26 1006 31 0 0.98 171 23:45 26.06.2020
842 Clear 25 1006 34 0 0.88 143 23:25 26.06.2020
843 Clear 25 1006 34 0 0.88 143 22:56 26.06.2020
844 Clear 25 1006 34 0 0.88 143 22:38 26.06.2020
845 Clear 24 1006 38 0 0.66 77 22:19 26.06.2020
846 Clear 24 1006 38 0 0.66 77 21:57 26.06.2020
847 Clear 24 1006 38 0 0.66 77 21:37 26.06.2020
848 Clear 22 1006 48 0 0.8 37 21:19 26.06.2020
849 Clouds 23 1007 46 0 0.4 54 20:43 26.06.2020
850 Clouds 22 1007 46 0 0.5 37 20:21 26.06.2020
851 Clouds 22 1007 46 0 0.5 37 19:47 26.06.2020
852 Clouds 21 1007 45 0 0.66 45 19:23 26.06.2020
853 Clouds 21 1007 45 0 0.66 45 18:57 26.06.2020
854 Clouds 21 1007 45 0 0.66 45 18:37 26.06.2020
855 Clouds 20 1006 44 0 0.94 54 18:19 26.06.2020
856 Clouds 20 1006 44 0 0.94 54 17:44 26.06.2020
857 Clouds 20 1006 43 0 1.02 55 17:24 26.06.2020
858 Clouds 20 1006 43 0 1.02 55 16:49 26.06.2020
859 Clouds 21 1007 43 0 1.13 69 16:27 26.06.2020
860 Clouds 21 1007 43 0 1.13 69 15:55 26.06.2020
861 Clouds 21 1007 43 0 1.13 69 15:37 26.06.2020
862 Clear 23 1006 40 0 1.79 73 15:19 26.06.2020
863 Clear 23 1006 40 0 1.79 73 14:57 26.06.2020
864 Clear 23 1006 40 0 1.79 73 14:38 26.06.2020
865 Clouds 25 1006 36 0 2.57 66 14:20 26.06.2020
866 Clouds 26 1006 37 0 2.94 13 13:44 26.06.2020
867 Clouds 28 1006 32 0 3.3 21 13:23 26.06.2020
868 Clouds 28 1006 32 0 3.3 21 12:55 26.06.2020
869 Clouds 28 1006 32 0 3.3 21 12:37 26.06.2020
870 Clouds 29 1006 29 0 3.38 34 12:18 26.06.2020
871 Clouds 29 1006 29 0 3.38 34 11:54 26.06.2020
872 Clouds 29 1006 29 0 3.38 34 11:36 26.06.2020
873 Clouds 29 1006 28 0 3.75 44 11:18 26.06.2020
874 Clouds 29 1006 28 0 3.75 44 11:18 26.06.2020
875 Clouds 29 1006 28 0 3.75 44 10:40 26.06.2020
876 Clouds 30 1005 26 0 3.93 37 10:20 26.06.2020
877 Clouds 30 1005 26 0 3.93 37 09:57 26.06.2020
878 Clouds 30 1005 26 0 3.93 37 09:38 26.06.2020
879 Clouds 29 1005 27 0 4.96 43 09:19 26.06.2020
880 Clouds 29 1005 27 0 4.96 43 08:45 26.06.2020
881 Clouds 30 1005 25 0 4.28 29 08:27 26.06.2020
882 Clouds 30 1005 25 0 4.28 29 07:48 26.06.2020
883 Clouds 31 1006 24 0 3.95 20 07:23 26.06.2020
884 Clouds 31 1006 24 0 3.95 20 06:49 26.06.2020
885 Clouds 31 1005 24 0 4.18 26 06:30 26.06.2020
886 Clear 31 1006 24 0 4.28 24 05:52 26.06.2020
887 Clouds 31 1006 24 0 4.49 30 05:18 26.06.2020
888 Clouds 30 1006 27 0 4.65 39 02:32 26.06.2020
889 Clouds 29 1006 29 0 5.58 45 01:34 26.06.2020
890 Clouds 28 1006 32 0 4.8 46 00:50 26.06.2020
891 Clouds 28 1006 32 0 4.8 46 00:30 26.06.2020
892 Clouds 27 1006 35 0 3.44 34 23:47 25.06.2020
893 Clouds 26 1006 35 0 3.04 358 23:22 25.06.2020
894 Clouds 26 1006 35 0 3.04 358 23:22 25.06.2020
895 Clouds 26 1006 35 0 3.04 358 22:58 25.06.2020
896 Clouds 26 1006 35 0 3.04 358 22:39 25.06.2020
897 Clouds 25 1006 36 0 2.03 335 22:20 25.06.2020
898 Clouds 25 1006 36 0 2.03 335 21:57 25.06.2020
899 Clouds 25 1006 36 0 2.03 335 21:39 25.06.2020
900 Clouds 24 1006 42 0 1.41 323 21:20 25.06.2020
901 Clouds 24 1006 42 0 1.41 323 20:57 25.06.2020
902 Clouds 24 1006 42 0 1.41 323 20:37 25.06.2020
903 Clouds 24 1006 40 0 0.48 305 20:19 25.06.2020
904 Clouds 24 1006 40 0 0.48 305 19:41 25.06.2020
905 Clouds 23 1006 36 0 1.26 300 19:20 25.06.2020
906 Clouds 23 1006 36 0 1.26 300 19:00 25.06.2020
907 Clouds 23 1006 36 0 1.26 300 18:59 25.06.2020
908 Clouds 23 1006 36 0 1.26 300 18:39 25.06.2020
909 Clouds 22 1006 36 0 0.96 267 18:20 25.06.2020
910 Clouds 22 1006 36 0 0.96 267 17:45 25.06.2020
911 Clouds 22 1006 36 0 0.53 206 17:20 25.06.2020
912 Clouds 22 1006 36 0 0.53 206 16:59 25.06.2020
913 Clouds 22 1006 36 0 0.53 206 16:38 25.06.2020
914 Clear 23 1006 36 0 0.67 152 16:19 25.06.2020
915 Clear 23 1006 36 0 0.67 152 15:43 25.06.2020
916 Clear 25 1006 37 0 0.84 115 15:25 25.06.2020
917 Clear 25 1006 37 0 0.84 115 14:56 25.06.2020
918 Clear 25 1006 37 0 0.84 115 14:37 25.06.2020
919 Clouds 27 1006 34 0 1.72 94 14:19 25.06.2020
920 Clouds 27 1006 34 0 1.72 94 13:42 25.06.2020
921 Clouds 30 1006 29 0 1.66 67 13:22 25.06.2020
922 Clouds 30 1006 29 0 1.66 67 12:59 25.06.2020
923 Clouds 30 1006 29 0 1.66 67 12:41 25.06.2020
924 Clouds 31 1006 22 0 1.73 39 12:20 25.06.2020
925 Clouds 31 1006 22 0 1.73 39 11:43 25.06.2020
926 Clouds 31 1006 20 0 1.9 27 11:23 25.06.2020
927 Clouds 31 1006 20 0 1.9 27 10:46 25.06.2020
928 Clouds 31 1006 20 0 2.66 22 10:27 25.06.2020
929 Clouds 31 1006 20 0 2.66 22 09:59 25.06.2020
930 Clouds 31 1006 20 0 2.66 22 09:40 25.06.2020
931 Clouds 31 1006 22 0 1.82 32 09:20 25.06.2020
932 Clouds 31 1006 22 0 1.82 32 08:45 25.06.2020
933 Clouds 31 1006 23 0 2.13 30 08:19 25.06.2020
934 Clouds 31 1006 23 0 2.13 30 07:45 25.06.2020
935 Clouds 31 1007 22 0 1.74 16 07:26 25.06.2020
936 Clouds 31 1007 22 0 1.74 16 06:48 25.06.2020
937 Clouds 31 1008 21 0 1.25 4 06:27 25.06.2020
938 Clouds 31 1008 21 0 1.25 4 05:51 25.06.2020
939 Clear 31 1008 21 0 0.6 24 03:58 25.06.2020
940 Clear 31 1008 21 0 0.6 24 03:32 25.06.2020
941 Clear 31 1008 22 0 0.14 219 02:42 25.06.2020
942 Clouds 30 1009 24 0 1.5 216 01:55 25.06.2020
943 Clouds 29 1009 26 0 1.26 214 01:21 25.06.2020
944 Clouds 29 1009 26 0 1.26 214 00:44 25.06.2020
945 Clouds 28 1010 28 0 0.7 204 00:21 25.06.2020
946 Clouds 28 1010 28 0 0.7 204 23:44 24.06.2020
947 Clear 27 1010 31 0 0.46 41 23:26 24.06.2020
948 Clear 27 1010 31 0 0.46 41 22:58 24.06.2020
949 Clear 27 1010 31 0 0.46 41 22:40 24.06.2020
950 Clear 25 1010 35 0 1 39 22:20 24.06.2020
951 Clear 25 1010 35 0 1 39 21:56 24.06.2020
952 Clear 26 1011 35 0 0.86 50 21:37 24.06.2020
953 Clear 24 1011 46 0 0.6 60 21:18 24.06.2020
954 Clear 24 1011 46 0 0.6 60 20:58 24.06.2020
955 Clear 24 1011 46 0 0.6 60 20:39 24.06.2020
956 Clouds 22 1011 46 0 0.66 77 20:20 24.06.2020
957 Clouds 22 1011 46 0 0.66 77 19:57 24.06.2020
958 Clouds 22 1011 46 0 0.66 77 19:37 24.06.2020
959 Clouds 21 1010 44 0 1.2 88 19:18 24.06.2020
960 Clouds 21 1010 44 0 1.2 88 18:57 24.06.2020
961 Clouds 21 1010 44 0 1.2 88 18:38 24.06.2020
962 Clear 21 1011 43 0 1.47 83 18:20 24.06.2020
963 Clear 21 1011 43 0 1.47 83 17:43 24.06.2020
964 Clouds 22 1011 41 0 1.71 69 17:21 24.06.2020
965 Clouds 22 1011 41 0 1.71 69 16:59 24.06.2020
966 Clouds 22 1011 41 0 1.71 69 16:41 24.06.2020
967 Clouds 23 1011 40 0 1.86 62 16:22 24.06.2020
968 Clouds 23 1011 40 0 1.86 62 15:59 24.06.2020
969 Clouds 23 1011 40 0 1.86 62 15:39 24.06.2020
970 Clouds 25 1011 38 0 1.93 65 15:20 24.06.2020
971 Clouds 25 1011 38 0 1.93 65 14:58 24.06.2020
972 Clouds 25 1011 38 0 1.93 65 14:40 24.06.2020
973 Clouds 27 1011 34 0 2.26 73 14:20 24.06.2020
974 Clouds 27 1011 36 0 1.89 57 13:42 24.06.2020
975 Clouds 29 1010 32 0 1.87 66 13:21 24.06.2020
976 Clouds 29 1010 32 0 1.87 66 12:43 24.06.2020
977 Clouds 30 1011 27 0 2.37 75 12:21 24.06.2020
978 Clouds 30 1011 27 0 2.37 75 11:58 24.06.2020
979 Clouds 30 1011 27 0 2.37 75 11:39 24.06.2020
980 Clouds 30 1011 26 0 2.93 71 11:21 24.06.2020
981 Clouds 30 1011 26 0 2.93 71 10:45 24.06.2020
982 Clouds 30 1011 29 0 2.75 69 10:19 24.06.2020
983 Clouds 30 1011 29 0 2.75 69 09:56 24.06.2020
984 Clouds 30 1011 29 0 2.75 69 09:38 24.06.2020
985 Clouds 31 1011 25 0 2.74 78 09:19 24.06.2020
986 Clouds 32 1011 23 0 3.42 65 08:40 24.06.2020
987 Clouds 31 1011 23 0 4.3 56 08:19 24.06.2020
988 Clouds 31 1011 23 0 4.3 56 07:48 24.06.2020
989 Clouds 32 1011 22 0 4.76 47 07:25 24.06.2020
990 Clouds 32 1011 22 0 4.76 47 06:46 24.06.2020
991 Clear 33 1012 19 0 3.67 49 06:24 24.06.2020
992 Clear 33 1012 19 0 3.67 49 06:24 24.06.2020
993 Clear 33 1012 19 0 3.67 49 05:45 24.06.2020
994 Clear 32 1013 20 0 3.32 60 04:39 24.06.2020
995 Clear 32 1013 22 0 3.63 67 03:39 24.06.2020
996 Clear 31 1013 23 0 4.06 74 02:55 24.06.2020
997 Clear 30 1013 25 0 4.05 75 02:23 24.06.2020
998 Clear 29 1013 29 0 2.8 67 00:53 24.06.2020
999 Clear 29 1013 29 0 2.8 67 00:53 24.06.2020
1000 Clear 29 1013 29 0 2.8 67 00:34 24.06.2020
1001 Clear 28 1014 33 0 1.97 59 23:49 23.06.2020
1002 Clear 26 1014 37 0 1.8 47 23:24 23.06.2020
1003 Clear 26 1014 37 0 1.8 47 22:59 23.06.2020
1004 Clear 26 1014 37 0 1.8 47 22:41 23.06.2020
1005 Clear 24 1014 42 0 2.09 30 22:19 23.06.2020
1006 Clear 24 1014 42 0 2.09 30 21:57 23.06.2020
1007 Clear 24 1014 42 0 2.09 30 21:38 23.06.2020
1008 Clear 23 1014 46 0 2.43 15 21:18 23.06.2020
1009 Clear 23 1014 49 0 2.32 18 20:55 23.06.2020
1010 Clear 23 1014 49 0 2.32 18 20:36 23.06.2020
1011 Clear 21 1014 50 0 2.33 6 20:18 23.06.2020
1012 Clear 21 1014 50 0 2.33 6 19:42 23.06.2020
1013 Clear 20 1014 50 0 2.25 356 19:23 23.06.2020
1014 Clear 20 1014 50 0 2.25 356 18:39 23.06.2020
1015 Clear 21 1014 46 0 2.05 5 18:19 23.06.2020
1016 Clear 21 1014 46 0 2.05 5 17:44 23.06.2020
1017 Clear 22 1014 43 0 2.2 41 17:25 23.06.2020
1018 Clear 22 1014 43 0 2.2 41 16:57 23.06.2020
1019 Clear 22 1014 43 0 2.2 41 16:39 23.06.2020
1020 Clear 24 1014 39 0 3.3 50 16:20 23.06.2020
1021 Clear 24 1014 39 0 3.3 50 15:59 23.06.2020
1022 Clear 24 1014 39 0 3.3 50 15:41 23.06.2020
1023 Clear 25 1014 37 0 3.83 47 15:23 23.06.2020
1024 Clear 25 1014 37 0 3.83 47 14:54 23.06.2020
1025 Clear 26 1014 36 0 3.94 46 14:36 23.06.2020
1026 Clouds 27 1014 34 0 4.53 47 14:18 23.06.2020
1027 Clouds 27 1014 34 0 4.53 47 13:44 23.06.2020
1028 Clouds 29 1014 31 0 4.53 49 13:25 23.06.2020
1029 Clouds 29 1014 31 0 4.53 49 12:46 23.06.2020
1030 Clouds 30 1014 28 0 5.12 51 12:23 23.06.2020
1031 Clouds 30 1014 28 0 5.12 51 11:59 23.06.2020
1032 Clouds 30 1014 28 0 5.12 51 11:40 23.06.2020
1033 Clouds 32 1014 24 0 4.86 44 11:21 23.06.2020
1034 Clouds 32 1014 24 0 4.86 44 10:58 23.06.2020
1035 Clouds 32 1014 24 0 4.86 44 10:39 23.06.2020
1036 Clouds 32 1014 22 0 2.99 36 10:21 23.06.2020
1037 Clouds 32 1014 22 0 2.99 36 09:55 23.06.2020
1038 Clouds 32 1014 22 0 4.39 23 09:37 23.06.2020
1039 Clouds 32 1014 23 0 3.32 21 09:18 23.06.2020
1040 Clouds 32 1014 23 0 3.32 21 08:42 23.06.2020
1041 Clouds 32 1014 24 0 2.41 34 08:22 23.06.2020
1042 Clouds 32 1014 24 0 2.41 34 07:45 23.06.2020
1043 Clear 32 1014 23 0 2.35 61 07:24 23.06.2020
1044 Clear 32 1014 23 0 2.35 61 06:52 23.06.2020
1045 Clear 32 1014 23 0 2.35 61 06:32 23.06.2020
1046 Clear 32 1015 24 0 2.75 57 05:48 23.06.2020
1047 Clear 31 1015 28 0 2.83 50 04:42 23.06.2020
1048 Clear 29 1016 35 0 2.79 39 03:21 23.06.2020
1049 Clear 29 1016 35 0 2.79 39 02:47 23.06.2020
1050 Clear 28 1015 40 0 3.07 25 02:28 23.06.2020
1051 Clear 28 1015 40 0 3.07 25 01:45 23.06.2020
1052 Clear 27 1016 45 0 2.82 19 01:21 23.06.2020
1053 Clear 27 1016 45 0 2.82 19 00:41 23.06.2020
1054 Clear 25 1016 49 0 2.32 9 00:20 23.06.2020
1055 Clear 25 1016 49 0 2.32 9 23:39 22.06.2020
1056 Clear 24 1017 55 0 1.95 353 23:19 22.06.2020
1057 Clear 24 1017 55 0 1.95 353 22:59 22.06.2020
1058 Clear 24 1017 55 0 1.95 353 22:41 22.06.2020
1059 Clear 22 1016 61 0 1.58 331 22:20 22.06.2020
1060 Clear 22 1016 61 0 1.58 331 21:59 22.06.2020
1061 Clear 22 1016 61 0 1.58 331 21:40 22.06.2020
1062 Clear 20 1017 66 0 1.97 310 21:21 22.06.2020
1063 Clear 20 1017 66 0 1.97 310 20:58 22.06.2020
1064 Clear 20 1017 66 0 1.97 310 20:40 22.06.2020
1065 Clouds 19 1017 71 0 1.13 332 20:20 22.06.2020
1066 Clouds 19 1017 71 0 1.13 332 19:44 22.06.2020
1067 Clouds 19 1016 70 0 2.29 5 19:19 22.06.2020
1068 Clouds 19 1016 70 0 2.29 5 18:57 22.06.2020
1069 Clouds 19 1016 70 0 2.29 5 18:37 22.06.2020
1070 Clouds 20 1016 62 0 3.13 352 18:19 22.06.2020
1071 Clouds 20 1016 62 0 3.13 352 17:55 22.06.2020
1072 Clouds 20 1016 62 0 3.13 352 17:37 22.06.2020
1073 Clouds 21 1017 57 0 3.04 7 17:18 22.06.2020
1074 Clouds 21 1017 57 0 3.04 7 16:43 22.06.2020
1075 Clouds 24 1017 47 0 4.36 336 16:19 22.06.2020
1076 Clouds 24 1017 47 0 4.36 336 15:58 22.06.2020
1077 Clouds 24 1017 47 0 4.36 336 15:39 22.06.2020
1078 Clouds 26 1016 37 0 2.36 305 15:21 22.06.2020
1079 Clouds 26 1016 37 0 2.36 305 14:40 22.06.2020
1080 Clouds 28 1015 36 0 0.9 319 14:21 22.06.2020
1081 Clouds 28 1015 36 0 0.9 319 13:58 22.06.2020
1082 Clouds 28 1015 36 0 0.9 319 13:38 22.06.2020
1083 Clouds 30 1014 31 0 0.59 315 13:20 22.06.2020
1084 Clouds 30 1014 31 0 0.59 315 12:44 22.06.2020
1085 Clouds 31 1014 22 0 0.8 312 12:23 22.06.2020
1086 Clouds 31 1014 22 0 0.8 312 11:58 22.06.2020
1087 Clouds 31 1014 22 0 0.8 312 11:37 22.06.2020
1088 Clouds 31 1014 22 0 1.12 232 11:18 22.06.2020
1089 Clouds 31 1014 22 0 1.12 232 10:55 22.06.2020
1090 Clouds 31 1014 22 0 1.12 232 10:36 22.06.2020
1091 Clouds 31 1013 22 0 1.25 212 10:18 22.06.2020
1092 Clouds 31 1013 22 0 1.25 212 09:55 22.06.2020
1093 Clouds 31 1013 22 0 1.25 212 09:37 22.06.2020
1094 Clouds 31 1013 24 0 1.51 175 09:18 22.06.2020
1095 Clouds 31 1013 24 0 1.51 175 08:40 22.06.2020
1096 Clouds 32 1012 21 0 1.32 172 08:21 22.06.2020
1097 Clouds 32 1012 21 0 1.32 172 07:54 22.06.2020
1098 Clouds 32 1012 21 0 1.32 172 07:34 22.06.2020
1099 Clear 32 1012 21 0 1.43 191 06:56 22.06.2020
1100 Clear 32 1012 21 0 1.43 191 06:37 22.06.2020
1101 Clear 32 1013 21 0 2.11 206 06:19 22.06.2020
1102 Clear 32 1013 21 0 2.11 206 05:41 22.06.2020
1103 Clear 30 1013 27 0 4.27 210 02:59 22.06.2020
1104 Clear 30 1013 27 0 4.27 210 02:59 22.06.2020
1105 Clear 30 1013 28 0 4.63 206 01:38 22.06.2020
1106 Clear 29 1013 31 0 4.09 203 00:43 22.06.2020
1107 Clear 27 1013 33 0 3.4 206 00:22 22.06.2020
1108 Clear 27 1013 33 0 3.4 206 23:55 21.06.2020
1109 Clear 27 1013 33 0 3.4 206 23:55 21.06.2020
1110 Clear 27 1013 33 0 3.4 206 23:36 21.06.2020
1111 Clear 26 1013 35 0 3.52 206 23:18 21.06.2020
1112 Clear 26 1013 35 0 3.52 206 22:55 21.06.2020
1113 Clear 26 1013 35 0 3.52 206 22:36 21.06.2020
1114 Clear 25 1012 39 0 3.56 200 22:18 21.06.2020
1115 Clear 25 1012 39 0 3.56 200 21:55 21.06.2020
1116 Clear 25 1012 39 0 3.56 200 21:37 21.06.2020
1117 Clear 23 1012 48 0 2.32 200 21:18 21.06.2020
1118 Clear 23 1012 48 0 2.32 200 20:40 21.06.2020
1119 Clear 21 1012 49 0 2.37 208 20:20 21.06.2020
1120 Clear 21 1012 49 0 2.37 208 19:59 21.06.2020
1121 Clear 21 1012 49 0 2.37 208 19:40 21.06.2020
1122 Clear 21 1011 46 0 2.68 204 19:20 21.06.2020
1123 Clear 21 1011 46 0 2.68 204 18:56 21.06.2020
1124 Clear 21 1011 46 0 2.68 204 18:38 21.06.2020
1125 Clear 22 1010 41 0 2.97 193 18:19 21.06.2020
1126 Clear 22 1010 41 0 2.97 193 17:41 21.06.2020
1127 Clear 23 1010 36 0 2.18 165 17:22 21.06.2020
1128 Clear 23 1010 36 0 2.18 165 16:57 21.06.2020
1129 Clear 23 1010 36 0 2.18 165 16:39 21.06.2020
1130 Clear 24 1010 35 0 1.62 101 16:21 21.06.2020
1131 Clear 24 1010 35 0 1.62 101 15:41 21.06.2020
1132 Clear 24 1010 35 0 1.62 101 15:41 21.06.2020
1133 Clear 26 1010 32 0 2.88 70 15:23 21.06.2020
1134 Clear 26 1010 32 0 2.88 70 14:59 21.06.2020
1135 Clear 26 1010 32 0 2.88 70 14:38 21.06.2020
1136 Clouds 29 1009 28 0 3.93 56 14:19 21.06.2020
1137 Clouds 29 1009 28 0 3.93 56 13:55 21.06.2020
1138 Clouds 29 1009 28 0 3.93 56 13:37 21.06.2020
1139 Clouds 30 1009 27 0 3.4 38 13:18 21.06.2020
1140 Clouds 30 1009 27 0 3.4 38 12:43 21.06.2020
1141 Clouds 31 1009 25 0 2.61 29 12:24 21.06.2020
1142 Clouds 31 1009 25 0 2.61 29 11:54 21.06.2020
1143 Clouds 31 1009 25 0 2.61 29 11:36 21.06.2020
1144 Clouds 33 1009 19 0 2.69 45 11:18 21.06.2020
1145 Clouds 33 1009 19 0 2.69 45 10:41 21.06.2020
1146 Clear 34 1008 16 0 3.16 58 10:23 21.06.2020
1147 Clear 34 1008 16 0 3.16 58 09:58 21.06.2020
1148 Clear 34 1008 16 0 3.16 58 09:37 21.06.2020
1149 Clouds 35 1008 16 0 3.97 32 09:18 21.06.2020
1150 Clouds 35 1008 16 0 3.97 32 08:55 21.06.2020
1151 Clouds 35 1008 16 0 3.97 32 08:37 21.06.2020
1152 Clear 35 1008 16 0 3.83 33 08:19 21.06.2020
1153 Clear 35 1008 16 0 3.83 33 07:41 21.06.2020
1154 Clear 34 1008 16 0 4.01 39 07:21 21.06.2020
1155 Clear 34 1008 16 0 4.01 39 06:48 21.06.2020
1156 Clear 34 1009 16 0 4.35 45 05:59 21.06.2020
1157 Clear 34 1009 16 0 4.35 45 05:30 21.06.2020
1158 Clear 33 1010 18 0 4.44 59 03:21 21.06.2020
1159 Clear 33 1010 18 0 4.44 59 02:59 21.06.2020
1160 Clear 32 1010 19 0 3.57 50 02:19 21.06.2020
1161 Clear 31 1010 22 0 2.33 48 01:24 21.06.2020
1162 Clear 31 1010 22 0 2.33 48 00:56 21.06.2020
1163 Clear 31 1010 22 0 2.33 48 00:38 21.06.2020
1164 Clear 29 1011 26 0 1.9 46 00:19 21.06.2020
1165 Clear 29 1011 26 0 1.9 46 23:44 20.06.2020
1166 Clear 28 1011 30 0 1.68 31 23:22 20.06.2020
1167 Clear 28 1011 30 0 1.68 31 22:56 20.06.2020
1168 Clear 28 1011 30 0 1.68 31 22:37 20.06.2020
1169 Clear 26 1011 34 0 1.64 20 22:18 20.06.2020
1170 Clear 26 1011 34 0 1.64 20 21:56 20.06.2020
1171 Clear 26 1011 34 0 1.64 20 21:38 20.06.2020
1172 Clear 24 1011 39 0 1.89 2 21:19 20.06.2020
1173 Clear 24 1011 39 0 1.89 2 20:56 20.06.2020
1174 Clear 24 1011 39 0 1.89 2 20:38 20.06.2020
1175 Clear 23 1011 39 0 1.67 10 20:19 20.06.2020
1176 Clear 23 1011 39 0 1.67 10 19:44 20.06.2020
1177 Clear 22 1010 38 0 1.63 26 19:23 20.06.2020
1178 Clear 22 1010 38 0 1.63 26 18:55 20.06.2020
1179 Clear 22 1010 38 0 1.63 26 18:37 20.06.2020
1180 Clear 22 1010 37 0 1.52 360 18:19 20.06.2020
1181 Clear 22 1010 37 0 1.52 360 17:56 20.06.2020
1182 Clear 22 1010 37 0 1.52 360 17:37 20.06.2020
1183 Clear 23 1011 36 0 1.41 355 17:18 20.06.2020
1184 Clear 23 1011 36 0 1.41 355 16:40 20.06.2020
1185 Clear 24 1011 36 0 1.27 8 16:19 20.06.2020
1186 Clear 24 1011 36 0 1.27 8 15:57 20.06.2020
1187 Clear 24 1011 36 0 1.27 8 15:38 20.06.2020
1188 Clear 25 1011 35 0 1.15 357 15:18 20.06.2020
1189 Clear 25 1011 35 0 1.15 357 14:42 20.06.2020
1190 Clouds 28 1011 35 0 1.93 359 14:20 20.06.2020
1191 Clouds 28 1011 35 0 1.93 359 13:42 20.06.2020
1192 Clouds 30 1011 32 0 1.6 352 13:20 20.06.2020
1193 Clouds 30 1011 32 0 1.6 352 12:57 20.06.2020
1194 Clouds 30 1011 32 0 1.6 352 12:38 20.06.2020
1195 Clouds 31 1010 27 0 1.53 322 12:19 20.06.2020
1196 Clouds 31 1010 27 0 1.53 322 11:41 20.06.2020
1197 Clouds 31 1010 26 0 1.56 276 11:21 20.06.2020
1198 Clouds 31 1010 26 0 1.56 276 10:59 20.06.2020
1199 Clouds 31 1010 26 0 1.56 276 10:41 20.06.2020
1200 Clouds 32 1010 24 0 1.34 245 10:20 20.06.2020
1201 Clouds 32 1010 24 0 1.34 245 09:43 20.06.2020
1202 Clouds 32 1010 22 0 2.87 247 09:25 20.06.2020
1203 Clouds 32 1010 22 0 2.87 247 08:59 20.06.2020
1204 Clouds 32 1010 22 0 2.87 247 08:40 20.06.2020
1205 Clouds 32 1010 21 0 2.86 230 08:22 20.06.2020
1206 Clouds 32 1010 21 0 2.86 230 07:51 20.06.2020
1207 Clouds 32 1010 21 0 2.86 230 07:51 20.06.2020
1208 Clouds 32 1011 21 0 2.21 195 07:26 20.06.2020
1209 Clouds 32 1011 21 0 2.21 195 06:51 20.06.2020
1210 Clouds 32 1010 20 0 2.28 178 06:23 20.06.2020
1211 Clouds 32 1010 20 0 2.28 178 05:49 20.06.2020
1212 Clear 32 1011 20 0 2.49 192 04:49 20.06.2020
1213 Clear 30 1012 23 0 1.44 209 02:23 20.06.2020
1214 Clear 30 1012 23 0 1.44 209 01:46 20.06.2020
1215 Clear 29 1012 25 0 1.5 195 00:52 20.06.2020
1216 Clear 28 1012 27 0 1.18 172 00:21 20.06.2020
1217 Clear 28 1012 27 0 1.18 172 23:49 19.06.2020
1218 Clouds 27 1012 29 0 0.82 145 23:21 19.06.2020
1219 Clouds 27 1012 29 0 0.82 145 22:59 19.06.2020
1220 Clouds 27 1012 29 0 0.82 145 22:40 19.06.2020
1221 Clouds 26 1012 33 0 0.78 106 22:22 19.06.2020
1222 Clouds 26 1012 33 0 0.78 106 21:58 19.06.2020
1223 Clouds 26 1012 33 0 0.78 106 21:38 19.06.2020
1224 Clear 24 1012 41 0 0.93 100 21:18 19.06.2020
1225 Clear 24 1012 41 0 0.93 100 20:58 19.06.2020
1226 Clear 24 1012 41 0 0.93 100 20:40 19.06.2020
1227 Clouds 22 1012 40 0 1 87 20:20 19.06.2020
1228 Clouds 22 1012 40 0 1 87 19:57 19.06.2020
1229 Clouds 22 1012 40 0 1 87 19:38 19.06.2020
1230 Clouds 21 1012 38 0 0.97 98 19:19 19.06.2020
1231 Clouds 21 1012 38 0 0.97 98 18:41 19.06.2020
1232 Clouds 21 1012 37 0 1 78 18:21 19.06.2020
1233 Clouds 21 1012 37 0 1 78 17:58 19.06.2020
1234 Clouds 21 1012 37 0 1 78 17:38 19.06.2020
1235 Clouds 21 1012 36 0 1.63 58 17:20 19.06.2020
1236 Clouds 21 1012 36 0 1.63 58 16:55 19.06.2020
1237 Clouds 21 1012 36 0 1.63 58 16:37 19.06.2020
1238 Clouds 23 1012 34 0 1.91 48 16:18 19.06.2020
1239 Clouds 23 1012 34 0 1.91 48 15:42 19.06.2020
1240 Clouds 24 1011 34 0 1.71 47 15:21 19.06.2020
1241 Clouds 24 1011 34 0 1.71 47 14:56 19.06.2020
1242 Clouds 24 1011 34 0 1.71 47 14:38 19.06.2020
1243 Clouds 26 1012 33 0 2.07 62 14:19 19.06.2020
1244 Clouds 26 1012 33 0 2.07 62 13:44 19.06.2020
1245 Clouds 29 1012 30 0 2.06 71 13:26 19.06.2020
1246 Clouds 29 1012 30 0 2.06 71 12:48 19.06.2020
1247 Clouds 31 1012 24 0 1.67 105 12:23 19.06.2020
1248 Clouds 31 1012 24 0 1.67 105 11:59 19.06.2020
1249 Clouds 31 1012 24 0 1.67 105 11:40 19.06.2020
1250 Clouds 31 1012 19 0 2.07 136 11:19 19.06.2020
1251 Clouds 31 1012 19 0 2.07 136 10:55 19.06.2020
1252 Clouds 31 1012 19 0 2.07 136 10:55 19.06.2020
1253 Clouds 31 1012 19 0 2.07 136 10:37 19.06.2020
1254 Clouds 31 1011 19 0 2.37 149 10:18 19.06.2020
1255 Clouds 31 1011 19 0 2.37 149 09:41 19.06.2020
1256 Clouds 31 1011 20 0 2.26 148 09:21 19.06.2020
1257 Clouds 31 1011 20 0 2.26 148 08:55 19.06.2020
1258 Clouds 31 1011 20 0 2.26 148 08:37 19.06.2020
1259 Clouds 31 1012 21 0 3.24 156 08:19 19.06.2020
1260 Clouds 31 1012 21 0 3.24 156 07:40 19.06.2020
1261 Clouds 31 1012 20 0 4.64 154 07:21 19.06.2020
1262 Clouds 31 1012 20 0 4.64 154 06:44 19.06.2020
1263 Clouds 31 1012 20 0 3.61 137 06:19 19.06.2020
1264 Clouds 31 1012 19 0 3.48 105 04:30 19.06.2020
1265 Clear 30 1013 19 0 2.94 89 03:22 19.06.2020
1266 Clear 28 1013 24 0 0.48 60 01:23 19.06.2020
1267 Clear 28 1013 24 0 0.48 60 00:42 19.06.2020
1268 Clear 27 1014 27 0 0.11 81 00:22 19.06.2020
1269 Clear 27 1014 27 0 0.11 81 23:55 18.06.2020
1270 Clear 27 1014 27 0 0.11 81 23:36 18.06.2020
1271 Clear 27 1014 27 0 0.11 81 23:36 18.06.2020
1272 Clear 25 1013 30 0 0.33 169 23:18 18.06.2020
1273 Clear 25 1013 30 0 0.33 169 23:18 18.06.2020
1274 Clear 25 1013 30 0 0.33 169 22:39 18.06.2020
1275 Clear 24 1013 36 0 0.48 133 22:20 18.06.2020
1276 Clear 24 1013 36 0 0.48 133 21:56 18.06.2020
1277 Clear 24 1013 36 0 0.48 133 21:36 18.06.2020
1278 Clear 22 1014 45 0 0.73 99 21:18 18.06.2020
1279 Clear 22 1014 45 0 0.73 99 20:40 18.06.2020
1280 Clear 20 1014 44 0 0.89 102 20:20 18.06.2020
1281 Clear 20 1014 44 0 0.89 102 19:56 18.06.2020
1282 Clear 20 1014 44 0 0.89 102 19:38 18.06.2020
1283 Clear 19 1013 42 0 0.86 101 19:19 18.06.2020
1284 Clear 19 1013 42 0 0.86 101 18:38 18.06.2020
1285 Clear 19 1013 41 0 0.87 129 18:19 18.06.2020
1286 Clear 19 1013 41 0 0.87 129 17:46 18.06.2020
1287 Clear 19 1013 40 0 1.07 154 17:26 18.06.2020
1288 Clear 19 1013 40 0 1.07 154 16:59 18.06.2020
1289 Clear 19 1013 40 0 1.07 154 16:41 18.06.2020
1290 Clear 20 1012 41 0 1.12 176 16:23 18.06.2020
1291 Clear 20 1012 41 0 1.12 176 15:57 18.06.2020
1292 Clear 20 1012 41 0 1.12 176 15:39 18.06.2020
1293 Clear 22 1012 40 0 1.37 191 15:20 18.06.2020
1294 Clear 22 1012 40 0 1.37 191 14:56 18.06.2020
1295 Clouds 21 1012 44 0 0.35 68 14:37 18.06.2020
1296 Clouds 24 1012 43 0 0.82 260 14:19 18.06.2020
1297 Clouds 24 1012 43 0 0.82 260 13:47 18.06.2020
1298 Clouds 26 1012 34 0 2.03 260 13:28 18.06.2020
1299 Clouds 26 1012 34 0 2.03 260 12:57 18.06.2020
1300 Clouds 26 1012 34 0 2.03 260 12:39 18.06.2020
1301 Clouds 27 1011 26 0 3.21 253 12:20 18.06.2020
1302 Clouds 27 1011 26 0 3.21 253 11:57 18.06.2020
1303 Clouds 27 1011 26 0 3.21 253 11:37 18.06.2020
1304 Clouds 28 1011 25 0 3.77 249 11:18 18.06.2020
1305 Clouds 28 1011 25 0 3.77 249 10:39 18.06.2020
1306 Clouds 28 1011 25 0 4.57 260 10:18 18.06.2020
1307 Clouds 28 1011 25 0 4.57 260 09:46 18.06.2020
1308 Clouds 28 1010 24 0 4.4 241 09:27 18.06.2020
1309 Clouds 28 1010 24 0 4.4 241 08:57 18.06.2020
1310 Clouds 28 1010 24 0 4.4 241 08:37 18.06.2020
1311 Clouds 28 1010 24 0 4.85 231 08:19 18.06.2020
1312 Clouds 28 1010 24 0 4.85 231 07:44 18.06.2020
1313 Clouds 29 1010 23 0 5.02 216 07:25 18.06.2020
1314 Clouds 29 1010 23 0 5.02 216 06:37 18.06.2020
1315 Clouds 27 1011 26 0 4.66 211 05:25 18.06.2020
1316 Clouds 27 1011 27 0 5.21 211 04:18 18.06.2020
1317 Clear 26 1010 32 0 5.2 226 01:48 18.06.2020
1318 Clear 25 1011 33 0 5.45 210 01:22 18.06.2020
1319 Clear 25 1011 33 0 5.45 210 00:52 18.06.2020
1320 Clear 25 1011 33 0 5.45 210 00:31 18.06.2020
1321 Clear 24 1011 34 0 5.24 196 23:56 17.06.2020
1322 Clear 24 1011 34 0 5.24 196 23:37 17.06.2020
1323 Clear 22 1011 38 0 4.72 185 23:19 17.06.2020
1324 Clear 22 1011 38 0 4.72 185 22:55 17.06.2020
1325 Clear 22 1011 38 0 4.72 185 22:37 17.06.2020
1326 Clear 21 1010 43 0 3.62 178 22:19 17.06.2020
1327 Clear 21 1010 43 0 3.62 178 21:40 17.06.2020
1328 Clear 19 1010 48 0 3.27 164 21:21 17.06.2020
1329 Clear 19 1010 48 0 3.27 164 20:56 17.06.2020
1330 Clear 19 1010 48 0 3.27 164 20:37 17.06.2020
1331 Clouds 18 1010 50 0 2.92 166 20:19 17.06.2020
1332 Clouds 18 1010 50 0 2.92 166 19:43 17.06.2020
1333 Clouds 18 1009 51 0 2.77 165 19:22 17.06.2020
1334 Clouds 18 1009 51 0 2.77 165 18:56 17.06.2020
1335 Clouds 18 1009 51 0 2.77 165 18:38 17.06.2020
1336 Clouds 18 1009 50 0 2.84 168 18:20 17.06.2020
1337 Clouds 18 1009 50 0 2.84 168 17:42 17.06.2020
1338 Clouds 19 1010 49 0 2.93 173 17:22 17.06.2020
1339 Clouds 19 1010 49 0 2.93 173 16:57 17.06.2020
1340 Clouds 19 1010 49 0 2.93 173 16:38 17.06.2020
1341 Clouds 20 1009 46 0 2.95 174 16:20 17.06.2020
1342 Clouds 20 1009 46 0 2.95 174 15:56 17.06.2020
1343 Clouds 20 1009 46 0 2.95 174 15:38 17.06.2020
1344 Clouds 21 1009 44 0 2.69 166 15:18 17.06.2020
1345 Clouds 21 1009 44 0 2.69 166 14:55 17.06.2020
1346 Clouds 21 1009 44 0 2.69 166 14:36 17.06.2020
1347 Clouds 23 1008 41 0 3.89 180 14:18 17.06.2020
1348 Clouds 23 1008 40 0 3.06 172 13:41 17.06.2020
1349 Clouds 25 1008 36 0 3.91 175 13:21 17.06.2020
1350 Clouds 25 1008 36 0 3.91 175 12:58 17.06.2020
1351 Clouds 25 1008 36 0 3.91 175 12:40 17.06.2020
1352 Clouds 26 1008 34 0 3.28 166 12:20 17.06.2020
1353 Clouds 26 1008 34 0 3.28 166 11:44 17.06.2020
1354 Clouds 27 1008 30 0 3.48 185 11:24 17.06.2020
1355 Clouds 27 1008 30 0 3.48 185 10:55 17.06.2020
1356 Clouds 27 1008 30 0 3.48 185 10:37 17.06.2020
1357 Clouds 27 1007 30 0 4.52 196 10:18 17.06.2020
1358 Clouds 27 1007 30 0 4.52 196 09:54 17.06.2020
1359 Clouds 27 1007 30 0 4.52 196 09:36 17.06.2020
1360 Clouds 27 1007 30 0 4.65 187 09:18 17.06.2020
1361 Clouds 27 1007 27 0 4.11 173 08:41 17.06.2020
1362 Clouds 27 1007 27 0 3.88 175 08:19 17.06.2020
1363 Clouds 27 1007 27 0 3.88 175 07:43 17.06.2020
1364 Clouds 27 1007 29 0 3.4 174 07:23 17.06.2020
1365 Clouds 27 1007 29 0 3.4 174 06:57 17.06.2020
1366 Clouds 27 1007 29 0 3.4 174 06:39 17.06.2020
1367 Clouds 26 1008 30 0 3.45 181 06:21 17.06.2020
1368 Clouds 26 1008 30 0 3.45 181 05:48 17.06.2020
1369 Clouds 26 1008 32 0 3.51 191 04:36 17.06.2020
1370 Clouds 24 1008 39 0 4.73 208 01:55 17.06.2020
1371 Clouds 22 1008 43 0 4.52 202 00:49 17.06.2020
1372 Clouds 20 1008 52 0 3.29 190 00:29 17.06.2020
1373 Clouds 20 1008 52 0 3.29 190 23:58 16.06.2020
1374 Clouds 20 1008 52 0 3.29 190 23:40 16.06.2020
1375 Clouds 19 1008 54 0 3.35 192 23:22 16.06.2020
1376 Clouds 19 1008 54 0 3.35 192 22:57 16.06.2020
1377 Clouds 19 1008 54 0 3.35 192 22:38 16.06.2020
1378 Clouds 19 1007 55 0 3.09 199 22:19 16.06.2020
1379 Clouds 19 1007 55 0 3.09 199 21:57 16.06.2020
1380 Clouds 19 1007 55 0 3.09 199 21:39 16.06.2020
1381 Clouds 18 1007 56 0 3.2 208 21:20 16.06.2020
1382 Clouds 18 1008 53 0 2.9 206 20:43 16.06.2020
1383 Clouds 18 1007 52 0 3.44 208 20:22 16.06.2020
1384 Clouds 18 1007 52 0 3.44 208 19:58 16.06.2020
1385 Clouds 18 1007 52 0 3.44 208 19:40 16.06.2020
1386 Clouds 19 1006 50 0 4.04 208 19:22 16.06.2020
1387 Clouds 19 1006 50 0 4.04 208 18:58 16.06.2020
1388 Clouds 19 1006 50 0 4.04 208 18:39 16.06.2020
1389 Clouds 19 1006 48 0 4.33 202 18:20 16.06.2020
1390 Clouds 19 1006 48 0 4.33 202 17:56 16.06.2020
1391 Clouds 19 1006 48 0 4.33 202 17:37 16.06.2020
1392 Clouds 20 1006 47 0 4.06 203 17:19 16.06.2020
1393 Clouds 20 1006 47 0 4.06 203 16:56 16.06.2020
1394 Clouds 20 1006 47 0 4.06 203 16:38 16.06.2020
1395 Clouds 20 1005 47 0 3.98 214 16:19 16.06.2020
1396 Clouds 20 1005 47 0 3.98 214 15:56 16.06.2020
1397 Clouds 20 1005 47 0 3.98 214 15:38 16.06.2020
1398 Clouds 20 1004 48 0 3.22 216 15:20 16.06.2020
1399 Clouds 20 1004 48 0 3.22 216 14:43 16.06.2020
1400 Clouds 21 1004 45 0 3.32 241 14:25 16.06.2020
1401 Clouds 21 1004 45 0 3.32 241 13:57 16.06.2020
1402 Clouds 21 1004 45 0 3.32 241 13:39 16.06.2020
1403 Clouds 23 1003 40 0 4.12 250 13:20 16.06.2020
1404 Clouds 23 1003 40 0 4.12 250 12:42 16.06.2020
1405 Clouds 24 1003 35 0 5.91 248 12:21 16.06.2020
1406 Clouds 24 1003 35 0 5.91 248 11:56 16.06.2020
1407 Clouds 24 1003 35 0 5.91 248 11:38 16.06.2020
1408 Clouds 25 1002 31 0 7.61 243 11:19 16.06.2020
1409 Clouds 25 1002 31 0 7.61 243 10:55 16.06.2020
1410 Clouds 25 1002 31 0 7.61 243 10:37 16.06.2020
1411 Clouds 25 1002 32 0 7.19 245 10:18 16.06.2020
1412 Clouds 25 1002 32 0 7.19 245 09:43 16.06.2020
1413 Clouds 26 1001 29 0 8.62 249 09:22 16.06.2020
1414 Clouds 26 1001 29 0 8.62 249 08:48 16.06.2020
1415 Clouds 26 1001 29 0 8.62 249 08:30 16.06.2020
1416 Clouds 26 1001 27 0 7.19 241 07:51 16.06.2020
1417 Clouds 26 1001 28 0 7.54 226 07:29 16.06.2020
1418 Clouds 26 1001 28 0 7.54 226 06:56 16.06.2020
1419 Clouds 26 1001 28 0 7.54 226 06:29 16.06.2020
1420 Clouds 26 1001 29 0 7.7 211 05:50 16.06.2020
1421 Clear 25 1002 30 0 7.48 215 04:54 16.06.2020
1422 Clouds 24 1002 33 0 7.49 214 03:55 16.06.2020
1423 Clear 23 1002 35 0 7.15 208 02:33 16.06.2020
1424 Clouds 22 1002 37 0 7.29 206 01:33 16.06.2020
1425 Clouds 22 1002 37 0 7.29 206 01:33 16.06.2020
1426 Clouds 21 1003 39 0 7.27 204 00:55 16.06.2020
1427 Clouds 20 1003 41 0 6.69 200 00:22 16.06.2020
1428 Clouds 20 1003 41 0 6.69 200 23:55 15.06.2020
1429 Clouds 20 1003 41 0 6.69 200 23:37 15.06.2020
1430 Clouds 19 1003 44 0 5.97 198 23:19 15.06.2020
1431 Clouds 19 1003 44 0 5.97 198 22:42 15.06.2020
1432 Clouds 18 1003 48 0 5.92 193 22:22 15.06.2020
1433 Clouds 18 1003 48 0 5.92 193 21:58 15.06.2020
1434 Clouds 18 1003 48 0 5.92 193 21:38 15.06.2020
1435 Clouds 17 1003 55 0 4.7 195 21:20 15.06.2020
1436 Clouds 17 1003 55 0 4.7 195 20:58 15.06.2020
1437 Clouds 17 1003 55 0 4.7 195 20:39 15.06.2020
1438 Clouds 16 1003 57 0 4.26 194 20:19 15.06.2020
1439 Clouds 16 1003 57 0 4.26 194 19:57 15.06.2020
1440 Clouds 16 1003 57 0 4.26 194 19:39 15.06.2020
1441 Clouds 16 1003 55 0 3.88 196 19:21 15.06.2020
1442 Clouds 16 1003 55 0 3.88 196 18:57 15.06.2020
1443 Clouds 16 1003 55 0 3.88 196 18:39 15.06.2020
1444 Clouds 16 1003 53 0 3.97 210 18:19 15.06.2020
1445 Clouds 16 1003 53 0 3.97 210 17:56 15.06.2020
1446 Clouds 16 1003 53 0 3.97 210 17:56 15.06.2020
1447 Clouds 16 1003 53 0 3.97 210 17:37 15.06.2020
1448 Clouds 18 1003 50 0 4.81 206 17:19 15.06.2020
1449 Clouds 18 1003 50 0 4.81 206 16:42 15.06.2020
1450 Clouds 19 1002 45 0 5.68 191 16:19 15.06.2020
1451 Clouds 19 1002 45 0 5.68 191 15:57 15.06.2020
1452 Clouds 19 1002 45 0 5.68 191 15:39 15.06.2020
1453 Clouds 20 1002 41 0 5.5 187 15:20 15.06.2020
1454 Clouds 20 1002 41 0 5.5 187 14:55 15.06.2020
1455 Clouds 20 1002 41 0 5.5 187 14:37 15.06.2020
1456 Clouds 21 1001 41 0 4.41 189 14:18 15.06.2020
1457 Clouds 21 1002 42 0 4.73 201 13:42 15.06.2020
1458 Clouds 22 1001 38 0 5.22 213 13:24 15.06.2020
1459 Clouds 22 1001 38 0 5.22 213 13:24 15.06.2020
1460 Clouds 22 1001 38 0 5.22 213 12:59 15.06.2020
1461 Clouds 22 1001 38 0 5.22 213 12:40 15.06.2020
1462 Clouds 23 1001 35 0 6.37 212 12:21 15.06.2020
1463 Clouds 23 1001 35 0 6.37 212 11:46 15.06.2020
1464 Clouds 24 1001 32 0 6.78 200 11:26 15.06.2020
1465 Clouds 24 1001 32 0 6.78 200 10:58 15.06.2020
1466 Clouds 24 1001 32 0 6.78 200 10:39 15.06.2020
1467 Clouds 24 1001 32 0 5.81 196 10:19 15.06.2020
1468 Clouds 24 1001 32 0 5.81 196 09:43 15.06.2020
1469 Clouds 21 1001 43 0 2.04 241 09:23 15.06.2020
1470 Clouds 21 1001 43 0 2.04 241 08:46 15.06.2020
1471 Clouds 22 1001 38 0 4.46 271 08:26 15.06.2020
1472 Clouds 22 1001 38 0 4.46 271 07:57 15.06.2020
1473 Clouds 22 1001 38 0 4.46 271 07:37 15.06.2020
1474 Clouds 22 1001 38 0 4.46 271 07:37 15.06.2020
1475 Clouds 24 1001 33 0 4.96 246 07:19 15.06.2020
1476 Clouds 24 1001 32 0 5.84 235 06:28 15.06.2020
1477 Clouds 24 1001 32 0 5.84 235 05:51 15.06.2020
1478 Clouds 24 1001 32 0 5.84 235 05:29 15.06.2020
1479 Clear 24 1000 30 0 6.64 208 04:22 15.06.2020
1480 Clear 24 1000 30 0 6.64 208 03:49 15.06.2020
1481 Clear 23 1000 32 0 6.29 203 02:58 15.06.2020
1482 Clear 23 1000 32 0 6.29 203 02:32 15.06.2020
1483 Clear 22 1001 36 0 5.97 210 01:49 15.06.2020
1484 Clear 22 1001 38 0 5.65 204 01:29 15.06.2020
1485 Clear 22 1001 38 0 5.65 204 00:45 15.06.2020
1486 Clear 21 1001 40 0 4.87 200 00:25 15.06.2020
1487 Clear 21 1001 40 0 4.87 200 23:59 14.06.2020
1488 Clear 21 1001 40 0 4.87 200 23:41 14.06.2020
1489 Clear 19 1001 43 0 4.59 200 23:23 14.06.2020
1490 Clear 19 1001 43 0 4.59 200 22:57 14.06.2020
1491 Clear 19 1001 43 0 4.59 200 22:38 14.06.2020
1492 Clear 18 1001 46 0 3.96 174 22:18 14.06.2020
1493 Clear 18 1001 46 0 3.96 174 21:57 14.06.2020
1494 Clear 18 1001 46 0 3.96 174 21:38 14.06.2020
1495 Clouds 16 1001 51 0 2.94 156 21:19 14.06.2020
1496 Clouds 16 1001 51 0 2.94 156 20:58 14.06.2020
1497 Clouds 16 1001 51 0 2.94 156 20:38 14.06.2020
1498 Clouds 16 1000 52 0 3.11 164 20:19 14.06.2020
1499 Clouds 16 1000 52 0 3.11 164 19:57 14.06.2020
1500 Clouds 16 1000 52 0 3.11 164 19:37 14.06.2020
1501 Clouds 15 1000 52 0 3.43 181 19:19 14.06.2020
1502 Clouds 15 1000 52 0 3.43 181 18:56 14.06.2020
1503 Clouds 15 1000 52 0 3.43 181 18:37 14.06.2020
1504 Clear 15 1000 52 0 3.6 193 18:19 14.06.2020
1505 Clear 15 1000 52 0 3.6 193 17:56 14.06.2020
1506 Clear 15 1000 52 0 3.6 193 17:38 14.06.2020
1507 Clear 16 1000 48 0 3.34 194 17:19 14.06.2020
1508 Clear 16 1000 48 0 3.34 194 16:40 14.06.2020
1509 Clear 17 1000 45 0 2.25 171 16:20 14.06.2020
1510 Clear 17 1000 45 0 2.25 171 15:58 14.06.2020
1511 Clear 17 1000 45 0 2.25 171 15:40 14.06.2020
1512 Clouds 18 1000 45 0 1.42 126 15:18 14.06.2020
1513 Clouds 18 1000 45 0 1.42 126 14:58 14.06.2020
1514 Clouds 18 1000 45 0 1.42 126 14:40 14.06.2020
1515 Clouds 21 999 45 0 1.48 140 14:19 14.06.2020
1516 Clouds 21 999 45 0 1.48 140 13:55 14.06.2020
1517 Clouds 21 999 45 0 1.48 140 13:37 14.06.2020
1518 Clouds 23 1000 39 0 1.79 168 13:19 14.06.2020
1519 Clouds 23 1000 39 0 1.79 168 12:55 14.06.2020
1520 Clouds 23 1000 39 0 1.79 168 12:37 14.06.2020
1521 Clouds 23 1000 34 0 2.91 194 12:18 14.06.2020
1522 Clouds 23 1000 34 0 2.91 194 11:55 14.06.2020
1523 Clouds 23 1000 34 0 2.91 194 11:37 14.06.2020
1524 Clouds 24 1000 30 0 4.05 193 11:18 14.06.2020
1525 Clouds 24 1000 30 0 4.05 193 10:41 14.06.2020
1526 Clouds 24 1000 29 0 3.87 176 10:19 14.06.2020
1527 Clouds 24 1000 29 0 3.87 176 09:45 14.06.2020
1528 Clouds 24 1000 28 0 4.82 150 09:24 14.06.2020
1529 Clouds 24 1000 28 0 4.82 150 08:44 14.06.2020
1530 Clouds 24 1001 28 0 4.29 147 08:22 14.06.2020
1531 Clouds 24 1001 28 0 4.29 147 08:00 14.06.2020
1532 Clouds 24 1001 28 0 4.29 147 07:41 14.06.2020
1533 Clouds 24 1001 28 0 3.92 164 07:23 14.06.2020
1534 Clouds 24 1002 28 0 4.48 177 06:25 14.06.2020
1535 Clouds 24 1002 28 0 4.48 177 05:39 14.06.2020
1536 Clouds 24 1002 30 0 4.97 188 04:53 14.06.2020
1537 Clouds 23 1002 32 0 5.4 198 04:28 14.06.2020
1538 Clouds 22 1003 35 0 5.3 202 02:53 14.06.2020
1539 Clouds 22 1003 38 0 5.19 200 02:23 14.06.2020
1540 Clouds 22 1003 37 0 6.09 206 01:36 14.06.2020
1541 Clear 21 1004 39 0 5.56 195 00:55 14.06.2020
1542 Clear 21 1004 39 0 5.56 195 00:36 14.06.2020
1543 Clear 20 1004 42 0 4.15 188 00:18 14.06.2020
1544 Clear 20 1004 42 0 4.15 188 23:41 13.06.2020
1545 Clear 19 1004 47 0 3.06 184 23:23 13.06.2020
1546 Clear 19 1004 47 0 3.06 184 22:56 13.06.2020
1547 Clear 19 1004 47 0 3.06 184 22:36 13.06.2020
1548 Clear 17 1004 52 0 2.43 174 22:18 13.06.2020
1549 Clear 17 1004 52 0 2.43 174 21:43 13.06.2020
1550 Clear 15 1004 59 0 2.55 165 21:24 13.06.2020
1551 Clear 15 1004 59 0 2.55 165 20:59 13.06.2020
1552 Clear 15 1004 59 0 2.55 165 20:41 13.06.2020
1553 Clear 14 1004 61 0 2.74 165 20:19 13.06.2020
1554 Clear 14 1004 61 0 2.74 165 19:42 13.06.2020
1555 Clear 14 1003 62 0 3 173 19:21 13.06.2020
1556 Clear 14 1003 62 0 3 173 19:21 13.06.2020
1557 Clear 14 1003 62 0 3 173 18:59 13.06.2020
1558 Clear 14 1003 62 0 3 173 18:41 13.06.2020
1559 Clear 14 1003 61 0 2.96 179 18:20 13.06.2020
1560 Clear 14 1003 61 0 2.96 179 17:59 13.06.2020
1561 Clear 14 1003 61 0 2.96 179 17:40 13.06.2020
1562 Clear 15 1003 59 0 2.57 174 17:22 13.06.2020
1563 Clear 15 1003 59 0 2.57 174 16:56 13.06.2020
1564 Clear 15 1003 59 0 2.57 174 16:38 13.06.2020
1565 Clear 15 1003 57 0 2.2 168 16:19 13.06.2020
1566 Clear 15 1003 57 0 2.2 168 15:44 13.06.2020
1567 Clear 17 1002 54 0 2.71 178 15:26 13.06.2020
1568 Clear 17 1002 54 0 2.71 178 14:58 13.06.2020
1569 Clear 17 1002 54 0 2.71 178 14:39 13.06.2020
1570 Clouds 19 1002 48 0 2.55 173 14:20 13.06.2020
1571 Clouds 19 1002 49 0 1.73 175 13:44 13.06.2020
1572 Clouds 21 1001 44 0 1.7 177 13:26 13.06.2020
1573 Clouds 21 1001 44 0 1.7 177 12:45 13.06.2020
1574 Clouds 21 1001 40 0 2.65 190 12:27 13.06.2020
1575 Clouds 21 1001 40 0 2.65 190 11:59 13.06.2020
1576 Clouds 21 1001 40 0 2.65 190 11:40 13.06.2020
1577 Clouds 20 1001 42 0 2.97 188 11:19 13.06.2020
1578 Clouds 20 1001 42 0 2.97 188 10:57 13.06.2020
1579 Clouds 20 1001 42 0 2.97 188 10:38 13.06.2020
1580 Clouds 21 1000 39 0 2.64 199 10:19 13.06.2020
1581 Clouds 21 1000 39 0 2.64 199 09:45 13.06.2020
1582 Clouds 22 1000 34 0 4.3 204 09:27 13.06.2020
1583 Clouds 22 1000 34 0 4.55 208 08:56 13.06.2020
1584 Clouds 22 1000 34 0 4.55 208 08:37 13.06.2020
1585 Clouds 22 1000 32 0 4.94 207 08:19 13.06.2020
1586 Clouds 22 1000 32 0 4.94 207 07:42 13.06.2020
1587 Clouds 22 1000 33 0 4.69 208 07:23 13.06.2020
1588 Clouds 22 1000 33 0 4.69 208 06:44 13.06.2020
1589 Clouds 21 1000 35 0 4.4 215 06:24 13.06.2020
1590 Clouds 21 1000 36 0 4.77 213 05:27 13.06.2020
1591 Clouds 21 1000 36 0 4.77 213 04:35 13.06.2020
1592 Clouds 21 1000 37 0 4.98 209 03:33 13.06.2020
1593 Clear 20 1000 38 0 4.42 205 02:38 13.06.2020
1594 Clear 19 1001 41 0 3.88 202 01:48 13.06.2020
1595 Clear 18 1001 46 0 2.54 193 01:22 13.06.2020
1596 Clear 18 1001 46 0 2.54 193 00:53 13.06.2020
1597 Clear 16 1001 49 0 1.16 180 00:27 13.06.2020
1598 Clear 16 1001 49 0 1.16 180 23:58 12.06.2020
1599 Clear 16 1001 49 0 1.16 180 23:38 12.06.2020
1600 Clear 15 1001 54 0 0.1 30 23:18 12.06.2020
1601 Clear 15 1001 54 0 0.1 30 22:42 12.06.2020
1602 Clear 14 1001 57 0 0.74 289 22:19 12.06.2020
1603 Clear 14 1001 57 0 0.74 289 21:56 12.06.2020
1604 Clear 14 1001 57 0 0.74 289 21:37 12.06.2020
1605 Clear 13 1001 58 0 1.72 208 21:19 12.06.2020
1606 Clear 13 1001 58 0 1.72 208 20:56 12.06.2020
1607 Clear 13 1001 58 0 1.72 208 20:37 12.06.2020
1608 Clouds 12 1000 59 0 1.88 212 20:19 12.06.2020
1609 Clouds 12 1000 59 0 1.88 212 19:39 12.06.2020
1610 Clouds 12 1000 58 0 2.17 216 19:21 12.06.2020
1611 Clouds 12 1000 58 0 2.17 216 18:56 12.06.2020
1612 Clouds 12 1000 58 0 2.17 216 18:36 12.06.2020
1613 Clouds 12 999 57 0 2.39 213 18:18 12.06.2020
1614 Clouds 12 999 57 0 2.39 213 17:40 12.06.2020
1615 Clouds 13 998 55 0 2.5 216 17:22 12.06.2020
1616 Clouds 13 998 55 0 2.5 216 16:45 12.06.2020
1617 Clouds 14 997 52 0 3.34 212 16:21 12.06.2020
1618 Clouds 14 997 52 0 3.34 212 15:50 12.06.2020
1619 Clouds 16 997 50 0 4.25 201 15:28 12.06.2020
1620 Clouds 16 997 50 0 4.25 201 14:59 12.06.2020
1621 Clouds 16 997 50 0 4.25 201 14:39 12.06.2020
1622 Clouds 18 996 47 0 4.98 196 14:21 12.06.2020
1623 Clouds 18 996 44 0 2.97 204 13:43 12.06.2020
1624 Clouds 19 996 41 0 4.14 201 13:22 12.06.2020
1625 Clouds 19 996 41 0 4.14 201 12:57 12.06.2020
1626 Clouds 19 996 41 0 4.14 201 12:39 12.06.2020
1627 Clouds 21 996 38 0 3.19 193 12:18 12.06.2020
1628 Clouds 21 996 38 0 3.19 193 11:44 12.06.2020
1629 Clouds 21 995 32 0 2.87 209 11:23 12.06.2020
1630 Clouds 21 995 32 0 2.87 209 10:54 12.06.2020
1631 Clouds 21 995 32 0 2.87 209 10:36 12.06.2020
1632 Clouds 21 994 31 0 3.38 231 10:18 12.06.2020
1633 Clouds 21 994 31 0 3.38 231 09:43 12.06.2020
1634 Clouds 22 994 30 0 3.74 236 09:19 12.06.2020
1635 Clouds 22 994 30 0 3.62 210 08:41 12.06.2020
1636 Clouds 21 993 30 0 3.73 223 08:23 12.06.2020
1637 Clouds 21 993 30 0 3.73 223 07:42 12.06.2020
1638 Clouds 20 994 34 0 4.21 224 07:24 12.06.2020
1639 Clouds 20 994 34 0 4.21 224 06:41 12.06.2020
1640 Clouds 21 993 34 0 4.24 224 06:21 12.06.2020
1641 Clouds 21 993 34 0 4.24 224 05:49 12.06.2020
1642 Clouds 21 993 36 0 4.07 231 05:23 12.06.2020
1643 Clouds 20 993 39 0 3.93 222 03:55 12.06.2020
1644 Clouds 20 994 41 0 4.24 204 02:43 12.06.2020
1645 Clouds 19 994 44 0 4.94 204 01:47 12.06.2020
1646 Clouds 18 994 47 0 4.47 186 01:19 12.06.2020
1647 Clouds 18 994 47 0 4.47 186 00:39 12.06.2020
1648 Clouds 18 994 47 0 4.47 186 00:39 12.06.2020
1649 Clouds 17 995 49 0 3.46 172 00:20 12.06.2020
1650 Clouds 17 995 49 0 3.46 172 23:57 11.06.2020
1651 Clouds 17 995 49 0 3.46 172 23:39 11.06.2020
1652 Clouds 16 995 52 0 2.09 147 23:20 11.06.2020
1653 Clouds 16 995 52 0 2.09 147 22:55 11.06.2020
1654 Clouds 16 995 52 0 2.09 147 22:37 11.06.2020
1655 Clouds 16 995 52 0 2.09 147 22:37 11.06.2020
1656 Clouds 14 995 58 0 1.39 112 22:19 11.06.2020
1657 Clouds 14 995 58 0 1.39 112 21:43 11.06.2020
1658 Clouds 13 996 62 0 1.26 91 21:20 11.06.2020
1659 Clouds 13 996 62 0 1.26 91 20:58 11.06.2020
1660 Clouds 13 996 62 0 1.26 91 20:40 11.06.2020
1661 Clouds 12 996 66 0 1.17 92 20:20 11.06.2020
1662 Clouds 12 996 66 0 1.17 92 19:44 11.06.2020
1663 Clouds 10 996 69 0 1.03 90 19:22 11.06.2020
1664 Clouds 10 996 69 0 1.03 90 18:57 11.06.2020
1665 Clouds 10 996 69 0 1.03 90 18:39 11.06.2020
1666 Clouds 11 996 66 0 1.15 83 18:20 11.06.2020
1667 Clouds 11 996 66 0 1.15 83 17:55 11.06.2020
1668 Clouds 11 996 66 0 1.15 83 17:37 11.06.2020
1669 Clouds 13 996 60 0 1.34 75 17:18 11.06.2020
1670 Clouds 13 996 60 0 1.34 75 16:44 11.06.2020
1671 Clouds 13 996 58 0 1.74 64 16:25 11.06.2020
1672 Clouds 13 996 58 0 1.74 64 15:59 11.06.2020
1673 Clouds 13 996 58 0 1.74 64 15:40 11.06.2020
1674 Clouds 14 996 57 0 1.61 69 15:22 11.06.2020
1675 Clouds 14 996 57 0 1.61 69 14:46 11.06.2020
1676 Clouds 15 997 56 0 1.05 85 14:22 11.06.2020
1677 Clouds 16 996 53 0 1.28 51 13:58 11.06.2020
1678 Clouds 16 996 53 0 1.28 51 13:39 11.06.2020
1679 Clouds 17 997 48 0 0.5 111 13:21 11.06.2020
1680 Clouds 17 997 48 0 0.5 111 12:59 11.06.2020
1681 Clouds 17 997 48 0 0.5 111 12:39 11.06.2020
1682 Clouds 17 997 42 0 1.2 180 12:20 11.06.2020
1683 Clouds 17 997 42 0 1.2 180 11:59 11.06.2020
1684 Clouds 17 997 42 0 1.2 180 11:40 11.06.2020
1685 Clouds 17 997 42 0 1.67 207 11:22 11.06.2020
1686 Clouds 17 997 42 0 1.67 207 10:57 11.06.2020
1687 Clouds 17 997 42 0 1.67 207 10:38 11.06.2020
1688 Clouds 17 997 41 0 2.2 211 10:18 11.06.2020
1689 Clouds 17 997 41 0 2.2 211 09:42 11.06.2020
1690 Clouds 18 998 40 0 2.83 227 09:24 11.06.2020
1691 Clouds 18 998 40 0 2.83 227 08:44 11.06.2020
1692 Clouds 17 998 40 0 2.97 224 08:21 11.06.2020
1693 Clouds 17 998 40 0 2.97 224 07:59 11.06.2020
1694 Clouds 17 998 40 0 2.97 224 07:41 11.06.2020
1695 Clouds 17 999 42 0 2.67 214 07:22 11.06.2020
1696 Clouds 17 999 42 0 2.67 214 06:31 11.06.2020
1697 Clouds 16 999 44 0 2.23 203 05:50 11.06.2020
1698 Clouds 13 1001 51 0 1.91 213 03:59 11.06.2020
1699 Clouds 11 1002 53 0 2.16 222 03:24 11.06.2020
1700 Clouds 11 1002 53 0 2.16 222 02:40 11.06.2020
1701 Clouds 11 1003 55 0 2.32 224 01:55 11.06.2020
1702 Clouds 11 1003 55 0 2.32 224 01:31 11.06.2020
1703 Clouds 9 1004 57 0 1.7 207 00:51 11.06.2020
1704 Clouds 9 1004 57 0 1.7 207 00:30 11.06.2020
1705 Clouds 8 1005 60 0 0.75 194 23:50 10.06.2020
1706 Clouds 7 1005 62 0 0.27 79 23:27 10.06.2020
1707 Clouds 7 1005 62 0 0.27 79 22:59 10.06.2020
1708 Clouds 7 1005 62 0 0.27 79 22:40 10.06.2020
1709 Clouds 6 1006 65 0 0.54 9 22:22 10.06.2020
1710 Clouds 6 1006 65 0 0.54 9 21:58 10.06.2020
1711 Clouds 6 1006 65 0 0.54 9 21:40 10.06.2020
1712 Clouds 6 1006 68 0 0.75 335 21:19 10.06.2020
1713 Clouds 6 1006 68 0 0.75 335 20:58 10.06.2020
1714 Clouds 6 1006 68 0 0.75 335 20:40 10.06.2020
1715 Clouds 5 1007 73 0 0.93 332 20:21 10.06.2020
1716 Clouds 5 1007 73 0 0.93 332 19:58 10.06.2020
1717 Clouds 5 1007 73 0 0.93 332 19:37 10.06.2020
1718 Clouds 4 1007 74 0 0.93 327 19:18 10.06.2020
1719 Clouds 4 1007 74 0 0.93 327 18:42 10.06.2020
1720 Clouds 4 1007 74 0 1.21 326 18:22 10.06.2020
1721 Clouds 4 1007 74 0 1.21 326 17:59 10.06.2020
1722 Clouds 4 1007 74 0 1.21 326 17:41 10.06.2020
1723 Clouds 4 1007 73 0 1.32 317 17:20 10.06.2020
1724 Clouds 4 1007 73 0 1.32 317 16:59 10.06.2020
1725 Clouds 4 1007 73 0 1.32 317 16:40 10.06.2020
1726 Clouds 6 1007 69 0 1.63 326 16:20 10.06.2020
1727 Clouds 6 1007 69 0 1.63 326 16:20 10.06.2020
1728 Clouds 6 1007 69 0 1.63 326 15:57 10.06.2020
1729 Clouds 6 1007 69 0 1.63 326 15:37 10.06.2020
1730 Clouds 7 1007 67 0 1.82 333 15:19 10.06.2020
1731 Clouds 7 1007 67 0 1.82 333 14:41 10.06.2020
1732 Clouds 8 1007 62 0 2.39 332 14:22 10.06.2020
1733 Clouds 8 1007 62 0 2.39 332 13:57 10.06.2020
1734 Clouds 8 1007 62 0 2.39 332 13:39 10.06.2020
1735 Clouds 9 1007 58 0 3.06 339 13:21 10.06.2020
1736 Clouds 9 1007 58 0 3.06 339 12:41 10.06.2020
1737 Clouds 9 1007 56 0 3.58 349 12:19 10.06.2020
1738 Clouds 9 1007 56 0 3.58 349 11:55 10.06.2020
1739 Clouds 9 1007 56 0 3.58 349 11:37 10.06.2020
1740 Clouds 9 1007 57 0 3.97 352 11:19 10.06.2020
1741 Clouds 9 1007 57 0 3.97 352 10:44 10.06.2020
1742 Clouds 9 1007 59 0 3.67 351 10:25 10.06.2020
1743 Clouds 9 1007 59 0 3.67 351 09:58 10.06.2020
1744 Clouds 9 1007 59 0 3.67 351 09:39 10.06.2020
1745 Clouds 11 1006 52 0 4.64 16 09:20 10.06.2020
1746 Clouds 11 1006 52 0 4.64 16 08:42 10.06.2020
1747 Clouds 10 1007 55 0 4.5 10 08:23 10.06.2020
1748 Clouds 10 1007 55 0 4.5 10 07:43 10.06.2020
1749 Clouds 9 1007 59 0 4.34 5 07:23 10.06.2020
1750 Clouds 9 1007 59 0 4.34 5 06:59 10.06.2020
1751 Clouds 9 1007 59 0 4.34 5 06:39 10.06.2020
1752 Clouds 8 1006 62 0 4.38 2 06:18 10.06.2020
1753 Clouds 8 1006 62 0 4.38 2 05:51 10.06.2020
1754 Clouds 8 1006 63 0 4.62 2 05:19 10.06.2020
1755 Clouds 8 1007 63 0 4.42 359 04:29 10.06.2020
1756 Clouds 8 1007 63 0 4.34 359 02:46 10.06.2020
1757 Rain 6 1006 74 0 3.68 353 01:48 10.06.2020
1758 Rain 5 1006 75 0 4.15 354 01:28 10.06.2020
1759 Rain 5 1006 75 0 4.15 354 00:39 10.06.2020
1760 Rain 5 1006 76 0 4.29 354 00:21 10.06.2020
1761 Rain 5 1006 76 0 4.29 354 23:54 09.06.2020
1762 Rain 5 1006 76 0 4.29 354 23:36 09.06.2020
1763 Rain 5 1006 77 0 4.27 359 23:18 09.06.2020
1764 Rain 5 1006 77 0 4.27 359 22:54 09.06.2020
1765 Rain 5 1006 77 0 4.27 359 22:36 09.06.2020
1766 Rain 5 1006 77 0 4.49 6 22:18 09.06.2020
1767 Rain 5 1006 77 0 4.49 6 21:54 09.06.2020
1768 Rain 5 1006 77 0 4.49 6 21:54 09.06.2020
1769 Rain 5 1006 77 0 4.49 6 21:36 09.06.2020
1770 Clouds 5 1005 69 0 4.8 354 21:18 09.06.2020
1771 Clouds 5 1005 69 0 4.8 354 20:54 09.06.2020
1772 Clouds 5 1005 69 0 4.8 354 20:36 09.06.2020
1773 Clouds 5 1005 69 0 4.06 352 20:18 09.06.2020
1774 Clouds 5 1005 69 0 4.06 352 19:54 09.06.2020
1775 Clouds 5 1005 69 0 4.06 352 19:54 09.06.2020
1776 Clouds 5 1005 69 0 4.06 352 19:36 09.06.2020
1777 Clouds 5 1005 70 0 3.5 350 19:18 09.06.2020
1778 Clouds 5 1005 70 0 3.5 350 18:42 09.06.2020
1779 Clouds 6 1004 69 0 3.6 353 18:24 09.06.2020
1780 Clouds 6 1004 69 0 3.6 353 17:57 09.06.2020
1781 Clouds 6 1004 69 0 3.6 353 17:38 09.06.2020
1782 Rain 7 1003 68 0 3.95 351 17:20 09.06.2020
1783 Rain 7 1003 68 0 3.95 351 16:46 09.06.2020
1784 Rain 9 1003 63 0 4.48 357 16:28 09.06.2020
1785 Rain 9 1003 63 0 4.48 357 15:59 09.06.2020
1786 Rain 9 1003 63 0 4.48 357 15:39 09.06.2020
1787 Rain 11 1003 58 0 4.9 354 15:21 09.06.2020
1788 Rain 11 1003 58 0 4.9 354 14:55 09.06.2020
1789 Rain 11 1003 58 0 4.9 354 14:37 09.06.2020
1790 Clouds 13 1002 56 0 4.89 353 14:18 09.06.2020
1791 Clouds 13 1002 56 0 4.89 353 13:43 09.06.2020
1792 Rain 15 1002 52 0 6.31 9 13:21 09.06.2020
1793 Rain 15 1002 52 0 6.31 9 12:59 09.06.2020
1794 Rain 15 1002 52 0 6.31 9 12:40 09.06.2020
1795 Rain 17 1001 49 0 6.57 14 12:19 09.06.2020
1796 Rain 17 1001 49 0 6.57 14 11:55 09.06.2020
1797 Rain 17 1001 49 0 6.57 14 11:37 09.06.2020
1798 Rain 19 1001 45 0 6.83 14 11:19 09.06.2020
1799 Rain 19 1001 45 0 6.83 14 10:44 09.06.2020
1800 Clouds 20 1000 42 0 6.57 16 10:25 09.06.2020
1801 Clouds 20 1000 42 0 6.57 16 09:55 09.06.2020
1802 Clouds 20 1000 42 0 6.57 16 09:36 09.06.2020
1803 Clouds 20 1000 43 0 6.36 21 09:18 09.06.2020
1804 Clouds 21 1000 35 0 4.34 32 08:39 09.06.2020
1805 Clouds 21 1001 34 0 2.86 24 08:20 09.06.2020
1806 Clouds 21 1001 34 0 2.86 24 07:40 09.06.2020
1807 Clouds 21 1001 32 0 0.88 39 07:22 09.06.2020
1808 Clouds 21 1001 32 0 0.88 39 06:55 09.06.2020
1809 Clouds 21 1001 32 0 0.88 39 06:35 09.06.2020
1810 Clouds 21 1001 31 0 0.76 138 05:36 09.06.2020
1811 Clouds 22 1002 32 0 2.66 193 03:52 09.06.2020
1812 Clouds 20 1003 37 0 4.43 205 01:54 09.06.2020
1813 Clouds 20 1003 37 0 4.43 205 01:36 09.06.2020
1814 Clouds 20 1003 39 0 3.74 189 01:18 09.06.2020
1815 Clouds 20 1003 39 0 3.74 189 00:39 09.06.2020
1816 Clouds 19 1004 41 0 3.13 164 00:18 09.06.2020
1817 Clouds 19 1004 41 0 3.13 164 23:41 08.06.2020
1818 Clouds 18 1003 45 0 2.22 150 23:20 08.06.2020
1819 Clouds 18 1003 45 0 2.22 150 22:56 08.06.2020
1820 Clouds 18 1003 45 0 2.22 150 22:56 08.06.2020
1821 Clouds 18 1003 45 0 2.22 150 22:38 08.06.2020
1822 Clouds 17 1003 52 0 1.76 136 22:19 08.06.2020
1823 Clouds 17 1003 52 0 1.76 136 21:55 08.06.2020
1824 Clouds 17 1003 52 0 1.76 136 21:36 08.06.2020
1825 Clouds 17 1003 52 0 1.76 136 21:36 08.06.2020
1826 Clouds 16 1004 55 0 1.97 125 21:18 08.06.2020
1827 Clouds 16 1004 56 0 1.73 147 20:54 08.06.2020
1828 Clouds 16 1004 56 0 1.73 147 20:36 08.06.2020
1829 Clouds 15 1004 58 0 1.98 167 20:18 08.06.2020
1830 Clouds 15 1004 58 0 1.98 167 19:43 08.06.2020
1831 Rain 15 1004 56 0 2.18 163 19:21 08.06.2020
1832 Rain 15 1004 56 0 2.18 163 18:43 08.06.2020
1833 Rain 15 1004 51 0 1.63 124 18:21 08.06.2020
1834 Rain 15 1004 51 0 1.63 124 17:57 08.06.2020
1835 Rain 15 1004 51 0 1.63 124 17:39 08.06.2020
1836 Rain 15 1004 51 0 1.63 124 17:39 08.06.2020
1837 Clouds 15 1004 48 0 1.78 77 17:21 08.06.2020
1838 Clouds 15 1004 48 0 1.78 77 16:58 08.06.2020
1839 Clouds 15 1004 48 0 1.78 77 16:39 08.06.2020
1840 Rain 16 1004 45 0 1.6 76 16:21 08.06.2020
1841 Rain 16 1004 45 0 1.6 76 15:42 08.06.2020
1842 Rain 18 1005 42 0 1.28 90 15:22 08.06.2020
1843 Rain 18 1005 42 0 1.28 90 14:58 08.06.2020
1844 Rain 18 1005 42 0 1.28 90 14:38 08.06.2020
1845 Clouds 20 1005 38 0 2.25 95 14:19 08.06.2020
1846 Rain 20 1005 38 0 2.1 101 13:43 08.06.2020
1847 Clouds 22 1005 32 0 3.02 108 13:23 08.06.2020
1848 Clouds 22 1005 32 0 3.02 108 12:43 08.06.2020
1849 Clouds 24 1005 25 0 3.47 118 12:20 08.06.2020
1850 Clouds 24 1005 25 0 3.47 118 11:59 08.06.2020
1851 Clouds 24 1005 25 0 3.47 118 11:40 08.06.2020
1852 Clouds 24 1005 22 0 2.79 132 11:21 08.06.2020
1853 Clouds 24 1005 22 0 2.79 132 10:58 08.06.2020
1854 Clouds 24 1005 22 0 2.79 132 10:38 08.06.2020
1855 Clouds 24 1005 21 0 2.53 153 10:20 08.06.2020
1856 Clouds 24 1005 21 0 2.53 153 10:20 08.06.2020
1857 Clouds 24 1005 21 0 2.53 153 09:57 08.06.2020
1858 Clouds 24 1005 21 0 2.53 153 09:57 08.06.2020
1859 Clouds 24 1005 21 0 2.53 153 09:57 08.06.2020
1860 Clouds 24 1005 21 0 2.53 153 09:39 08.06.2020
1861 Clouds 25 1005 21 0 2.85 142 09:20 08.06.2020
1862 Clouds 25 1005 21 0 2.85 142 08:44 08.06.2020
1863 Clouds 25 1005 21 0 2.94 149 08:21 08.06.2020
1864 Clouds 25 1005 21 0 2.94 149 07:46 08.06.2020
1865 Clouds 25 1006 21 0 3.06 162 07:22 08.06.2020
1866 Clouds 25 1006 21 0 3.06 162 06:50 08.06.2020
1867 Clouds 24 1006 21 0 3.31 165 06:28 08.06.2020
1868 Clouds 24 1006 21 0 3.31 165 05:47 08.06.2020
1869 Clear 24 1007 20 0 2.98 162 04:29 08.06.2020
1870 Clear 23 1008 21 0 2.47 146 02:32 08.06.2020
1871 Clear 22 1008 23 0 2.49 129 01:49 08.06.2020
1872 Clear 21 1008 25 0 2.38 107 01:30 08.06.2020
1873 Clear 21 1008 25 0 2.38 107 00:30 08.06.2020
1874 Clear 20 1009 27 0 2.02 90 23:57 07.06.2020
1875 Clear 20 1009 27 0 2.02 90 23:36 07.06.2020
1876 Clear 19 1009 28 0 1.7 79 23:18 07.06.2020
1877 Clear 19 1009 28 0 1.7 79 22:39 07.06.2020
1878 Clear 17 1009 32 0 1.6 66 22:20 07.06.2020
1879 Clear 17 1009 32 0 1.6 66 21:59 07.06.2020
1880 Clear 17 1009 32 0 1.6 66 21:39 07.06.2020
1881 Clear 15 1009 38 0 1.53 64 21:20 07.06.2020
1882 Clear 15 1009 38 0 1.53 64 21:20 07.06.2020
1883 Clear 15 1009 38 0 1.53 64 21:20 07.06.2020
1884 Clear 16 1009 39 0 1.4 70 21:20 07.06.2020
1885 Clear 15 1009 38 0 1.53 64 21:20 07.06.2020
1886 Clear 16 1009 39 0 1.4 70 20:57 07.06.2020
1887 Clear 16 1009 39 0 1.4 70 20:38 07.06.2020
1888 Clear 14 1010 41 0 1.41 65 20:19 07.06.2020
1889 Clear 14 1010 41 0 1.41 65 19:56 07.06.2020
1890 Clear 14 1010 41 0 1.41 65 19:38 07.06.2020
1891 Clear 13 1009 40 0 1.57 58 19:19 07.06.2020
1892 Clear 13 1009 40 0 1.57 58 18:55 07.06.2020
1893 Clear 13 1009 40 0 1.57 58 18:36 07.06.2020
1894 Clear 13 1010 39 0 1.64 48 18:18 07.06.2020
1895 Clear 13 1010 39 0 1.64 48 17:55 07.06.2020
1896 Clear 13 1010 39 0 1.64 48 17:36 07.06.2020
1897 Clear 14 1010 37 0 1.43 60 17:18 07.06.2020
1898 Clear 14 1010 37 0 1.43 60 16:41 07.06.2020
1899 Clear 15 1009 35 0 1.41 100 16:21 07.06.2020
1900 Clear 15 1009 35 0 1.41 100 15:40 07.06.2020
1901 Clear 17 1009 33 0 2.16 116 15:20 07.06.2020
1902 Clear 17 1009 33 0 2.16 116 14:40 07.06.2020
1903 Clear 19 1009 32 0 2.87 115 14:21 07.06.2020
1904 Clear 19 1009 32 0 2.87 115 13:48 07.06.2020
1905 Clear 21 1009 29 0 3 91 13:21 07.06.2020
1906 Clear 21 1009 29 0 3 91 12:55 07.06.2020
1907 Clear 21 1009 29 0 3 91 12:37 07.06.2020
1908 Clear 23 1009 22 0 3.96 87 12:18 07.06.2020
1909 Clear 23 1009 22 0 3.96 87 11:55 07.06.2020
1910 Clear 23 1009 22 0 3.96 87 11:36 07.06.2020
1911 Clear 23 1009 21 0 3.85 88 11:18 07.06.2020
1912 Clear 23 1009 21 0 3.85 88 10:43 07.06.2020
1913 Clear 24 1009 20 0 3.33 98 10:20 07.06.2020
1914 Clear 24 1009 20 0 3.33 98 09:58 07.06.2020
1915 Clear 24 1009 20 0 3.33 98 09:39 07.06.2020
1916 Clear 24 1009 20 0 3.01 109 09:20 07.06.2020
1917 Clear 24 1009 20 0 3.01 109 08:57 07.06.2020
1918 Clear 24 1009 20 0 3.01 109 08:39 07.06.2020
1919 Clear 23 1009 20 0 3.21 109 08:21 07.06.2020
1920 Clear 23 1009 20 0 3.21 109 07:33 07.06.2020
1921 Clear 23 1010 21 0 3.44 110 06:53 07.06.2020
1922 Clear 23 1010 21 0 3.52 113 05:52 07.06.2020
1923 Clear 22 1010 22 0 3.33 116 04:21 07.06.2020
1924 Clear 22 1010 22 0 3.33 116 03:46 07.06.2020
1925 Clear 21 1011 24 0 2.74 118 02:18 07.06.2020
1926 Clear 20 1011 25 0 2.17 129 01:25 07.06.2020
1927 Clear 20 1011 25 0 2.17 129 01:25 07.06.2020
1928 Clear 20 1011 25 0 2.17 129 00:48 07.06.2020
1929 Clear 19 1011 27 0 1.29 133 00:20 07.06.2020
1930 Clear 19 1011 27 0 1.29 133 23:59 06.06.2020
1931 Clear 19 1011 27 0 1.29 133 23:59 06.06.2020
1932 Clear 19 1011 27 0 1.29 133 23:38 06.06.2020
1933 Clear 18 1011 29 0 1 112 23:20 06.06.2020
1934 Clear 18 1011 29 0 1 112 22:56 06.06.2020
1935 Clear 18 1011 29 0 1 112 22:38 06.06.2020
1936 Clear 17 1011 31 0 0.78 114 22:19 06.06.2020
1937 Clear 17 1011 31 0 0.78 114 21:56 06.06.2020
1938 Clear 17 1011 31 0 0.78 114 21:37 06.06.2020
1939 Clear 14 1011 41 0 0.73 119 21:19 06.06.2020
1940 Clear 14 1011 41 0 0.73 119 20:40 06.06.2020
1941 Clear 12 1011 42 0 0.63 122 20:20 06.06.2020
1942 Clear 12 1011 42 0 0.63 122 19:58 06.06.2020
1943 Clear 12 1011 42 0 0.63 122 19:40 06.06.2020
1944 Clear 12 1011 43 0 0.65 151 19:21 06.06.2020
1945 Clear 12 1011 43 0 0.65 151 18:55 06.06.2020
1946 Clear 12 1011 43 0 0.65 151 18:36 06.06.2020
1947 Clear 12 1011 42 0 1.05 173 18:18 06.06.2020
1948 Clear 12 1011 42 0 1.05 173 17:43 06.06.2020
1949 Clear 12 1010 41 0 1.34 165 17:20 06.06.2020
1950 Clear 12 1010 41 0 1.34 165 16:56 06.06.2020
1951 Clear 12 1010 41 0 1.34 165 16:38 06.06.2020
1952 Clear 13 1009 39 0 1.43 152 16:19 06.06.2020
1953 Clear 13 1009 39 0 1.43 152 15:44 06.06.2020
1954 Clear 15 1009 36 0 1.95 142 15:20 06.06.2020
1955 Clear 15 1009 36 0 1.95 142 14:58 06.06.2020
1956 Clear 15 1009 36 0 1.95 142 14:37 06.06.2020
1957 Clouds 17 1009 35 0 2.66 134 14:19 06.06.2020
1958 Clouds 17 1009 35 0 2.66 134 13:47 06.06.2020
1959 Clouds 19 1009 31 0 3.87 134 13:19 06.06.2020
1960 Clouds 19 1009 31 0 3.87 134 12:57 06.06.2020
1961 Clouds 19 1009 31 0 3.87 134 12:57 06.06.2020
1962 Clouds 19 1009 31 0 3.87 134 12:39 06.06.2020
1963 Clouds 20 1009 28 0 3.72 136 12:19 06.06.2020
1964 Clouds 20 1009 28 0 3.72 136 11:54 06.06.2020
1965 Clouds 20 1009 28 0 3.72 136 11:36 06.06.2020
1966 Clouds 20 1009 26 0 2.57 132 11:18 06.06.2020
1967 Clouds 20 1009 26 0 2.57 132 10:55 06.06.2020
1968 Clouds 20 1009 26 0 2.57 132 10:36 06.06.2020
1969 Clear 20 1008 25 0 1.65 133 10:18 06.06.2020
1970 Clear 20 1008 25 0 1.65 133 09:43 06.06.2020
1971 Clear 20 1008 25 0 0.81 166 09:24 06.06.2020
1972 Clear 20 1008 25 0 0.81 166 08:48 06.06.2020
1973 Clear 20 1008 25 0 0.53 220 08:25 06.06.2020
1974 Clear 20 1008 25 0 0.53 220 07:57 06.06.2020
1975 Clear 20 1008 25 0 0.53 220 07:38 06.06.2020
1976 Clear 20 1009 26 0 0.91 249 07:20 06.06.2020
1977 Clear 20 1009 26 0 0.91 249 06:44 06.06.2020
1978 Clear 19 1009 27 0 1.06 241 06:26 06.06.2020
1979 Clear 19 1009 27 0 1.06 241 05:41 06.06.2020
1980 Clear 19 1009 28 0 1.14 237 04:51 06.06.2020
1981 Clear 18 1009 29 0 1.14 227 03:45 06.06.2020
1982 Clear 17 1009 30 0 1.19 209 02:35 06.06.2020
1983 Clear 16 1010 33 0 1.66 197 01:23 06.06.2020
1984 Clear 16 1010 33 0 1.66 197 00:58 06.06.2020
1985 Clear 16 1010 33 0 1.66 197 00:40 06.06.2020
1986 Clear 15 1011 34 0 1.48 190 00:21 06.06.2020
1987 Clear 15 1011 34 0 1.48 190 23:40 05.06.2020
1988 Clear 14 1011 37 0 1 165 23:20 05.06.2020
1989 Clear 14 1011 37 0 1 165 23:20 05.06.2020
1990 Clear 14 1011 37 0 1 165 22:57 05.06.2020
1991 Clear 14 1011 37 0 1 165 22:39 05.06.2020
1992 Clear 13 1011 40 0 0.51 141 22:20 05.06.2020
1993 Clear 13 1011 40 0 0.51 141 21:55 05.06.2020
1994 Clear 13 1011 40 0 0.51 141 21:37 05.06.2020
1995 Clear 11 1011 49 0 0.35 77 21:18 05.06.2020
1996 Clear 11 1011 49 0 0.35 77 20:44 05.06.2020
1997 Clear 9 1011 51 0 0.56 96 20:22 05.06.2020
1998 Clear 9 1011 51 0 0.56 96 19:57 05.06.2020
1999 Clear 9 1011 51 0 0.56 96 19:39 05.06.2020
2000 Clear 8 1011 54 0 0.49 104 19:20 05.06.2020
2001 Clear 8 1011 54 0 0.49 104 18:40 05.06.2020
2002 Clear 8 1011 54 0 0.32 122 18:21 05.06.2020
2003 Clear 8 1011 54 0 0.32 122 18:21 05.06.2020
2004 Clear 8 1011 54 0 0.32 122 17:59 05.06.2020
2005 Clear 8 1011 54 0 0.32 122 17:41 05.06.2020
2006 Clear 9 1011 53 0 0.48 116 17:20 05.06.2020
2007 Clear 9 1011 53 0 0.48 116 16:57 05.06.2020
2008 Clear 9 1011 53 0 0.48 116 16:37 05.06.2020
2009 Clear 10 1011 50 0 0.76 82 16:19 05.06.2020
2010 Clear 10 1011 50 0 0.76 82 15:38 05.06.2020
2011 Clear 11 1011 45 0 1.1 50 15:20 05.06.2020
2012 Clear 11 1011 45 0 1.1 50 14:57 05.06.2020
2013 Clear 11 1011 45 0 1.1 50 14:39 05.06.2020
2014 Clouds 14 1010 40 0 1.28 18 14:21 05.06.2020
2015 Clouds 14 1010 40 0 1.28 18 13:46 05.06.2020
2016 Clouds 16 1010 34 0 1.74 4 13:27 05.06.2020
2017 Clouds 16 1010 34 0 1.74 4 12:56 05.06.2020
2018 Clouds 16 1010 34 0 1.74 4 12:37 05.06.2020
2019 Clouds 16 1010 32 0 1.86 356 12:18 05.06.2020
2020 Clouds 16 1010 32 0 1.86 356 11:42 05.06.2020
2021 Clouds 16 1010 31 0 1.8 349 11:23 05.06.2020
2022 Clouds 16 1010 31 0 1.8 349 10:58 05.06.2020
2023 Clouds 16 1010 31 0 1.8 349 10:39 05.06.2020
2024 Clouds 16 1010 31 0 1.95 342 10:19 05.06.2020
2025 Clouds 16 1010 31 0 1.95 342 09:57 05.06.2020
2026 Clouds 16 1010 31 0 1.95 342 09:37 05.06.2020
2027 Clouds 16 1010 33 0 1.91 359 09:19 05.06.2020
2028 Clouds 16 1010 33 0 1.91 359 08:57 05.06.2020
2029 Clouds 16 1010 33 0 1.91 359 08:38 05.06.2020
2030 Clouds 16 1011 34 0 2.11 358 08:18 05.06.2020
2031 Clouds 16 1011 34 0 2.11 358 07:48 05.06.2020
2032 Clouds 16 1011 34 0 2.11 358 07:30 05.06.2020
2033 Clouds 15 1011 35 0 2.05 3 06:45 05.06.2020
2034 Clouds 14 1012 37 0 2.01 17 05:23 05.06.2020
2035 Clouds 14 1012 37 0 2.04 14 04:27 05.06.2020
2036 Clouds 14 1012 37 0 2.04 14 03:29 05.06.2020
2037 Clouds 14 1013 37 0 2.42 32 02:29 05.06.2020
2038 Clouds 14 1013 38 0 2.93 43 01:58 05.06.2020
2039 Clouds 14 1013 38 0 2.93 43 01:30 05.06.2020
2040 Clouds 13 1013 40 0 3.4 52 00:43 05.06.2020
2041 Clouds 12 1014 42 0 3.16 53 00:21 05.06.2020
2042 Clouds 12 1014 42 0 3.16 53 23:47 04.06.2020
2043 Clouds 12 1014 42 0 3.16 53 23:29 04.06.2020
2044 Clouds 11 1014 45 0 2.17 38 22:57 04.06.2020
2045 Clouds 11 1014 45 0 2.17 38 22:38 04.06.2020
2046 Clouds 10 1014 49 0 1.93 19 22:20 04.06.2020
2047 Clouds 10 1014 49 0 1.93 19 21:57 04.06.2020
2048 Clouds 10 1014 49 0 1.93 19 21:38 04.06.2020
2049 Clear 9 1014 54 0 1.91 20 21:20 04.06.2020
2050 Clear 8 1014 55 0 1.86 359 20:55 04.06.2020
2051 Clear 8 1014 55 0 1.86 359 20:37 04.06.2020
2052 Clear 7 1014 60 0 2.03 6 20:19 04.06.2020
2053 Clear 7 1014 60 0 2.03 6 19:41 04.06.2020
2054 Clear 6 1014 62 0 2 17 19:21 04.06.2020
2055 Clear 6 1014 62 0 2 17 18:57 04.06.2020
2056 Clear 6 1014 62 0 2 17 18:38 04.06.2020
2057 Clear 7 1014 61 0 2.08 26 18:20 04.06.2020
2058 Clear 7 1014 61 0 2.08 26 18:20 04.06.2020
2059 Clear 7 1014 61 0 2.08 26 17:43 04.06.2020
2060 Clear 7 1014 59 0 2.62 31 17:22 04.06.2020
2061 Clear 7 1014 59 0 2.62 31 16:58 04.06.2020
2062 Clear 7 1014 59 0 2.62 31 16:40 04.06.2020
2063 Clear 8 1014 55 0 3.17 28 16:20 04.06.2020
2064 Clear 8 1014 55 0 3.17 28 15:44 04.06.2020
2065 Clear 10 1014 52 0 3.11 27 15:26 04.06.2020
2066 Clear 10 1014 52 0 3.11 27 14:42 04.06.2020
2067 Clouds 12 1013 47 0 3.63 28 14:22 04.06.2020
2068 Clouds 12 1013 48 0 3.69 26 13:58 04.06.2020
2069 Clouds 12 1013 48 0 3.69 26 13:40 04.06.2020
2070 Clouds 13 1013 42 0 4.43 31 13:20 04.06.2020
2071 Clouds 13 1013 42 0 4.43 31 12:59 04.06.2020
2072 Clouds 13 1013 42 0 4.43 31 12:40 04.06.2020
2073 Clouds 14 1012 40 0 4.22 30 12:22 04.06.2020
2074 Clouds 14 1012 40 0 4.22 30 11:55 04.06.2020
2075 Clouds 14 1012 40 0 4.22 30 11:37 04.06.2020
2076 Clouds 14 1012 41 0 4.1 26 11:19 04.06.2020
2077 Clouds 14 1012 41 0 4.1 26 10:41 04.06.2020
2078 Clouds 14 1012 41 0 4.2 21 10:22 04.06.2020
2079 Clouds 14 1012 41 0 4.2 21 09:57 04.06.2020
2080 Clouds 14 1012 41 0 4.2 21 09:38 04.06.2020
2081 Clouds 15 1011 39 0 4.15 26 09:20 04.06.2020
2082 Clouds 15 1011 39 0 4.15 26 08:42 04.06.2020
2083 Clouds 15 1011 38 0 3.71 27 08:24 04.06.2020
2084 Clouds 15 1011 38 0 3.71 27 07:47 04.06.2020
2085 Clouds 14 1012 39 0 3.78 27 07:23 04.06.2020
2086 Clouds 14 1012 39 0 3.78 27 06:42 04.06.2020
2087 Clouds 14 1012 39 0 3.42 23 06:24 04.06.2020
2088 Clouds 14 1012 39 0 3.42 23 05:34 04.06.2020
2089 Clouds 13 1012 40 0 2.2 41 03:55 04.06.2020
2090 Clouds 13 1013 42 0 2.25 47 02:56 04.06.2020
2091 Clouds 12 1013 43 0 2.82 39 01:48 04.06.2020
2092 Clouds 11 1013 47 0 3.12 39 01:19 04.06.2020
2093 Clouds 11 1013 47 0 3.12 39 00:36 04.06.2020
2094 Clouds 10 1013 52 0 2.68 49 23:41 03.06.2020
2095 Clouds 9 1013 57 0 1.92 47 23:20 03.06.2020
2096 -273 0 0 0 0 0 22:58 03.06.2020
2097 Clouds 9 1013 57 0 1.92 47 22:58 03.06.2020
2098 Clouds 9 1013 57 0 1.92 47 22:39 03.06.2020
2099 Clouds 9 1013 61 0 1.97 38 22:18 03.06.2020
2100 Clouds 9 1013 61 0 1.97 38 21:56 03.06.2020
2101 Clouds 9 1013 61 0 1.97 38 21:38 03.06.2020
2102 Clouds 8 1013 66 0 1.98 36 21:20 03.06.2020
2103 Clear 7 1014 65 0 2.43 23 20:43 03.06.2020
2104 Clouds 6 1014 69 0 2.43 18 20:22 03.06.2020
2105 Clouds 6 1014 69 0 2.43 18 19:58 03.06.2020
2106 Clouds 6 1014 69 0 2.43 18 19:40 03.06.2020
2107 Clouds 6 1013 69 0 2.47 17 19:22 03.06.2020
2108 Clouds 6 1013 69 0 2.47 17 18:59 03.06.2020
2109 Clouds 6 1013 69 0 2.47 17 18:41 03.06.2020
2110 Clouds 6 1013 67 0 2.3 22 18:20 03.06.2020
2111 Clouds 6 1013 67 0 2.3 22 17:54 03.06.2020
2112 Clouds 6 1013 67 0 2.3 22 17:36 03.06.2020
2113 Clouds 7 1012 64 0 2.05 25 17:18 03.06.2020
2114 Clouds 7 1012 64 0 2.05 25 16:41 03.06.2020
2115 Clear 7 1012 61 0 1.83 34 16:20 03.06.2020
2116 Clear 7 1012 61 0 1.83 34 15:57 03.06.2020
2117 Clear 7 1012 61 0 1.83 34 15:38 03.06.2020
2118 Clear 9 1011 57 0 1.7 47 15:19 03.06.2020
2119 Clear 9 1011 57 0 1.7 47 14:46 03.06.2020
2120 Clouds 11 1010 49 0 2.26 39 14:24 03.06.2020
2121 Clouds 11 1010 49 0 2.26 39 13:55 03.06.2020
2122 Clouds 11 1010 49 0 2.26 39 13:37 03.06.2020
2123 Clouds 13 1010 43 0 2.93 43 13:18 03.06.2020
2124 Clouds 13 1010 43 0 2.93 43 12:42 03.06.2020
2125 Clouds 13 1009 40 0 3.57 35 12:21 03.06.2020
2126 Clouds 13 1009 40 0 3.57 35 11:45 03.06.2020
2127 Clouds 14 1009 40 0 3.76 28 11:26 03.06.2020
2128 Clouds 14 1009 40 0 3.76 28 10:56 03.06.2020
2129 Clouds 14 1009 40 0 3.76 28 10:38 03.06.2020
2130 Clouds 14 1008 42 0 3.86 20 10:20 03.06.2020
2131 Clouds 14 1008 42 0 3.86 20 09:42 03.06.2020
2132 Clouds 14 1008 45 0 3.79 11 09:19 03.06.2020
2133 Clouds 14 1008 39 0 3.73 18 08:47 03.06.2020
2134 Clouds 14 1008 41 0 3.35 14 08:24 03.06.2020
2135 Clouds 14 1008 41 0 3.35 14 07:58 03.06.2020
2136 Clouds 14 1008 41 0 3.35 14 07:40 03.06.2020
2137 Clouds 14 1008 44 0 3.39 16 07:19 03.06.2020
2138 Clouds 14 1008 44 0 3.39 16 06:48 03.06.2020
2139 Clouds 14 1008 44 0 3.39 16 06:29 03.06.2020
2140 Rain 14 1008 48 0 3.38 23 05:46 03.06.2020
2141 Rain 14 1008 53 0 3.85 35 04:33 03.06.2020
2142 Rain 13 1008 58 0 4.61 24 03:42 03.06.2020
2143 Rain 13 1008 61 0 4.47 8 02:46 03.06.2020
2144 Clouds 11 1008 69 0 3.31 354 01:48 03.06.2020
2145 Rain 10 1008 76 0 2.6 356 00:41 03.06.2020
2146 Rain 10 1007 84 0 1.84 341 00:23 03.06.2020
2147 Rain 10 1007 84 0 1.84 341 23:51 02.06.2020
2148 Rain 10 1007 83 0 1.59 321 23:27 02.06.2020
2149 Rain 10 1007 83 0 1.59 321 22:56 02.06.2020
2150 Rain 10 1007 83 0 1.59 321 22:37 02.06.2020
2151 Rain 10 1007 80 0 0.74 354 22:18 02.06.2020
2152 Rain 10 1007 80 0 0.74 354 21:55 02.06.2020
2153 Rain 10 1007 80 0 0.74 354 21:36 02.06.2020
2154 Rain 9 1007 81 0 1.62 35 21:18 02.06.2020
2155 Rain 9 1007 81 0 1.62 35 20:55 02.06.2020
2156 Rain 9 1007 81 0 1.62 35 20:36 02.06.2020
2157 Rain 9 1007 80 0 2.23 50 20:18 02.06.2020
2158 Rain 9 1007 80 0 2.23 50 19:41 02.06.2020
2159 Rain 9 1006 74 0 2.51 12 19:23 02.06.2020
2160 Rain 9 1006 74 0 2.51 12 18:56 02.06.2020
2161 Rain 9 1006 74 0 2.51 12 18:38 02.06.2020
2162 Clouds 10 1006 71 0 2.62 353 18:19 02.06.2020
2163 Clouds 10 1006 71 0 2.62 353 17:43 02.06.2020
2164 Clouds 10 1006 64 0 2.66 316 17:23 02.06.2020
2165 Clouds 10 1006 64 0 2.66 316 16:59 02.06.2020
2166 Clouds 10 1006 64 0 2.66 316 16:40 02.06.2020
2167 Rain 12 1006 56 0 1.56 278 16:21 02.06.2020
2168 Rain 12 1006 56 0 1.56 278 16:21 02.06.2020
2169 Rain 12 1006 56 0 1.56 278 15:57 02.06.2020
2170 Rain 12 1006 56 0 1.56 278 15:37 02.06.2020
2171 Clouds 13 1006 48 0 1.84 203 15:19 02.06.2020
2172 Clouds 13 1006 48 0 1.84 203 14:45 02.06.2020
2173 Clouds 14 1005 44 0 2.25 211 14:26 02.06.2020
2174 Clouds 13 1005 49 0 1.82 188 13:55 02.06.2020
2175 Clouds 13 1005 49 0 1.82 188 13:36 02.06.2020
2176 Clouds 14 1005 43 0 2.22 196 13:18 02.06.2020
2177 Clouds 14 1005 43 0 2.22 196 12:54 02.06.2020
2178 Clouds 14 1005 43 0 2.22 196 12:36 02.06.2020
2179 Clouds 15 1005 35 0 3.94 201 12:18 02.06.2020
2180 Clouds 15 1005 35 0 3.94 201 11:40 02.06.2020
2181 Clouds 16 1004 32 0 4.47 201 11:21 02.06.2020
2182 Clouds 16 1004 32 0 4.47 201 10:55 02.06.2020
2183 Clouds 16 1004 32 0 4.47 201 10:37 02.06.2020
2184 Clouds 17 1005 31 0 4.49 202 10:18 02.06.2020
2185 Clouds 17 1005 31 0 4.49 202 09:42 02.06.2020
2186 Clouds 16 1005 30 0 4.41 207 09:20 02.06.2020
2187 Clouds 16 1005 33 0 2.43 206 08:53 02.06.2020
2188 Clouds 16 1005 33 0 2.91 212 08:28 02.06.2020
2189 Clouds 16 1005 33 0 2.91 212 07:55 02.06.2020
2190 Clouds 16 1005 33 0 2.91 212 07:31 02.06.2020
2191 Clouds 15 1005 33 0 3.13 210 06:58 02.06.2020
2192 Clouds 15 1005 33 0 3.13 210 06:36 02.06.2020
2193 Clouds 15 1005 33 0 3.08 205 05:31 02.06.2020
2194 Clouds 14 1006 35 0 2.6 202 03:54 02.06.2020
2195 Clouds 14 1006 37 0 2.3 204 02:37 02.06.2020
2196 Clouds 13 1006 37 0 1.75 186 01:48 02.06.2020
2197 Clouds 12 1006 39 0 1.35 163 00:46 02.06.2020
2198 Clouds 12 1006 41 0 0.99 133 00:20 02.06.2020
2199 Clouds 12 1006 41 0 0.99 133 23:39 01.06.2020
2200 Clouds 11 1006 44 0 0.95 94 23:19 01.06.2020
2201 Clouds 11 1006 44 0 0.95 94 22:56 01.06.2020
2202 Clouds 11 1006 44 0 0.95 94 22:38 01.06.2020
2203 Clouds 10 1006 47 0 1.11 78 22:19 01.06.2020
2204 Clouds 10 1006 47 0 1.11 78 22:19 01.06.2020
2205 Clouds 10 1006 47 0 1.11 78 21:42 01.06.2020
2206 Clouds 8 1006 53 0 1.06 85 21:22 01.06.2020
2207 Clouds 8 1007 53 0 0.9 92 20:59 01.06.2020
2208 Clouds 8 1007 53 0 0.9 92 20:41 01.06.2020
2209 Clouds 7 1007 56 0 0.85 101 20:21 01.06.2020
2210 Clouds 7 1007 56 0 0.85 101 19:59 01.06.2020
2211 Clouds 7 1007 56 0 0.85 101 19:41 01.06.2020
2212 Clouds 6 1006 59 0 0.81 100 19:20 01.06.2020
2213 Clouds 6 1006 59 0 0.81 100 19:20 01.06.2020
2214 Clouds 6 1006 59 0 0.81 100 18:58 01.06.2020
2215 Clouds 6 1006 59 0 0.81 100 18:38 01.06.2020
2216 Clouds 6 1006 59 0 0.81 100 18:38 01.06.2020
2217 Clouds 6 1006 57 0 0.75 104 18:19 01.06.2020
2218 Clouds 6 1006 57 0 0.75 104 17:41 01.06.2020
2219 Clouds 7 1006 56 0 0.85 112 17:21 01.06.2020
2220 Clouds 7 1006 56 0 0.85 112 16:58 01.06.2020
2221 Clouds 7 1006 56 0 0.85 112 16:39 01.06.2020
2222 Clouds 7 1006 54 0 0.93 107 16:19 01.06.2020
2223 Clouds 7 1006 54 0 0.93 107 15:54 01.06.2020
2224 Clouds 7 1006 54 0 0.93 107 15:36 01.06.2020
2225 Clouds 8 1006 52 0 0.74 113 15:18 01.06.2020
2226 Clouds 8 1006 52 0 0.74 113 15:18 01.06.2020
2227 Clouds 8 1006 52 0 0.74 113 14:54 01.06.2020
2228 Clouds 8 1006 52 0 0.74 113 14:36 01.06.2020
2229 Clouds 10 1006 47 0 0.68 135 14:18 01.06.2020
2230 Clouds 10 1006 46 0 1.03 103 13:41 01.06.2020
2231 Clouds 13 1005 39 0 1.08 125 13:21 01.06.2020
2232 Clouds 13 1005 39 0 1.08 125 12:58 01.06.2020
2233 Clouds 13 1005 39 0 1.08 125 12:39 01.06.2020
2234 Clouds 13 1005 39 0 1.08 125 12:39 01.06.2020
2235 Clouds 13 1005 36 0 1.32 154 12:21 01.06.2020
2236 Clouds 13 1005 36 0 1.32 154 11:56 01.06.2020
2237 Clouds 13 1005 36 0 1.32 154 11:36 01.06.2020
2238 Clouds 13 1005 35 0 1.53 171 11:18 01.06.2020
2239 Clouds 13 1005 35 0 1.53 171 10:39 01.06.2020
2240 Clouds 13 1005 35 0 1.82 177 10:20 01.06.2020
2241 Clouds 13 1005 35 0 1.82 177 09:58 01.06.2020
2242 Clouds 13 1005 35 0 1.82 177 09:40 01.06.2020
2243 Clouds 14 1004 33 0 2.2 145 09:20 01.06.2020
2244 Clouds 14 1004 33 0 2.2 145 08:52 01.06.2020
2245 Clouds 14 1004 33 0 2.2 145 08:30 01.06.2020
2246 Clouds 14 1004 34 0 2.29 155 07:54 01.06.2020
2247 Clouds 14 1004 34 0 2.29 155 07:36 01.06.2020
2248 Clouds 13 1004 34 0 2.61 166 07:18 01.06.2020
2249 Clouds 13 1004 34 0 2.61 166 06:43 01.06.2020
2250 Clouds 13 1005 35 0 2.92 172 05:54 01.06.2020
2251 Clouds 13 1006 36 0 3.1 175 04:50 01.06.2020
2252 Clouds 12 1006 37 0 3.17 178 03:50 01.06.2020
2253 Clouds 12 1006 37 0 3.17 178 03:32 01.06.2020
2254 Clouds 11 1007 39 0 3.06 180 02:32 01.06.2020
2255 Clear 11 1007 41 0 2.96 176 01:35 01.06.2020
2256 Clear 10 1007 44 0 2.44 162 00:59 01.06.2020
2257 Clear 10 1007 44 0 2.44 162 00:40 01.06.2020
2258 Clear 9 1008 48 0 1.77 137 00:21 01.06.2020
2259 Clear 9 1008 48 0 1.77 137 23:58 31.05.2020
2260 Clear 9 1008 48 0 1.77 137 23:39 31.05.2020
2261 Clear 8 1009 52 0 1.32 108 23:21 31.05.2020
2262 Clear 8 1009 52 0 1.32 108 22:57 31.05.2020
2263 Clear 8 1009 52 0 1.32 108 22:38 31.05.2020
2264 Clear 7 1008 56 0 1.09 88 22:20 31.05.2020
2265 Clear 7 1008 56 0 1.09 88 21:42 31.05.2020
2266 Clear 5 1009 64 0 1.06 81 21:24 31.05.2020
2267 Clear 5 1009 64 0 1.06 81 20:59 31.05.2020
2268 Clear 5 1009 64 0 1.06 81 20:58 31.05.2020
2269 Clear 5 1009 64 0 1.06 81 20:58 31.05.2020
2270 Clear 5 1009 64 0 1.06 81 20:40 31.05.2020
2271 Clouds 4 1008 71 0 1.18 78 20:21 31.05.2020
2272 Clouds 4 1008 71 0 1.18 78 19:56 31.05.2020
2273 Clouds 4 1008 71 0 1.18 78 19:56 31.05.2020
2274 Clouds 4 1008 71 0 1.18 78 19:37 31.05.2020
2275 Clouds 3 1008 74 0 1.16 78 19:19 31.05.2020
2276 Clouds 3 1008 74 0 1.16 78 19:19 31.05.2020
2277 Clouds 3 1008 74 0 1.16 78 18:44 31.05.2020
2278 Clouds 3 1008 74 0 1.16 78 18:44 31.05.2020
2279 Clouds 3 1008 74 0 1.04 78 18:25 31.05.2020
2280 Clouds 3 1008 74 0 1.04 78 17:57 31.05.2020
2281 Clouds 3 1008 74 0 1.04 78 17:39 31.05.2020
2282 Clouds 3 1008 72 0 0.97 86 17:19 31.05.2020
2283 Clouds 3 1008 72 0 0.97 86 16:40 31.05.2020
2284 Clouds 4 1008 69 0 0.98 100 16:21 31.05.2020
2285 Clouds 4 1008 69 0 0.98 100 16:21 31.05.2020
2286 Clouds 4 1008 69 0 0.98 100 15:40 31.05.2020
2287 Clouds 5 1008 64 0 1.11 103 15:22 31.05.2020
2288 Clouds 5 1008 64 0 1.11 103 14:58 31.05.2020
2289 Clouds 5 1008 64 0 1.11 103 14:40 31.05.2020
2290 Clouds 8 1008 56 0 1.87 90 14:19 31.05.2020
2291 Clouds 8 1008 56 0 1.87 90 13:54 31.05.2020
2292 Clouds 8 1008 56 0 1.87 90 13:36 31.05.2020
2293 Clouds 9 1008 49 0 1.71 107 13:18 31.05.2020
2294 Clouds 9 1008 49 0 1.71 107 12:41 31.05.2020
2295 Clouds 10 1007 47 0 1.85 130 12:23 31.05.2020
2296 Clouds 10 1007 47 0 1.85 130 11:49 31.05.2020
2297 Clouds 10 1007 46 0 2.11 136 11:25 31.05.2020
2298 Clouds 10 1007 46 0 2.11 136 10:59 31.05.2020
2299 Clouds 10 1007 46 0 2.11 136 10:41 31.05.2020
2300 Clouds 10 1007 46 0 2.11 136 10:23 31.05.2020
2301 Clouds 10 1007 46 0 2.11 136 10:23 31.05.2020
2302 Clouds 10 1007 46 0 2.11 136 09:57 31.05.2020
2303 Clouds 10 1007 46 0 2.11 136 09:39 31.05.2020
2304 Clouds 9 1007 47 0 1.93 143 09:19 31.05.2020
2305 Clouds 10 1007 44 0 2.07 135 08:42 31.05.2020
2306 Clouds 10 1007 45 0 1.86 135 08:23 31.05.2020
2307 Clouds 10 1007 45 0 1.86 135 07:48 31.05.2020
2308 Clouds 9 1007 46 0 1.85 139 07:22 31.05.2020
2309 Clouds 9 1007 46 0 1.85 139 06:57 31.05.2020
2310 Clouds 9 1007 46 0 1.85 139 06:35 31.05.2020
2311 Clouds 9 1007 47 0 1.83 143 05:49 31.05.2020
2312 Clouds 9 1007 47 0 1.83 143 05:31 31.05.2020
2313 Clouds 8 1009 50 0 1.62 139 04:18 31.05.2020
2314 Clouds 8 1009 50 0 1.62 139 03:29 31.05.2020
2315 Clouds 8 1009 52 0 1.43 135 02:46 31.05.2020
2316 Clear 7 1009 54 0 1.44 143 01:46 31.05.2020
2317 Clear 6 1010 58 0 1.66 140 00:41 31.05.2020
2318 Clear 5 1010 62 0 1.58 125 00:23 31.05.2020
2319 Clear 5 1010 62 0 1.58 125 23:42 30.05.2020
2320 Clear 4 1011 67 0 1.39 106 23:23 30.05.2020
2321 Clear 4 1011 67 0 1.39 106 22:56 30.05.2020
2322 Clear 4 1011 67 0 1.39 106 22:38 30.05.2020
2323 Clear 3 1011 71 0 1.25 90 22:20 30.05.2020
2324 Clear 3 1011 71 0 1.25 90 21:43 30.05.2020
2325 Clear 2 1011 79 0 1.45 61 21:22 30.05.2020
2326 Clear 2 1011 79 0 1.45 61 20:58 30.05.2020
2327 Clear 2 1011 79 0 1.45 61 20:39 30.05.2020
2328 Clear 0 1011 88 0 1.25 59 20:21 30.05.2020
2329 Clear 0 1011 88 0 1.25 59 19:58 30.05.2020
2330 Clear 0 1011 88 0 1.25 59 19:40 30.05.2020
2331 Clear -1 1011 90 0 1.35 68 19:20 30.05.2020
2332 Clear -1 1011 90 0 1.35 68 18:43 30.05.2020
2333 Clear -1 1010 90 0 1.54 74 18:20 30.05.2020
2334 Clear -1 1010 90 0 1.54 74 17:43 30.05.2020
2335 Clear 0 1010 90 0 1.86 71 17:24 30.05.2020
2336 Clear 0 1010 90 0 1.86 71 16:59 30.05.2020
2337 Clear 0 1010 90 0 1.86 71 16:40 30.05.2020
2338 Clear 1 1010 84 0 2.23 71 16:21 30.05.2020
2339 Clear 1 1010 84 0 2.23 71 15:44 30.05.2020
2340 Clear 2 1010 78 0 2.94 74 15:26 30.05.2020
2341 Clear 2 1010 78 0 2.94 74 14:45 30.05.2020
2342 Clouds 4 1009 70 0 3.11 66 14:26 30.05.2020
2343 Clouds 4 1009 70 0 3.11 66 13:44 30.05.2020
2344 Clouds 5 1009 62 0 3.45 58 13:26 30.05.2020
2345 Clouds 5 1009 62 0 3.45 58 12:43 30.05.2020
2346 Clouds 6 1009 59 0 3.5 49 12:23 30.05.2020
2347 Clouds 6 1009 59 0 3.5 49 11:59 30.05.2020
2348 Clouds 6 1009 59 0 3.5 49 11:41 30.05.2020
2349 Clouds 6 1009 58 0 3.5 41 11:22 30.05.2020
2350 Clouds 6 1009 58 0 3.5 41 10:56 30.05.2020
2351 Clouds 6 1009 58 0 3.5 41 10:38 30.05.2020
2352 Clouds 7 1008 57 0 3.25 33 10:20 30.05.2020
2353 Clouds 7 1008 57 0 3.25 33 09:43 30.05.2020
2354 Clouds 6 1008 58 0 2.81 42 09:25 30.05.2020
2355 Clouds 6 1008 58 0 2.81 42 08:42 30.05.2020
2356 Clouds 6 1008 58 0 2.34 41 08:22 30.05.2020
2357 Clouds 6 1008 58 0 2.34 41 07:40 30.05.2020
2358 Clouds 6 1008 60 0 1.88 43 07:19 30.05.2020
2359 Clouds 6 1008 60 0 1.88 43 06:29 30.05.2020
2360 Clouds 5 1008 63 0 1.79 50 05:51 30.05.2020
2361 Clouds 5 1008 66 0 1.71 53 04:59 30.05.2020
2362 Clouds 4 1008 69 0 1.06 44 02:53 30.05.2020
2363 Clouds 3 1008 71 0 0.62 38 02:23 30.05.2020
2364 Clouds 2 1008 77 0 0.52 41 00:45 30.05.2020
2365 Clouds 1 1008 82 0 1.09 54 00:25 30.05.2020
2366 Clouds 1 1008 82 0 1.09 54 23:59 29.05.2020
2367 Clouds 1 1008 82 0 1.09 54 23:38 29.05.2020
2368 Clouds 0 1008 89 0 1.36 43 23:19 29.05.2020
2369 Clouds 0 1008 89 0 1.36 43 22:55 29.05.2020
2370 Clouds 0 1008 89 0 1.36 43 22:36 29.05.2020
2371 Clouds 0 1008 93 0 1.32 24 22:18 29.05.2020
2372 Clouds 0 1008 93 0 1.32 24 21:41 29.05.2020
2373 Clouds 0 1008 93 0 1.32 24 21:41 29.05.2020
2374 Clouds -1 1007 95 0 1.52 359 21:21 29.05.2020
2375 Clouds -1 1007 95 0 1.52 359 20:58 29.05.2020
2376 Clouds -1 1007 95 0 1.52 359 20:39 29.05.2020
2377 Clouds -1 1006 96 0 1.59 6 20:19 29.05.2020
2378 Clouds -1 1006 96 0 1.59 6 19:43 29.05.2020
2379 Clouds -1 1006 96 0 1.36 10 19:25 29.05.2020
2380 Clouds -1 1006 96 0 1.36 10 18:48 29.05.2020
2381 Snow -1 1005 97 0 1.47 36 18:24 29.05.2020
2382 Snow -1 1005 97 0 1.47 36 17:59 29.05.2020
2383 Snow -1 1005 97 0 1.47 36 17:39 29.05.2020
2384 Snow 0 1004 97 0 1.84 48 17:21 29.05.2020
2385 Snow 0 1004 97 0 1.84 48 16:55 29.05.2020
2386 Snow 0 1004 97 0 1.84 48 16:37 29.05.2020
2387 Clouds 0 1004 97 0 2.28 47 16:19 29.05.2020
2388 Clouds 0 1004 97 0 2.28 47 15:42 29.05.2020
2389 Clouds 1 1003 89 0 3.57 44 15:21 29.05.2020
2390 Clouds 1 1003 89 0 3.57 44 14:59 29.05.2020
2391 Clouds 1 1003 89 0 3.57 44 14:39 29.05.2020
2392 Clouds 1 1003 89 0 3.57 44 14:39 29.05.2020
2393 Clouds 2 1002 84 0 3.57 39 14:20 29.05.2020
2394 Clouds 2 1002 84 0 3.57 39 13:43 29.05.2020
2395 Clouds 2 1001 79 0 3.79 47 13:23 29.05.2020
2396 Clouds 2 1001 79 0 3.79 47 12:58 29.05.2020
2397 Clouds 2 1001 79 0 3.79 47 12:39 29.05.2020
2398 Clouds 3 1000 75 0 3.07 53 12:21 29.05.2020
2399 Clouds 3 1000 75 0 3.07 53 11:44 29.05.2020
2400 Clouds 3 1000 73 0 1.72 49 11:25 29.05.2020
2401 Clouds 3 1000 73 0 1.72 49 10:56 29.05.2020
2402 Clouds 3 1000 73 0 1.72 49 10:36 29.05.2020
2403 Clouds 3 999 74 0 1.34 28 10:18 29.05.2020
2404 Clouds 3 999 74 0 1.34 28 09:42 29.05.2020
2405 Clouds 2 999 85 0 2.12 307 09:19 29.05.2020
2406 Clouds 2 999 85 0 2.12 307 08:48 29.05.2020
2407 Clouds 1 999 87 0 2.65 302 08:26 29.05.2020
2408 Clouds 1 999 87 0 2.65 302 07:58 29.05.2020
2409 Clouds 1 999 87 0 2.65 302 07:37 29.05.2020
2410 Clouds 1 998 91 0 3.08 292 07:18 29.05.2020
2411 Clouds 1 998 91 0 3.08 292 06:46 29.05.2020
2412 Clouds 0 997 94 0 3.1 287 06:26 29.05.2020
2413 Clouds 0 997 94 0 3.1 287 05:45 29.05.2020
2414 Snow -1 996 97 0 4.2 304 02:36 29.05.2020
2415 Snow -1 995 97 0 4.79 308 01:29 29.05.2020
2416 Snow -2 994 96 0 5.58 314 00:54 29.05.2020
2417 Snow -2 994 96 0 5.58 314 00:34 29.05.2020
2418 Snow -2 994 97 0 6.1 312 23:59 28.05.2020
2419 Snow -2 994 97 0 6.1 312 23:39 28.05.2020
2420 Snow -2 993 97 0 4.86 311 23:19 28.05.2020
2421 Snow -2 993 97 0 4.86 311 23:19 28.05.2020
2422 Snow -2 993 97 0 4.86 311 22:44 28.05.2020
2423 Snow -2 993 97 0 4.34 326 22:26 28.05.2020
2424 Snow -2 993 97 0 4.34 326 21:57 28.05.2020
2425 Snow -2 993 97 0 4.34 326 21:39 28.05.2020
2426 Snow -2 992 97 0 3.8 329 21:20 28.05.2020
2427 Snow -2 992 97 0 3.8 329 20:57 28.05.2020
2428 Snow -2 992 97 0 3.8 329 20:38 28.05.2020
2429 Snow -1 993 97 0 4.63 341 20:18 28.05.2020
2430 Snow -1 993 97 0 4.63 341 19:55 28.05.2020
2431 Snow -1 993 97 0 4.63 341 19:37 28.05.2020
2432 Snow -1 993 97 0 5.82 357 19:18 28.05.2020
2433 Snow -1 993 97 0 5.82 357 18:42 28.05.2020
2434 Snow -1 993 97 0 6.78 4 18:22 28.05.2020
2435 Snow -1 993 97 0 6.78 4 17:43 28.05.2020
2436 Snow 0 994 97 0 6.08 360 17:23 28.05.2020
2437 Snow 0 994 97 0 6.08 360 16:58 28.05.2020
2438 Snow 0 994 97 0 6.08 360 16:39 28.05.2020
2439 Snow 0 995 96 0 7.01 3 16:20 28.05.2020
2440 Snow 0 995 96 0 7.01 3 15:46 28.05.2020
2441 Snow 1 995 94 0 6.67 8 15:25 28.05.2020
2442 Snow 1 995 94 0 6.67 8 14:57 28.05.2020
2443 Snow 1 995 94 0 6.67 8 14:39 28.05.2020
2444 Snow 1 996 89 0 7.13 9 14:21 28.05.2020
2445 Clouds 3 995 79 0 7.52 12 13:43 28.05.2020
2446 Clouds 4 995 69 0 6.11 3 13:25 28.05.2020
2447 Clouds 4 995 69 0 6.11 3 12:43 28.05.2020
2448 Clouds 6 995 63 0 6.13 4 12:19 28.05.2020
2449 Clouds 6 995 63 0 6.13 4 11:54 28.05.2020
2450 Clouds 6 995 63 0 6.13 4 11:36 28.05.2020
2451 Clouds 6 995 60 0 6.19 12 11:18 28.05.2020
2452 Clouds 6 995 60 0 6.19 12 10:42 28.05.2020
2453 Clouds 8 995 55 0 6.3 12 10:23 28.05.2020
2454 Clouds 8 995 55 0 6.3 12 09:40 28.05.2020
2455 Clouds 5 995 72 0 4.31 21 09:22 28.05.2020
2456 Clouds 8 995 56 0 6.71 18 09:22 28.05.2020
2457 Clouds 5 995 72 0 4.31 21 08:52 28.05.2020
2458 Clouds 5 995 72 0 4.31 21 08:33 28.05.2020
2459 Snow 3 995 80 0 3.66 1 07:59 28.05.2020
2460 Snow 3 995 80 0 3.66 1 07:41 28.05.2020
2461 Snow 3 994 79 0 4.12 355 07:23 28.05.2020
2462 Snow 3 994 79 0 4.12 355 06:44 28.05.2020
2463 Clouds 4 993 71 0 5.3 353 06:26 28.05.2020
2464 Clouds 4 993 71 0 5.3 353 05:38 28.05.2020
2465 Clouds 5 993 68 0 5.74 3 04:36 28.05.2020
2466 Rain 5 992 68 0 5.6 11 03:52 28.05.2020
2467 Clouds 6 993 65 0 5.55 2 02:55 28.05.2020
2468 Rain 5 992 67 0 4.84 4 01:57 28.05.2020
2469 Rain 5 992 67 0 4.84 4 01:35 28.05.2020
2470 Clouds 6 992 66 0 4.9 10 00:47 28.05.2020
2471 Clouds 5 992 68 0 4.36 14 00:19 28.05.2020
2472 Clouds 5 992 68 0 4.36 14 23:56 27.05.2020
2473 Clouds 5 992 68 0 4.36 14 23:36 27.05.2020
2474 Clouds 5 992 70 0 3.71 357 23:18 27.05.2020
2475 Clouds 5 992 70 0 3.71 357 22:41 27.05.2020
2476 Clouds 4 992 72 0 3.62 356 22:23 27.05.2020
2477 Clouds 4 992 72 0 3.62 356 21:56 27.05.2020
2478 Clouds 4 992 72 0 3.62 356 21:37 27.05.2020
2479 Clouds 5 991 71 0 2.56 347 21:19 27.05.2020
2480 Clouds 5 991 71 0 2.56 347 20:57 27.05.2020
2481 Clouds 5 991 71 0 2.56 347 20:38 27.05.2020
2482 Clouds 5 990 72 0 2.45 337 20:18 27.05.2020
2483 Clouds 5 990 72 0 2.45 337 19:43 27.05.2020
2484 Clouds 5 990 70 0 2.89 327 19:21 27.05.2020
2485 Clouds 5 990 70 0 2.89 327 18:45 27.05.2020
2486 Clouds 5 989 68 0 3.24 339 18:21 27.05.2020
2487 Clouds 5 989 68 0 3.24 339 17:59 27.05.2020
2488 Clouds 5 989 68 0 3.24 339 17:40 27.05.2020
2489 Clouds 6 989 65 0 3.81 336 17:22 27.05.2020
2490 Clouds 6 989 65 0 3.81 336 16:56 27.05.2020
2491 Clouds 6 989 65 0 3.81 336 16:38 27.05.2020
2492 Clouds 8 990 61 0 4.73 334 16:19 27.05.2020
2493 Clouds 8 990 61 0 4.73 334 15:48 27.05.2020
2494 Clouds 10 990 58 0 5.45 352 15:22 27.05.2020
2495 Clouds 10 990 58 0 5.45 352 14:47 27.05.2020
2496 Clouds 12 989 56 0 6.75 358 14:23 27.05.2020
2497 Clouds 13 988 56 0 5.08 360 13:59 27.05.2020
2498 Clouds 13 988 56 0 5.08 360 13:41 27.05.2020
2499 Clouds 14 988 54 0 5.75 20 13:22 27.05.2020
2500 Clouds 14 988 54 0 5.75 20 12:42 27.05.2020
2501 Clouds 15 988 50 0 7.74 36 12:24 27.05.2020
2502 Clouds 15 988 50 0 7.74 36 11:56 27.05.2020
2503 Clouds 15 988 50 0 7.74 36 11:37 27.05.2020
2504 Clouds 15 987 47 0 9.02 42 11:19 27.05.2020
2505 Clouds 15 987 47 0 9.02 42 10:43 27.05.2020
2506 Clouds 17 987 47 0 8.82 44 10:24 27.05.2020
2507 Clouds 17 987 47 0 8.82 44 09:58 27.05.2020
2508 Clouds 17 987 47 0 8.82 44 09:39 27.05.2020
2509 Clouds 17 986 49 0 8.35 22 09:20 27.05.2020
2510 Clouds 17 986 49 0 8.35 22 08:43 27.05.2020
2511 Clouds 19 986 47 0 8.43 17 08:25 27.05.2020
2512 Clouds 19 986 47 0 8.43 17 07:57 27.05.2020
2513 Clouds 19 986 47 0 8.43 17 07:38 27.05.2020
2514 Clouds 20 986 44 0 6.55 18 07:20 27.05.2020
2515 Clouds 20 986 44 0 6.55 18 06:41 27.05.2020
2516 Clouds 20 986 45 0 5.71 14 06:19 27.05.2020
2517 Clouds 20 986 45 0 5.71 14 05:47 27.05.2020
2518 Clouds 21 986 39 0 3.56 315 04:19 27.05.2020
2519 Clear 21 986 39 0 2.94 275 02:30 27.05.2020
2520 Clear 20 986 42 0 4.03 249 01:53 27.05.2020
2521 Clear 19 986 46 0 4.15 236 01:24 27.05.2020
2522 Clear 19 986 46 0 4.15 236 00:45 27.05.2020
2523 Clear 18 986 53 0 3.51 230 00:20 27.05.2020
2524 Clear 18 986 53 0 3.51 230 23:44 26.05.2020
2525 Clear 16 986 62 0 2.9 222 23:26 26.05.2020
2526 Clear 16 986 62 0 2.9 222 22:59 26.05.2020
2527 Clear 16 986 62 0 2.9 222 22:39 26.05.2020
2528 Clear 15 986 72 0 2.89 197 22:21 26.05.2020
2529 Clear 15 986 72 0 2.89 197 21:57 26.05.2020
2530 Clear 15 986 72 0 2.89 197 21:39 26.05.2020
2531 Clear 14 987 76 0 3.15 182 21:20 26.05.2020
2532 Clear 14 987 76 0 3.15 182 20:43 26.05.2020
2533 Clouds 13 987 80 0 2.96 176 20:22 26.05.2020
2534 Clouds 13 987 80 0 2.96 176 19:58 26.05.2020
2535 Clouds 13 987 80 0 2.96 176 19:38 26.05.2020
2536 Clouds 13 987 80 0 2.6 170 19:19 26.05.2020
2537 Clouds 13 987 80 0 2.6 170 18:43 26.05.2020
2538 Clouds 13 988 79 0 2.37 164 18:23 26.05.2020
2539 Clouds 13 988 79 0 2.37 164 17:59 26.05.2020
2540 Clouds 13 988 79 0 2.37 164 17:38 26.05.2020
2541 Clouds 13 988 79 0 2.37 164 17:38 26.05.2020
2542 Clouds 14 988 76 0 2.42 149 17:20 26.05.2020
2543 Clouds 14 988 76 0 2.42 149 16:42 26.05.2020
2544 Rain 15 989 74 0 2.41 126 16:20 26.05.2020
2545 Rain 15 989 74 0 2.41 126 15:55 26.05.2020
2546 Rain 15 989 74 0 2.41 126 15:37 26.05.2020
2547 Rain 16 990 72 0 3.12 156 15:19 26.05.2020
2548 Rain 16 990 72 0 3.12 156 14:43 26.05.2020
2549 Rain 17 990 66 0 3.07 172 14:23 26.05.2020
2550 Rain 17 990 66 0 3.07 172 13:56 26.05.2020
2551 Rain 17 990 66 0 3.07 172 13:37 26.05.2020
2552 Rain 18 990 57 0 2.96 135 13:18 26.05.2020
2553 Rain 18 990 57 0 2.96 135 12:42 26.05.2020
2554 Rain 20 991 48 0 5.3 120 12:22 26.05.2020
2555 Rain 20 991 48 0 5.3 120 11:58 26.05.2020
2556 Rain 20 991 48 0 5.3 120 11:40 26.05.2020
2557 Rain 20 991 47 0 4.78 129 11:19 26.05.2020
2558 Rain 20 991 47 0 4.78 129 10:43 26.05.2020
2559 Clouds 21 992 42 0 5.09 112 10:19 26.05.2020
2560 Clouds 21 992 42 0 5.09 112 09:41 26.05.2020
2561 Clouds 22 993 41 0 5.05 111 09:20 26.05.2020
2562 Rain 19 993 52 0 5.97 78 08:44 26.05.2020
2563 Clouds 21 993 44 0 3.21 34 08:23 26.05.2020
2564 Clouds 21 993 44 0 3.21 34 07:59 26.05.2020
2565 Clouds 21 993 44 0 3.21 34 07:40 26.05.2020
2566 Clouds 21 993 44 0 3.21 34 07:40 26.05.2020
2567 Clouds 21 994 41 0 1.22 11 07:22 26.05.2020
2568 Clouds 21 994 41 0 1.22 11 06:47 26.05.2020
2569 Clouds 21 995 43 0 0.64 145 06:23 26.05.2020
2570 Clouds 21 995 43 0 0.64 145 05:35 26.05.2020
2571 Clouds 19 996 47 0 3 134 04:58 26.05.2020
2572 Clouds 19 996 47 0 3 134 04:40 26.05.2020
2573 Clouds 18 997 51 0 2.72 104 04:21 26.05.2020
2574 Clouds 17 998 54 0 3.44 86 03:28 26.05.2020
2575 Clouds 18 997 51 0 2.6 120 02:32 26.05.2020
2576 Clouds 17 998 54 0 2.69 101 01:41 26.05.2020
2577 Clouds 16 999 59 0 3.64 91 00:39 26.05.2020
2578 Clouds 15 1000 63 0 2.81 75 00:20 26.05.2020
2579 Clouds 15 1000 63 0 2.81 75 23:58 25.05.2020
2580 Clouds 15 1000 63 0 2.81 75 23:38 25.05.2020
2581 Clouds 14 1000 67 0 2.16 65 23:19 25.05.2020
2582 Clouds 14 1000 67 0 2.16 65 22:56 25.05.2020
2583 Clouds 14 1000 67 0 2.16 65 22:37 25.05.2020
2584 Clouds 13 1001 73 0 1.77 56 22:19 25.05.2020
2585 Clouds 13 1001 73 0 1.77 56 21:58 25.05.2020
2586 Clouds 13 1001 73 0 1.77 56 21:38 25.05.2020
2587 Clouds 12 1000 76 0 1.54 73 21:18 25.05.2020
2588 Clouds 12 1000 76 0 1.54 73 20:58 25.05.2020
2589 Clouds 12 1000 76 0 1.54 73 20:40 25.05.2020
2590 Clouds 11 1000 79 0 1.71 50 20:20 25.05.2020
2591 Clouds 11 1000 79 0 1.71 50 19:55 25.05.2020
2592 Clouds 11 1000 79 0 1.71 50 19:37 25.05.2020
2593 Clouds 11 1000 80 0 1.49 32 19:18 25.05.2020
2594 Clouds 11 1000 80 0 1.49 32 18:42 25.05.2020
2595 Clouds 11 1000 80 0 1.02 44 18:21 25.05.2020
2596 Clouds 11 1000 80 0 1.02 44 17:54 25.05.2020
2597 Clouds 11 1000 80 0 1.02 44 17:36 25.05.2020
2598 Clouds 12 1000 79 0 0.98 43 17:18 25.05.2020
2599 Clouds 12 1000 79 0 0.98 43 16:41 25.05.2020
2600 Clouds 13 1000 74 0 1.7 42 16:22 25.05.2020
2601 Clouds 13 1000 74 0 1.7 42 15:58 25.05.2020
2602 Clouds 13 1000 74 0 1.7 42 15:40 25.05.2020
2603 Clouds 15 1000 64 0 2.43 33 15:18 25.05.2020
2604 Clouds 15 1000 64 0 2.43 33 14:43 25.05.2020
2605 Rain 17 1000 53 0 1.49 0 14:24 25.05.2020
2606 Clouds 18 1000 44 0 4.79 308 13:57 25.05.2020
2607 Clouds 18 1000 44 0 4.79 308 13:37 25.05.2020
2608 Clouds 20 1000 41 0 3.95 295 13:19 25.05.2020
2609 Clouds 20 1000 41 0 3.95 295 12:54 25.05.2020
2610 Clouds 20 1000 41 0 3.95 295 12:36 25.05.2020
2611 Rain 20 1000 40 0 1.63 289 12:18 25.05.2020
2612 Rain 20 1000 40 0 1.63 289 11:38 25.05.2020
2613 Rain 21 1001 34 0 3.33 327 11:19 25.05.2020
2614 Rain 21 1001 34 0 3.33 327 10:44 25.05.2020
2615 Clouds 24 1001 24 0 8.15 325 10:21 25.05.2020
2616 Clouds 24 1001 24 0 8.15 325 09:59 25.05.2020
2617 Clouds 24 1001 24 0 8.15 325 09:40 25.05.2020
2618 Clouds 24 1001 23 0 5.73 311 09:19 25.05.2020
2619 Clouds 23 1002 29 0 4.63 313 08:59 25.05.2020
2620 Clouds 23 1002 29 0 4.63 313 08:37 25.05.2020
2621 Clouds 23 1002 31 0 4.07 281 08:18 25.05.2020
2622 Clouds 23 1002 31 0 4.07 281 07:45 25.05.2020
2623 Clouds 23 1003 32 0 4.26 272 07:21 25.05.2020
2624 Clouds 23 1003 32 0 4.26 272 06:52 25.05.2020
2625 Clouds 23 1003 32 0 4.26 272 06:31 25.05.2020
2626 Clouds 19 1005 39 0 3.68 256 04:19 25.05.2020
2627 Clouds 18 1007 43 0 3.74 236 03:23 25.05.2020
2628 Clouds 18 1007 43 0 3.74 236 02:45 25.05.2020
2629 Clouds 16 1008 57 0 2.82 199 01:57 25.05.2020
2630 Clouds 16 1008 57 0 2.82 199 01:29 25.05.2020
2631 Clouds 13 1009 67 0 1.79 206 00:43 25.05.2020
2632 Clouds 14 1009 65 0 1.6 235 00:23 25.05.2020
2633 Clouds 14 1009 65 0 1.6 235 23:57 24.05.2020
2634 Clouds 14 1009 65 0 1.6 235 23:37 24.05.2020
2635 Clouds 13 1010 66 0 1 191 23:18 24.05.2020
2636 Clouds 13 1010 66 0 1 191 22:41 24.05.2020
2637 Clouds 12 1010 73 0 0.85 230 22:19 24.05.2020
2638 Clouds 12 1010 73 0 0.85 230 21:57 24.05.2020
2639 Clouds 12 1010 73 0 0.85 230 21:39 24.05.2020
2640 Clouds 11 1011 82 0 1.42 223 21:20 24.05.2020
2641 Clouds 11 1011 82 0 1.42 223 20:57 24.05.2020
2642 Clouds 11 1011 82 0 1.42 223 20:57 24.05.2020
2643 Clouds 11 1011 82 0 1.42 223 20:38 24.05.2020
2644 Clouds 11 1011 82 0 1.54 230 20:18 24.05.2020
2645 Clouds 11 1011 82 0 1.54 230 19:55 24.05.2020
2646 Clouds 11 1011 82 0 1.54 230 19:36 24.05.2020
2647 Clouds 11 1011 82 0 1.36 187 19:18 24.05.2020
2648 Clouds 11 1011 82 0 1.36 187 18:41 24.05.2020
2649 Rain 11 1011 83 0 0.79 246 18:23 24.05.2020
2650 Rain 11 1011 83 0 0.79 246 17:56 24.05.2020
2651 Rain 11 1011 83 0 0.79 246 17:37 24.05.2020
2652 Rain 11 1011 80 0 1.21 347 17:19 24.05.2020
2653 Rain 11 1011 80 0 1.21 347 16:54 24.05.2020
2654 Rain 11 1011 80 0 1.21 347 16:36 24.05.2020
2655 Clouds 11 1012 77 0 0.13 178 16:18 24.05.2020
2656 Clouds 11 1012 77 0 0.13 178 15:40 24.05.2020
2657 Clouds 11 1012 77 0 0.13 178 15:40 24.05.2020
2658 Rain 11 1012 77 0 1.02 178 15:20 24.05.2020
2659 Rain 11 1012 77 0 1.02 178 15:20 24.05.2020
2660 Rain 11 1012 77 0 1.02 178 14:59 24.05.2020
2661 Rain 11 1012 77 0 1.02 178 14:40 24.05.2020
2662 Rain 13 1012 66 0 0.58 214 14:21 24.05.2020
2663 Rain 13 1012 66 0 0.58 214 13:55 24.05.2020
2664 Rain 13 1012 66 0 0.58 214 13:37 24.05.2020
2665 Rain 15 1012 50 0 4.37 344 13:18 24.05.2020
2666 Rain 15 1012 50 0 4.37 344 12:55 24.05.2020
2667 Rain 15 1012 50 0 4.37 344 12:37 24.05.2020
2668 Clouds 18 1012 38 0 4.88 332 12:18 24.05.2020
2669 Clouds 18 1012 38 0 4.88 332 11:54 24.05.2020
2670 Clouds 18 1012 38 0 4.88 332 11:36 24.05.2020
2671 Clouds 19 1012 35 0 3.81 303 11:18 24.05.2020
2672 Clouds 19 1012 35 0 3.81 303 10:41 24.05.2020
2673 Clouds 18 1012 37 0 2.18 273 10:23 24.05.2020
2674 Clouds 18 1012 37 0 2.18 273 09:57 24.05.2020
2675 Clouds 18 1012 37 0 2.18 273 09:39 24.05.2020
2676 Clouds 18 1013 35 0 2.69 279 09:18 24.05.2020
2677 Clouds 18 1013 35 0 2.69 279 08:42 24.05.2020
2678 Clouds 17 1013 36 0 2.54 267 08:24 24.05.2020
2679 Clouds 17 1013 36 0 2.54 267 07:58 24.05.2020
2680 Clouds 17 1013 36 0 2.54 267 07:40 24.05.2020
2681 Clouds 16 1014 38 0 2.18 278 07:21 24.05.2020
2682 Clouds 16 1014 38 0 2.18 278 06:39 24.05.2020
2683 Clouds 15 1015 41 0 2.07 293 05:50 24.05.2020
2684 Clouds 13 1016 48 0 2.36 314 03:58 24.05.2020
2685 Clouds 13 1016 48 0 2.36 314 03:39 24.05.2020
2686 Clouds 12 1016 53 0 1.69 339 02:26 24.05.2020
2687 Clouds 11 1017 56 0 2.25 357 01:21 24.05.2020
2688 Clouds 11 1017 56 0 2.25 357 00:38 24.05.2020
2689 Clouds 10 1017 60 0 2.61 353 00:20 24.05.2020
2690 Clouds 10 1017 60 0 2.61 353 23:40 23.05.2020
2691 Clouds 9 1017 65 0 2.29 334 23:20 23.05.2020
2692 Clouds 9 1017 65 0 2.29 334 22:56 23.05.2020
2693 Clouds 9 1017 65 0 2.29 334 22:37 23.05.2020
2694 Clouds 8 1017 68 0 1.72 310 22:19 23.05.2020
2695 Clouds 8 1017 68 0 1.72 310 21:56 23.05.2020
2696 Clouds 8 1017 68 0 1.72 310 21:37 23.05.2020
2697 Clouds 7 1018 71 0 1.64 313 21:19 23.05.2020
2698 Clouds 7 1018 71 0 1.64 313 20:54 23.05.2020
2699 Clouds 7 1018 71 0 1.64 313 20:36 23.05.2020
2700 Clouds 7 1018 73 0 1.73 316 20:18 23.05.2020
2701 Clouds 7 1018 73 0 1.73 316 19:41 23.05.2020
2702 Clouds 7 1017 72 0 1.77 313 19:19 23.05.2020
2703 Clouds 7 1017 72 0 1.77 313 18:56 23.05.2020
2704 Clouds 7 1017 72 0 1.77 313 18:37 23.05.2020
2705 Clouds 8 1017 69 0 2.06 325 18:19 23.05.2020
2706 Clouds 8 1017 69 0 2.06 325 17:54 23.05.2020
2707 Clouds 8 1017 69 0 2.06 325 17:54 23.05.2020
2708 Clouds 8 1017 69 0 2.06 325 17:36 23.05.2020
2709 Clouds 8 1017 68 0 2.26 337 17:18 23.05.2020
2710 Clouds 8 1017 68 0 2.26 337 16:55 23.05.2020
2711 Clouds 8 1017 68 0 2.26 337 16:37 23.05.2020
2712 Clouds 8 1017 66 0 2.43 334 16:18 23.05.2020
2713 Clouds 8 1017 66 0 2.43 334 15:42 23.05.2020
2714 Clouds 8 1017 66 0 2.61 334 15:23 23.05.2020
2715 Clouds 8 1017 66 0 2.61 334 14:55 23.05.2020
2716 Clouds 8 1017 66 0 2.61 334 14:36 23.05.2020
2717 Clouds 9 1017 52 0 1.5 342 14:18 23.05.2020
2718 Clouds 9 1017 52 0 1.5 342 13:39 23.05.2020
2719 Clouds 11 1016 44 0 0.44 40 13:19 23.05.2020
2720 Clouds 11 1016 44 0 0.44 40 12:54 23.05.2020
2721 Clouds 11 1016 44 0 0.44 40 12:36 23.05.2020
2722 Clouds 11 1016 41 0 0.84 193 12:18 23.05.2020
2723 Clouds 11 1016 41 0 0.84 193 11:42 23.05.2020
2724 Clouds 11 1017 41 0 1.58 200 11:20 23.05.2020
2725 Clouds 11 1017 41 0 1.58 200 10:56 23.05.2020
2726 Clouds 11 1017 41 0 1.58 200 10:38 23.05.2020
2727 Clouds 11 1017 42 0 1.42 197 10:19 23.05.2020
2728 Clouds 11 1017 42 0 1.42 197 09:56 23.05.2020
2729 Clouds 11 1017 42 0 1.42 197 09:38 23.05.2020
2730 Clouds 11 1017 39 0 1.94 236 09:19 23.05.2020
2731 Clouds 11 1017 39 0 1.94 236 08:42 23.05.2020
2732 Clouds 11 1017 40 0 2.51 235 08:19 23.05.2020
2733 Clouds 11 1017 40 0 2.51 235 07:46 23.05.2020
2734 Clouds 10 1018 42 0 3 238 07:28 23.05.2020
2735 Clouds 10 1018 42 0 3 238 06:45 23.05.2020
2736 Clouds 9 1019 45 0 3.08 244 06:19 23.05.2020
2737 Clouds 8 1020 50 0 3.01 230 04:40 23.05.2020
2738 Clouds 7 1021 55 0 2.89 242 03:29 23.05.2020
2739 Clouds 5 1021 61 0 2.6 247 02:56 23.05.2020
2740 Clouds 4 1022 66 0 2.14 258 01:55 23.05.2020
2741 Clouds 3 1023 73 0 1.52 277 01:20 23.05.2020
2742 Clouds 3 1023 73 0 1.52 277 00:45 23.05.2020
2743 Clouds 2 1023 78 0 1.85 307 00:25 23.05.2020
2744 Clouds 2 1023 78 0 1.85 307 23:56 22.05.2020
2745 Clouds 2 1023 78 0 1.85 307 23:38 22.05.2020
2746 Clouds 1 1024 84 0 1.94 314 23:18 22.05.2020
2747 Clouds 1 1024 84 0 1.94 314 22:43 22.05.2020
2748 Clouds 0 1024 90 0 2.07 316 22:21 22.05.2020
2749 Clouds 0 1024 90 0 2.07 316 21:57 22.05.2020
2750 Clouds 0 1024 90 0 2.07 316 21:38 22.05.2020
2751 Clouds -1 1024 93 0 1.83 305 21:20 22.05.2020
2752 Clouds -1 1024 93 0 1.83 305 20:45 22.05.2020
2753 Clouds -2 1025 95 0 1.79 303 20:21 22.05.2020
2754 Clouds -2 1025 95 0 1.79 303 19:59 22.05.2020
2755 Clouds -2 1025 95 0 1.79 303 19:37 22.05.2020
2756 Clouds -2 1024 95 0 2.05 312 19:18 22.05.2020
2757 Clouds -2 1024 95 0 2.05 312 18:39 22.05.2020
2758 Clouds -2 1024 95 0 2.05 312 18:39 22.05.2020
2759 Clouds -1 1024 94 0 2.45 327 18:19 22.05.2020
2760 Clouds -1 1024 94 0 2.45 327 17:56 22.05.2020
2761 Clouds -1 1024 94 0 2.45 327 17:36 22.05.2020
2762 Clouds 0 1024 93 0 3 343 17:18 22.05.2020
2763 Clouds 0 1024 93 0 3 343 16:43 22.05.2020
2764 Clouds 1 1024 88 0 3.99 355 16:20 22.05.2020
2765 Clouds 1 1024 88 0 3.99 355 15:59 22.05.2020
2766 Clouds 1 1024 88 0 3.99 355 15:40 22.05.2020
2767 Clouds 1 1024 88 0 3.99 355 15:40 22.05.2020
2768 Clear 2 1024 81 0 4.95 358 15:19 22.05.2020
2769 Clear 2 1024 81 0 4.95 358 14:43 22.05.2020
2770 Clouds 3 1023 73 0 6.3 3 14:24 22.05.2020
2771 Clear 3 1023 73 0 6.57 4 14:24 22.05.2020
2772 Clouds 3 1023 73 0 6.3 3 13:46 22.05.2020
2773 Clear 4 1022 67 0 7.29 7 13:21 22.05.2020
2774 Clear 4 1022 67 0 7.29 7 12:54 22.05.2020
2775 Clear 4 1022 67 0 7.29 7 12:36 22.05.2020
2776 Clear 6 1022 62 0 7.46 8 12:18 22.05.2020
2777 Clear 6 1022 62 0 7.46 8 11:43 22.05.2020
2778 Clear 6 1022 58 0 7.67 8 11:20 22.05.2020
2779 Clear 6 1022 58 0 7.67 8 10:55 22.05.2020
2780 Clear 6 1022 58 0 7.67 8 10:55 22.05.2020
2781 Clear 6 1022 58 0 7.67 8 10:37 22.05.2020
2782 Clear 6 1022 58 0 7.67 8 10:37 22.05.2020
2783 Clear 7 1022 55 0 7.68 8 10:18 22.05.2020
2784 Clear 7 1022 55 0 7.68 8 09:42 22.05.2020
2785 Clouds 7 1022 55 0 7.16 10 09:19 22.05.2020
2786 Clouds 7 1022 55 0 7.16 10 08:45 22.05.2020
2787 Clouds 7 1022 54 0 7.16 10 08:22 22.05.2020
2788 Clouds 7 1022 54 0 7.16 10 07:57 22.05.2020
2789 Clouds 7 1022 54 0 7.16 10 07:39 22.05.2020
2790 Clouds 7 1023 54 0 6.78 7 07:21 22.05.2020
2791 Clouds 7 1023 54 0 6.78 7 06:40 22.05.2020
2792 Clouds 6 1023 58 0 6.45 5 05:58 22.05.2020
2793 Clouds 6 1023 58 0 6.45 5 05:33 22.05.2020
2794 Clouds 5 1024 65 0 6.55 4 04:45 22.05.2020
2795 Clouds 4 1024 70 0 6.58 5 03:49 22.05.2020
2796 Clouds 3 1025 73 0 6.41 5 03:28 22.05.2020
2797 Clouds 3 1025 76 0 6.32 7 01:57 22.05.2020
2798 Clouds 3 1025 76 0 6.32 7 01:30 22.05.2020
2799 Clouds 2 1025 79 0 6.07 7 00:50 22.05.2020
2800 Clouds 2 1025 79 0 6.07 7 00:29 22.05.2020
2801 Clouds 2 1025 81 0 6.5 8 23:55 21.05.2020
2802 Clouds 2 1025 81 0 6.5 8 23:37 21.05.2020
2803 Clouds 2 1025 82 0 6.69 9 23:19 21.05.2020
2804 Clouds 2 1025 82 0 6.69 9 22:56 21.05.2020
2805 Clouds 2 1025 82 0 6.69 9 22:36 21.05.2020
2806 Clouds 1 1025 84 0 6.22 6 22:18 21.05.2020
2807 Clouds 1 1025 84 0 6.22 6 21:46 21.05.2020
2808 Clouds 1 1025 87 0 5.55 2 21:26 21.05.2020
2809 Clouds 1 1025 87 0 5.55 2 20:55 21.05.2020
2810 Clouds 1 1025 87 0 5.55 2 20:37 21.05.2020
2811 Clouds 0 1025 90 0 4.86 359 20:19 21.05.2020
2812 Clouds 0 1025 90 0 4.86 359 19:39 21.05.2020
2813 Clouds 0 1025 92 0 3.55 346 19:19 21.05.2020
2814 Clouds 0 1025 92 0 3.55 346 18:55 21.05.2020
2815 Clouds 0 1025 92 0 3.55 346 18:36 21.05.2020
2816 Clouds 0 1024 90 0 3.1 336 18:18 21.05.2020
2817 Clouds 0 1024 90 0 3.1 336 17:41 21.05.2020
2818 Clouds 0 1024 90 0 3.72 332 17:22 21.05.2020
2819 Clouds 0 1024 90 0 3.72 332 16:47 21.05.2020
2820 Clouds 1 1024 87 0 4.24 334 16:27 21.05.2020
2821 Clouds 1 1024 87 0 4.24 334 15:58 21.05.2020
2822 Clouds 1 1024 87 0 4.24 334 15:39 21.05.2020
2823 Clouds 2 1023 79 0 4.76 345 15:20 21.05.2020
2824 Clouds 2 1023 79 0 4.76 345 14:41 21.05.2020
2825 Clear 4 1022 70 0 5.34 354 14:22 21.05.2020
2826 Clear 4 1022 70 0 5.34 354 13:55 21.05.2020
2827 Clear 4 1022 70 0 5.34 354 13:37 21.05.2020
2828 Clear 5 1022 64 0 5.77 5 13:18 21.05.2020
2829 Clear 5 1022 64 0 5.77 5 12:39 21.05.2020
2830 Clear 7 1021 57 0 6.81 3 12:20 21.05.2020
2831 Clear 7 1021 57 0 6.81 3 11:57 21.05.2020
2832 Clear 7 1021 57 0 6.81 3 11:39 21.05.2020
2833 Clear 9 1021 51 0 6.35 2 11:20 21.05.2020
2834 Clear 9 1021 51 0 6.35 2 10:43 21.05.2020
2835 Clear 10 1020 48 0 6.25 1 10:23 21.05.2020
2836 Clear 10 1020 48 0 6.25 1 09:58 21.05.2020
2837 Clear 10 1020 48 0 6.25 1 09:39 21.05.2020
2838 Clear 10 1020 46 0 6.48 5 09:21 21.05.2020
2839 Clear 10 1020 46 0 6.48 5 08:50 21.05.2020
2840 Clear 10 1020 46 0 6.48 5 08:31 21.05.2020
2841 Clouds 11 1020 45 0 6.49 8 07:59 21.05.2020
2842 Clouds 11 1020 45 0 6.49 8 07:37 21.05.2020
2843 Clouds 11 1020 45 0 6.07 11 07:18 21.05.2020
2844 Clouds 11 1020 45 0 6.07 11 06:30 21.05.2020
2845 Clouds 11 1020 45 0 5.7 14 05:50 21.05.2020
2846 Clouds 10 1020 46 0 5.35 13 03:49 21.05.2020
2847 Clouds 10 1020 47 0 5.42 11 03:20 21.05.2020
2848 Clouds 10 1020 47 0 5.42 11 03:20 21.05.2020
2849 Clouds 10 1020 47 0 5.42 11 02:31 21.05.2020
2850 Clouds 10 1020 48 0 4.71 8 01:51 21.05.2020
2851 Clouds 10 1021 48 0 4.4 3 01:24 21.05.2020
2852 Clouds 10 1021 48 0 4.4 3 00:54 21.05.2020
2853 Clear 9 1020 50 0 3.96 358 00:27 21.05.2020
2854 Clear 9 1020 50 0 3.96 358 23:59 20.05.2020
2855 Clear 9 1020 50 0 3.96 358 23:38 20.05.2020
2856 Clear 9 1021 53 0 2.98 351 23:18 20.05.2020
2857 Clear 9 1021 53 0 2.98 351 22:42 20.05.2020
2858 Clear 8 1020 57 0 2.42 333 22:24 20.05.2020
2859 Clear 8 1020 57 0 2.42 333 21:58 20.05.2020
2860 Clear 8 1020 57 0 2.42 333 21:38 20.05.2020
2861 Clear 7 1020 62 0 2 328 21:19 20.05.2020
2862 Clear 7 1020 62 0 2 328 20:44 20.05.2020
2863 Clear 6 1020 65 0 2.01 330 20:23 20.05.2020
2864 Clear 6 1020 65 0 2.01 330 19:44 20.05.2020
2865 Clear 6 1020 63 0 2.23 337 19:25 20.05.2020
2866 Clear 6 1020 63 0 2.23 337 18:59 20.05.2020
2867 Clear 6 1020 63 0 2.23 337 18:41 20.05.2020
2868 Clear 7 1020 59 0 2.58 343 18:21 20.05.2020
2869 Clear 7 1020 59 0 2.58 343 17:41 20.05.2020
2870 Clear 8 1019 55 0 2.79 349 17:22 20.05.2020
2871 Clear 8 1019 55 0 2.79 349 16:55 20.05.2020
2872 Clear 8 1019 55 0 2.79 349 16:37 20.05.2020
2873 Clear 9 1019 51 0 3.24 355 16:18 20.05.2020
2874 Clear 9 1019 51 0 3.24 355 15:43 20.05.2020
2875 Clear 11 1019 45 0 3.76 360 15:25 20.05.2020
2876 Clear 11 1019 45 0 3.76 360 14:44 20.05.2020
2877 Clear 13 1018 40 0 3.64 4 14:23 20.05.2020
2878 Clear 13 1018 40 0 3.64 4 13:55 20.05.2020
2879 Clear 13 1018 40 0 3.64 4 13:37 20.05.2020
2880 Clear 15 1018 35 0 4.2 19 13:18 20.05.2020
2881 Clear 15 1018 35 0 4.2 19 12:42 20.05.2020
2882 Clear 16 1018 32 0 4.77 24 12:20 20.05.2020
2883 -273 0 0 0 0 0 11:38 20.05.2020
2884 -273 0 0 0 0 0 11:38 20.05.2020
2885 -273 0 0 0 0 0 11:38 20.05.2020
2886 Clear 17 1018 30 0 4 21 11:19 20.05.2020
2887 Clear 17 1018 30 0 4 21 10:44 20.05.2020
2888 Clear 17 1018 29 0 3.05 19 10:23 20.05.2020
2889 Clear 17 1018 29 0 3.05 19 10:23 20.05.2020
2890 Clear 17 1018 29 0 3.05 19 09:58 20.05.2020
2891 Clear 17 1018 29 0 3.05 19 09:40 20.05.2020
2892 Clear 17 1018 29 0 2.57 21 09:20 20.05.2020
2893 Clear 17 1018 29 0 2.57 21 08:42 20.05.2020
2894 Clear 17 1018 30 0 2 20 08:19 20.05.2020
2895 Clear 17 1018 30 0 2 20 07:50 20.05.2020
2896 Clear 16 1018 31 0 1.73 26 07:23 20.05.2020
2897 Clear 16 1018 31 0 1.73 26 06:53 20.05.2020
2898 Clear 16 1018 33 0 1.69 33 06:18 20.05.2020
2899 Clear 15 1019 35 0 1.79 40 04:40 20.05.2020
2900 Clear 14 1019 37 0 1.85 45 04:18 20.05.2020
2901 Clear 14 1019 37 0 1.85 45 03:29 20.05.2020
2902 Clear 12 1019 44 0 2.16 40 01:45 20.05.2020
2903 Clear 11 1019 47 0 2.25 32 01:23 20.05.2020
2904 Clear 11 1019 47 0 2.25 32 00:41 20.05.2020
2905 Clear 10 1020 52 0 2.37 23 00:21 20.05.2020
2906 Clear 10 1020 52 0 2.37 23 23:37 19.05.2020
2907 Clear 9 1020 55 0 2.58 20 23:19 19.05.2020
2908 Clear 9 1020 55 0 2.58 20 22:55 19.05.2020
2909 Clear 9 1020 55 0 2.58 20 22:36 19.05.2020
2910 Clear 8 1020 60 0 2.81 14 22:18 19.05.2020
2911 Clear 8 1020 60 0 2.81 14 21:55 19.05.2020
2912 Clear 7 1020 60 0 2.86 10 21:36 19.05.2020
2913 Clear 7 1019 65 0 2.64 5 21:18 19.05.2020
2914 Clear 6 1020 65 0 2.8 1 20:55 19.05.2020
2915 Clear 6 1020 65 0 2.8 1 20:37 19.05.2020
2916 Clear 6 1019 66 0 2.8 1 20:19 19.05.2020
2917 Clear 6 1019 66 0 2.8 1 19:38 19.05.2020
2918 Clear 6 1019 64 0 2.84 2 19:20 19.05.2020
2919 Clear 6 1019 64 0 2.84 2 18:44 19.05.2020
2920 Clear 7 1018 61 0 2.9 3 18:23 19.05.2020
2921 Clear 7 1018 61 0 2.9 3 17:58 19.05.2020
2922 Clear 7 1018 61 0 2.9 3 17:39 19.05.2020
2923 Clear 8 1018 57 0 2.97 7 17:20 19.05.2020
2924 Clear 8 1018 57 0 2.97 7 16:56 19.05.2020
2925 Clear 8 1018 57 0 2.97 7 16:37 19.05.2020
2926 Clear 9 1018 53 0 3.2 15 16:19 19.05.2020
2927 Clear 9 1018 53 0 3.2 15 15:43 19.05.2020
2928 Clear 10 1017 49 0 3.49 21 15:20 19.05.2020
2929 Clear 10 1017 49 0 3.49 21 14:55 19.05.2020
2930 Clear 10 1017 49 0 3.49 21 14:37 19.05.2020
2931 Clear 12 1017 44 0 3.88 21 14:19 19.05.2020
2932 Clear 12 1017 44 0 3.88 21 13:56 19.05.2020
2933 Clear 12 1017 44 0 3.88 21 13:37 19.05.2020
2934 Clear 12 1017 44 0 3.88 21 13:37 19.05.2020
2935 Clear 14 1017 38 0 4.56 24 13:18 19.05.2020
2936 Clear 14 1017 38 0 4.56 24 12:56 19.05.2020
2937 Clear 14 1017 38 0 4.56 24 12:36 19.05.2020
2938 Clear 15 1017 34 0 5.42 25 12:18 19.05.2020
2939 Clear 15 1017 34 0 5.42 25 11:42 19.05.2020
2940 Clear 16 1017 32 0 5.38 25 11:22 19.05.2020
2941 Clear 16 1017 32 0 5.38 25 10:57 19.05.2020
2942 Clear 16 1017 32 0 5.38 25 10:39 19.05.2020
2943 Clear 16 1017 32 0 5.38 25 10:39 19.05.2020
2944 Clear 17 1017 30 0 4.74 30 10:21 19.05.2020
2945 Clear 17 1017 30 0 4.74 30 09:44 19.05.2020
2946 Clear 16 1017 31 0 3.34 39 09:25 19.05.2020
2947 Clear 16 1017 31 0 3.34 39 08:47 19.05.2020
2948 Clear 16 1017 31 0 2.94 47 08:25 19.05.2020
2949 Clear 16 1017 31 0 2.94 47 07:57 19.05.2020
2950 Clear 16 1017 31 0 2.94 47 07:37 19.05.2020
2951 Clear 16 1017 33 0 2.59 54 07:19 19.05.2020
2952 Clear 16 1017 33 0 2.59 54 06:40 19.05.2020
2953 Clear 15 1018 35 0 2.58 59 06:18 19.05.2020
2954 Clear 15 1018 35 0 2.58 59 05:39 19.05.2020
2955 Clear 14 1018 37 0 2.49 57 04:50 19.05.2020
2956 Clear 12 1019 42 0 2.42 60 02:59 19.05.2020
2957 Clear 10 1019 50 0 2.48 51 01:21 19.05.2020
2958 Clear 10 1019 50 0 2.48 51 00:40 19.05.2020
2959 Clear 8 1020 55 0 2.39 42 00:18 19.05.2020
2960 Clear 8 1020 55 0 2.39 42 23:40 18.05.2020
2961 Clear 7 1019 61 0 2.5 31 23:20 18.05.2020
2962 Clear 7 1019 61 0 2.5 31 22:57 18.05.2020
2963 Clear 7 1019 61 0 2.5 31 22:39 18.05.2020
2964 Clear 6 1019 69 0 2.76 23 22:20 18.05.2020
2965 Clear 6 1019 69 0 2.76 23 21:42 18.05.2020
2966 Clear 5 1019 75 0 2.72 18 21:22 18.05.2020
2967 Clear 5 1019 74 0 2.46 7 20:57 18.05.2020
2968 Clear 5 1019 74 0 2.46 7 20:38 18.05.2020
2969 Clear 4 1019 77 0 2.64 9 20:20 18.05.2020
2970 Clear 4 1019 77 0 2.64 9 19:56 18.05.2020
2971 Clear 4 1019 77 0 2.64 9 19:38 18.05.2020
2972 Clear 4 1019 75 0 2.88 7 19:18 18.05.2020
2973 Clear 4 1019 75 0 2.88 7 18:44 18.05.2020
2974 Clear 5 1018 72 0 3.06 3 18:22 18.05.2020
2975 Clear 5 1018 72 0 3.06 3 17:40 18.05.2020
2976 Clear 6 1018 71 0 3.43 0 17:18 18.05.2020
2977 Clear 6 1018 70 0 3.02 356 16:56 18.05.2020
2978 Clear 6 1018 70 0 3.02 356 16:38 18.05.2020
2979 Clear 7 1017 68 0 3.28 359 16:18 18.05.2020
2980 Clear 7 1017 68 0 3.17 357 15:56 18.05.2020
2981 Clear 7 1017 68 0 3.17 357 15:37 18.05.2020
2982 Clear 8 1017 64 0 3.31 356 15:19 18.05.2020
2983 Clear 8 1017 64 0 3.31 356 14:43 18.05.2020
2984 Clear 10 1017 56 0 3.83 356 14:25 18.05.2020
2985 Clear 10 1017 56 0 3.83 356 13:59 18.05.2020
2986 Clear 10 1017 56 0 3.83 356 13:39 18.05.2020
2987 Clear 12 1017 48 0 4.95 10 13:20 18.05.2020
2988 Clear 12 1017 48 0 4.95 10 12:57 18.05.2020
2989 Clear 12 1017 48 0 4.95 10 12:39 18.05.2020
2990 Clear 13 1016 43 0 5.28 22 12:19 18.05.2020
2991 Clear 13 1016 43 0 5.28 22 11:47 18.05.2020
2992 Clear 14 1016 40 0 5.45 22 11:27 18.05.2020
2993 Clear 14 1016 40 0 5.45 22 10:59 18.05.2020
2994 Clear 14 1016 40 0 5.45 22 10:40 18.05.2020
2995 Clear 14 1016 39 0 5.45 24 10:22 18.05.2020
2996 Clear 14 1016 39 0 5.45 24 09:44 18.05.2020
2997 Clear 15 1016 39 0 4.7 17 09:25 18.05.2020
2998 Clear 15 1016 39 0 4.7 17 08:46 18.05.2020
2999 Clear 15 1016 40 0 4.7 15 08:27 18.05.2020
3000 Clear 15 1016 40 0 4.7 15 07:58 18.05.2020
3001 Clear 15 1016 40 0 4.7 15 07:39 18.05.2020
3002 Clear 15 1016 41 0 4.41 10 07:20 18.05.2020
3003 Clear 15 1016 41 0 4.41 10 06:45 18.05.2020
3004 Clear 14 1017 42 0 3.84 15 05:50 18.05.2020
3005 Clear 14 1017 45 0 3.27 21 05:26 18.05.2020
3006 Clear 13 1018 49 0 2.99 30 03:37 18.05.2020
3007 Clear 12 1018 54 0 2.71 36 02:30 18.05.2020
3008 Clear 9 1019 63 0 1.55 33 01:23 18.05.2020
3009 Clear 8 1020 69 0 1.63 36 00:27 18.05.2020
3010 Clear 8 1020 69 0 1.63 36 23:58 17.05.2020
3011 Clear 8 1020 69 0 1.63 36 23:58 17.05.2020
3012 Clear 8 1020 69 0 1.63 36 23:58 17.05.2020
3013 Clear 8 1020 69 0 1.63 36 23:40 17.05.2020
3014 Clear 6 1020 75 0 1.56 25 23:20 17.05.2020
3015 Clear 6 1020 75 0 1.56 25 22:57 17.05.2020
3016 Clear 6 1020 75 0 1.56 25 22:38 17.05.2020
3017 Clear 5 1020 82 0 1.66 25 22:20 17.05.2020
3018 Clear 5 1020 82 0 1.66 25 21:57 17.05.2020
3019 Clear 5 1020 82 0 1.66 25 21:39 17.05.2020
3020 Clouds 3 1021 89 0 1.74 13 21:19 17.05.2020
3021 Clouds 3 1021 89 0 1.74 13 20:42 17.05.2020
3022 Clouds 2 1021 90 0 1.56 14 20:22 17.05.2020
3023 Clouds 2 1021 90 0 1.56 14 19:58 17.05.2020
3024 Clouds 2 1021 90 0 1.56 14 19:40 17.05.2020
3025 Clouds 3 1021 90 0 1.85 22 19:21 17.05.2020
3026 Clouds 3 1021 90 0 1.85 22 18:55 17.05.2020
3027 Clouds 3 1021 90 0 1.85 22 18:37 17.05.2020
3028 Clouds 3 1021 90 0 1.97 12 18:19 17.05.2020
3029 Clouds 3 1021 90 0 1.97 12 17:40 17.05.2020
3030 Clouds 4 1021 89 0 1.82 356 17:21 17.05.2020
3031 Clouds 4 1021 89 0 1.82 356 16:40 17.05.2020
3032 Clouds 4 1021 88 0 1.69 345 16:21 17.05.2020
3033 Clouds 4 1021 88 0 1.69 345 16:21 17.05.2020
3034 Clouds 4 1021 88 0 1.69 345 15:59 17.05.2020
3035 Clouds 4 1021 88 0 1.69 345 15:40 17.05.2020
3036 Clouds 5 1021 87 0 1.56 339 15:22 17.05.2020
3037 Clouds 5 1021 87 0 1.56 339 14:56 17.05.2020
3038 Clouds 5 1021 87 0 1.56 339 14:37 17.05.2020
3039 Clouds 6 1022 83 0 1.27 310 14:19 17.05.2020
3040 Clouds 6 1022 83 0 1.27 310 13:41 17.05.2020
3041 Clouds 7 1022 78 0 1.35 315 13:20 17.05.2020
3042 Clouds 5 1023 69 0 1.4 80 04:54 17.05.2020
3043 Clouds 5 1023 71 0 1.38 62 03:30 17.05.2020
3044 Clouds 4 1023 73 0 1.58 23 02:24 17.05.2020
3045 Clouds 4 1023 73 0 1.45 28 01:50 17.05.2020
3046 Clouds 4 1024 75 0 1.59 26 00:45 17.05.2020
3047 Clouds 4 1025 76 0 1.76 12 00:26 17.05.2020
3048 Clouds 4 1025 76 0 1.76 12 23:42 16.05.2020
3049 Clouds 4 1024 79 0 1.5 355 23:23 16.05.2020
3050 Clouds 4 1024 79 0 1.5 355 22:59 16.05.2020
3051 Clouds 4 1024 79 0 1.5 355 22:41 16.05.2020
3052 Clouds 4 1024 83 0 1.35 332 22:22 16.05.2020
3053 Clouds 4 1024 83 0 1.35 332 21:56 16.05.2020
3054 Clouds 4 1024 83 0 1.35 332 21:38 16.05.2020
3055 Clouds 3 1025 83 0 1.5 337 21:19 16.05.2020
3056 Clouds 3 1025 83 0 1.5 337 20:56 16.05.2020
3057 Clouds 3 1025 83 0 1.5 337 20:56 16.05.2020
3058 Clouds 3 1025 83 0 1.5 337 20:37 16.05.2020
3059 Clouds 3 1025 83 0 1.64 334 20:19 16.05.2020
3060 Clouds 3 1025 83 0 1.64 334 19:43 16.05.2020
3061 Clouds 4 1025 84 0 1.75 328 19:23 16.05.2020
3062 Clouds 4 1025 84 0 1.75 328 18:58 16.05.2020
3063 Clouds 4 1025 84 0 1.75 328 18:40 16.05.2020
3064 Clouds 4 1026 83 0 1.78 327 18:21 16.05.2020
3065 Clouds 4 1026 83 0 1.78 327 17:42 16.05.2020
3066 Clouds 4 1026 83 0 1.83 330 17:21 16.05.2020
3067 Clouds 4 1026 83 0 1.83 330 16:56 16.05.2020
3068 Clouds 4 1026 83 0 1.83 330 16:37 16.05.2020
3069 Clouds 5 1026 82 0 1.89 331 16:18 16.05.2020
3070 Clouds 5 1026 82 0 1.89 331 15:42 16.05.2020
3071 Clouds 5 1026 81 0 1.9 332 15:21 16.05.2020
3072 Clouds 5 1026 81 0 1.9 332 14:59 16.05.2020
3073 Clouds 5 1026 81 0 1.9 332 14:40 16.05.2020
3074 Clouds 5 1026 80 0 1.95 337 14:20 16.05.2020
3075 Clouds 5 1026 79 0 1.9 337 13:55 16.05.2020
3076 Clouds 5 1026 79 0 1.9 337 13:36 16.05.2020
3077 Clouds 6 1027 78 0 2.11 343 13:18 16.05.2020
3078 Clouds 6 1027 78 0 2.11 343 12:42 16.05.2020
3079 Clouds 6 1027 76 0 2.38 347 12:20 16.05.2020
3080 Clouds 6 1027 76 0 2.38 347 12:20 16.05.2020
3081 Clouds 6 1027 76 0 2.38 347 11:43 16.05.2020
3082 Clouds 6 1027 73 0 2.39 347 11:24 16.05.2020
3083 Clouds 6 1027 73 0 2.39 347 10:59 16.05.2020
3084 Clouds 6 1027 73 0 2.39 347 10:40 16.05.2020
3085 Clouds 7 1027 72 0 2.46 345 10:21 16.05.2020
3086 Clouds 7 1027 72 0 2.46 345 09:58 16.05.2020
3087 Clouds 7 1027 72 0 2.46 345 09:38 16.05.2020
3088 Clouds 7 1026 67 0 3.48 1 09:18 16.05.2020
3089 Clouds 7 1027 71 0 2.73 348 09:18 16.05.2020
3090 Clouds 7 1026 67 0 3.48 1 08:42 16.05.2020
3091 Clouds 7 1027 67 0 3.39 359 08:21 16.05.2020
3092 Clouds 7 1027 67 0 3.39 359 07:43 16.05.2020
3093 Clouds 7 1027 67 0 3.02 353 07:25 16.05.2020
3094 Clouds 7 1027 67 0 3.02 353 06:57 16.05.2020
3095 Clouds 7 1027 67 0 3.02 353 06:36 16.05.2020
3096 Clouds 7 1027 68 0 3.07 356 06:18 16.05.2020
3097 Clouds 7 1027 68 0 3.07 356 05:31 16.05.2020
3098 Clouds 6 1028 71 0 3.16 352 03:35 16.05.2020
3099 Clouds 5 1028 75 0 3.32 358 02:59 16.05.2020
3100 Clouds 5 1028 77 0 3.23 1 02:20 16.05.2020
3101 Clouds 5 1028 75 0 2.96 359 01:45 16.05.2020
3102 Clouds 5 1028 77 0 3.01 359 01:22 16.05.2020
3103 Clouds 5 1028 77 0 3.01 359 00:46 16.05.2020
3104 Clouds 4 1028 79 0 2.8 352 00:21 16.05.2020
3105 Clouds 4 1028 79 0 2.8 352 23:41 15.05.2020
3106 Clouds 4 1028 81 0 2.91 358 23:20 15.05.2020
3107 Clouds 4 1028 81 0 2.91 358 22:58 15.05.2020
3108 Clouds 4 1028 81 0 2.91 358 22:38 15.05.2020
3109 Clouds 4 1028 83 0 3.14 7 22:18 15.05.2020
3110 Clouds 4 1028 83 0 3.14 7 22:18 15.05.2020
3111 Clouds 4 1028 83 0 3.14 7 21:40 15.05.2020
3112 Clouds 4 1028 84 0 3.16 12 21:22 15.05.2020
3113 Clouds 4 1029 82 0 2.99 10 20:59 15.05.2020
3114 Clouds 4 1029 82 0 2.99 10 20:41 15.05.2020
3115 Clouds 4 1028 83 0 2.9 14 20:22 15.05.2020
3116 Clouds 4 1028 83 0 2.9 14 19:58 15.05.2020
3117 Clouds 4 1028 83 0 2.9 14 19:40 15.05.2020
3118 Clouds 4 1028 83 0 3.2 14 19:21 15.05.2020
3119 Clouds 4 1028 83 0 3.2 14 18:45 15.05.2020
3120 Clouds 4 1028 85 0 3.09 8 18:27 15.05.2020
3121 Clouds 4 1028 85 0 3.09 8 17:40 15.05.2020
3122 Clouds 4 1028 87 0 2.72 11 17:20 15.05.2020
3123 Clouds 4 1027 87 0 2.78 4 16:58 15.05.2020
3124 Clouds 4 1027 87 0 2.78 4 16:39 15.05.2020
3125 Clouds 4 1027 88 0 2.91 8 16:19 15.05.2020
3126 Clouds 4 1027 88 0 2.91 8 15:58 15.05.2020
3127 Clouds 4 1027 88 0 2.91 8 15:39 15.05.2020
3128 Clouds 5 1027 86 0 2.83 11 15:19 15.05.2020
3129 Clouds 5 1027 86 0 2.83 11 14:54 15.05.2020
3130 Clouds 5 1027 86 0 2.87 12 14:36 15.05.2020
3131 Clouds 6 1026 82 0 2.8 17 14:18 15.05.2020
3132 Clouds 6 1027 81 0 2.83 18 13:40 15.05.2020
3133 Clouds 8 1026 74 0 3.36 24 13:20 15.05.2020
3134 Clouds 8 1026 74 0 3.36 24 12:40 15.05.2020
3135 Clouds 9 1026 68 0 4.5 24 12:19 15.05.2020
3136 Clouds 9 1026 68 0 4.5 24 11:57 15.05.2020
3137 Clouds 9 1026 68 0 4.5 24 11:39 15.05.2020
3138 Clouds 10 1026 64 0 4.55 25 11:21 15.05.2020
3139 Clouds 10 1026 64 0 4.55 25 10:59 15.05.2020
3140 Clouds 10 1026 64 0 4.55 25 10:40 15.05.2020
3141 Clouds 11 1025 62 0 4.41 30 10:22 15.05.2020
3142 Clouds 11 1025 62 0 4.41 30 09:59 15.05.2020
3143 Clouds 11 1025 62 0 4.41 30 09:37 15.05.2020
3144 Clouds 11 1025 58 0 3.49 45 09:19 15.05.2020
3145 Clouds 11 1025 58 0 3.49 45 08:57 15.05.2020
3146 Clouds 11 1025 58 0 3.49 45 08:37 15.05.2020
3147 Clouds 11 1025 58 0 3.61 49 08:18 15.05.2020
3148 Clouds 11 1025 58 0 3.61 49 08:18 15.05.2020
3149 Clouds 11 1025 58 0 3.61 49 07:44 15.05.2020
3150 Clouds 11 1025 59 0 3.56 55 07:24 15.05.2020
3151 Clouds 11 1025 59 0 3.56 55 06:47 15.05.2020
3152 Clouds 11 1026 60 0 3.54 57 05:49 15.05.2020
3153 Clouds 9 1026 68 0 3.06 54 04:27 15.05.2020
3154 Clouds 9 1026 68 0 3.06 54 03:46 15.05.2020
3155 Clouds 8 1026 72 0 2.38 68 02:30 15.05.2020
3156 Clouds 6 1027 80 0 1.79 55 01:20 15.05.2020
3157 Clouds 6 1027 80 0 1.79 55 00:48 15.05.2020
3158 Clouds 6 1027 80 0 1.79 55 00:29 15.05.2020
3159 Clouds 5 1027 83 0 1.55 48 23:44 14.05.2020
3160 Clouds 5 1027 86 0 1.13 59 23:24 14.05.2020
3161 Clouds 5 1027 86 0 1.13 59 22:59 14.05.2020
3162 Clouds 5 1027 86 0 1.13 59 22:40 14.05.2020
3163 Clouds 4 1027 89 0 1.23 66 22:19 14.05.2020
3164 Clouds 4 1027 89 0 1.23 66 21:57 14.05.2020
3165 Clouds 4 1027 89 0 1.23 66 21:39 14.05.2020
3166 Clouds 3 1026 90 0 1.5 52 21:19 14.05.2020
3167 Clouds 3 1027 88 0 1.33 54 20:55 14.05.2020
3168 Clouds 3 1027 88 0 1.33 54 20:55 14.05.2020
3169 Clouds 3 1027 88 0 1.33 54 20:36 14.05.2020
3170 Clouds 2 1027 88 0 1.25 55 20:18 14.05.2020
3171 Clouds 2 1027 88 0 1.25 55 19:41 14.05.2020
3172 Clouds 3 1026 87 0 1.18 58 19:21 14.05.2020
3173 Clouds 3 1026 87 0 1.18 58 18:58 14.05.2020
3174 Clouds 3 1026 87 0 1.18 58 18:38 14.05.2020
3175 Clouds 3 1026 87 0 1.07 59 18:20 14.05.2020
3176 Clouds 3 1026 87 0 1.07 59 17:59 14.05.2020
3177 Clouds 3 1026 87 0 1.07 59 17:37 14.05.2020
3178 Clouds 3 1026 86 0 1.01 56 17:19 14.05.2020
3179 Clouds 3 1026 86 0 1.01 56 16:59 14.05.2020
3180 Clouds 3 1026 86 0 1.01 56 16:39 14.05.2020
3181 Clouds 3 1025 85 0 0.84 57 16:20 14.05.2020
3182 Clouds 3 1025 85 0 0.84 57 15:56 14.05.2020
3183 Clouds 3 1025 85 0 0.84 57 15:38 14.05.2020
3184 Clouds 3 1025 84 0 0.52 66 15:19 14.05.2020
3185 Clouds 3 1025 84 0 0.52 66 15:19 14.05.2020
3186 Clouds 3 1025 84 0 0.52 66 14:55 14.05.2020
3187 Clouds 3 1025 84 0 0.52 66 14:37 14.05.2020
3188 Clouds 4 1024 85 0 0.51 43 14:19 14.05.2020
3189 Clouds 4 1024 85 0 0.51 43 13:44 14.05.2020
3190 Clouds 5 1024 83 0 0.66 98 13:20 14.05.2020
3191 Clouds 5 1024 83 0 0.66 98 12:59 14.05.2020
3192 Clouds 5 1024 83 0 0.66 98 12:40 14.05.2020
3193 Clouds 6 1023 80 0 0.91 114 12:21 14.05.2020
3194 Clouds 6 1023 80 0 0.91 114 11:59 14.05.2020
3195 Clouds 6 1023 80 0 0.91 114 11:40 14.05.2020
3196 Clouds 7 1023 74 0 1.04 116 11:22 14.05.2020
3197 Clouds 7 1023 74 0 1.04 116 10:58 14.05.2020
3198 Clouds 7 1023 74 0 1.04 116 10:39 14.05.2020
3199 Clouds 7 1022 75 0 1.17 114 10:21 14.05.2020
3200 Clouds 7 1022 75 0 1.17 114 09:43 14.05.2020
3201 Clouds 7 1021 68 0 1.97 124 09:23 14.05.2020
3202 Clouds 7 1021 68 0 1.97 124 08:56 14.05.2020
3203 Clouds 7 1021 68 0 1.97 124 08:36 14.05.2020
3204 Clouds 7 1021 69 0 2.07 121 08:18 14.05.2020
3205 Clouds 7 1021 69 0 2.07 121 07:43 14.05.2020
3206 Clouds 7 1020 69 0 1.94 113 07:20 14.05.2020
3207 Clouds 7 1020 69 0 1.94 113 06:43 14.05.2020
3208 Clouds 7 1020 70 0 1.81 115 06:23 14.05.2020
3209 Clouds 7 1020 70 0 1.81 115 05:37 14.05.2020
3210 Clouds 6 1020 73 0 1.36 104 04:43 14.05.2020
3211 Clouds 5 1020 76 0 1.19 103 03:32 14.05.2020
3212 Clouds 4 1019 77 0 1.33 100 02:57 14.05.2020
3213 Clouds 4 1019 77 0 1.33 100 02:34 14.05.2020
3214 Clouds 4 1019 76 0 1.21 75 01:47 14.05.2020
3215 Clouds 4 1018 77 0 0.92 51 00:51 14.05.2020
3216 Clouds 3 1018 80 0 1.03 37 00:27 14.05.2020
3217 Clouds 3 1018 80 0 1.03 37 23:45 13.05.2020
3218 Clouds 2 1017 83 0 1.25 24 23:23 13.05.2020
3219 Clouds 2 1017 83 0 1.25 24 22:59 13.05.2020
3220 Clouds 2 1017 83 0 1.25 24 22:40 13.05.2020
3221 Clouds 2 1017 87 0 1.29 26 22:21 13.05.2020
3222 Clouds 2 1017 87 0 1.29 26 21:57 13.05.2020
3223 Clouds 2 1017 87 0 1.29 26 21:39 13.05.2020
3224 Clouds 1 1016 90 0 1.51 38 21:19 13.05.2020
3225 Clouds 1 1016 90 0 1.51 38 20:41 13.05.2020
3226 Clouds 1 1015 91 0 1.94 18 20:23 13.05.2020
3227 Clouds 1 1015 91 0 1.94 18 19:59 13.05.2020
3228 Clouds 1 1015 91 0 1.94 18 19:40 13.05.2020
3229 Clouds 1 1015 91 0 2.11 11 19:22 13.05.2020
3230 Clouds 1 1015 91 0 2.11 11 18:42 13.05.2020
3231 Clouds 1 1014 91 0 2.17 15 18:22 13.05.2020
3232 Clouds 1 1014 91 0 2.17 15 18:21 13.05.2020
3233 Clouds 1 1014 91 0 2.17 15 17:39 13.05.2020
3234 Clouds 1 1014 90 0 2.19 20 17:20 13.05.2020
3235 Clouds 1 1014 90 0 2.19 20 16:56 13.05.2020
3236 Clouds 1 1014 90 0 2.19 20 16:38 13.05.2020
3237 Clouds 1 1013 89 0 2.44 21 16:19 13.05.2020
3238 Clouds 1 1013 89 0 2.44 21 15:42 13.05.2020
3239 Clouds 1 1013 87 0 2.68 19 15:20 13.05.2020
3240 Clouds 1 1013 87 0 2.68 19 14:58 13.05.2020
3241 Clouds 1 1013 87 0 2.68 19 14:40 13.05.2020
3242 Clouds 2 1012 82 0 2.58 27 14:22 13.05.2020
3243 Clouds 3 1012 80 0 2.22 50 13:57 13.05.2020
3244 Clouds 3 1012 80 0 2.22 50 13:39 13.05.2020
3245 Clouds 4 1012 73 0 2.35 52 13:20 13.05.2020
3246 Clouds 4 1012 73 0 2.35 52 12:56 13.05.2020
3247 Clouds 4 1012 73 0 2.35 52 12:37 13.05.2020
3248 Clouds 6 1011 66 0 1.8 62 12:18 13.05.2020
3249 Clouds 6 1011 66 0 1.8 62 11:54 13.05.2020
3250 Clouds 6 1011 66 0 1.8 62 11:36 13.05.2020
3251 Clouds 6 1011 61 0 2.09 93 11:18 13.05.2020
3252 Clouds 6 1011 61 0 2.09 93 10:55 13.05.2020
3253 Clouds 6 1011 61 0 2.09 93 10:37 13.05.2020
3254 Clouds 7 1011 60 0 2.56 102 10:18 13.05.2020
3255 Clouds 7 1011 60 0 2.56 102 09:41 13.05.2020
3256 Clouds 6 1011 62 0 3.01 100 09:22 13.05.2020
3257 Clouds 6 1011 62 0 3.01 100 08:54 13.05.2020
3258 Clouds 6 1011 62 0 3.01 100 08:36 13.05.2020
3259 Clouds 6 1010 64 0 3.34 94 08:18 13.05.2020
3260 Clouds 6 1010 64 0 3.34 94 07:42 13.05.2020
3261 Clouds 5 1010 66 0 3.29 92 07:24 13.05.2020
3262 Clouds 5 1010 66 0 3.29 92 06:47 13.05.2020
3263 Clouds 4 1010 70 0 2.9 87 05:59 13.05.2020
3264 Clouds 3 1010 74 0 2.56 88 04:50 13.05.2020
3265 Clouds 2 1010 84 0 1.67 86 03:27 13.05.2020
3266 Clouds 2 1009 84 0 1.63 87 02:32 13.05.2020
3267 Clouds 1 1009 88 0 1.32 83 01:36 13.05.2020
3268 Clouds 0 1009 92 0 1.14 72 00:47 13.05.2020
3269 Clouds 0 1009 95 0 1.01 66 00:20 13.05.2020
3270 Clouds 0 1009 95 0 1.01 66 23:40 12.05.2020
3271 Clouds -1 1008 95 0 0.91 35 23:21 12.05.2020
3272 Clouds -1 1008 95 0 0.91 35 22:58 12.05.2020
3273 Clouds -1 1008 95 0 0.91 35 22:40 12.05.2020
3274 Clouds -1 1008 96 0 0.82 44 22:21 12.05.2020
3275 Clouds -1 1008 96 0 0.82 44 21:56 12.05.2020
3276 Clouds -1 1008 96 0 0.82 44 21:37 12.05.2020
3277 Clouds -2 1007 97 0 0.81 62 21:19 12.05.2020
3278 Clouds -2 1007 97 0 0.81 62 20:57 12.05.2020
3279 Clouds -2 1007 97 0 0.81 62 20:38 12.05.2020
3280 Clouds -2 1007 97 0 0.86 42 20:20 12.05.2020
3281 Clouds -2 1007 97 0 0.86 42 19:56 12.05.2020
3282 Clouds -2 1007 97 0 0.86 42 19:37 12.05.2020
3283 Clouds -2 1006 97 0 0.86 40 19:19 12.05.2020
3284 Clouds -2 1006 97 0 0.86 40 18:43 12.05.2020
3285 Clouds -1 1006 97 0 0.86 45 18:24 12.05.2020
3286 Clouds -1 1006 97 0 0.86 45 17:58 12.05.2020
3287 Clouds -1 1006 97 0 0.86 45 17:39 12.05.2020
3288 Clouds -1 1006 97 0 0.84 33 17:21 12.05.2020
3289 Clouds -1 1006 97 0 0.84 33 16:43 12.05.2020
3290 Clouds -1 1006 97 0 0.91 32 16:23 12.05.2020
3291 Clouds -1 1006 97 0 0.91 32 15:56 12.05.2020
3292 Clouds -1 1006 97 0 0.91 32 15:37 12.05.2020
3293 Clouds -1 1005 97 0 1.02 32 15:18 12.05.2020
3294 Clouds -1 1005 97 0 1.02 32 14:55 12.05.2020
3295 Clouds -1 1005 97 0 1.02 32 14:36 12.05.2020
3296 Clouds 0 1004 97 0 0.8 26 14:18 12.05.2020
3297 Clouds 0 1004 97 0 0.75 36 13:56 12.05.2020
3298 Clouds 0 1004 97 0 0.75 36 13:37 12.05.2020
3299 Clouds 0 1004 95 0 0.5 34 13:18 12.05.2020
3300 Clouds 0 1004 95 0 0.5 34 12:57 12.05.2020
3301 Clouds 0 1004 95 0 0.5 34 12:38 12.05.2020
3302 Clouds 1 1003 91 0 0.41 21 12:20 12.05.2020
3303 Clouds 1 1003 91 0 0.41 21 11:57 12.05.2020
3304 Clouds 1 1003 91 0 0.41 21 11:37 12.05.2020
3305 Clouds 1 1003 90 0 0.27 326 11:19 12.05.2020
3306 Clouds 1 1003 90 0 0.27 326 10:56 12.05.2020
3307 Clouds 1 1003 90 0 0.27 326 10:37 12.05.2020
3308 Clouds 1 1003 87 0 0.32 296 10:18 12.05.2020
3309 Clouds 1 1003 87 0 0.32 296 09:57 12.05.2020
3310 Clouds 1 1003 87 0 0.32 296 09:38 12.05.2020
3311 Clouds 1 1002 88 0 0.75 236 09:20 12.05.2020
3312 Clouds 1 1002 88 0 0.75 236 08:41 12.05.2020
3313 Clouds 1 1001 89 0 0.97 247 08:21 12.05.2020
3314 Clouds 1 1001 89 0 0.97 247 07:57 12.05.2020
3315 Clouds 1 1001 89 0 0.97 247 07:39 12.05.2020
3316 Clouds 1 1001 91 0 1.08 256 07:19 12.05.2020
3317 Clouds 1 1001 91 0 1.08 256 06:38 12.05.2020
3318 Clouds 0 1001 91 0 1.1 269 06:19 12.05.2020
3319 Clouds 0 1001 91 0 1.1 269 05:45 12.05.2020
3320 Clouds 0 1001 95 0 1.62 286 03:57 12.05.2020
3321 Clouds -1 1001 95 0 1.68 289 03:19 12.05.2020
3322 Clouds -1 1001 95 0 1.74 291 02:27 12.05.2020
3323 Clouds -1 1001 95 0 1.59 284 01:40 12.05.2020
3324 Clouds -1 1001 95 0 1.7 287 00:59 12.05.2020
3325 Clouds -2 1001 96 0 1.62 286 00:24 12.05.2020
3326 Clouds -2 1001 96 0 1.62 286 23:57 11.05.2020
3327 Clouds -2 1001 96 0 1.62 286 23:38 11.05.2020
3328 Snow -2 1001 96 0 1.53 285 23:19 11.05.2020
3329 Snow -2 1001 96 0 1.53 285 22:57 11.05.2020
3330 Snow -2 1001 96 0 1.53 285 22:39 11.05.2020
3331 Snow -3 1001 97 0 1.47 285 22:19 11.05.2020
3332 Snow -3 1001 97 0 1.47 285 21:55 11.05.2020
3333 Snow -3 1001 97 0 1.47 285 21:37 11.05.2020
3334 Snow -4 1002 97 0 1.39 275 21:18 11.05.2020
3335 Snow -4 1002 97 0 1.39 275 20:55 11.05.2020
3336 Snow -4 1002 97 0 1.39 275 20:36 11.05.2020
3337 Snow -4 1002 97 0 1.54 279 20:18 11.05.2020
3338 Snow -4 1002 97 0 1.54 279 19:41 11.05.2020
3339 Snow -4 1002 97 0 1.71 285 19:22 11.05.2020
3340 Snow -4 1002 97 0 1.71 285 18:58 11.05.2020
3341 Snow -4 1002 97 0 1.71 285 18:39 11.05.2020
3342 Snow -4 1002 97 0 1.87 291 18:20 11.05.2020
3343 Snow -4 1002 97 0 1.87 291 17:58 11.05.2020
3344 Snow -4 1002 97 0 1.87 291 17:40 11.05.2020
3345 Snow -4 1002 97 0 1.95 303 17:21 11.05.2020
3346 Snow -4 1002 97 0 1.95 303 16:57 11.05.2020
3347 Snow -4 1002 97 0 1.95 303 16:38 11.05.2020
3348 Clouds -4 1002 96 0 2.26 317 16:19 11.05.2020
3349 Clouds -4 1002 96 0 2.26 317 15:42 11.05.2020
3350 Clouds -3 1003 95 0 2.29 331 15:21 11.05.2020
3351 Clouds -3 1003 95 0 2.29 331 14:59 11.05.2020
3352 Clouds -3 1003 95 0 2.29 331 14:41 11.05.2020
3353 Clouds -2 1002 96 0 2.35 333 14:22 11.05.2020
3354 Clouds -2 1002 96 0 2.35 333 13:55 11.05.2020
3355 Clouds -2 1002 96 0 2.35 333 13:55 11.05.2020
3356 Clouds -2 1002 96 0 2.35 333 13:37 11.05.2020
3357 Clouds -1 1002 95 0 2.69 334 13:18 11.05.2020
3358 Clouds -1 1002 95 0 2.69 334 12:55 11.05.2020
3359 Clouds -1 1002 95 0 2.69 334 12:37 11.05.2020
3360 Clouds 0 1002 93 0 2.92 344 12:19 11.05.2020
3361 Clouds 0 1002 93 0 2.92 344 11:41 11.05.2020
3362 Clouds 1 1002 88 0 3.31 347 11:22 11.05.2020
3363 Clouds 1 1002 88 0 3.31 347 10:58 11.05.2020
3364 Clouds 1 1002 88 0 3.31 347 10:40 11.05.2020
3365 Clouds 2 1002 86 0 3.97 353 10:21 11.05.2020
3366 Clouds 2 1002 86 0 3.97 353 09:59 11.05.2020
3367 Clouds 2 1002 86 0 3.97 353 09:41 11.05.2020
3368 Clouds 2 1002 85 0 4.14 354 09:20 11.05.2020
3369 Clouds 2 1002 85 0 2.83 346 08:56 11.05.2020
3370 Clouds 2 1002 85 0 2.83 346 08:37 11.05.2020
3371 Clouds 2 1002 85 0 2.86 342 08:18 11.05.2020
3372 Clouds 2 1002 85 0 2.86 342 07:46 11.05.2020
3373 Clouds 2 1002 85 0 2.85 341 07:27 11.05.2020
3374 Clouds 2 1002 85 0 2.85 341 06:43 11.05.2020
3375 Clouds 2 1003 87 0 2.7 341 05:58 11.05.2020
3376 Clouds 1 1003 89 0 2.57 338 05:25 11.05.2020
3377 Clouds 1 1003 89 0 2.57 338 04:32 11.05.2020
3378 Clouds 1 1004 91 0 2.54 334 03:29 11.05.2020
3379 Clouds 0 1003 93 0 2.61 336 02:29 11.05.2020
3380 Clouds 0 1004 96 0 2.81 332 01:43 11.05.2020
3381 Clouds -1 1004 96 0 2.87 324 00:53 11.05.2020
3382 Clouds -1 1005 96 0 2.82 321 00:20 11.05.2020
3383 Clouds -1 1005 96 0 2.82 321 23:44 10.05.2020
3384 Clouds -1 1005 96 0 2.64 322 23:26 10.05.2020
3385 Clouds -1 1005 96 0 2.64 322 22:57 10.05.2020
3386 Clouds -1 1005 96 0 2.64 322 22:38 10.05.2020
3387 Clouds -2 1006 96 0 2.31 313 22:20 10.05.2020
3388 Clouds -2 1006 96 0 2.31 313 21:44 10.05.2020
3389 Clouds -2 1006 97 0 2.23 322 21:20 10.05.2020
3390 Clouds -2 1006 97 0 2.23 322 20:55 10.05.2020
3391 Clouds -2 1006 97 0 2.23 322 20:55 10.05.2020
3392 Clouds -2 1006 97 0 2.23 322 20:37 10.05.2020
3393 Clouds -2 1006 97 0 2.25 327 20:19 10.05.2020
3394 Clouds -2 1006 97 0 2.25 327 19:41 10.05.2020
3395 Clouds -2 1006 97 0 2.33 329 19:22 10.05.2020
3396 Clouds -2 1006 97 0 2.33 329 18:57 10.05.2020
3397 Clouds -2 1006 97 0 2.33 329 18:37 10.05.2020
3398 Snow -2 1006 97 0 2.1 329 18:19 10.05.2020
3399 Snow -2 1006 97 0 2.1 329 17:59 10.05.2020
3400 Snow -2 1006 97 0 2.1 329 17:40 10.05.2020
3401 Snow -2 1006 97 0 2.01 326 17:22 10.05.2020
3402 Snow -2 1006 97 0 2.01 326 16:58 10.05.2020
3403 Snow -2 1006 97 0 2.01 326 16:40 10.05.2020
3404 Snow -1 1006 98 0 2.03 319 16:19 10.05.2020
3405 Snow -1 1006 98 0 2.03 319 15:55 10.05.2020
3406 Snow -1 1006 98 0 2.03 319 15:36 10.05.2020
3407 Snow -1 1006 97 0 1.96 316 15:18 10.05.2020
3408 Snow -1 1006 97 0 1.96 316 14:38 10.05.2020
3409 Clouds -1 1006 97 0 1.77 315 14:20 10.05.2020
3410 Clouds -1 1006 97 0 1.77 315 14:20 10.05.2020
3411 Clouds -1 1006 97 0 1.77 315 14:20 10.05.2020
3412 Clouds -1 1006 97 0 1.77 315 13:59 10.05.2020
3413 Clouds -1 1006 97 0 1.77 315 13:39 10.05.2020
3414 Clouds 0 1007 96 0 2.07 323 13:20 10.05.2020
3415 Clouds 0 1007 96 0 2.07 323 12:58 10.05.2020
3416 Clouds 0 1007 96 0 2.07 323 12:40 10.05.2020
3417 Clouds 1 1007 93 0 2.24 338 12:21 10.05.2020
3418 Clouds 1 1007 93 0 2.24 338 11:58 10.05.2020
3419 Clouds 1 1007 93 0 2.24 338 11:39 10.05.2020
3420 Clouds 1 1007 91 0 2.33 344 11:20 10.05.2020
3421 Clouds 1 1007 91 0 2.33 344 11:20 10.05.2020
3422 Clouds 1 1007 91 0 2.33 344 10:48 10.05.2020
3423 Clouds 1 1007 91 0 2.33 344 10:29 10.05.2020
3424 Clouds 1 1006 91 0 1.9 336 09:59 10.05.2020
3425 Clouds 1 1006 91 0 1.9 336 09:40 10.05.2020
3426 Clouds 1 1006 91 0 1.84 319 09:21 10.05.2020
3427 Clouds 1 1006 93 0 1.67 320 08:52 10.05.2020
3428 Clouds 1 1006 93 0 1.64 309 08:24 10.05.2020
3429 Clouds 1 1006 93 0 1.64 309 07:56 10.05.2020
3430 Clouds 1 1006 93 0 1.64 309 07:37 10.05.2020
3431 Clouds 1 1006 94 0 1.74 308 07:19 10.05.2020
3432 Clouds 1 1006 94 0 1.74 308 06:48 10.05.2020
3433 Clouds 0 1007 95 0 1.69 310 06:21 10.05.2020
3434 Clouds 0 1007 95 0 1.69 310 05:43 10.05.2020
3435 Clouds 0 1007 96 0 1.5 317 04:41 10.05.2020
3436 Clouds 0 1007 95 0 1.45 334 04:22 10.05.2020
3437 Clouds 0 1007 95 0 1.45 334 03:41 10.05.2020
3438 Clouds -1 1008 94 0 1.53 338 02:54 10.05.2020
3439 Clouds -1 1008 94 0 1.65 328 02:24 10.05.2020
3440 Clouds -1 1008 94 0 1.65 328 02:24 10.05.2020
3441 Clouds -1 1008 94 0 1.65 328 02:24 10.05.2020
3442 Clouds -1 1008 94 0 1.31 317 01:43 10.05.2020
3443 Clouds -1 1009 94 0 1.45 300 01:23 10.05.2020
3444 Clouds -1 1009 94 0 1.45 300 00:58 10.05.2020
3445 Clouds -1 1009 94 0 1.45 300 00:37 10.05.2020
3446 Clouds -2 1009 95 0 1.37 293 00:19 10.05.2020
3447 Clouds -2 1009 95 0 1.37 293 23:39 09.05.2020
3448 Clouds -2 1010 96 0 1.28 290 23:21 09.05.2020
3449 Clouds -2 1010 96 0 1.28 290 22:55 09.05.2020
3450 Clouds -2 1010 96 0 1.28 290 22:37 09.05.2020
3451 Clouds -2 1010 96 0 0.91 290 22:19 09.05.2020
3452 Clouds -2 1010 96 0 0.91 290 21:55 09.05.2020
3453 Clouds -3 1010 95 0 0.67 220 21:36 09.05.2020
3454 Clouds -3 1010 96 0 0.5 295 21:18 09.05.2020
3455 Clouds -3 1010 96 0 0.37 195 20:54 09.05.2020
3456 Clouds -3 1010 96 0 0.37 195 20:36 09.05.2020
3457 Clouds -4 1010 96 0 0.6 258 20:18 09.05.2020
3458 Clouds -4 1010 96 0 0.6 258 19:39 09.05.2020
3459 Clouds -3 1011 96 0 0.87 259 19:20 09.05.2020
3460 Clouds -3 1011 96 0 0.87 259 18:55 09.05.2020
3461 Clouds -3 1011 96 0 0.87 259 18:37 09.05.2020
3462 Clouds -3 1011 96 0 0.95 252 18:18 09.05.2020
3463 Clouds -3 1011 96 0 0.95 252 17:42 09.05.2020
3464 Clouds -3 1011 95 0 1.02 242 17:22 09.05.2020
3465 Clouds -3 1011 95 0 1.02 242 16:41 09.05.2020
3466 Clouds -3 1011 95 0 0.68 243 16:20 09.05.2020
3467 Clouds -3 1011 95 0 0.68 243 15:58 09.05.2020
3468 Clouds -3 1011 95 0 0.68 243 15:39 09.05.2020
3469 Clouds -3 1011 95 0 0.6 253 15:21 09.05.2020
3470 Clouds -3 1011 95 0 0.6 253 14:43 09.05.2020
3471 Clouds -3 1011 95 0 0.75 259 14:20 09.05.2020
3472 Clouds -3 1011 95 0 0.69 262 13:59 09.05.2020
3473 Clouds -3 1011 95 0 0.69 262 13:41 09.05.2020
3474 Clouds -2 1011 96 0 0.87 272 13:21 09.05.2020
3475 Clouds -2 1011 96 0 0.87 272 12:57 09.05.2020
3476 Clouds -2 1011 96 0 0.87 272 12:39 09.05.2020
3477 Clouds -2 1011 94 0 0.99 289 12:21 09.05.2020
3478 Clouds -2 1011 94 0 0.99 289 11:43 09.05.2020
3479 Clouds -1 1011 94 0 0.98 295 11:20 09.05.2020
3480 Clouds -1 1011 94 0 0.98 295 10:48 09.05.2020
3481 Clouds -2 1011 94 0 1.07 287 10:27 09.05.2020
3482 Clouds -2 1011 94 0 1.07 287 09:59 09.05.2020
3483 Clouds -2 1011 94 0 1.07 287 09:40 09.05.2020
3484 Clouds -2 1011 94 0 0.91 271 09:19 09.05.2020
3485 Clouds -2 1011 94 0 0.91 271 08:52 09.05.2020
3486 Clouds -2 1011 94 0 0.91 271 08:33 09.05.2020
3487 Clouds -2 1011 94 0 0.91 271 08:33 09.05.2020
3488 Clouds -2 1011 94 0 1.13 268 07:55 09.05.2020
3489 Clouds -2 1011 94 0 1.13 268 07:37 09.05.2020
3490 Clouds -2 1011 94 0 1.05 262 07:19 09.05.2020
3491 Clouds -3 1012 94 0 0.93 269 06:26 09.05.2020
3492 Clouds -3 1012 94 0 0.93 269 05:50 09.05.2020
3493 Clouds -3 1012 93 0 1.19 272 04:58 09.05.2020
3494 Clouds -3 1012 94 0 1.4 272 03:39 09.05.2020
3495 Clouds -4 1012 94 0 1.57 268 02:53 09.05.2020
3496 Clouds -4 1012 94 0 1.53 270 02:29 09.05.2020
3497 Clouds -4 1012 94 0 1.75 266 01:48 09.05.2020
3498 Clouds -5 1012 94 0 1.74 264 01:20 09.05.2020
3499 Clouds -5 1012 94 0 1.74 264 00:42 09.05.2020
3500 Clouds -5 1013 94 0 1.54 264 00:18 09.05.2020
3501 Clouds -5 1013 94 0 1.54 264 23:43 08.05.2020
3502 Clouds -6 1013 95 0 1.43 264 23:24 08.05.2020
3503 Clouds -6 1013 95 0 1.43 264 22:55 08.05.2020
3504 Clouds -6 1013 95 0 1.43 264 22:37 08.05.2020
3505 Clouds -6 1012 96 0 1.39 261 22:19 08.05.2020
3506 Clouds -6 1012 96 0 1.39 261 21:54 08.05.2020
3507 Clouds -6 1012 96 0 1.39 261 21:36 08.05.2020
3508 Snow -7 1012 96 0 1.42 270 21:18 08.05.2020
3509 Snow -7 1012 96 0 1.45 264 20:55 08.05.2020
3510 Snow -7 1012 96 0 1.45 264 20:36 08.05.2020
3511 Snow -7 1012 96 0 1.45 264 20:36 08.05.2020
3512 Snow -7 1011 96 0 1.54 274 20:18 08.05.2020
3513 Snow -7 1011 96 0 1.54 274 19:41 08.05.2020
3514 Snow -7 1011 96 0 1.67 280 19:20 08.05.2020
3515 Snow -7 1011 96 0 1.67 280 18:45 08.05.2020
3516 Snow -6 1011 96 0 1.86 277 18:27 08.05.2020
3517 Snow -6 1011 96 0 1.86 277 17:43 08.05.2020
3518 Snow -5 1011 97 0 1.82 284 17:20 08.05.2020
3519 Snow -5 1011 97 0 1.82 284 16:56 08.05.2020
3520 Snow -5 1011 97 0 1.82 284 16:38 08.05.2020
3521 Snow -5 1011 97 0 1.76 296 16:19 08.05.2020
3522 Snow -5 1011 97 0 1.76 296 15:43 08.05.2020
3523 Clouds -4 1011 97 0 1.85 301 15:22 08.05.2020
3524 Clouds -4 1011 97 0 1.85 301 14:57 08.05.2020
3525 Clouds -4 1011 97 0 1.85 301 14:39 08.05.2020
3526 Snow -2 1009 97 0 1.84 310 14:19 08.05.2020
3527 Snow -2 1009 97 0 1.84 310 13:56 08.05.2020
3528 Snow -2 1009 97 0 1.84 310 13:38 08.05.2020
3529 Clouds -2 1009 97 0 2.14 314 13:18 08.05.2020
3530 Clouds -2 1009 97 0 2.14 314 12:44 08.05.2020
3531 Snow -1 1008 97 0 2.33 340 12:23 08.05.2020
3532 Snow -1 1008 97 0 2.33 340 11:55 08.05.2020
3533 Snow -1 1008 97 0 2.33 340 11:36 08.05.2020
3534 Snow -1 1008 97 0 2.93 14 11:18 08.05.2020
3535 Snow -1 1008 97 0 2.93 14 10:43 08.05.2020
3536 Clouds -1 1008 96 0 4.86 23 10:21 08.05.2020
3537 Clouds -1 1008 96 0 4.86 23 09:59 08.05.2020
3538 Clouds -1 1008 96 0 4.86 23 09:40 08.05.2020
3539 Clouds -1 1007 96 0 4.21 18 09:18 08.05.2020
3540 Clouds -1 1007 96 0 4.21 18 08:45 08.05.2020
3541 Clouds -1 1007 95 0 4.95 11 08:24 08.05.2020
3542 Clouds -1 1007 95 0 4.95 11 07:45 08.05.2020
3543 Clouds -1 1007 95 0 4.55 13 07:25 08.05.2020
3544 Clouds -1 1007 95 0 4.55 13 06:52 08.05.2020
3545 Clouds -2 1007 95 0 5.69 16 06:25 08.05.2020
3546 Clouds -2 1007 95 0 5.69 16 05:59 08.05.2020
3547 Clouds -2 1008 95 0 5.48 8 04:56 08.05.2020
3548 Clouds -4 1009 95 0 4.82 4 02:57 08.05.2020
3549 Clouds -4 1009 95 0 3.86 358 02:22 08.05.2020
3550 Clouds -4 1009 95 0 3.86 358 01:38 08.05.2020
3551 Snow -5 1009 95 0 3.65 356 01:19 08.05.2020
3552 Snow -5 1009 95 0 3.65 356 00:46 08.05.2020
3553 Snow -5 1010 95 0 4.07 1 00:24 08.05.2020
3554 Snow -5 1010 95 0 4.07 1 23:46 07.05.2020
3555 Clouds -6 1010 95 0 3.9 358 23:24 07.05.2020
3556 Clouds -6 1010 95 0 3.9 358 22:59 07.05.2020
3557 Clouds -6 1010 95 0 3.9 358 22:41 07.05.2020
3558 Clouds -6 1010 95 0 3.47 351 22:20 07.05.2020
3559 Clouds -6 1010 95 0 3.47 351 22:20 07.05.2020
3560 Clouds -6 1010 95 0 3.47 351 21:57 07.05.2020
3561 Clouds -6 1010 95 0 3.47 351 21:38 07.05.2020
3562 Snow -6 1010 96 0 2.88 351 21:19 07.05.2020
3563 Snow -6 1010 96 0 2.88 351 21:19 07.05.2020
3564 Snow -6 1010 96 0 2.88 351 20:56 07.05.2020
3565 Snow -6 1010 96 0 2.88 351 20:37 07.05.2020
3566 Clouds -6 1010 96 0 2.34 335 20:18 07.05.2020
3567 Clouds -6 1010 96 0 2.34 335 19:45 07.05.2020
3568 Snow -6 1010 96 0 2.78 335 19:21 07.05.2020
3569 Snow -6 1010 96 0 2.78 335 18:47 07.05.2020
3570 Snow -5 1010 97 0 2.39 329 18:29 07.05.2020
3571 Snow -5 1010 97 0 2.39 329 17:59 07.05.2020
3572 Snow -5 1010 97 0 2.39 329 17:38 07.05.2020
3573 Snow -5 1010 97 0 2.77 332 17:19 07.05.2020
3574 Snow -5 1010 97 0 2.77 332 16:42 07.05.2020
3575 Snow -4 1009 97 0 3.02 339 16:19 07.05.2020
3576 Snow -4 1009 97 0 3.02 339 15:57 07.05.2020
3577 Snow -4 1009 97 0 3.02 339 15:38 07.05.2020
3578 Snow -3 1009 97 0 3.1 340 15:18 07.05.2020
3579 Snow -3 1009 97 0 3.1 340 14:55 07.05.2020
3580 Snow -3 1009 97 0 3.1 340 14:37 07.05.2020
3581 Snow -2 1008 97 0 3.52 345 14:18 07.05.2020
3582 Snow -2 1008 97 0 3.52 345 13:41 07.05.2020
3583 Snow -1 1007 97 0 4.42 3 13:22 07.05.2020
3584 Snow -1 1007 97 0 4.42 3 12:42 07.05.2020
3585 Snow 0 1007 97 0 4.84 11 12:20 07.05.2020
3586 Snow 0 1007 97 0 4.84 11 11:40 07.05.2020
3587 Snow 1 1007 95 0 4.66 13 11:22 07.05.2020
3588 Snow 1 1007 95 0 4.66 13 10:58 07.05.2020
3589 Snow 1 1007 95 0 4.66 13 10:40 07.05.2020
3590 Snow 1 1007 95 0 4.66 13 10:40 07.05.2020
3591 Snow 1 1006 93 0 3.29 13 10:20 07.05.2020
3592 Snow 1 1006 93 0 3.29 13 09:40 07.05.2020
3593 Clouds 1 1006 94 0 2.42 17 09:20 07.05.2020
3594 Snow 1 1006 93 0 3.38 22 08:56 07.05.2020
3595 Snow 1 1006 93 0 3.38 22 08:37 07.05.2020
3596 Snow 1 1006 92 0 3.2 36 08:19 07.05.2020
3597 Snow 1 1006 92 0 3.2 36 07:43 07.05.2020
3598 Snow 1 1006 92 0 3.2 36 07:43 07.05.2020
3599 Snow 1 1005 93 0 3.03 38 07:25 07.05.2020
3600 Snow 1 1005 93 0 3.03 38 06:45 07.05.2020
3601 Snow 1 1005 93 0 3.03 38 06:45 07.05.2020
3602 Clouds 1 1006 93 0 3.4 52 06:23 07.05.2020
3603 Clouds 1 1006 93 0 3.4 52 05:29 07.05.2020
3604 Snow 1 1006 93 0 2.66 53 03:55 07.05.2020
3605 Snow 1 1006 92 0 2.11 56 03:24 07.05.2020
3606 Snow 1 1006 92 0 2.11 56 02:42 07.05.2020
3607 Snow 1 1007 94 0 2.05 53 01:42 07.05.2020
3608 Snow 0 1007 96 0 1.85 48 01:23 07.05.2020
3609 Snow 0 1007 96 0 1.85 48 00:45 07.05.2020
3610 Clouds 0 1007 96 0 1.87 44 00:27 07.05.2020
3611 Clouds 0 1007 96 0 1.87 44 23:47 06.05.2020
3612 Snow 0 1007 98 0 1.83 46 23:25 06.05.2020
3613 Snow 0 1007 98 0 1.83 46 22:58 06.05.2020
3614 Snow 0 1007 98 0 1.83 46 22:58 06.05.2020
3615 Snow 0 1007 98 0 1.83 46 22:39 06.05.2020
3616 Snow -1 1007 98 0 1.58 51 22:19 06.05.2020
3617 Snow -1 1007 98 0 1.58 51 21:57 06.05.2020
3618 Snow -1 1007 98 0 1.58 51 21:39 06.05.2020
3619 Clouds -2 1007 97 0 1.55 30 21:20 06.05.2020
3620 Clouds -2 1007 97 0 1.55 30 20:43 06.05.2020
3621 Clouds -2 1007 97 0 1.56 25 20:24 06.05.2020
3622 Clouds -2 1007 97 0 1.56 25 19:59 06.05.2020
3623 Clouds -2 1007 97 0 1.56 25 19:39 06.05.2020
3624 Clouds -2 1007 97 0 1.03 28 19:20 06.05.2020
3625 Clouds -2 1007 97 0 1.03 28 18:59 06.05.2020
3626 Clouds -2 1007 97 0 1.03 28 18:41 06.05.2020
3627 Clouds -2 1007 97 0 1.1 41 18:21 06.05.2020
3628 Clouds -2 1007 97 0 1.1 41 17:59 06.05.2020
3629 Clouds -2 1007 97 0 1.1 41 17:40 06.05.2020
3630 Clouds -1 1007 97 0 1.13 43 17:22 06.05.2020
3631 Clouds -1 1007 97 0 1.13 43 16:59 06.05.2020
3632 Clouds -1 1007 97 0 1.13 43 16:41 06.05.2020
3633 Clouds -1 1007 97 0 1.1 52 16:21 06.05.2020
3634 Clouds -1 1007 97 0 1.1 52 15:59 06.05.2020
3635 Clouds -1 1007 97 0 1.1 52 15:59 06.05.2020
3636 Clouds -1 1007 97 0 1.1 52 15:59 06.05.2020
3637 Clouds -1 1007 97 0 1.1 52 15:40 06.05.2020
3638 Clouds -1 1007 97 0 0.96 58 15:21 06.05.2020
3639 Clouds -1 1007 97 0 0.96 58 14:56 06.05.2020
3640 Clouds -1 1007 97 0 0.96 58 14:37 06.05.2020
3641 Clouds -1 1006 98 0 0.9 71 14:18 06.05.2020
3642 Clouds -1 1006 98 0 0.9 71 13:56 06.05.2020
3643 Clouds -1 1006 98 0 0.9 71 13:36 06.05.2020
3644 Clouds 0 1006 97 0 0.86 82 13:18 06.05.2020
3645 Clouds 0 1006 97 0 0.86 82 12:42 06.05.2020
3646 Clouds 0 1006 96 0 0.81 98 12:23 06.05.2020
3647 Clouds 0 1006 96 0 0.81 98 11:41 06.05.2020
3648 Clouds 1 1006 92 0 0.84 128 11:21 06.05.2020
3649 Clouds 1 1006 92 0 0.84 128 10:58 06.05.2020
3650 Clouds 1 1006 92 0 0.84 128 10:38 06.05.2020
3651 Clouds 1 1006 91 0 1.34 142 10:19 06.05.2020
3652 Clouds 1 1006 91 0 1.34 142 09:45 06.05.2020
3653 Clouds 1 1006 87 0 1.76 183 09:24 06.05.2020
3654 Clouds 1 1006 87 0 1.76 183 08:55 06.05.2020
3655 Clouds 1 1006 87 0 1.76 183 08:36 06.05.2020
3656 Clouds 1 1007 89 0 1.86 177 08:18 06.05.2020
3657 Clouds 1 1007 89 0 1.86 177 07:40 06.05.2020
3658 Clouds 1 1007 92 0 2.16 181 07:21 06.05.2020
3659 Clouds 1 1007 92 0 2.16 181 06:58 06.05.2020
3660 Clouds 1 1007 92 0 2.16 181 06:40 06.05.2020
3661 Clouds 0 1007 91 0 2.24 177 06:19 06.05.2020
3662 Clouds 0 1007 91 0 2.24 177 05:37 06.05.2020
3663 Clouds 0 1007 89 0 1.99 179 04:41 06.05.2020
3664 Clouds 0 1008 90 0 1.82 160 03:49 06.05.2020
3665 Clouds -1 1008 90 0 1.63 162 03:24 06.05.2020
3666 Clouds -1 1008 90 0 1.63 162 02:38 06.05.2020
3667 Clouds -1 1008 91 0 1.35 166 02:20 06.05.2020
3668 Clouds -1 1008 91 0 1.35 166 01:41 06.05.2020
3669 Clouds -2 1009 92 0 1.39 147 00:56 06.05.2020
3670 Clouds -2 1009 92 0 1.39 147 00:37 06.05.2020
3671 Clouds -3 1010 93 0 1.16 130 00:18 06.05.2020
3672 Clouds -3 1010 93 0 1.16 130 23:40 05.05.2020
3673 Clouds -3 1010 94 0 0.97 124 23:19 05.05.2020
3674 Clouds -3 1010 94 0 0.97 124 22:42 05.05.2020
3675 Clouds -4 1011 94 0 1.25 119 22:21 05.05.2020
3676 Clouds -4 1011 94 0 1.25 119 21:59 05.05.2020
3677 Clouds -4 1011 94 0 1.25 119 21:41 05.05.2020
3678 Clouds -5 1011 94 0 1.09 116 21:21 05.05.2020
3679 Clouds -5 1011 94 0 1.16 129 20:59 05.05.2020
3680 Clouds -5 1011 94 0 1.16 129 20:40 05.05.2020
3681 Clouds -5 1012 94 0 1.3 133 20:19 05.05.2020
3682 Clouds -5 1012 94 0 1.3 133 19:59 05.05.2020
3683 Clouds -5 1012 94 0 1.3 133 19:38 05.05.2020
3684 Clouds -5 1012 93 0 1.29 127 19:20 05.05.2020
3685 Clouds -5 1012 93 0 1.29 127 18:56 05.05.2020
3686 Clouds -5 1012 93 0 1.29 127 18:38 05.05.2020
3687 Clouds -5 1012 93 0 1.42 124 18:19 05.05.2020
3688 Clouds -5 1012 93 0 1.42 124 17:44 05.05.2020
3689 Clouds -5 1012 93 0 1.41 127 17:25 05.05.2020
3690 Clouds -5 1012 93 0 1.41 127 16:59 05.05.2020
3691 Clouds -5 1012 93 0 1.41 127 16:38 05.05.2020
3692 Clouds -5 1013 93 0 1.34 130 16:19 05.05.2020
3693 Clouds -5 1013 93 0 1.34 130 15:57 05.05.2020
3694 Clouds -5 1013 93 0 1.34 130 15:38 05.05.2020
3695 Clouds -4 1013 92 0 1.49 137 15:20 05.05.2020
3696 Clouds -4 1013 92 0 1.49 137 14:54 05.05.2020
3697 Clouds -4 1013 92 0 1.49 137 14:36 05.05.2020
3698 Clouds -4 1014 92 0 1.24 144 14:18 05.05.2020
3699 Clouds -4 1013 93 0 1.24 145 13:54 05.05.2020
3700 Clouds -4 1013 93 0 1.24 145 13:36 05.05.2020
3701 Clouds -3 1014 93 0 1.49 140 13:18 05.05.2020
3702 Clouds -3 1014 92 0 1.49 140 12:41 05.05.2020
3703 Clouds -1 1014 91 0 1.55 145 12:22 05.05.2020
3704 Clouds -1 1014 91 0 1.55 145 11:59 05.05.2020
3705 Clouds -1 1014 91 0 1.55 145 11:40 05.05.2020
3706 Clouds 0 1014 86 0 1.57 155 11:19 05.05.2020
3707 Clouds 0 1014 86 0 1.57 155 10:55 05.05.2020
3708 Clouds 0 1014 86 0 1.57 155 10:36 05.05.2020
3709 Clouds 1 1014 82 0 1.96 165 10:18 05.05.2020
3710 Clouds 1 1014 82 0 1.96 165 09:44 05.05.2020
3711 Clear 0 1015 83 0 2.18 153 09:26 05.05.2020
3712 Clear 0 1015 83 0 2.18 153 08:58 05.05.2020
3713 Clear 0 1015 83 0 2.18 153 08:39 05.05.2020
3714 Clear 0 1015 84 0 1.94 156 08:18 05.05.2020
3715 Clear 0 1015 84 0 1.94 156 07:43 05.05.2020
3716 Clear 0 1016 86 0 1.85 155 07:21 05.05.2020
3717 Clear 0 1016 86 0 1.85 155 06:57 05.05.2020
3718 Clear 0 1016 86 0 1.85 155 06:39 05.05.2020
3719 Clear -1 1017 88 0 1.73 158 05:53 05.05.2020
3720 Clear -1 1017 88 0 1.68 159 04:59 05.05.2020
3721 Clear -2 1018 88 0 1.21 224 02:39 05.05.2020
3722 Clear -4 1019 88 0 1.2 203 00:57 05.05.2020
3723 Clear -4 1019 88 0 1.2 203 00:37 05.05.2020
3724 Clear -5 1020 89 0 1.18 188 23:55 04.05.2020
3725 Clear -5 1020 89 0 1.18 188 23:36 04.05.2020
3726 Clear -6 1020 90 0 0.89 197 23:18 04.05.2020
3727 Clear -6 1020 90 0 0.89 197 22:54 04.05.2020
3728 Clear -6 1020 90 0 0.89 197 22:36 04.05.2020
3729 Clear -8 1020 90 0 0.75 197 22:18 04.05.2020
3730 Clear -8 1020 90 0 0.75 197 22:18 04.05.2020
3731 Clear -8 1020 90 0 0.75 197 21:43 04.05.2020
3732 Clear -8 1020 90 0 0.75 197 21:42 04.05.2020
3733 Clear -9 1020 89 0 0.57 208 21:20 04.05.2020
3734 Clear -9 1020 89 0 0.57 208 21:20 04.05.2020
3735 Clear -10 1020 89 0 0.68 199 20:42 04.05.2020
3736 Clear -10 1020 89 0 0.64 176 20:21 04.05.2020
3737 Clear -10 1020 90 0 0.64 176 19:58 04.05.2020
3738 Clear -10 1020 89 0 0.64 176 19:40 04.05.2020
3739 Clear -9 1020 89 0 0.73 150 19:18 04.05.2020
3740 Clear -9 1020 89 0 0.73 150 18:39 04.05.2020
3741 Clear -9 1020 90 0 0.54 152 18:21 04.05.2020
3742 Clear -9 1020 90 0 0.54 152 17:58 04.05.2020
3743 Clear -9 1020 89 0 0.54 152 17:40 04.05.2020
3744 Clear -9 1020 90 0 0.24 193 17:21 04.05.2020
3745 Clear -9 1020 89 0 0.24 193 17:21 04.05.2020
3746 Clear -9 1020 89 0 0.24 193 16:59 04.05.2020
3747 Clear -9 1020 89 0 0.24 193 16:40 04.05.2020
3748 Clear -8 1020 91 0 0.38 200 16:19 04.05.2020
3749 Clear -8 1020 89 0 0.38 200 16:19 04.05.2020
3750 Clear -8 1020 89 0 0.38 200 16:19 04.05.2020
3751 Clear -8 1020 89 0 0.38 200 15:42 04.05.2020
3752 Clear -8 1020 90 0 0.54 204 15:24 04.05.2020
3753 Clear -8 1020 90 0 0.54 204 14:54 04.05.2020
3754 Clear -8 1020 90 0 0.54 204 14:54 04.05.2020
3755 Clear -8 1020 90 0 0.54 204 14:54 04.05.2020
3756 Clear -8 1020 90 0 0.68 192 14:29 04.05.2020
3757 Clear -8 1020 90 0 0.54 204 14:29 04.05.2020
3758 Clear -8 1020 90 0 0.68 192 14:29 04.05.2020
3759 Clear -8 1020 90 0 0.54 204 14:29 04.05.2020
3760 Clear -8 1020 90 0 0.54 204 14:29 04.05.2020
3761 Clear -7 1020 90 0 0.69 207 13:40 04.05.2020
3762 Clear -7 1020 90 0 0.69 207 13:40 04.05.2020
3763 Clear -7 1020 90 0 0.69 207 13:40 04.05.2020
3764 Clear -7 1020 90 0 0.69 207 13:39 04.05.2020
3765 Clear -7 1020 90 0 0.69 207 13:39 04.05.2020
3766 Clear -5 1020 90 0 0.73 199 12:44 04.05.2020
3767 Clear -5 1020 90 0 0.73 199 12:44 04.05.2020
3768 Clear -5 1020 90 0 0.73 199 12:44 04.05.2020
3769 Clear -5 1020 90 0 0.73 199 12:44 04.05.2020
3770 Clear -5 1020 90 0 0.73 199 12:44 04.05.2020
3771 Clear -3 1019 91 0 0.81 198 11:29 04.05.2020
3772 Clear -3 1019 91 0 0.81 198 11:29 04.05.2020
3773 Clear -3 1019 91 0 0.81 198 11:29 04.05.2020
3774 Clear -3 1019 91 0 0.81 198 11:29 04.05.2020
3775 Clouds -2 1018 88 0 0.96 199 09:31 04.05.2020
3776 Clear -2 1018 86 0 0.94 167 07:58 04.05.2020
3777 Clear -2 1018 86 0 0.94 167 07:38 04.05.2020
3778 Clear -3 1019 85 0 0.76 209 06:26 04.05.2020
3779 Clear -4 1019 85 0 0.95 203 04:53 04.05.2020
3780 Clear -5 1020 85 0 0.72 243 03:18 04.05.2020
3781 Clear -5 1020 85 0 0.72 243 02:30 04.05.2020
3782 Clear -7 1021 88 0 0.65 259 00:36 04.05.2020
3783 Clear -7 1021 88 0 0.65 259 00:36 04.05.2020
3784 Clear -8 1021 89 0 0.49 272 23:45 03.05.2020
3785 Clear -9 1021 90 0 0.59 282 23:24 03.05.2020
3786 Clear -9 1021 90 0 0.59 282 22:45 03.05.2020
3787 Clear -11 1021 91 0 0.74 293 22:25 03.05.2020
3788 Clear -11 1021 91 0 0.74 293 21:58 03.05.2020
3789 Clear -11 1021 91 0 0.74 293 21:40 03.05.2020
3790 Clear -13 1022 90 0 0.8 282 21:20 03.05.2020
3791 Clear -13 1022 90 0 0.8 282 20:46 03.05.2020
3792 Clear -13 1022 90 0 1.07 296 20:22 03.05.2020
3793 Clear -13 1022 90 0 1.07 296 19:51 03.05.2020
3794 Clear -13 1022 90 0 1.07 296 19:32 03.05.2020
3795 Clear -12 1022 90 0 1.33 303 19:00 03.05.2020
3796 Clear -12 1022 90 0 1.33 303 19:00 03.05.2020
3797 Clear -12 1022 90 0 1.33 303 18:38 03.05.2020
3798 Clear -12 1021 90 0 1.48 311 18:19 03.05.2020
3799 Clear -12 1021 90 0 1.48 311 17:42 03.05.2020
3800 Clear -12 1021 90 0 1.48 311 17:42 03.05.2020
3801 Clear -11 1021 91 0 1.5 320 17:22 03.05.2020
3802 Clear -11 1021 91 0 1.5 320 17:22 03.05.2020
3803 Clear -11 1021 91 0 1.5 320 17:22 03.05.2020
3804 Clear -11 1021 91 0 1.5 320 16:54 03.05.2020
3805 Clear -11 1021 91 0 1.5 320 16:36 03.05.2020
3806 Clear -10 1021 91 0 1.69 326 16:18 03.05.2020
3807 Clear -10 1021 91 0 1.69 326 15:55 03.05.2020
3808 Clear -10 1021 91 0 1.69 326 15:36 03.05.2020
3809 Clear -10 1021 91 0 1.69 326 15:36 03.05.2020
3810 Clear -10 1021 91 0 1.99 333 15:18 03.05.2020
3811 Clear -10 1021 91 0 1.99 333 15:18 03.05.2020
3812 Clear -10 1021 91 0 1.99 333 14:41 03.05.2020
3813 Clouds -9 1021 91 0 2.28 341 14:22 03.05.2020
3814 Clouds -9 1021 91 0 2.28 341 14:22 03.05.2020
3815 Clouds -9 1021 91 0 2.28 341 14:22 03.05.2020
3816 Clouds -9 1021 91 0 2.28 341 13:57 03.05.2020
3817 Clouds -9 1021 91 0 2.28 341 13:33 03.05.2020
3818 Clouds -9 1021 91 0 2.28 341 13:33 03.05.2020
3819 Clouds -9 1021 91 0 2.28 341 13:33 03.05.2020
3820 Clouds -9 1021 91 0 2.28 341 13:33 03.05.2020
3821 Clouds -9 1021 91 0 2.28 341 13:33 03.05.2020
3822 Clouds -7 1021 91 0 2.71 352 12:47 03.05.2020
3823 Clouds -5 1020 91 0 3.27 4 12:25 03.05.2020
3824 Clouds -5 1020 91 0 3.27 4 12:25 03.05.2020
3825 Clouds -5 1020 91 0 3.27 4 11:57 03.05.2020
3826 Clouds -5 1020 91 0 3.27 4 11:39 03.05.2020
3827 Clouds -3 1019 91 0 4.16 13 11:20 03.05.2020
3828 Clouds -3 1019 91 0 4.16 13 11:20 03.05.2020
3829 Clouds -3 1019 91 0 4.16 13 10:52 03.05.2020
3830 Clouds -3 1019 91 0 4.16 13 10:52 03.05.2020
3831 Clouds -3 1019 91 0 4.16 13 10:52 03.05.2020
3832 Clouds -3 1019 91 0 4.16 13 10:52 03.05.2020
3833 Clouds -3 1019 91 0 4.16 13 10:52 03.05.2020
3834 Clouds -3 1019 89 0 4.9 11 10:24 03.05.2020
3835 Clouds -3 1019 89 0 4.9 11 10:24 03.05.2020
3836 Clouds -3 1019 89 0 4.9 11 10:24 03.05.2020
3837 Clouds -3 1019 89 0 4.9 11 10:24 03.05.2020
3838 Clouds -3 1019 89 0 4.9 11 10:24 03.05.2020
3839 Clouds -3 1019 89 0 4.9 11 09:39 03.05.2020
3840 Clouds -2 1020 88 0 4.67 6 08:57 03.05.2020
3841 Clouds -2 1020 88 0 4.67 6 08:32 03.05.2020
3842 Clouds -2 1020 88 0 4.67 6 08:32 03.05.2020
3843 Clouds -2 1020 88 0 4.67 6 08:32 03.05.2020
3844 Clouds -2 1020 88 0 4.67 6 08:32 03.05.2020
3845 Clouds -2 1020 88 0 4.67 6 08:32 03.05.2020
3846 Clouds -2 1019 88 0 4.46 5 07:40 03.05.2020
3847 Clouds -2 1019 88 0 4.23 6 06:35 03.05.2020
3848 Clouds -3 1019 88 0 4.27 7 05:49 03.05.2020
3849 Clouds -3 1019 88 0 4.27 7 05:29 03.05.2020
3850 Clouds -3 1019 89 0 4.37 11 04:27 03.05.2020
3851 Clouds -3 1019 89 0 4.37 11 03:30 03.05.2020
3852 Clouds -4 1020 89 0 4.38 12 02:31 03.05.2020
3853 Clear -5 1020 89 0 3.62 11 01:48 03.05.2020
3854 Clear -6 1020 89 0 2.54 354 01:27 03.05.2020
3855 Clear -6 1020 89 0 2.54 354 01:01 03.05.2020
3856 Clear -6 1020 89 0 2.54 354 01:01 03.05.2020
3857 Clear -6 1020 89 0 2.54 354 01:01 03.05.2020
3858 Clear -6 1020 89 0 2.54 354 00:38 03.05.2020
3859 Clear -7 1020 90 0 1.91 324 00:20 03.05.2020
3860 Clear -7 1020 90 0 1.91 324 23:45 02.05.2020
3861 Clear -9 1020 90 0 1.78 313 23:27 02.05.2020
3862 Clear -9 1020 90 0 1.78 313 22:56 02.05.2020
3863 Clear -9 1020 90 0 1.78 313 22:37 02.05.2020
3864 Clear -10 1019 90 0 1.78 319 22:19 02.05.2020
3865 Clear -10 1019 90 0 1.78 319 21:40 02.05.2020
3866 Clear -12 1019 89 0 1.72 320 21:20 02.05.2020
3867 Clear -12 1019 89 0 1.72 320 20:58 02.05.2020
3868 Clear -12 1019 89 0 1.72 320 20:38 02.05.2020
3869 Clear -12 1019 89 0 1.66 325 20:20 02.05.2020
3870 Clear -12 1019 89 0 1.66 325 19:57 02.05.2020
3871 Clear -12 1019 89 0 1.66 325 19:39 02.05.2020
3872 Clear -11 1018 90 0 1.7 331 19:20 02.05.2020
3873 Clear -11 1018 90 0 1.7 331 18:56 02.05.2020
3874 Clear -11 1018 90 0 1.7 331 18:37 02.05.2020
3875 Clear -11 1018 90 0 1.88 337 18:19 02.05.2020
3876 Clear -11 1018 90 0 1.88 337 17:55 02.05.2020
3877 Clear -11 1018 90 0 1.88 337 17:37 02.05.2020
3878 Clear -10 1017 90 0 2.13 345 17:19 02.05.2020
3879 Clear -10 1017 90 0 2.13 345 16:44 02.05.2020
3880 Clear -10 1017 90 0 2.27 358 16:25 02.05.2020
3881 Clear -10 1017 90 0 2.27 358 15:55 02.05.2020
3882 Clear -10 1017 90 0 2.27 358 15:36 02.05.2020
3883 Clear -9 1016 90 0 2.42 9 15:18 02.05.2020
3884 Clear -9 1016 90 0 2.42 9 14:41 02.05.2020
3885 Clouds -8 1015 90 0 2.48 13 14:23 02.05.2020
3886 Clouds -8 1015 90 0 2.48 13 13:57 02.05.2020
3887 Clouds -8 1015 90 0 2.48 13 13:37 02.05.2020
3888 Clouds -7 1015 91 0 2.59 17 13:18 02.05.2020
3889 Clouds -7 1015 91 0 2.59 17 12:40 02.05.2020
3890 Clouds -5 1014 91 0 2.66 23 12:20 02.05.2020
3891 Clouds -5 1014 91 0 2.66 23 11:57 02.05.2020
3892 Clouds -5 1014 91 0 2.66 23 11:38 02.05.2020
3893 Clouds -3 1013 90 0 2.74 23 11:20 02.05.2020
3894 Clouds -3 1013 90 0 2.74 23 10:40 02.05.2020
3895 Clouds -3 1013 90 0 2.74 23 10:40 02.05.2020
3896 Clouds -3 1012 88 0 2.4 17 10:22 02.05.2020
3897 Clouds -3 1012 88 0 2.4 17 09:59 02.05.2020
3898 Clouds -3 1012 88 0 2.4 17 09:40 02.05.2020
3899 Clouds -3 1012 88 0 2.06 3 09:22 02.05.2020
3900 Clouds -3 1012 88 0 2.06 3 08:55 02.05.2020
3901 Clouds -3 1012 88 0 2.06 3 08:37 02.05.2020
3902 Clouds -3 1012 88 0 2.06 3 08:37 02.05.2020
3903 Clouds -3 1011 87 0 1.7 351 08:19 02.05.2020
3904 Clouds -3 1011 87 0 1.7 351 07:42 02.05.2020
3905 Clouds -4 1011 87 0 1.29 348 07:23 02.05.2020
3906 Clouds -4 1011 87 0 1.29 348 06:43 02.05.2020
3907 Clouds -5 1010 88 0 1.09 349 05:28 02.05.2020
3908 Clouds -5 1010 88 0 1.09 349 04:30 02.05.2020
3909 Clouds -5 1010 88 0 1.09 348 03:50 02.05.2020
3910 Clouds -6 1010 89 0 1.02 346 02:42 02.05.2020
3911 Clouds -6 1009 90 0 1.03 328 01:58 02.05.2020
3912 Clouds -7 1009 91 0 0.66 325 01:27 02.05.2020
3913 Clouds -7 1009 91 0 0.66 325 00:43 02.05.2020
3914 Clouds -7 1009 92 0 0.34 339 00:24 02.05.2020
3915 Clouds -7 1009 92 0 0.34 339 23:55 01.05.2020
3916 Clouds -7 1009 92 0 0.34 339 23:37 01.05.2020
3917 Clouds -8 1009 93 0 0.33 335 23:18 01.05.2020
3918 Clouds -8 1009 93 0 0.33 335 22:39 01.05.2020
3919 Clouds -8 1008 94 0 0.54 313 22:21 01.05.2020
3920 Clouds -8 1008 94 0 0.54 313 21:58 01.05.2020
3921 Clouds -8 1008 94 0 0.54 313 21:39 01.05.2020
3922 Clouds -10 1009 93 0 0.43 294 21:20 01.05.2020
3923 Clouds -10 1009 93 0 0.43 294 20:58 01.05.2020
3924 Clouds -10 1009 93 0 0.43 294 20:58 01.05.2020
3925 Clouds -10 1009 93 0 0.43 294 20:40 01.05.2020
3926 Clouds -10 1008 93 0 0.46 306 20:20 01.05.2020
3927 Clouds -10 1008 93 0 0.46 306 20:20 01.05.2020
3928 Clouds -10 1008 93 0 0.46 306 19:58 01.05.2020
3929 Clouds -10 1008 93 0 0.46 306 19:40 01.05.2020
3930 Clouds -10 1007 93 0 0.76 313 19:20 01.05.2020
3931 Clouds -10 1007 93 0 0.76 313 18:56 01.05.2020
3932 Clouds -10 1007 93 0 0.76 313 18:37 01.05.2020
3933 Clouds -9 1007 93 0 1.02 314 18:19 01.05.2020
3934 Clouds -9 1007 93 0 1.02 314 17:41 01.05.2020
3935 Clouds -9 1007 92 0 1.06 318 17:22 01.05.2020
3936 Clouds -9 1007 92 0 1.06 318 16:58 01.05.2020
3937 Clouds -9 1007 92 0 1.06 318 16:40 01.05.2020
3938 Clouds -9 1007 92 0 1.1 329 16:20 01.05.2020
3939 Clouds -9 1007 92 0 1.1 329 16:20 01.05.2020
3940 Clouds -9 1007 92 0 1.1 329 15:57 01.05.2020
3941 Clouds -9 1007 92 0 1.1 329 15:39 01.05.2020
3942 Clouds -8 1006 92 0 1.18 340 15:20 01.05.2020
3943 Clouds -8 1006 92 0 1.18 340 14:44 01.05.2020
3944 Clouds -9 1006 92 0 1.17 350 14:25 01.05.2020
3945 Clouds -9 1006 92 0 1.17 350 13:57 01.05.2020
3946 Clouds -9 1006 92 0 1.17 350 13:38 01.05.2020
3947 Clouds -9 1006 92 0 1.17 350 13:38 01.05.2020
3948 Clouds -7 1005 92 0 1.51 346 13:20 01.05.2020
3949 Clouds -7 1005 92 0 1.51 346 12:55 01.05.2020
3950 Clouds -7 1005 92 0 1.51 346 12:37 01.05.2020
3951 Clouds -5 1004 93 0 1.7 341 12:18 01.05.2020
3952 Clouds -5 1004 93 0 1.7 341 12:18 01.05.2020
3953 Clouds -5 1004 93 0 1.7 341 11:42 01.05.2020
3954 Clouds -5 1004 92 0 2.06 337 11:23 01.05.2020
3955 Clouds -5 1004 92 0 2.06 337 10:58 01.05.2020
3956 Clouds -5 1004 92 0 2.06 337 10:39 01.05.2020
3957 Clouds -4 1004 91 0 1.97 329 10:20 01.05.2020
3958 Clouds -4 1004 91 0 1.97 329 09:44 01.05.2020
3959 Clouds -4 1004 91 0 1.97 329 09:44 01.05.2020
3960 Clouds -4 1003 91 0 2.07 322 09:20 01.05.2020
3961 Clouds -4 1003 91 0 2.07 322 08:58 01.05.2020
3962 Clouds -4 1003 91 0 2.07 322 08:40 01.05.2020
3963 Clouds -4 1003 90 0 1.93 321 08:21 01.05.2020
3964 Clouds -4 1003 90 0 1.93 321 07:44 01.05.2020
3965 Clouds -5 1003 90 0 1.78 323 07:23 01.05.2020
3966 Clouds -5 1003 90 0 1.78 323 06:50 01.05.2020
3967 Clouds -5 1003 90 0 1.75 326 05:36 01.05.2020
3968 Clouds -5 1003 90 0 1.97 334 04:47 01.05.2020
3969 Clouds -6 1004 91 0 2.4 328 03:25 01.05.2020
3970 Clouds -6 1004 91 0 2.4 328 02:45 01.05.2020
3971 Clouds -6 1003 92 0 2.03 311 02:24 01.05.2020
3972 Clouds -7 1003 92 0 1.8 305 01:28 01.05.2020
3973 Clouds -7 1003 92 0 1.8 305 00:59 01.05.2020
3974 Clouds -7 1003 92 0 1.8 305 00:37 01.05.2020
3975 Clouds -7 1003 93 0 1.64 299 00:18 01.05.2020
3976 Clouds -7 1003 93 0 1.64 299 23:55 30.04.2020
3977 Clouds -7 1003 93 0 1.64 299 23:37 30.04.2020
3978 Clouds -7 1003 93 0 1.64 299 23:37 30.04.2020
3979 Clouds -8 1003 93 0 1.47 289 23:18 30.04.2020
3980 Clouds -8 1003 93 0 1.47 289 22:41 30.04.2020
3981 Clouds -8 1003 94 0 1.31 287 22:20 30.04.2020
3982 Clouds -8 1003 94 0 1.31 287 21:56 30.04.2020
3983 Clouds -8 1003 94 0 1.31 287 21:38 30.04.2020
3984 Snow -9 1003 94 0 1.39 282 21:19 30.04.2020
3985 Snow -9 1003 94 0 1.39 282 20:54 30.04.2020
3986 Snow -9 1003 94 0 1.39 282 20:36 30.04.2020
3987 Snow -8 1002 94 0 1.44 283 20:18 30.04.2020
3988 Snow -8 1002 94 0 1.44 283 19:42 30.04.2020
3989 Snow -8 1002 94 0 1.49 284 19:23 30.04.2020
3990 Snow -8 1002 94 0 1.49 284 18:56 30.04.2020
3991 Snow -8 1002 94 0 1.49 284 18:37 30.04.2020
3992 Snow -8 1001 95 0 1.52 285 18:19 30.04.2020
3993 Snow -8 1001 95 0 1.52 285 17:55 30.04.2020
3994 Snow -8 1001 95 0 1.52 285 17:37 30.04.2020
3995 Snow -8 1001 95 0 1.52 285 17:37 30.04.2020
3996 Snow -8 1001 95 0 1.59 283 17:18 30.04.2020
3997 Snow -8 1001 95 0 1.59 283 16:54 30.04.2020
3998 Snow -8 1001 95 0 1.59 283 16:36 30.04.2020
3999 Snow -8 1001 95 0 1.59 283 16:36 30.04.2020
4000 Snow -7 1001 95 0 1.73 290 16:18 30.04.2020
4001 Snow -7 1001 95 0 1.73 290 15:43 30.04.2020
4002 Snow -7 1000 95 0 2.05 301 15:21 30.04.2020
4003 Snow -7 1000 95 0 2.05 301 14:42 30.04.2020
4004 Snow -6 999 95 0 2.23 304 14:21 30.04.2020
4005 Snow -6 999 95 0 2.23 304 13:58 30.04.2020
4006 Snow -6 999 95 0 2.23 304 13:40 30.04.2020
4007 Snow -6 999 95 0 2.56 311 13:22 30.04.2020
4008 Snow -6 999 95 0 2.56 311 12:58 30.04.2020
4009 Snow -6 999 95 0 2.56 311 12:40 30.04.2020
4010 Snow -5 998 95 0 3.06 325 12:18 30.04.2020
4011 Snow -5 998 95 0 3.06 325 11:38 30.04.2020
4012 Snow -5 998 95 0 3.73 339 11:19 30.04.2020
4013 Snow -5 998 95 0 3.73 339 10:58 30.04.2020
4014 Snow -5 998 95 0 3.73 339 10:38 30.04.2020
4015 Snow -4 997 95 0 4.68 353 10:19 30.04.2020
4016 Snow -4 997 95 0 4.68 353 09:55 30.04.2020
4017 Snow -4 997 95 0 4.68 353 09:37 30.04.2020
4018 Snow -4 997 95 0 5.11 357 09:18 30.04.2020
4019 Snow -4 997 95 0 4.83 355 08:43 30.04.2020
4020 Snow -4 997 95 0 5.21 359 08:23 30.04.2020
4021 Snow -4 997 95 0 5.21 359 07:43 30.04.2020
4022 Snow -4 997 94 0 5.26 5 07:25 30.04.2020
4023 Snow -4 997 94 0 5.26 5 06:51 30.04.2020
4024 Snow -4 997 94 0 5.6 7 05:56 30.04.2020
4025 Snow -4 997 94 0 5.6 7 05:36 30.04.2020
4026 Snow -4 997 93 0 5.32 6 04:36 30.04.2020
4027 Clouds -4 997 92 0 4.93 1 03:57 30.04.2020
4028 Clouds -5 997 92 0 4.95 358 02:46 30.04.2020
4029 Clouds -5 997 92 0 4.48 354 02:24 30.04.2020
4030 Clouds -5 997 92 0 4.48 354 01:36 30.04.2020
4031 Clouds -5 998 92 0 3.83 353 00:42 30.04.2020
4032 Clouds -6 998 93 0 3.29 342 00:19 30.04.2020
4033 Clouds -6 998 93 0 3.29 342 23:57 29.04.2020
4034 Clouds -6 998 93 0 3.29 342 23:37 29.04.2020
4035 Snow -7 998 93 0 2.95 338 23:19 29.04.2020
4036 Snow -7 998 93 0 2.95 338 22:40 29.04.2020
4037 Snow -7 999 94 0 2.74 332 22:22 29.04.2020
4038 Snow -7 999 94 0 2.74 332 21:59 29.04.2020
4039 Snow -7 999 94 0 2.74 332 21:37 29.04.2020
4040 Clouds -8 999 94 0 2.39 329 21:19 29.04.2020
4041 Clouds -8 999 94 0 2.39 329 20:56 29.04.2020
4042 Clouds -8 999 94 0 2.39 329 20:37 29.04.2020
4043 Clouds -8 999 94 0 2.35 335 20:18 29.04.2020
4044 Clouds -8 999 94 0 2.35 335 19:43 29.04.2020
4045 Clouds -7 999 94 0 2.68 340 19:22 29.04.2020
4046 Clouds -7 999 94 0 2.68 340 18:57 29.04.2020
4047 Clouds -7 999 94 0 2.68 340 18:38 29.04.2020
4048 Clouds -7 999 94 0 2.9 349 18:18 29.04.2020
4049 Clouds -7 999 94 0 2.9 349 17:41 29.04.2020
4050 Clouds -6 999 94 0 2.73 353 17:21 29.04.2020
4051 Clouds -6 999 94 0 2.73 353 16:55 29.04.2020
4052 Clouds -6 999 94 0 2.73 353 16:36 29.04.2020
4053 Clouds -6 1000 95 0 2.96 355 16:18 29.04.2020
4054 Clouds -6 1000 95 0 2.96 355 15:54 29.04.2020
4055 Clouds -6 1000 95 0 2.96 355 15:36 29.04.2020
4056 Clouds -5 1000 95 0 3.13 1 15:18 29.04.2020
4057 Clouds -5 1000 95 0 3.13 1 14:41 29.04.2020
4058 Clouds -4 1000 95 0 3.42 6 14:23 29.04.2020
4059 Clouds -4 1000 95 0 3.42 6 13:56 29.04.2020
4060 Clouds -4 1000 95 0 3.42 6 13:37 29.04.2020
4061 Clouds -4 1000 95 0 3.68 9 13:18 29.04.2020
4062 Clouds -4 1000 95 0 3.68 9 13:18 29.04.2020
4063 Clouds -4 1000 95 0 3.68 9 12:41 29.04.2020
4064 Clouds -3 999 95 0 3.85 13 12:19 29.04.2020
4065 Clouds -3 999 95 0 3.85 13 11:58 29.04.2020
4066 Clouds -3 999 95 0 3.85 13 11:38 29.04.2020
4067 Snow -2 999 94 0 4.56 26 11:19 29.04.2020
4068 Snow -2 999 94 0 4.56 26 10:39 29.04.2020
4069 Snow -2 999 95 0 5.43 35 10:20 29.04.2020
4070 Snow -2 999 95 0 5.43 35 09:59 29.04.2020
4071 Snow -2 999 95 0 5.43 35 09:40 29.04.2020
4072 Clouds -1 999 94 0 5.43 41 09:19 29.04.2020
4073 Clouds -2 1000 92 0 4.46 38 08:43 29.04.2020
4074 Clouds -2 1000 91 0 4.14 43 08:25 29.04.2020
4075 Clouds -2 1000 91 0 4.14 43 07:54 29.04.2020
4076 Clouds -2 1000 91 0 3.85 47 07:29 29.04.2020
4077 Clouds -2 1000 91 0 3.85 47 06:53 29.04.2020
4078 Clouds -2 1000 91 0 3.85 47 06:52 29.04.2020
4079 Clouds -2 1000 91 0 3.85 47 06:32 29.04.2020
4080 Clouds -2 1000 91 0 3.68 50 05:50 29.04.2020
4081 Clouds -2 1001 91 0 3.41 50 05:19 29.04.2020
4082 Clouds -3 1001 91 0 3.21 50 04:20 29.04.2020
4083 Clouds -4 1002 91 0 2.78 47 03:28 29.04.2020
4084 Clouds -4 1002 92 0 2.6 41 01:56 29.04.2020
4085 Clouds -5 1003 93 0 2.48 36 01:28 29.04.2020
4086 Clouds -5 1003 93 0 2.48 36 00:59 29.04.2020
4087 Clouds -5 1003 93 0 2.48 36 00:37 29.04.2020
4088 Clouds -6 1003 93 0 2.33 34 00:18 29.04.2020
4089 Clouds -6 1003 93 0 2.33 34 23:43 28.04.2020
4090 Clouds -6 1004 94 0 2.21 30 23:21 28.04.2020
4091 Clouds -6 1004 94 0 2.21 30 22:40 28.04.2020
4092 Clouds -7 1004 94 0 2.23 24 22:22 28.04.2020
4093 Clouds -7 1004 94 0 2.23 24 21:59 28.04.2020
4094 Clouds -7 1004 94 0 2.03 18 21:40 28.04.2020
4095 Clouds -8 1004 94 0 2.14 8 21:22 28.04.2020
4096 Clouds -8 1004 94 0 2.14 8 20:59 28.04.2020
4097 Clouds -8 1004 94 0 2.14 8 20:40 28.04.2020
4098 Clouds -8 1004 93 0 2.09 4 20:20 28.04.2020
4099 Clouds -8 1004 93 0 2.09 4 19:57 28.04.2020
4100 Clouds -8 1004 93 0 2.09 4 19:39 28.04.2020
4101 Clouds -8 1004 93 0 1.82 359 19:20 28.04.2020
4102 Clouds -8 1004 93 0 1.82 359 18:57 28.04.2020
4103 Clouds -8 1004 93 0 1.82 359 18:38 28.04.2020
4104 Clouds -7 1004 93 0 1.77 1 18:18 28.04.2020
4105 Clouds -7 1004 93 0 1.77 1 17:38 28.04.2020
4106 Clouds -7 1004 93 0 1.9 9 17:19 28.04.2020
4107 Clouds -7 1004 93 0 1.9 9 17:19 28.04.2020
4108 Clouds -7 1004 93 0 1.9 9 16:58 28.04.2020
4109 Clouds -7 1004 93 0 1.9 9 16:40 28.04.2020
4110 Clouds -7 1004 93 0 1.9 9 16:40 28.04.2020
4111 Clouds -7 1004 93 0 2.24 16 16:22 28.04.2020
4112 Clouds -7 1004 93 0 2.24 16 15:56 28.04.2020
4113 Clouds -7 1004 93 0 2.24 16 15:38 28.04.2020
4114 Clouds -6 1005 93 0 2.53 18 15:20 28.04.2020
4115 Clouds -6 1005 93 0 2.53 18 14:56 28.04.2020
4116 Clouds -6 1005 93 0 2.53 18 14:38 28.04.2020
4117 Clouds -6 1004 93 0 2.7 20 14:19 28.04.2020
4118 Clouds -6 1004 93 0 2.7 20 13:56 28.04.2020
4119 Clouds -6 1004 93 0 2.7 20 13:37 28.04.2020
4120 Clouds -5 1004 93 0 2.87 24 13:19 28.04.2020
4121 Clouds -5 1004 93 0 2.87 24 12:43 28.04.2020
4122 Clouds -5 1004 93 0 2.87 24 12:43 28.04.2020
4123 Clouds -3 1004 92 0 3.11 26 12:23 28.04.2020
4124 Clouds -3 1004 92 0 3.11 26 11:43 28.04.2020
4125 Clouds -2 1004 91 0 3.37 27 11:23 28.04.2020
4126 Clouds -2 1004 91 0 3.37 27 10:58 28.04.2020
4127 Clouds -2 1004 91 0 3.37 27 10:38 28.04.2020
4128 Clouds -2 1004 91 0 3.37 27 10:38 28.04.2020
4129 Clouds -1 1004 90 0 3.65 22 10:19 28.04.2020
4130 Clouds -1 1004 90 0 3.65 22 10:19 28.04.2020
4131 Clouds -1 1004 90 0 3.65 22 09:55 28.04.2020
4132 Clouds -1 1004 86 0 3.68 16 09:36 28.04.2020
4133 Clouds -1 1004 85 0 3.7 14 09:18 28.04.2020
4134 Clouds -1 1004 85 0 3.7 14 08:40 28.04.2020
4135 Clouds -1 1004 84 0 3.59 13 08:22 28.04.2020
4136 Clouds -1 1004 84 0 3.59 13 07:44 28.04.2020
4137 Clouds -1 1004 84 0 3.59 13 07:44 28.04.2020
4138 Clear -1 1004 86 0 3.44 11 07:19 28.04.2020
4139 Clear -1 1004 86 0 3.44 11 06:44 28.04.2020
4140 Clear -1 1005 87 0 3.29 6 05:56 28.04.2020
4141 Clear -1 1005 87 0 3.29 6 05:37 28.04.2020
4142 Clear -2 1005 87 0 3.38 8 04:39 28.04.2020
4143 -273 0 0 0 0 0 02:59 28.04.2020
4144 Clouds -3 1005 89 0 3.16 3 02:25 28.04.2020
4145 Clouds -4 1006 90 0 2.77 356 01:23 28.04.2020
4146 Clouds -4 1006 90 0 2.77 356 00:49 28.04.2020
4147 Clouds -5 1007 91 0 2.68 347 00:20 28.04.2020
4148 Clouds -5 1007 91 0 2.68 347 23:43 27.04.2020
4149 Clouds -5 1007 92 0 2.59 343 23:22 27.04.2020
4150 Clouds -5 1007 92 0 2.59 343 22:55 27.04.2020
4151 Clouds -5 1007 92 0 2.59 343 22:55 27.04.2020
4152 Clouds -5 1007 92 0 2.59 343 22:37 27.04.2020
4153 Clouds -6 1007 92 0 1.96 342 22:18 27.04.2020
4154 Clouds -6 1007 92 0 1.96 342 21:55 27.04.2020
4155 Clouds -6 1007 92 0 1.96 342 21:37 27.04.2020
4156 Clouds -7 1007 92 0 2.1 344 21:18 27.04.2020
4157 Clouds -7 1007 92 0 2.1 344 20:43 27.04.2020
4158 Clouds -6 1007 92 0 2.19 341 20:22 27.04.2020
4159 Clouds -6 1007 92 0 2.19 341 19:58 27.04.2020
4160 Clouds -6 1007 92 0 2.19 341 19:38 27.04.2020
4161 Clouds -6 1007 92 0 2.1 339 19:20 27.04.2020
4162 Clouds -6 1007 92 0 2.1 339 18:56 27.04.2020
4163 Clouds -6 1007 92 0 2.1 339 18:38 27.04.2020
4164 Clouds -6 1007 92 0 2.16 340 18:19 27.04.2020
4165 Clouds -6 1007 92 0 2.16 340 17:43 27.04.2020
4166 Clouds -5 1007 93 0 2.35 345 17:21 27.04.2020
4167 Clouds -5 1007 93 0 2.35 345 16:58 27.04.2020
4168 Clouds -5 1007 93 0 2.35 345 16:39 27.04.2020
4169 Clouds -5 1007 93 0 2.35 345 16:39 27.04.2020
4170 Clouds -5 1007 94 0 2.67 354 16:20 27.04.2020
4171 Clouds -5 1007 94 0 2.67 354 15:56 27.04.2020
4172 Clouds -5 1007 94 0 2.67 354 15:38 27.04.2020
4173 Clouds -3 1007 94 0 3.12 4 15:18 27.04.2020
4174 Clouds -3 1007 94 0 3.12 4 14:42 27.04.2020
4175 Clouds -3 1007 94 0 3.12 4 14:23 27.04.2020
4176 Clouds -3 1006 94 0 3 5 13:59 27.04.2020
4177 Clouds -3 1006 94 0 3 5 13:41 27.04.2020
4178 Clouds -3 1006 94 0 3 5 13:19 27.04.2020
4179 Clouds -3 1006 94 0 3 5 12:56 27.04.2020
4180 Clouds -3 1006 94 0 3 5 12:38 27.04.2020
4181 Snow 2 1005 82 0 2.64 357 12:18 27.04.2020
4182 Snow 2 1005 82 0 2.64 357 11:41 27.04.2020
4183 Snow 2 1005 82 0 2.64 357 11:19 27.04.2020
4184 Snow 2 1005 82 0 2.64 357 10:56 27.04.2020
4185 Snow 2 1005 82 0 2.64 357 10:38 27.04.2020
4186 Snow 2 1005 82 0 2.64 357 10:19 27.04.2020
4187 Snow 2 1005 82 0 2.64 357 09:43 27.04.2020
4188 Clouds 5 1003 61 0 0.82 277 09:19 27.04.2020
4189 Clouds 5 1003 61 0 0.82 277 08:56 27.04.2020
4190 Clouds 5 1003 61 0 0.82 277 08:36 27.04.2020
4191 Clouds 5 1003 61 0 0.82 277 08:18 27.04.2020
4192 Clouds 5 1003 61 0 0.82 277 07:44 27.04.2020
4193 Clouds 5 1003 61 0 0.82 277 07:19 27.04.2020
4194 Clouds 5 1003 61 0 0.82 277 06:44 27.04.2020
4195 Clouds 4 1003 68 0 0.91 220 06:24 27.04.2020
4196 Clouds 4 1003 68 0 0.91 220 05:49 27.04.2020
4197 Clouds 4 1003 68 0 0.91 220 04:41 27.04.2020
4198 Clouds 4 1003 68 0 0.91 220 03:49 27.04.2020
4199 Clouds 3 1002 86 0 1.91 224 02:42 27.04.2020
4200 Clouds 3 1002 81 0 2.68 243 01:31 27.04.2020
4201 Clouds 3 1002 81 0 2.68 243 00:47 27.04.2020
4202 Clouds 1 1003 85 0 3.84 212 00:19 27.04.2020
4203 Clouds 1 1003 85 0 3.84 212 23:55 26.04.2020
4204 Clouds 1 1003 85 0 3.84 212 23:37 26.04.2020
4205 Clouds 1 1003 85 0 3.84 212 23:19 26.04.2020
4206 Clouds 1 1003 85 0 3.84 212 22:57 26.04.2020
4207 Clouds 1 1003 85 0 3.84 212 22:39 26.04.2020
4208 Clouds 1 1003 85 0 3.84 212 22:19 26.04.2020
4209 Clouds 1 1003 85 0 3.84 212 21:56 26.04.2020
4210 Clouds 1 1003 83 0 5.39 217 21:37 26.04.2020
4211 Snow 1 1003 85 0 7.28 199 21:18 26.04.2020
4212 Snow 1 1003 85 0 7.28 199 20:40 26.04.2020
4213 Snow 1 1003 85 0 7.28 199 20:21 26.04.2020
4214 Snow 1 1003 85 0 7.28 199 19:59 26.04.2020
4215 Snow 1 1003 85 0 7.28 199 19:38 26.04.2020
4216 Snow 1 1003 85 0 7.28 199 19:20 26.04.2020
4217 Snow 1 1003 85 0 7.28 199 18:55 26.04.2020
4218 Snow 1 1003 85 0 7.28 199 18:36 26.04.2020
4219 Snow 1 1002 85 0 8.93 189 18:18 26.04.2020
4220 Snow 1 1002 85 0 8.93 189 17:41 26.04.2020
4221 Snow 1 1002 85 0 8.93 189 17:22 26.04.2020
4222 Snow 1 1002 85 0 8.93 189 16:55 26.04.2020
4223 Snow 1 1002 85 0 8.93 189 16:37 26.04.2020
4224 Snow 1 1002 85 0 8.93 189 16:18 26.04.2020
4225 Snow 1 1002 85 0 8.93 189 15:55 26.04.2020
4226 Snow 1 1002 85 0 8.93 189 15:36 26.04.2020
4227 Rain 3 1002 76 0 8.95 181 15:18 26.04.2020
4228 Rain 3 1002 76 0 8.95 181 14:40 26.04.2020
4229 Rain 3 1002 75 0 8.89 185 14:19 26.04.2020
4230 Rain 3 1002 75 0 8.89 185 13:58 26.04.2020
4231 Rain 3 1002 75 0 8.89 185 13:39 26.04.2020
4232 Rain 3 1002 75 0 8.89 185 13:20 26.04.2020
4233 Rain 3 1002 75 0 8.89 185 12:55 26.04.2020
4234 Rain 3 1002 75 0 8.89 185 12:36 26.04.2020
4235 Clouds 3 1002 73 0 5.29 172 12:18 26.04.2020
4236 Clouds 3 1002 73 0 5.29 172 11:43 26.04.2020
4237 Clouds 3 1002 73 0 5.29 172 11:23 26.04.2020
4238 Clouds 3 1002 73 0 5.29 172 10:59 26.04.2020
4239 Clouds 3 1002 73 0 5.29 172 10:41 26.04.2020
4240 Clouds 3 1002 73 0 5.29 172 10:23 26.04.2020
4241 Clouds 3 1002 73 0 5.29 172 09:57 26.04.2020
4242 Clouds 3 1002 72 0 6.13 179 09:37 26.04.2020
4243 Clouds 4 1004 76 0 4.29 167 09:19 26.04.2020
4244 Clouds 4 1004 76 0 4.29 167 08:41 26.04.2020
4245 Clouds 4 1004 76 0 4.29 167 08:41 26.04.2020
4246 Clouds 4 1004 76 0 4.29 167 08:22 26.04.2020
4247 Clouds 4 1004 76 0 4.29 167 07:48 26.04.2020
4248 Clouds 4 1004 76 0 4.29 167 07:24 26.04.2020
4249 Clouds 4 1004 76 0 4.29 167 06:47 26.04.2020
4250 Clouds 2 1008 81 0 3.84 165 06:23 26.04.2020
4251 Clouds 2 1008 81 0 3.84 165 05:49 26.04.2020
4252 Clouds 2 1008 81 0 3.84 165 05:30 26.04.2020
4253 Clouds 2 1008 81 0 3.84 165 04:37 26.04.2020
4254 Clouds 2 1008 81 0 3.84 165 03:40 26.04.2020
4255 Clouds -1 1012 90 0 2.82 162 02:37 26.04.2020
4256 Clouds -1 1012 90 0 2.82 162 02:19 26.04.2020
4257 Clouds -1 1012 90 0 2.82 162 01:36 26.04.2020
4258 Clouds -1 1012 90 0 2.82 162 00:41 26.04.2020
4259 Clouds -4 1015 94 0 2.04 157 00:21 26.04.2020
4260 Clouds -4 1015 94 0 2.04 157 00:21 26.04.2020
4261 Clouds -4 1015 94 0 2.04 157 23:57 25.04.2020
4262 Clouds -4 1015 94 0 2.04 157 23:37 25.04.2020
4263 Clouds -4 1015 94 0 2.04 157 23:18 25.04.2020
4264 Clouds -4 1015 94 0 2.04 157 22:42 25.04.2020
4265 Clouds -4 1015 94 0 2.04 157 22:21 25.04.2020
4266 Clouds -4 1015 94 0 2.04 157 21:58 25.04.2020
4267 Clouds -4 1015 94 0 2.04 157 21:39 25.04.2020
4268 Clouds -6 1018 92 0 1.85 155 21:19 25.04.2020
4269 Clouds -6 1018 92 0 1.85 155 20:54 25.04.2020
4270 Clouds -6 1018 92 0 1.85 155 20:36 25.04.2020
4271 Clouds -6 1018 92 0 1.85 155 20:18 25.04.2020
4272 Clouds -6 1018 92 0 1.85 155 19:40 25.04.2020
4273 Clouds -6 1018 92 0 1.85 155 19:22 25.04.2020
4274 Clouds -6 1018 92 0 1.85 155 18:56 25.04.2020
4275 Clouds -6 1018 92 0 1.85 155 18:37 25.04.2020
4276 Clouds -3 1019 92 0 2.05 148 18:18 25.04.2020
4277 Clouds -3 1019 92 0 2.05 148 17:55 25.04.2020
4278 Clouds -3 1019 92 0 2.05 148 17:37 25.04.2020
4279 Clouds -3 1019 92 0 2.05 148 17:18 25.04.2020
4280 Clouds -3 1019 92 0 2.05 148 16:46 25.04.2020
4281 Clouds -3 1019 92 0 2.05 148 16:27 25.04.2020
4282 Clouds -3 1019 92 0 2.05 148 15:58 25.04.2020
4283 Clouds -3 1019 92 0 2.05 148 15:39 25.04.2020
4284 Clouds -1 1019 92 0 2.04 155 15:19 25.04.2020
4285 Clouds -1 1019 92 0 2.04 155 14:57 25.04.2020
4286 Clouds -1 1019 92 0 2.04 155 14:38 25.04.2020
4287 Clouds -1 1019 92 0 2.06 157 14:19 25.04.2020
4288 Clouds -1 1019 92 0 2.06 157 13:42 25.04.2020
4289 Clouds -1 1019 92 0 2.06 157 13:19 25.04.2020
4290 Clouds -1 1019 92 0 2.06 157 12:57 25.04.2020
4291 Clouds -1 1019 92 0 2.06 157 12:39 25.04.2020
4292 Clouds 1 1019 85 0 1.82 183 12:20 25.04.2020
4293 Clouds 1 1019 85 0 1.82 183 11:55 25.04.2020
4294 Clouds 1 1019 85 0 1.82 183 11:37 25.04.2020
4295 Clouds 1 1019 85 0 1.82 183 11:19 25.04.2020
4296 Clouds 1 1019 85 0 1.82 183 10:42 25.04.2020
4297 Clouds 1 1019 85 0 1.82 183 10:22 25.04.2020
4298 Clouds 1 1019 85 0 1.82 183 09:47 25.04.2020
4299 Clouds 1 1018 85 0 2.5 190 09:27 25.04.2020
4300 Clouds 1 1018 85 0 2.66 190 08:57 25.04.2020
4301 Clouds 1 1018 85 0 2.66 190 08:38 25.04.2020
4302 Clouds 1 1018 85 0 2.5 190 08:20 25.04.2020
4303 Clouds 1 1018 85 0 2.5 190 07:47 25.04.2020
4304 Clouds 1 1018 85 0 2.5 190 07:25 25.04.2020
4305 Clouds 1 1018 85 0 2.66 190 06:45 25.04.2020
4306 Clouds 0 1019 89 0 2.03 177 06:18 25.04.2020
4307 Clouds 0 1019 89 0 2.03 177 05:39 25.04.2020
4308 Clouds 0 1019 89 0 2.03 177 04:47 25.04.2020
4309 Clouds -1 1020 91 0 1.36 205 02:59 25.04.2020
4310 Clouds -1 1020 91 0 1.65 193 02:20 25.04.2020
4311 Clouds -1 1020 91 0 1.65 193 02:20 25.04.2020
4312 Clouds -1 1020 91 0 1.65 193 01:52 25.04.2020
4313 Clouds -1 1020 91 0 1.65 193 01:27 25.04.2020
4314 Clouds -1 1020 91 0 1.65 193 00:52 25.04.2020
4315 Clouds -1 1020 91 0 1.65 193 00:31 25.04.2020
4316 Clouds -2 1020 94 0 0.66 166 23:44 24.04.2020
4317 Clouds -2 1020 94 0 0.66 166 23:24 24.04.2020
4318 Clouds -2 1020 94 0 0.66 166 22:58 24.04.2020
4319 Clouds -2 1020 94 0 0.66 166 22:38 24.04.2020
4320 Clouds -2 1020 94 0 0.66 166 22:19 24.04.2020
4321 Clouds -2 1020 94 0 0.66 166 21:55 24.04.2020
4322 Clouds -2 1022 93 0 0.58 187 21:36 24.04.2020
4323 Clouds -3 1021 93 0 0.3 174 21:18 24.04.2020
4324 Clouds -3 1021 93 0 0.3 174 20:55 24.04.2020
4325 Clouds -3 1021 93 0 0.3 174 20:36 24.04.2020
4326 Clouds -3 1021 93 0 0.3 174 20:18 24.04.2020
4327 Clouds -3 1021 93 0 0.3 174 19:40 24.04.2020
4328 Clouds -3 1021 93 0 0.3 174 19:21 24.04.2020
4329 Clouds -3 1021 93 0 0.3 174 18:45 24.04.2020
4330 Clouds -2 1021 94 0 0.09 268 18:26 24.04.2020
4331 Clouds -2 1021 94 0 0.09 268 17:57 24.04.2020
4332 Clouds -2 1021 94 0 0.09 268 17:37 24.04.2020
4333 Clouds -2 1021 94 0 0.09 268 17:19 24.04.2020
4334 Clouds -2 1021 94 0 0.09 268 16:58 24.04.2020
4335 Clouds -2 1021 94 0 0.09 268 16:40 24.04.2020
4336 Clouds -2 1021 94 0 0.09 268 16:21 24.04.2020
4337 Clouds -2 1021 94 0 0.09 268 15:42 24.04.2020
4338 Clouds -2 1021 94 0 0.1 87 15:21 24.04.2020
4339 Clouds -2 1021 94 0 0.1 87 14:57 24.04.2020
4340 Clouds -2 1020 94 0 0.21 117 14:38 24.04.2020
4341 Clouds -2 1021 94 0 0.1 87 14:19 24.04.2020
4342 Clouds -2 1020 94 0 0.21 117 13:41 24.04.2020
4343 Clouds -2 1020 94 0 0.21 117 13:41 24.04.2020
4344 Clouds -2 1020 94 0 0.21 117 13:21 24.04.2020
4345 Clouds -2 1020 94 0 0.21 117 12:58 24.04.2020
4346 Clouds -2 1020 94 0 0.21 117 12:40 24.04.2020
4347 Clouds 0 1019 90 0 0.27 132 12:20 24.04.2020
4348 Clouds 0 1019 90 0 0.27 132 11:55 24.04.2020
4349 Clouds 0 1019 90 0 0.27 132 11:36 24.04.2020
4350 Clouds 0 1019 90 0 0.27 132 11:18 24.04.2020
4351 Clouds 0 1019 90 0 0.27 132 10:38 24.04.2020
4352 Clouds 0 1019 90 0 0.27 132 10:20 24.04.2020
4353 Clouds 0 1019 90 0 0.27 132 09:57 24.04.2020
4354 Clouds 0 1019 90 0 0.27 132 09:39 24.04.2020
4355 Clouds 0 1018 93 0 1.23 129 09:20 24.04.2020
4356 Clouds 0 1018 93 0 1.23 129 08:43 24.04.2020
4357 Clouds 0 1018 93 0 1.23 129 08:21 24.04.2020
4358 Clouds 0 1018 93 0 1.23 129 07:59 24.04.2020
4359 Clouds 0 1018 93 0 1.23 129 07:41 24.04.2020
4360 Clouds 0 1018 93 0 1.23 129 07:22 24.04.2020
4361 Clouds 0 1018 93 0 1.23 129 06:45 24.04.2020
4362 Clouds -1 1019 95 0 0.78 105 06:23 24.04.2020
4363 Clouds -1 1019 95 0 0.78 105 05:39 24.04.2020
4364 Clouds -1 1019 95 0 0.78 105 03:41 24.04.2020
4365 Clouds -3 1018 93 0 0.6 97 02:55 24.04.2020
4366 Clouds -3 1018 93 0 0.6 97 02:37 24.04.2020
4367 Clouds -3 1018 93 0 0.66 82 01:47 24.04.2020
4368 Clouds -3 1018 93 0 0.66 82 00:55 24.04.2020
4369 Clouds -6 1018 94 0 0.64 110 00:20 24.04.2020
4370 Clouds -6 1018 94 0 0.64 110 23:48 23.04.2020
4371 Clouds -6 1018 94 0 0.64 110 23:28 23.04.2020
4372 Clouds -6 1018 94 0 0.64 110 22:59 23.04.2020
4373 Clouds -6 1018 94 0 0.64 110 22:41 23.04.2020
4374 Clouds -6 1018 94 0 0.64 110 22:41 23.04.2020
4375 Clouds -6 1018 94 0 0.64 110 22:21 23.04.2020
4376 Clouds -6 1018 94 0 0.64 110 21:58 23.04.2020
4377 Clouds -6 1018 94 0 0.55 110 21:39 23.04.2020
4378 Clouds -6 1018 94 0 0.55 110 21:39 23.04.2020
4379 Clouds -8 1016 94 0 0.45 140 21:21 23.04.2020
4380 Clouds -8 1016 94 0 0.45 140 20:58 23.04.2020
4381 Clouds -8 1016 94 0 0.45 140 20:40 23.04.2020
4382 Clouds -8 1016 94 0 0.45 140 20:21 23.04.2020
4383 Clouds -8 1016 94 0 0.45 140 19:56 23.04.2020
4384 Clouds -8 1016 94 0 0.45 140 19:38 23.04.2020
4385 Clouds -8 1016 94 0 0.45 140 19:20 23.04.2020
4386 Clouds -8 1016 94 0 0.45 140 18:55 23.04.2020
4387 Clouds -8 1016 94 0 0.45 140 18:36 23.04.2020
4388 Clouds -7 1015 95 0 0.72 117 18:18 23.04.2020
4389 Clouds -7 1015 95 0 0.72 117 17:40 23.04.2020
4390 Clouds -7 1015 95 0 0.72 117 17:22 23.04.2020
4391 Clouds -7 1015 95 0 0.72 117 16:57 23.04.2020
4392 Clouds -7 1015 95 0 0.72 117 16:38 23.04.2020
4393 Clouds -7 1015 95 0 0.72 117 16:19 23.04.2020
4394 Clouds -7 1015 95 0 0.72 117 15:42 23.04.2020
4395 Clouds -5 1014 95 0 0.87 139 15:23 23.04.2020
4396 Clouds -5 1014 95 0 0.87 139 14:57 23.04.2020
4397 Clouds -5 1014 95 0 0.87 139 14:38 23.04.2020
4398 Clouds -5 1014 94 0 0.96 149 14:19 23.04.2020
4399 Clouds -5 1014 94 0 0.96 149 13:56 23.04.2020
4400 Clouds -5 1014 94 0 0.96 149 13:38 23.04.2020
4401 Clouds -5 1014 94 0 0.96 149 13:19 23.04.2020
4402 Clouds -5 1014 94 0 0.96 149 12:44 23.04.2020
4403 Clouds -1 1012 95 0 0.74 127 12:25 23.04.2020
4404 Clouds -1 1012 95 0 0.74 127 11:58 23.04.2020
4405 Clouds -1 1012 95 0 0.74 127 11:40 23.04.2020
4406 Clouds -1 1012 95 0 0.74 127 11:21 23.04.2020
4407 Clouds -1 1012 95 0 0.74 127 10:41 23.04.2020
4408 Clouds -1 1012 95 0 0.74 127 10:22 23.04.2020
4409 Clouds -1 1012 95 0 0.74 127 09:55 23.04.2020
4410 Clouds -1 1012 95 0 0.76 120 09:37 23.04.2020
4411 Snow -1 1011 94 0 0.87 106 09:18 23.04.2020
4412 Snow -1 1011 94 0 0.87 106 08:42 23.04.2020
4413 Snow -1 1011 94 0 0.87 106 08:23 23.04.2020
4414 Snow -1 1011 94 0 0.87 106 07:42 23.04.2020
4415 Snow -1 1011 94 0 0.87 106 07:23 23.04.2020
4416 Snow -1 1011 94 0 0.87 106 06:49 23.04.2020
4417 Snow -2 1011 94 0 1.08 106 06:22 23.04.2020
4418 Snow -2 1011 94 0 1.08 106 05:29 23.04.2020
4419 Snow -2 1011 94 0 1.08 106 04:52 23.04.2020
4420 Snow -4 1011 94 0 1.37 83 02:24 23.04.2020
4421 Snow -4 1011 94 0 1.37 83 01:49 23.04.2020
4422 Snow -4 1011 94 0 1.37 83 01:28 23.04.2020
4423 Snow -4 1011 94 0 1.37 83 00:47 23.04.2020
4424 Snow -5 1012 95 0 1.12 77 00:22 23.04.2020
4425 Snow -5 1012 95 0 1.12 77 23:49 22.04.2020
4426 Snow -5 1012 95 0 1.12 77 23:23 22.04.2020
4427 Snow -5 1012 95 0 1.12 77 22:57 22.04.2020
4428 Snow -5 1012 95 0 1.12 77 22:37 22.04.2020
4429 Snow -5 1012 95 0 1.12 77 22:19 22.04.2020
4430 Snow -5 1012 95 0 1.12 77 21:56 22.04.2020
4431 Snow -5 1012 95 0 1.12 77 21:37 22.04.2020
4432 Snow -6 1013 95 0 1.09 72 21:19 22.04.2020
4433 Snow -6 1013 95 0 1.09 72 20:43 22.04.2020
4434 Snow -6 1013 95 0 1.09 72 20:20 22.04.2020
4435 Snow -6 1013 95 0 1.09 72 19:58 22.04.2020
4436 Snow -6 1013 95 0 1.09 72 19:39 22.04.2020
4437 Snow -6 1013 95 0 1.09 72 19:19 22.04.2020
4438 Snow -6 1013 95 0 1.09 72 18:59 22.04.2020
4439 Snow -6 1013 95 0 1.09 72 18:41 22.04.2020
4440 Snow -5 1013 96 0 1.11 67 18:22 22.04.2020
4441 Snow -5 1013 96 0 1.11 67 17:57 22.04.2020
4442 Snow -5 1013 96 0 1.11 67 17:39 22.04.2020
4443 Snow -5 1013 96 0 1.11 67 17:20 22.04.2020
4444 Snow -5 1013 96 0 1.11 67 16:43 22.04.2020
4445 Snow -5 1013 96 0 1.11 67 16:25 22.04.2020
4446 Snow -5 1013 96 0 1.11 67 15:54 22.04.2020
4447 Snow -5 1013 96 0 1.11 67 15:36 22.04.2020
4448 Snow -4 1015 96 0 1.2 68 15:18 22.04.2020
4449 Snow -4 1015 96 0 1.2 68 15:18 22.04.2020
4450 Snow -4 1015 96 0 1.2 69 14:41 22.04.2020
4451 Snow -4 1015 96 0 1.2 69 14:21 22.04.2020
4452 Snow -4 1015 96 0 1.2 69 13:59 22.04.2020
4453 Snow -4 1015 96 0 1.2 69 13:40 22.04.2020
4454 Snow -4 1015 96 0 1.2 69 13:19 22.04.2020
4455 Snow -4 1015 96 0 1.2 69 12:42 22.04.2020
4456 Clouds -2 1015 95 0 1.15 86 12:23 22.04.2020
4457 Clouds -2 1015 95 0 1.15 86 11:57 22.04.2020
4458 Clouds -2 1015 95 0 1.15 86 11:37 22.04.2020
4459 Clouds -2 1015 95 0 1.15 86 11:18 22.04.2020
4460 Clouds -2 1015 95 0 1.15 86 11:18 22.04.2020
4461 Clouds -2 1015 95 0 1.15 86 10:41 22.04.2020
4462 Clouds -2 1015 95 0 1.15 86 10:23 22.04.2020
4463 Snow -3 1015 95 0 1.21 85 09:42 22.04.2020
4464 Snow -2 1017 94 0 1.22 101 09:23 22.04.2020
4465 -273 0 0 0 0 0 08:59 22.04.2020
4466 Snow -2 1017 94 0 1.22 101 08:41 22.04.2020
4467 Snow -2 1017 94 0 1.22 101 08:41 22.04.2020
4468 Snow -2 1017 94 0 1.22 101 08:22 22.04.2020
4469 Snow -2 1017 94 0 1.22 101 07:54 22.04.2020
4470 Snow -2 1017 94 0 1.22 101 07:33 22.04.2020
4471 Snow -2 1017 94 0 1.22 101 06:59 22.04.2020
4472 Snow -2 1017 94 0 1.22 101 06:39 22.04.2020
4473 Snow -4 1019 93 0 1.22 114 05:39 22.04.2020
4474 Snow -4 1019 93 0 1.22 114 04:34 22.04.2020
4475 Snow -5 1022 93 0 1.48 95 02:59 22.04.2020
4476 Snow -5 1022 93 0 1.41 99 01:56 22.04.2020
4477 Snow -5 1022 93 0 1.41 99 01:38 22.04.2020
4478 Snow -5 1022 93 0 1.41 99 01:19 22.04.2020
4479 Snow -5 1022 93 0 1.41 99 00:41 22.04.2020
4480 Snow -7 1023 95 0 1.21 104 00:20 22.04.2020
4481 Snow -7 1023 95 0 1.21 104 23:44 21.04.2020
4482 Snow -7 1023 95 0 1.21 104 23:22 21.04.2020
4483 Snow -7 1023 95 0 1.21 104 22:56 21.04.2020
4484 Snow -7 1023 95 0 1.21 104 22:37 21.04.2020
4485 Snow -7 1023 95 0 1.21 104 22:19 21.04.2020
4486 Snow -7 1023 95 0 1.21 104 21:43 21.04.2020
4487 Snow -8 1025 95 0 1.03 106 21:24 21.04.2020
4488 Snow -8 1025 95 0 1.04 113 20:59 21.04.2020
4489 Snow -8 1025 95 0 1.04 113 20:40 21.04.2020
4490 Snow -8 1025 95 0 1.04 113 20:22 21.04.2020
4491 Snow -7 1025 95 0 1.1 110 19:57 21.04.2020
4492 Snow -7 1025 95 0 1.1 110 19:37 21.04.2020
4493 Snow -8 1025 95 0 1.04 113 19:18 21.04.2020
4494 Snow -7 1025 95 0 1.1 110 18:54 21.04.2020
4495 Snow -8 1025 95 0 1.04 113 18:36 21.04.2020
4496 Snow -7 1026 95 0 1.08 117 18:18 21.04.2020
4497 Snow -7 1026 95 0 1.08 117 17:39 21.04.2020
4498 Clouds -7 1026 95 0 1.1 114 17:20 21.04.2020
4499 Clouds -7 1026 95 0 1.1 114 16:56 21.04.2020
4500 Snow -7 1026 95 0 1.08 117 16:36 21.04.2020
4501 Clouds -7 1026 95 0 1.1 114 16:18 21.04.2020
4502 Clouds -7 1026 95 0 1.1 114 15:55 21.04.2020
4503 Clouds -7 1026 95 0 1.1 114 15:36 21.04.2020
4504 Clouds -6 1027 95 0 0.83 112 15:18 21.04.2020
4505 Clouds -6 1027 95 0 0.83 112 14:44 21.04.2020
4506 Clouds -6 1027 94 0 0.89 108 14:23 21.04.2020
4507 Clouds -6 1027 94 0 0.89 108 13:55 21.04.2020
4508 Clouds -6 1027 94 0 0.89 108 13:37 21.04.2020
4509 Clouds -6 1027 94 0 0.89 108 13:18 21.04.2020
4510 Clouds -6 1027 94 0 0.89 108 12:38 21.04.2020
4511 Clouds -3 1028 93 0 1.07 120 12:19 21.04.2020
4512 Clouds -3 1028 93 0 1.07 120 11:57 21.04.2020
4513 Clouds -3 1028 93 0 1.07 120 11:38 21.04.2020
4514 Clouds -3 1028 93 0 1.07 120 11:19 21.04.2020
4515 Clouds -3 1028 93 0 1.07 120 10:59 21.04.2020
4516 Clouds -3 1028 93 0 1.07 120 10:39 21.04.2020
4517 Clouds -3 1028 93 0 1.07 120 10:21 21.04.2020
4518 Clouds -3 1028 93 0 1.07 120 09:57 21.04.2020
4519 Clouds -3 1028 93 0 1.07 120 09:36 21.04.2020
4520 Clouds -3 1029 89 0 1.41 155 09:18 21.04.2020
4521 Clouds -3 1029 89 0 1.41 155 08:43 21.04.2020
4522 Clouds -3 1029 89 0 1.41 155 08:25 21.04.2020
4523 Clouds -3 1029 89 0 1.41 155 07:52 21.04.2020
4524 Clouds -3 1029 89 0 1.41 155 07:27 21.04.2020
4525 Clouds -3 1029 89 0 1.41 155 06:51 21.04.2020
4526 Clouds -3 1029 89 0 1.41 155 06:33 21.04.2020
4527 Clouds -5 1030 88 0 1.49 179 05:50 21.04.2020
4528 Clouds -5 1030 88 0 1.49 179 04:57 21.04.2020
4529 Clouds -5 1030 88 0 1.49 179 04:57 21.04.2020
4530 Clouds -5 1030 88 0 1.49 179 03:46 21.04.2020
4531 Clouds -7 1032 88 0 1.7 179 02:42 21.04.2020
4532 Clouds -7 1032 88 0 1.75 172 01:31 21.04.2020
4533 Clouds -7 1032 88 0 1.75 172 00:38 21.04.2020
4534 Clouds -9 1033 90 0 1.43 163 00:18 21.04.2020
4535 Clouds -9 1033 90 0 1.43 163 23:43 20.04.2020
4536 Clouds -9 1033 90 0 1.43 163 23:21 20.04.2020
4537 Clouds -9 1033 90 0 1.43 163 22:55 20.04.2020
4538 Clouds -9 1033 90 0 1.43 163 22:36 20.04.2020
4539 Clouds -9 1033 90 0 1.43 163 22:18 20.04.2020
4540 Clouds -9 1033 90 0 1.43 163 22:18 20.04.2020
4541 Clouds -9 1033 90 0 1.43 163 21:54 20.04.2020
4542 Clouds -9 1033 91 0 1.47 152 21:36 20.04.2020
4543 Clouds -10 1034 90 0 1.39 147 21:18 20.04.2020
4544 Clouds -10 1034 90 0 1.39 147 20:42 20.04.2020
4545 Clouds -10 1034 90 0 1.39 147 20:20 20.04.2020
4546 Clouds -10 1034 90 0 1.39 147 19:59 20.04.2020
4547 Clouds -10 1034 90 0 1.39 147 19:59 20.04.2020
4548 Clouds -10 1034 90 0 1.39 147 19:41 20.04.2020
4549 Clouds -10 1034 90 0 1.39 147 19:22 20.04.2020
4550 Clouds -10 1034 90 0 1.39 147 18:58 20.04.2020
4551 Clouds -10 1034 90 0 1.39 147 18:39 20.04.2020
4552 Clouds -10 1034 90 0 1.49 149 18:20 20.04.2020
4553 Clouds -10 1034 90 0 1.49 149 18:20 20.04.2020
4554 Clouds -10 1034 90 0 1.49 149 17:54 20.04.2020
4555 Clouds -10 1034 90 0 1.49 149 17:36 20.04.2020
4556 Clouds -10 1034 90 0 1.49 149 17:18 20.04.2020
4557 Clouds -10 1034 90 0 1.49 149 16:42 20.04.2020
4558 Clouds -10 1034 90 0 1.49 149 16:20 20.04.2020
4559 Clouds -10 1034 90 0 1.49 149 15:56 20.04.2020
4560 Clouds -10 1034 90 0 1.49 149 15:38 20.04.2020
4561 Clouds -9 1034 90 0 1.9 158 15:20 20.04.2020
4562 Clouds -9 1034 90 0 1.87 159 14:42 20.04.2020
4563 Clouds -9 1034 90 0 1.87 159 14:20 20.04.2020
4564 Clouds -9 1034 90 0 1.87 159 13:58 20.04.2020
4565 Clouds -9 1034 90 0 1.87 159 13:39 20.04.2020
4566 Clouds -9 1034 90 0 1.87 159 13:20 20.04.2020
4567 Clouds -9 1034 90 0 1.87 159 12:44 20.04.2020
4568 Clouds -5 1033 92 0 1.89 181 12:24 20.04.2020
4569 Clouds -5 1033 92 0 1.89 181 11:58 20.04.2020
4570 Clouds -5 1033 92 0 1.89 181 11:39 20.04.2020
4571 Clouds -5 1033 92 0 1.89 181 11:20 20.04.2020
4572 Clouds -5 1033 92 0 1.89 181 10:55 20.04.2020
4573 Clouds -5 1033 92 0 1.89 181 10:37 20.04.2020
4574 Clouds -5 1033 92 0 1.89 181 10:37 20.04.2020
4575 Clouds -5 1033 92 0 1.89 181 10:18 20.04.2020
4576 Clouds -5 1033 92 0 1.89 181 09:44 20.04.2020
4577 Clouds -5 1034 90 0 2.53 201 09:26 20.04.2020
4578 -273 0 0 0 0 0 08:59 20.04.2020
4579 Clouds -5 1034 90 0 2.53 201 08:41 20.04.2020
4580 Clouds -5 1034 90 0 2.53 201 08:19 20.04.2020
4581 Clouds -5 1034 90 0 2.53 201 07:52 20.04.2020
4582 Clouds -5 1034 90 0 2.53 201 07:29 20.04.2020
4583 Clouds -5 1034 90 0 2.53 201 06:55 20.04.2020
4584 Clouds -5 1034 90 0 2.53 201 06:35 20.04.2020
4585 Clouds -7 1035 90 0 2.8 202 05:33 20.04.2020
4586 Clouds -7 1035 90 0 2.8 202 03:36 20.04.2020
4587 Clouds -11 1037 89 0 2.7 197 02:42 20.04.2020
4588 Clouds -11 1037 89 0 2.7 197 01:32 20.04.2020
4589 Clouds -11 1037 89 0 2.7 197 00:59 20.04.2020
4590 Clouds -11 1037 89 0 2.7 197 00:34 20.04.2020
4591 Clouds -14 1038 88 0 2.27 198 23:56 19.04.2020
4592 Clouds -14 1038 88 0 2.27 198 23:37 19.04.2020
4593 Clouds -14 1038 88 0 2.27 198 23:19 19.04.2020
4594 Clouds -14 1038 88 0 2.27 198 22:40 19.04.2020
4595 Clouds -14 1038 88 0 2.27 198 22:22 19.04.2020
4596 Clouds -14 1038 88 0 2.27 198 21:58 19.04.2020
4597 Clouds -14 1038 88 0 2.49 197 21:39 19.04.2020
4598 Clouds -14 1038 88 0 2.49 197 21:39 19.04.2020
4599 Clouds -17 1038 85 0 1.95 201 21:20 19.04.2020
4600 Clouds -17 1038 85 0 1.95 201 20:55 19.04.2020
4601 Clouds -17 1038 85 0 1.95 201 20:36 19.04.2020
4602 Clouds -17 1038 85 0 1.95 201 20:18 19.04.2020
4603 Clouds -17 1038 85 0 1.95 201 19:41 19.04.2020
4604 Clouds -17 1038 85 0 1.95 201 19:22 19.04.2020
4605 Clouds -17 1038 85 0 1.95 201 18:58 19.04.2020
4606 Clouds -17 1038 85 0 1.95 201 18:40 19.04.2020
4607 Clouds -17 1038 85 0 1.95 201 18:40 19.04.2020
4608 Clouds -17 1038 85 0 1.95 201 18:40 19.04.2020
4609 Clouds -16 1038 85 0 1.4 212 18:20 19.04.2020
4610 Clouds -16 1038 85 0 1.4 212 17:59 19.04.2020
4611 Clouds -16 1038 85 0 1.4 212 17:40 19.04.2020
4612 Clouds -16 1038 85 0 1.4 212 17:22 19.04.2020
4613 Clouds -16 1038 85 0 1.4 212 16:58 19.04.2020
4614 Clouds -16 1038 85 0 1.4 212 16:39 19.04.2020
4615 Clouds -16 1038 85 0 1.4 212 16:21 19.04.2020
4616 Clouds -16 1038 85 0 1.4 212 15:43 19.04.2020
4617 Clouds -16 1038 85 0 1.4 212 15:43 19.04.2020
4618 Clouds -15 1038 85 0 1.55 203 15:23 19.04.2020
4619 Clouds -15 1038 85 0 1.55 203 15:23 19.04.2020
4620 Clouds -15 1038 85 0 1.55 203 14:56 19.04.2020
4621 Clouds -15 1038 85 0 1.55 203 14:38 19.04.2020
4622 Clouds -16 1038 85 0 1.66 205 14:19 19.04.2020
4623 Clouds -16 1038 85 0 1.66 205 13:41 19.04.2020
4624 Clouds -16 1038 85 0 1.66 205 13:22 19.04.2020
4625 Clouds -16 1038 85 0 1.66 205 12:59 19.04.2020
4626 Clouds -16 1038 85 0 1.66 205 12:41 19.04.2020
4627 Clouds -11 1037 87 0 0.6 157 12:23 19.04.2020
4628 Clouds -11 1037 87 0 0.6 157 12:23 19.04.2020
4629 Clouds -11 1037 87 0 0.6 157 11:39 19.04.2020
4630 Clouds -11 1037 87 0 0.6 157 11:20 19.04.2020
4631 Clouds -11 1037 87 0 0.6 157 10:58 19.04.2020
4632 Clouds -11 1037 87 0 0.6 157 10:40 19.04.2020
4633 Clouds -11 1037 87 0 0.6 157 10:20 19.04.2020
4634 Clouds -11 1037 87 0 0.6 157 09:47 19.04.2020
4635 Clouds -11 1037 78 0 0.88 8 09:28 19.04.2020
4636 Clouds -12 1037 77 0 0.17 1 08:59 19.04.2020
4637 Clouds -12 1037 78 0 0.03 141 08:38 19.04.2020
4638 Clouds -12 1037 78 0 0.03 141 08:18 19.04.2020
4639 Clouds -12 1037 77 0 0.17 1 07:44 19.04.2020
4640 Clouds -12 1037 77 0 0.17 1 07:25 19.04.2020
4641 Clouds -12 1037 77 0 0.17 1 07:25 19.04.2020
4642 Clouds -12 1037 78 0 0.03 141 06:37 19.04.2020
4643 Clouds -15 1038 75 0 0.94 310 06:18 19.04.2020
4644 Clear -15 1039 75 0 0.94 324 04:56 19.04.2020
4645 Clear -18 1040 77 0 1.07 285 03:21 19.04.2020
4646 Clear -18 1039 77 0 0.97 275 02:22 19.04.2020
4647 Clear -18 1039 77 0 0.97 275 01:39 19.04.2020
4648 Clear -18 1039 77 0 0.97 275 01:19 19.04.2020
4649 Clear -18 1039 77 0 0.97 275 00:40 19.04.2020
4650 Clear -21 1040 82 0 0.8 277 00:19 19.04.2020
4651 Clear -21 1040 82 0 0.8 277 23:41 18.04.2020
4652 Clear -21 1040 82 0 0.8 277 23:19 18.04.2020
4653 Clear -21 1040 82 0 0.8 277 22:43 18.04.2020
4654 Clear -21 1040 82 0 0.8 277 22:23 18.04.2020
4655 Clear -21 1040 82 0 0.8 277 21:58 18.04.2020
4656 Clouds -21 1041 83 0 0.82 279 21:39 18.04.2020
4657 Clouds -23 1040 84 0 1.12 288 21:21 18.04.2020
4658 Clouds -23 1040 84 0 1.12 288 20:58 18.04.2020
4659 Clouds -23 1040 84 0 1.12 288 20:40 18.04.2020
4660 Clouds -23 1040 84 0 1.12 288 20:18 18.04.2020
4661 Clouds -23 1040 84 0 1.12 288 19:41 18.04.2020
4662 Clouds -23 1040 84 0 1.12 288 19:22 18.04.2020
4663 Clouds -23 1040 84 0 1.12 288 18:39 18.04.2020
4664 Clouds -21 1040 85 0 1.59 301 18:20 18.04.2020
4665 Clouds -21 1040 85 0 1.59 301 17:58 18.04.2020
4666 Clouds -21 1040 85 0 1.59 301 17:40 18.04.2020
4667 Clouds -21 1040 85 0 1.59 301 17:20 18.04.2020
4668 Clouds -21 1040 85 0 1.59 301 16:43 18.04.2020
4669 Clouds -21 1040 85 0 1.59 301 16:22 18.04.2020
4670 Clouds -21 1040 85 0 1.59 301 15:56 18.04.2020
4671 Clouds -21 1040 85 0 1.59 301 15:37 18.04.2020
4672 Clouds -19 1039 87 0 2.11 309 15:19 18.04.2020
4673 Clouds -19 1039 87 0 2.11 309 14:44 18.04.2020
4674 Clouds -19 1039 87 0 2.03 308 14:24 18.04.2020
4675 Clouds -19 1039 87 0 2.03 308 13:44 18.04.2020
4676 Clouds -19 1039 87 0 2.03 308 13:23 18.04.2020
4677 Clouds -19 1039 87 0 2.03 308 12:56 18.04.2020
4678 Clouds -19 1039 87 0 2.03 308 12:38 18.04.2020
4679 Snow -14 1037 89 0 3.59 349 12:19 18.04.2020
4680 Snow -14 1037 89 0 3.59 349 11:42 18.04.2020
4681 Snow -14 1037 89 0 3.59 349 11:22 18.04.2020
4682 Snow -14 1037 89 0 3.59 349 10:57 18.04.2020
4683 Snow -14 1037 89 0 3.59 349 10:37 18.04.2020
4684 Snow -14 1037 89 0 3.59 349 10:18 18.04.2020
4685 Clouds -14 1038 88 0 2.61 353 09:41 18.04.2020
4686 Clouds -14 1037 85 0 4.2 23 09:23 18.04.2020
4687 Clouds -14 1037 85 0 4.2 23 08:44 18.04.2020
4688 Clouds -14 1037 85 0 4.2 23 08:26 18.04.2020
4689 Clouds -14 1037 85 0 4.2 23 07:58 18.04.2020
4690 Clouds -14 1037 85 0 4.2 23 07:36 18.04.2020
4691 Clouds -14 1037 85 0 4.2 23 06:55 18.04.2020
4692 Clouds -17 1038 84 0 3.98 20 06:25 18.04.2020
4693 Clouds -17 1038 84 0 3.98 20 05:36 18.04.2020
4694 Clouds -17 1038 84 0 3.98 20 04:46 18.04.2020
4695 Clouds -17 1038 84 0 3.98 20 04:25 18.04.2020
4696 Clouds -20 1039 84 0 2.6 351 02:48 18.04.2020
4697 Clouds -21 1038 84 0 2.43 348 02:23 18.04.2020
4698 Clouds -21 1038 84 0 2.43 348 01:53 18.04.2020
4699 Clouds -21 1038 84 0 2.43 348 01:34 18.04.2020
4700 Clouds -21 1038 84 0 2.43 348 00:44 18.04.2020
4701 Clouds -25 1039 84 0 1.59 302 00:22 18.04.2020
4702 Clouds -25 1039 84 0 1.59 302 23:55 17.04.2020
4703 Clouds -25 1039 84 0 1.59 302 23:37 17.04.2020
4704 Clouds -25 1039 84 0 1.59 302 23:18 17.04.2020
4705 Clouds -25 1039 84 0 1.59 302 22:56 17.04.2020
4706 Clouds -25 1039 84 0 1.59 302 22:37 17.04.2020
4707 Clouds -25 1039 84 0 1.59 302 22:18 17.04.2020
4708 Clouds -25 1039 84 0 1.59 302 21:42 17.04.2020
4709 Clouds -26 1038 84 0 2.07 305 21:21 17.04.2020
4710 Clouds -26 1038 84 0 2.07 305 20:57 17.04.2020
4711 Clouds -26 1038 84 0 2.07 305 20:38 17.04.2020
4712 Clouds -26 1038 84 0 2.07 305 20:19 17.04.2020
4713 Clouds -26 1038 84 0 2.07 305 19:57 17.04.2020
4714 Clouds -26 1038 84 0 2.07 305 19:39 17.04.2020
4715 Clouds -26 1038 84 0 2.07 305 19:39 17.04.2020
4716 Clouds -26 1038 84 0 2.07 305 19:21 17.04.2020
4717 Clouds -26 1038 84 0 2.07 305 18:44 17.04.2020
4718 Clouds -24 1038 85 0 2.36 304 18:24 17.04.2020
4719 Clouds -24 1038 85 0 2.36 304 18:24 17.04.2020
4720 Clouds -24 1038 85 0 2.36 304 18:24 17.04.2020
4721 Clouds -24 1038 85 0 2.36 304 17:55 17.04.2020
4722 Clouds -24 1038 85 0 2.36 304 17:37 17.04.2020
4723 Clouds -24 1038 85 0 2.36 304 17:18 17.04.2020
4724 Clouds -24 1038 85 0 2.36 304 17:18 17.04.2020
4725 Clouds -24 1038 85 0 2.36 304 16:42 17.04.2020
4726 Clouds -24 1038 85 0 2.36 304 16:23 17.04.2020
4727 Clouds -24 1038 85 0 2.36 304 15:42 17.04.2020
4728 Clouds -21 1036 86 0 3.16 323 15:24 17.04.2020
4729 Clouds -21 1036 86 0 3.16 323 14:57 17.04.2020
4730 Clouds -20 1036 86 0 3.22 321 14:39 17.04.2020
4731 Clouds -20 1036 86 0 3.22 321 14:20 17.04.2020
4732 Clouds -20 1036 86 0 3.22 321 13:55 17.04.2020
4733 Clouds -20 1036 86 0 3.22 321 13:36 17.04.2020
4734 Clouds -20 1036 86 0 3.22 321 13:18 17.04.2020
4735 Clouds -20 1036 86 0 3.22 321 12:44 17.04.2020
4736 Snow -14 1034 89 0 6.93 358 12:23 17.04.2020
4737 Snow -14 1034 89 0 6.93 358 11:42 17.04.2020
4738 Snow -14 1034 89 0 6.93 358 11:19 17.04.2020
4739 Snow -14 1034 89 0 6.93 358 10:56 17.04.2020
4740 Snow -14 1034 89 0 6.93 358 10:38 17.04.2020
4741 Snow -14 1034 89 0 6.93 358 10:19 17.04.2020
4742 Snow -14 1034 89 0 6.93 358 09:41 17.04.2020
4743 Snow -12 1033 89 0 8.91 7 09:22 17.04.2020
4744 Snow -12 1033 89 0 8.91 7 08:58 17.04.2020
4745 Snow -12 1033 89 0 8.91 7 08:39 17.04.2020
4746 Snow -12 1033 89 0 8.91 7 08:19 17.04.2020
4747 Snow -12 1033 89 0 8.91 7 07:44 17.04.2020
4748 Snow -12 1033 89 0 8.91 7 07:23 17.04.2020
4749 Snow -12 1033 89 0 8.91 7 06:47 17.04.2020
4750 Snow -14 1033 88 0 9.29 10 06:23 17.04.2020
4751 Snow -14 1033 88 0 9.29 10 05:27 17.04.2020
4752 Snow -16 1033 87 0 7.74 10 03:20 17.04.2020
4753 Snow -16 1033 87 0 7.74 10 02:33 17.04.2020
4754 Snow -16 1033 87 0 7.61 8 01:29 17.04.2020
4755 Snow -16 1033 87 0 7.61 8 00:53 17.04.2020
4756 Clouds -19 1034 87 0 3.06 327 00:19 17.04.2020
4757 Clouds -19 1034 87 0 3.06 327 23:45 16.04.2020
4758 Clouds -19 1034 87 0 3.06 327 23:23 16.04.2020
4759 Clouds -19 1034 87 0 3.06 327 22:58 16.04.2020
4760 Clouds -19 1034 87 0 3.06 327 22:37 16.04.2020
4761 Clouds -19 1034 87 0 3.06 327 22:19 16.04.2020
4762 Clouds -19 1034 87 0 3.06 327 21:43 16.04.2020
4763 Clouds -19 1032 86 0 3.18 328 21:21 16.04.2020
4764 -273 0 0 0 0 0 20:59 16.04.2020
4765 Clouds -19 1032 86 0 3.18 328 20:40 16.04.2020
4766 Clouds -19 1032 86 0 3.18 328 20:21 16.04.2020
4767 Clouds -19 1032 86 0 3.18 328 19:55 16.04.2020
4768 Clouds -19 1032 86 0 3.18 328 19:37 16.04.2020
4769 Clouds -19 1032 86 0 3.18 328 19:18 16.04.2020
4770 Clouds -19 1032 86 0 3.18 328 18:43 16.04.2020
4771 Snow -19 1032 87 0 3.27 326 18:25 16.04.2020
4772 Snow -19 1032 87 0 3.27 326 17:58 16.04.2020
4773 Snow -19 1032 87 0 3.27 326 17:39 16.04.2020
4774 Snow -19 1032 87 0 3.27 326 17:20 16.04.2020
4775 Snow -19 1032 87 0 3.27 326 16:44 16.04.2020
4776 Snow -19 1032 87 0 3.27 326 16:26 16.04.2020
4777 Snow -19 1032 87 0 3.27 326 15:55 16.04.2020
4778 Snow -19 1032 87 0 3.27 326 15:36 16.04.2020
4779 Snow -18 1031 88 0 3.67 332 15:18 16.04.2020
4780 Snow -18 1031 88 0 3.67 332 14:45 16.04.2020
4781 Snow -18 1030 88 0 3.7 328 14:25 16.04.2020
4782 Snow -18 1030 88 0 3.7 328 13:59 16.04.2020
4783 Snow -18 1030 88 0 3.7 328 13:41 16.04.2020
4784 Snow -18 1030 88 0 3.7 328 13:22 16.04.2020
4785 Snow -18 1030 88 0 3.7 328 12:58 16.04.2020
4786 Snow -18 1030 88 0 3.7 328 12:39 16.04.2020
4787 Snow -15 1029 88 0 5.74 353 12:19 16.04.2020
4788 Snow -15 1029 88 0 5.74 353 11:59 16.04.2020
4789 Snow -15 1029 88 0 5.74 353 11:40 16.04.2020
4790 Snow -15 1029 88 0 5.74 353 11:20 16.04.2020
4791 Snow -15 1029 88 0 5.74 353 10:55 16.04.2020
4792 Snow -15 1029 88 0 5.74 353 10:37 16.04.2020
4793 Snow -15 1029 88 0 5.74 353 10:18 16.04.2020
4794 Snow -15 1030 88 0 5.88 353 09:39 16.04.2020
4795 Snow -14 1028 87 0 7.24 0 09:20 16.04.2020
4796 Snow -14 1028 87 0 6.83 360 09:20 16.04.2020
4797 Snow -14 1028 87 0 7.24 0 08:56 16.04.2020
4798 Snow -14 1028 87 0 6.83 360 08:38 16.04.2020
4799 Snow -14 1028 87 0 7.24 0 08:19 16.04.2020
4800 Snow -14 1028 87 0 7.24 0 07:43 16.04.2020
4801 Snow -14 1028 87 0 7.24 0 07:23 16.04.2020
4802 Snow -14 1028 87 0 7.24 0 06:42 16.04.2020
4803 Snow -15 1028 87 0 6.9 4 06:23 16.04.2020
4804 Snow -15 1028 87 0 6.9 4 04:54 16.04.2020
4805 Snow -15 1028 86 0 6.56 4 03:39 16.04.2020
4806 Snow -17 1027 85 0 5.29 359 03:21 16.04.2020
4807 Snow -17 1027 85 0 5.29 359 02:43 16.04.2020
4808 Snow -17 1027 86 0 5.2 357 01:58 16.04.2020
4809 Snow -17 1027 86 0 5.2 357 00:59 16.04.2020
4810 Snow -18 1027 88 0 3.43 330 00:26 16.04.2020
4811 Snow -18 1027 88 0 3.43 330 23:57 15.04.2020
4812 Snow -18 1027 88 0 3.43 330 23:38 15.04.2020
4813 Snow -18 1027 88 0 3.43 330 23:20 15.04.2020
4814 Snow -18 1027 88 0 3.43 330 22:40 15.04.2020
4815 Snow -18 1027 88 0 3.43 330 22:21 15.04.2020
4816 Snow -18 1027 88 0 3.43 330 21:58 15.04.2020
4817 Snow -18 1027 88 0 3.43 330 21:40 15.04.2020
4818 Snow -17 1025 89 0 4.34 327 21:22 15.04.2020
4819 Snow -17 1025 89 0 4.34 327 20:57 15.04.2020
4820 Snow -17 1025 89 0 4.34 327 20:39 15.04.2020
4821 Snow -17 1025 89 0 4.34 327 20:21 15.04.2020
4822 Snow -17 1025 89 0 4.34 327 19:42 15.04.2020
4823 Snow -17 1025 89 0 4.34 327 19:21 15.04.2020
4824 Snow -17 1025 89 0 4.34 327 18:55 15.04.2020
4825 Snow -17 1025 89 0 4.34 327 18:36 15.04.2020
4826 Clouds -17 1025 88 0 4.22 328 18:18 15.04.2020
4827 Clouds -17 1025 88 0 4.22 328 17:40 15.04.2020
4828 Clouds -17 1025 88 0 4.22 328 17:21 15.04.2020
4829 Clouds -17 1025 88 0 4.22 328 16:58 15.04.2020
4830 Clouds -17 1025 88 0 4.22 328 16:39 15.04.2020
4831 Clouds -17 1025 88 0 4.22 328 16:20 15.04.2020
4832 Clouds -17 1025 88 0 4.22 328 15:59 15.04.2020
4833 Clouds -17 1025 88 0 4.22 328 15:40 15.04.2020
4834 Clouds -16 1023 87 0 3.14 326 15:20 15.04.2020
4835 Clouds -16 1023 87 0 3.14 326 14:59 15.04.2020
4836 Clouds -16 1023 87 0 3.14 326 14:40 15.04.2020
4837 Snow -14 1022 88 0 5.47 332 14:22 15.04.2020
4838 Snow -14 1022 88 0 5.47 332 13:58 15.04.2020
4839 Snow -14 1022 88 0 5.47 332 13:39 15.04.2020
4840 Snow -14 1022 88 0 5.47 332 13:21 15.04.2020
4841 Snow -14 1022 88 0 5.47 332 12:57 15.04.2020
4842 Snow -14 1022 88 0 5.47 332 12:39 15.04.2020
4843 Snow -11 1019 89 0 6.07 354 12:21 15.04.2020
4844 Snow -11 1019 89 0 6.07 354 11:45 15.04.2020
4845 Snow -11 1019 89 0 6.07 354 11:25 15.04.2020
4846 Snow -11 1019 89 0 6.07 354 10:59 15.04.2020
4847 Snow -11 1019 89 0 6.07 354 10:37 15.04.2020
4848 Snow -11 1019 89 0 6.07 354 10:19 15.04.2020
4849 Snow -11 1019 89 0 6.07 354 09:56 15.04.2020
4850 Snow -11 1019 89 0 6.07 354 09:37 15.04.2020
4851 Clouds -6 1014 86 0 9.51 329 09:19 15.04.2020
4852 Clouds -6 1014 86 0 9.51 329 08:42 15.04.2020
4853 Clouds -6 1014 86 0 9.51 329 08:23 15.04.2020
4854 Clouds -6 1014 86 0 9.51 329 07:59 15.04.2020
4855 Clouds -6 1014 86 0 9.51 329 07:40 15.04.2020
4856 Clouds -6 1014 86 0 9.51 329 06:59 15.04.2020
4857 Snow -5 1010 90 0 7.12 341 06:24 15.04.2020
4858 Snow -5 1010 90 0 7.12 341 05:34 15.04.2020
4859 Snow -5 1010 90 0 7.12 341 04:47 15.04.2020
4860 Snow -5 1010 90 0 7.12 341 04:22 15.04.2020
4861 Snow -9 1007 93 0 3.21 21 03:22 15.04.2020
4862 Snow -9 1007 93 0 3.21 21 02:49 15.04.2020
4863 Snow -9 1007 93 0 3.21 21 01:51 15.04.2020
4864 Snow -9 1007 93 0 3.21 21 01:25 15.04.2020
4865 Snow -9 1007 93 0 3.21 21 00:48 15.04.2020
4866 Snow -9 1009 93 0 1.96 97 00:25 15.04.2020
4867 Snow -9 1009 93 0 1.96 97 23:56 14.04.2020
4868 Snow -9 1009 93 0 1.96 97 23:38 14.04.2020
4869 Snow -9 1009 93 0 1.96 97 23:20 14.04.2020
4870 Snow -9 1009 93 0 1.96 97 22:56 14.04.2020
4871 Snow -9 1009 93 0 1.96 97 22:38 14.04.2020
4872 Snow -9 1009 93 0 1.96 97 22:20 14.04.2020
4873 Snow -9 1009 93 0 1.96 97 21:56 14.04.2020
4874 Snow -9 1009 93 0 1.96 97 21:38 14.04.2020
4875 Snow -10 1013 94 0 2.26 122 21:19 14.04.2020
4876 Snow -11 1013 93 0 2.31 120 20:55 14.04.2020
4877 Snow -10 1013 94 0 2.26 122 20:36 14.04.2020
4878 Snow -10 1013 94 0 2.26 122 20:36 14.04.2020
4879 Snow -11 1013 93 0 2.31 120 20:18 14.04.2020
4880 Snow -10 1013 94 0 2.26 122 19:41 14.04.2020
4881 Snow -11 1013 93 0 2.31 120 19:22 14.04.2020
4882 Snow -11 1013 93 0 2.31 120 18:58 14.04.2020
4883 Snow -11 1013 93 0 2.31 120 18:39 14.04.2020
4884 Clouds -11 1017 89 0 2.17 117 18:21 14.04.2020
4885 Clouds -11 1017 89 0 2.17 117 17:58 14.04.2020
4886 Clouds -11 1017 88 0 2.17 110 17:38 14.04.2020
4887 Clouds -11 1017 88 0 2.17 110 17:19 14.04.2020
4888 Clouds -11 1017 88 0 2.17 110 16:56 14.04.2020
4889 Clouds -11 1017 88 0 2.17 110 16:37 14.04.2020
4890 Clouds -11 1017 88 0 2.17 110 16:19 14.04.2020
4891 Clouds -11 1017 89 0 2.17 117 15:55 14.04.2020
4892 Clouds -11 1017 89 0 2.17 117 15:37 14.04.2020
4893 Clouds -11 1021 88 0 2.15 112 15:18 14.04.2020
4894 Clouds -10 1021 88 0 2.11 114 14:55 14.04.2020
4895 Clouds -11 1021 88 0 2.15 112 14:37 14.04.2020
4896 Clouds -11 1021 88 0 2.15 112 14:37 14.04.2020
4897 Clouds -11 1021 88 0 2.15 112 14:19 14.04.2020
4898 Clouds -11 1021 88 0 2.15 112 14:19 14.04.2020
4899 Clouds -11 1021 88 0 2.15 112 13:40 14.04.2020
4900 Clouds -11 1021 88 0 2.15 112 13:22 14.04.2020
4901 Clouds -11 1021 88 0 2.15 112 12:54 14.04.2020
4902 Clouds -11 1021 88 0 2.15 112 12:36 14.04.2020
4903 Clouds -7 1023 90 0 2.62 128 12:18 14.04.2020
4904 Clouds -7 1023 90 0 2.62 128 11:40 14.04.2020
4905 Clouds -7 1023 90 0 2.62 128 11:20 14.04.2020
4906 Clouds -7 1023 90 0 2.62 128 10:47 14.04.2020
4907 Clouds -7 1023 90 0 2.62 128 10:28 14.04.2020
4908 Clouds -7 1023 90 0 2.62 128 09:59 14.04.2020
4909 Clouds -7 1023 90 0 2.62 128 09:40 14.04.2020
4910 Clear -7 1025 84 0 2.17 149 09:22 14.04.2020
4911 Clear -7 1024 84 0 2.15 143 08:44 14.04.2020
4912 Clear -7 1024 84 0 2.15 143 08:25 14.04.2020
4913 Clear -7 1024 84 0 2.15 143 07:58 14.04.2020
4914 Clear -7 1024 84 0 2.15 143 07:40 14.04.2020
4915 Clear -7 1024 84 0 2.15 143 07:21 14.04.2020
4916 Clear -7 1024 84 0 2.15 143 06:45 14.04.2020
4917 Clear -10 1027 79 0 1.2 155 05:22 14.04.2020
4918 Clear -12 1028 83 0 1.08 284 03:25 14.04.2020
4919 Clear -12 1028 83 0 1.08 284 02:33 14.04.2020
4920 Clear -13 1028 83 0 0.96 282 01:27 14.04.2020
4921 Clear -13 1028 83 0 0.96 282 00:50 14.04.2020
4922 Clear -15 1028 87 0 1.36 293 00:24 14.04.2020
4923 Clear -15 1028 87 0 1.36 293 23:56 13.04.2020
4924 Clear -15 1028 87 0 1.36 293 23:37 13.04.2020
4925 Clear -15 1028 87 0 1.36 293 23:18 13.04.2020
4926 Clear -15 1028 87 0 1.36 293 22:42 13.04.2020
4927 Clear -15 1028 87 0 1.36 293 22:22 13.04.2020
4928 Clear -15 1028 87 0 1.36 293 21:58 13.04.2020
4929 Clear -15 1028 87 0 1.36 293 21:39 13.04.2020
4930 Clouds -15 1026 87 0 1.65 341 21:20 13.04.2020
4931 Clouds -15 1026 87 0 1.65 341 20:57 13.04.2020
4932 Clouds -15 1026 87 0 1.65 341 20:38 13.04.2020
4933 Clouds -15 1026 87 0 1.65 341 20:38 13.04.2020
4934 Clouds -15 1026 87 0 1.65 341 20:19 13.04.2020
4935 Clouds -15 1026 87 0 1.65 341 19:57 13.04.2020
4936 Clouds -15 1026 87 0 1.65 341 19:37 13.04.2020
4937 Clouds -15 1026 87 0 1.65 341 19:18 13.04.2020
4938 Clouds -15 1026 87 0 1.65 341 18:55 13.04.2020
4939 Clouds -15 1026 87 0 1.65 341 18:36 13.04.2020
4940 Clouds -11 1022 88 0 2.41 7 18:18 13.04.2020
4941 Clouds -11 1022 88 0 2.41 7 17:55 13.04.2020
4942 Clouds -11 1022 88 0 2.41 7 17:36 13.04.2020
4943 Clouds -11 1022 88 0 2.41 7 17:36 13.04.2020
4944 Clouds -11 1022 88 0 2.41 7 17:18 13.04.2020
4945 Clouds -11 1022 88 0 2.41 7 16:55 13.04.2020
4946 Clouds -11 1022 88 0 2.41 7 16:36 13.04.2020
4947 Clouds -11 1022 88 0 2.41 7 16:18 13.04.2020
4948 Clouds -11 1022 88 0 2.41 7 15:45 13.04.2020
4949 Snow -7 1018 91 0 6.38 13 15:27 13.04.2020
4950 Snow -7 1018 91 0 6.38 13 14:58 13.04.2020
4951 Snow -7 1017 90 0 8.27 12 14:40 13.04.2020
4952 Snow -7 1017 90 0 8.27 12 14:21 13.04.2020
4953 Snow -7 1017 90 0 8.27 12 13:56 13.04.2020
4954 Snow -7 1017 90 0 8.27 12 13:38 13.04.2020
4955 Snow -7 1017 90 0 8.27 12 13:19 13.04.2020
4956 Snow -8 1017 91 0 5.19 9 12:58 13.04.2020
4957 Snow -7 1017 90 0 8.27 12 12:39 13.04.2020
4958 Clouds -1 1012 91 0 2.03 300 12:19 13.04.2020
4959 Clear -2 1012 92 0 0.55 296 12:19 13.04.2020
4960 Clouds -1 1012 91 0 2.03 300 11:57 13.04.2020
4961 Clear -2 1012 92 0 0.55 296 11:39 13.04.2020
4962 Clear -2 1012 92 0 0.55 296 11:18 13.04.2020
4963 Clear -2 1012 92 0 0.55 296 10:55 13.04.2020
4964 Clear -2 1012 92 0 0.55 296 10:36 13.04.2020
4965 Clear -2 1012 92 0 0.55 296 10:18 13.04.2020
4966 Clear -2 1012 92 0 0.55 296 09:43 13.04.2020
4967 Clouds 0 1010 84 0 4.23 226 09:25 13.04.2020
4968 Clouds 0 1010 84 0 4.23 226 08:45 13.04.2020
4969 Clouds 0 1010 84 0 4.23 226 08:27 13.04.2020
4970 Clouds 0 1010 84 0 4.23 226 07:56 13.04.2020
4971 Clouds 0 1010 84 0 4.23 226 07:37 13.04.2020
4972 Clouds 0 1010 84 0 4.23 226 07:18 13.04.2020
4973 Clouds 0 1010 84 0 4.23 226 06:42 13.04.2020
4974 Clouds -2 1011 91 0 4.97 203 05:52 13.04.2020
4975 Clouds -2 1011 91 0 4.97 203 05:19 13.04.2020
4976 Clouds -2 1011 91 0 4.97 203 05:19 13.04.2020
4977 Clouds -2 1011 91 0 4.97 203 04:31 13.04.2020
4978 Clouds -2 1011 91 0 4.97 203 04:31 13.04.2020
4979 Clouds -2 1011 91 0 4.97 203 03:56 13.04.2020
4980 Clouds -2 1011 91 0 4.97 203 03:34 13.04.2020
4981 Clouds -5 1014 92 0 3.57 199 02:41 13.04.2020
4982 Clouds -6 1014 92 0 3.51 198 01:47 13.04.2020
4983 Clouds -6 1014 92 0 3.51 198 01:28 13.04.2020
4984 Clouds -6 1014 92 0 3.51 198 00:50 13.04.2020
4985 Clouds -12 1016 90 0 1.54 175 00:25 13.04.2020
4986 Clouds -12 1016 90 0 1.54 175 23:57 12.04.2020
4987 Clouds -12 1016 90 0 1.54 175 23:38 12.04.2020
4988 Clouds -12 1016 90 0 1.54 175 23:20 12.04.2020
4989 Clouds -12 1016 90 0 1.54 175 22:54 12.04.2020
4990 Clouds -12 1016 90 0 1.54 175 22:36 12.04.2020
4991 Clouds -12 1016 90 0 1.54 175 22:18 12.04.2020
4992 Clouds -12 1017 88 0 1.76 173 21:38 12.04.2020
4993 Clouds -12 1017 88 0 1.76 173 21:38 12.04.2020
4994 Clouds -13 1017 86 0 0.8 143 21:20 12.04.2020
4995 Clouds -13 1017 86 0 0.8 143 20:44 12.04.2020
4996 Clouds -13 1017 86 0 0.8 143 20:23 12.04.2020
4997 Clouds -13 1017 86 0 0.8 143 19:59 12.04.2020
4998 Clouds -13 1017 86 0 0.8 143 19:40 12.04.2020
4999 Clouds -13 1017 86 0 0.8 143 19:19 12.04.2020
5000 Clouds -13 1017 86 0 0.8 143 18:58 12.04.2020
5001 Clouds -13 1017 86 0 0.8 143 18:39 12.04.2020
5002 Clouds -12 1017 89 0 1.67 349 18:19 12.04.2020
5003 Clouds -12 1017 89 0 1.67 349 17:55 12.04.2020
5004 Clouds -12 1017 89 0 1.67 349 17:37 12.04.2020
5005 Clouds -12 1017 89 0 1.67 349 17:37 12.04.2020
5006 Clouds -12 1017 89 0 1.67 349 17:18 12.04.2020
5007 Clouds -12 1017 89 0 1.67 349 16:41 12.04.2020
5008 Clouds -12 1017 89 0 1.67 349 16:22 12.04.2020
5009 Clouds -12 1017 89 0 1.67 349 15:55 12.04.2020
5010 Clouds -12 1017 89 0 1.67 349 15:37 12.04.2020
5011 Clouds -9 1016 91 0 2.95 19 15:18 12.04.2020
5012 Clouds -9 1016 91 0 2.95 19 14:39 12.04.2020
5013 Clouds -8 1016 93 0 2.9 26 14:21 12.04.2020
5014 Clouds -8 1016 93 0 2.9 26 13:57 12.04.2020
5015 Clouds -8 1016 93 0 2.9 26 13:37 12.04.2020
5016 Clouds -8 1016 93 0 2.9 26 13:18 12.04.2020
5017 Clouds -8 1016 93 0 2.9 26 12:45 12.04.2020
5018 Snow -3 1012 94 0 3.89 32 12:21 12.04.2020
5019 Snow -3 1012 94 0 3.89 32 11:58 12.04.2020
5020 Snow -3 1012 94 0 3.89 32 11:38 12.04.2020
5021 Snow -3 1012 94 0 3.89 32 11:18 12.04.2020
5022 Snow -3 1012 94 0 3.89 32 10:56 12.04.2020
5023 Snow -3 1012 94 0 3.89 32 10:38 12.04.2020
5024 Snow -3 1012 94 0 3.89 32 10:19 12.04.2020
5025 Snow -3 1012 94 0 3.89 32 09:56 12.04.2020
5026 Snow -3 1012 94 0 3.89 32 09:37 12.04.2020
5027 Clouds 2 1009 83 0 1.86 307 09:19 12.04.2020
5028 Clouds 2 1009 83 0 1.86 307 08:50 12.04.2020
5029 Clouds 2 1009 83 0 1.86 307 08:30 12.04.2020
5030 Clouds 2 1009 83 0 1.86 307 07:47 12.04.2020
5031 Clouds 2 1009 83 0 1.86 307 07:19 12.04.2020
5032 Clouds 2 1009 83 0 1.86 307 06:54 12.04.2020
5033 Clouds 1 1009 86 0 2.06 262 06:26 12.04.2020
5034 Clouds 1 1009 86 0 2.06 262 05:42 12.04.2020
5035 Clouds 1 1009 86 0 2.06 262 04:26 12.04.2020
5036 Clouds 0 1009 87 0 3.97 229 03:29 12.04.2020
5037 Clouds 0 1009 87 0 3.97 229 02:48 12.04.2020
5038 Clouds 0 1009 87 0 5.45 233 02:27 12.04.2020
5039 Clouds 0 1009 87 0 5.45 233 01:23 12.04.2020
5040 Clouds 0 1009 87 0 5.45 233 00:43 12.04.2020
5041 Clouds -2 1010 94 0 4.69 208 00:21 12.04.2020
5042 Clouds -2 1010 94 0 4.69 208 23:58 11.04.2020
5043 Clouds -2 1010 94 0 4.69 208 23:40 11.04.2020
5044 Clouds -2 1010 94 0 4.69 208 23:22 11.04.2020
5045 Clouds -2 1010 94 0 4.69 208 22:38 11.04.2020
5046 Clouds -2 1010 94 0 4.69 208 22:20 11.04.2020
5047 Clouds -2 1010 94 0 4.69 208 21:55 11.04.2020
5048 Clouds -2 1010 94 0 4.69 208 21:36 11.04.2020
5049 Snow -3 1010 94 0 3.79 208 21:18 11.04.2020
5050 Snow -3 1010 94 0 3.79 208 20:56 11.04.2020
5051 Snow -3 1010 94 0 3.79 208 20:56 11.04.2020
5052 Snow -3 1010 94 0 3.79 208 20:37 11.04.2020
5053 Snow -3 1010 94 0 3.79 208 20:19 11.04.2020
5054 Snow -3 1010 94 0 3.79 208 20:19 11.04.2020
5055 Snow -3 1010 94 0 3.79 208 19:57 11.04.2020
5056 Snow -3 1010 94 0 3.79 208 19:38 11.04.2020
5057 Snow -3 1010 94 0 3.79 208 19:18 11.04.2020
5058 Snow -3 1010 94 0 3.79 208 18:55 11.04.2020
5059 Snow -3 1010 94 0 3.79 208 18:37 11.04.2020
5060 Clouds -3 1011 92 0 3.86 228 18:18 11.04.2020
5061 Clouds -3 1011 92 0 3.86 228 17:58 11.04.2020
5062 Clouds -3 1011 92 0 3.86 228 17:38 11.04.2020
5063 Clouds -3 1011 92 0 3.86 228 17:19 11.04.2020
5064 Clouds -3 1011 92 0 3.86 228 16:42 11.04.2020
5065 Clouds -3 1011 92 0 3.86 228 16:21 11.04.2020
5066 Clouds -3 1011 92 0 3.86 228 15:42 11.04.2020
5067 Clouds -1 1012 90 0 6.3 237 15:22 11.04.2020
5068 Clouds -1 1012 90 0 6.3 237 14:59 11.04.2020
5069 Clouds -1 1012 90 0 6.3 237 14:40 11.04.2020
5070 Clouds -1 1012 90 0 6.18 238 14:22 11.04.2020
5071 Clouds -1 1012 90 0 6.18 238 13:55 11.04.2020
5072 Clouds -1 1012 90 0 6.18 238 13:36 11.04.2020
5073 Clouds -1 1012 90 0 6.18 238 13:18 11.04.2020
5074 Clouds -1 1012 90 0 6.18 238 12:39 11.04.2020
5075 Clouds 1 1013 80 0 7.24 235 12:18 11.04.2020
5076 Clouds 1 1013 80 0 7.24 235 11:55 11.04.2020
5077 Clouds 1 1013 80 0 7.24 235 11:37 11.04.2020
5078 Clouds 1 1013 80 0 7.24 235 11:18 11.04.2020
5079 Clouds 1 1013 80 0 7.24 235 10:42 11.04.2020
5080 Clouds 1 1013 80 0 7.24 235 10:42 11.04.2020
5081 Clouds 1 1013 80 0 7.24 235 10:22 11.04.2020
5082 Clouds 1 1013 80 0 7.24 235 09:58 11.04.2020
5083 Clouds 1 1013 80 0 7.24 235 09:39 11.04.2020
5084 Clouds 2 1013 78 0 7.45 235 09:20 11.04.2020
5085 Clouds 2 1013 78 0 7.45 235 08:46 11.04.2020
5086 Clouds 2 1013 78 0 7.45 235 08:27 11.04.2020
5087 Clouds 2 1013 78 0 7.45 235 07:50 11.04.2020
5088 Clouds 2 1013 78 0 7.45 235 07:28 11.04.2020
5089 Clouds 2 1013 78 0 7.45 235 06:49 11.04.2020
5090 Clouds 1 1015 82 0 7.1 239 06:19 11.04.2020
5091 Clouds 1 1015 82 0 7.1 239 05:52 11.04.2020
5092 Clouds 1 1015 82 0 7.1 239 03:40 11.04.2020
5093 Clouds 0 1015 86 0 4.47 250 02:24 11.04.2020
5094 Clouds 0 1015 86 0 4.47 250 01:24 11.04.2020
5095 Clouds 0 1015 86 0 4.47 250 00:44 11.04.2020
5096 Clouds -4 1015 88 0 2.39 236 00:20 11.04.2020
5097 Clouds -4 1015 88 0 2.39 236 23:58 10.04.2020
5098 Clouds -4 1015 88 0 2.39 236 23:39 10.04.2020
5099 Clouds -4 1015 88 0 2.39 236 23:19 10.04.2020
5100 Clouds -4 1015 88 0 2.39 236 22:44 10.04.2020
5101 Clouds -4 1015 88 0 2.39 236 22:23 10.04.2020
5102 Clouds -4 1015 88 0 2.39 236 21:59 10.04.2020
5103 Clouds -4 1015 88 0 2.39 236 21:41 10.04.2020
5104 Clouds -5 1013 88 0 2.36 238 21:20 10.04.2020
5105 Clouds -5 1013 88 0 2.36 238 20:56 10.04.2020
5106 Clouds -5 1013 88 0 2.36 238 20:37 10.04.2020
5107 Clouds -5 1013 88 0 2.36 238 20:19 10.04.2020
5108 Clouds -5 1013 88 0 2.36 238 19:54 10.04.2020
5109 Clouds -5 1013 88 0 2.36 238 19:36 10.04.2020
5110 Clouds -5 1013 88 0 2.36 238 19:18 10.04.2020
5111 Clouds -5 1013 88 0 2.36 238 18:54 10.04.2020
5112 Clouds -5 1013 88 0 2.36 238 18:36 10.04.2020
5113 Clouds -3 1011 92 0 1.57 278 18:18 10.04.2020
5114 Clouds -3 1011 92 0 1.57 278 17:55 10.04.2020
5115 Clouds -3 1011 92 0 1.57 278 17:37 10.04.2020
5116 Clouds -3 1011 92 0 1.57 278 17:18 10.04.2020
5117 Clouds -3 1011 92 0 1.57 278 17:18 10.04.2020
5118 Clouds -3 1011 92 0 1.57 278 16:41 10.04.2020
5119 Clouds -3 1011 92 0 1.57 278 16:22 10.04.2020
5120 Clouds -3 1011 92 0 1.57 278 15:58 10.04.2020
5121 Clouds -3 1011 92 0 1.57 278 15:38 10.04.2020
5122 Clouds 2 1009 81 0 1.94 271 15:20 10.04.2020
5123 Clouds 2 1009 81 0 1.94 271 14:58 10.04.2020
5124 Clouds 2 1009 81 0 1.94 271 14:39 10.04.2020
5125 Clouds 2 1009 78 0 3.05 240 14:20 10.04.2020
5126 Clouds 2 1009 78 0 3.05 240 13:45 10.04.2020
5127 Clouds 2 1009 78 0 3.05 240 13:23 10.04.2020
5128 Clouds 2 1009 78 0 3.05 240 12:56 10.04.2020
5129 Clouds 2 1009 78 0 3.05 240 12:37 10.04.2020
5130 Clouds 4 1008 74 0 5.94 226 12:19 10.04.2020
5131 Clouds 4 1008 74 0 5.94 226 11:43 10.04.2020
5132 Clouds 4 1008 74 0 5.94 226 11:24 10.04.2020
5133 Clouds 4 1008 74 0 5.94 226 10:58 10.04.2020
5134 Clouds 4 1008 74 0 5.94 226 10:39 10.04.2020
5135 Clouds 4 1008 74 0 5.94 226 10:19 10.04.2020
5136 Clouds 4 1008 74 0 5.94 226 09:43 10.04.2020
5137 Clouds 4 1008 74 0 5.94 226 09:43 10.04.2020
5138 Clear 4 1008 89 0 6.71 197 09:22 10.04.2020
5139 Clear 4 1008 89 0 6.71 197 08:50 10.04.2020
5140 Clear 4 1008 89 0 6.71 197 08:27 10.04.2020
5141 Clear 4 1008 89 0 6.71 197 07:57 10.04.2020
5142 Clear 4 1008 89 0 6.71 197 07:39 10.04.2020
5143 Clear 4 1008 89 0 6.71 197 07:20 10.04.2020
5144 Clear 4 1008 89 0 6.71 197 06:39 10.04.2020
5145 Clear 3 1010 88 0 6.12 193 06:21 10.04.2020
5146 Clear 3 1010 88 0 6.12 193 05:33 10.04.2020
5147 Clear 3 1010 88 0 6.12 193 04:56 10.04.2020
5148 Clear 3 1010 88 0 6.12 193 03:36 10.04.2020
5149 Clear 3 1010 88 0 6.12 193 03:36 10.04.2020
5150 Clouds 1 1013 83 0 5.15 191 02:52 10.04.2020
5151 Clouds 1 1013 83 0 5.15 191 02:34 10.04.2020
5152 Clouds 1 1013 82 0 4.92 197 01:59 10.04.2020
5153 Clouds 1 1013 82 0 4.92 197 01:29 10.04.2020
5154 Clouds 1 1013 82 0 4.92 197 00:49 10.04.2020
5155 Clouds -5 1016 90 0 3.33 179 00:22 10.04.2020
5156 Clouds -5 1016 90 0 3.33 179 23:44 09.04.2020
5157 Clouds -5 1016 90 0 3.33 179 23:25 09.04.2020
5158 Clouds -5 1016 90 0 3.33 179 22:59 09.04.2020
5159 Clouds -5 1016 90 0 3.33 179 22:40 09.04.2020
5160 Clouds -5 1016 90 0 3.33 179 22:22 09.04.2020
5161 Clouds -5 1016 90 0 3.33 179 21:45 09.04.2020
5162 Clouds -5 1017 90 0 2.76 171 21:26 09.04.2020
5163 Clouds -6 1018 91 0 2.76 177 20:57 09.04.2020
5164 Clouds -6 1018 91 0 2.76 177 20:38 09.04.2020
5165 Clouds -6 1018 91 0 2.76 177 20:19 09.04.2020
5166 Clouds -6 1018 91 0 2.76 177 19:41 09.04.2020
5167 Clouds -6 1018 91 0 2.76 177 19:23 09.04.2020
5168 Clouds -6 1018 91 0 2.76 177 18:59 09.04.2020
5169 Clouds -6 1018 91 0 2.76 177 18:40 09.04.2020
5170 Clouds -4 1019 94 0 2.08 162 18:18 09.04.2020
5171 Clouds -4 1019 94 0 2.08 162 17:40 09.04.2020
5172 Clouds -4 1019 94 0 2.08 162 17:21 09.04.2020
5173 Clouds -4 1019 94 0 2.08 162 16:42 09.04.2020
5174 Clouds -4 1019 94 0 2.08 162 16:23 09.04.2020
5175 Clouds -4 1019 94 0 2.08 162 15:58 09.04.2020
5176 Clouds -4 1019 94 0 2.08 162 15:39 09.04.2020
5177 Clouds -4 1019 94 0 2.08 162 15:39 09.04.2020
5178 Clouds -4 1019 94 0 2.08 162 15:39 09.04.2020
5179 Clouds -4 1020 95 0 1.55 138 15:21 09.04.2020
5180 Clouds -4 1020 95 0 1.55 138 14:59 09.04.2020
5181 Clouds -4 1020 95 0 1.55 138 14:39 09.04.2020
5182 Clouds -2 1021 96 0 1.47 146 14:20 09.04.2020
5183 Clouds -2 1021 96 0 1.47 146 13:42 09.04.2020
5184 Clouds -2 1021 96 0 1.47 146 13:24 09.04.2020
5185 Clouds -2 1021 96 0 1.47 146 12:59 09.04.2020
5186 Clouds -2 1021 96 0 1.47 146 12:40 09.04.2020
5187 Clouds 0 1020 93 0 1.16 103 12:21 09.04.2020
5188 Clouds 0 1020 93 0 1.16 103 11:56 09.04.2020
5189 Clouds 0 1020 93 0 1.16 103 11:37 09.04.2020
5190 Clouds 0 1020 93 0 1.16 103 11:19 09.04.2020
5191 Clouds 0 1020 93 0 1.16 103 10:55 09.04.2020
5192 Clouds 0 1020 93 0 1.16 103 10:37 09.04.2020
5193 Clouds 0 1020 93 0 1.16 103 10:37 09.04.2020
5194 Clouds 0 1020 93 0 1.16 103 10:18 09.04.2020
5195 Clouds 0 1020 93 0 1.16 103 09:40 09.04.2020
5196 Clouds 0 1020 92 0 1.36 124 09:21 09.04.2020
5197 Clouds 0 1020 92 0 1.36 124 08:58 09.04.2020
5198 Clouds 0 1020 92 0 1.36 124 08:39 09.04.2020
5199 Clouds 0 1020 92 0 1.36 124 08:21 09.04.2020
5200 Clouds 0 1020 92 0 1.36 124 07:46 09.04.2020
5201 Clouds 0 1020 92 0 1.36 124 07:21 09.04.2020
5202 Clouds 0 1020 92 0 1.36 124 06:48 09.04.2020
5203 Clouds 0 1020 92 0 1.36 124 06:48 09.04.2020
5204 Clouds -1 1022 95 0 1.69 115 05:49 09.04.2020
5205 Clouds -1 1022 95 0 1.69 115 05:26 09.04.2020
5206 Clouds -4 1024 91 0 1.41 109 02:37 09.04.2020
5207 Clouds -4 1023 91 0 1.12 108 01:57 09.04.2020
5208 Clouds -4 1023 91 0 1.12 108 01:39 09.04.2020
5209 Clouds -4 1023 91 0 1.12 108 01:19 09.04.2020
5210 Clouds -4 1023 91 0 1.12 108 00:38 09.04.2020
5211 Clouds -7 1025 92 0 0.99 92 00:18 09.04.2020
5212 Clouds -7 1025 92 0 0.99 92 00:18 09.04.2020
5213 Clouds -7 1025 92 0 0.99 92 23:44 08.04.2020
5214 Clouds -7 1025 92 0 0.99 92 23:24 08.04.2020
5215 Clouds -7 1025 92 0 0.99 92 22:57 08.04.2020
5216 Clouds -7 1025 92 0 0.99 92 22:39 08.04.2020
5217 Clouds -7 1025 92 0 0.99 92 22:21 08.04.2020
5218 Clouds -7 1025 92 0 0.99 92 21:55 08.04.2020
5219 Clouds -7 1026 92 0 0.99 109 21:37 08.04.2020
5220 Clouds -8 1026 92 0 0.95 83 21:19 08.04.2020
5221 Clouds -8 1026 92 0 0.95 83 20:54 08.04.2020
5222 Clouds -8 1026 92 0 0.95 83 20:36 08.04.2020
5223 Clouds -8 1026 92 0 0.95 83 20:18 08.04.2020
5224 Clouds -8 1026 92 0 0.95 83 19:41 08.04.2020
5225 Clouds -8 1026 92 0 0.95 83 19:21 08.04.2020
5226 Clouds -8 1026 92 0 0.95 83 19:21 08.04.2020
5227 Clouds -8 1026 92 0 0.95 83 18:55 08.04.2020
5228 Clouds -8 1026 92 0 0.95 83 18:37 08.04.2020
5229 Clouds -8 1026 92 0 0.91 68 18:19 08.04.2020
5230 Clouds -8 1026 92 0 0.91 68 17:42 08.04.2020
5231 Clouds -8 1026 92 0 0.91 68 17:22 08.04.2020
5232 Clouds -8 1026 92 0 0.91 68 16:57 08.04.2020
5233 Clouds -8 1026 92 0 0.91 68 16:39 08.04.2020
5234 Clouds -8 1026 92 0 0.91 68 16:20 08.04.2020
5235 Clouds -8 1026 92 0 0.91 68 15:39 08.04.2020
5236 Clouds -7 1025 91 0 1.59 19 15:21 08.04.2020
5237 Clouds -7 1025 91 0 1.59 19 14:58 08.04.2020
5238 Clouds -7 1025 91 0 1.59 19 14:40 08.04.2020
5239 Clouds -6 1024 91 0 1.42 5 14:22 08.04.2020
5240 Clouds -6 1024 91 0 1.42 5 13:44 08.04.2020
5241 Clouds -6 1024 91 0 1.42 5 13:21 08.04.2020
5242 Clouds -6 1024 91 0 1.42 5 12:58 08.04.2020
5243 Clouds -6 1024 91 0 1.42 5 12:39 08.04.2020
5244 Snow 0 1021 88 0 4.8 30 12:18 08.04.2020
5245 Snow 0 1021 88 0 4.8 30 12:18 08.04.2020
5246 Snow 0 1021 88 0 4.8 30 11:42 08.04.2020
5247 Snow 0 1021 88 0 4.8 30 11:23 08.04.2020
5248 Snow 0 1021 88 0 4.8 30 10:58 08.04.2020
5249 Snow 0 1021 88 0 4.8 30 10:40 08.04.2020
5250 Snow 0 1021 88 0 4.8 30 10:21 08.04.2020
5251 Snow 0 1021 88 0 4.8 30 09:57 08.04.2020
5252 Snow 0 1021 88 0 4.8 30 09:39 08.04.2020
5253 Clouds 3 1018 84 0 5.68 271 09:19 08.04.2020
5254 Clouds 3 1018 84 0 5.68 271 08:57 08.04.2020
5255 Clouds 3 1018 84 0 5.68 271 08:38 08.04.2020
5256 Clouds 3 1018 84 0 5.68 271 08:20 08.04.2020
5257 Clouds 3 1018 84 0 5.68 271 07:42 08.04.2020
5258 Clouds 3 1018 84 0 5.68 271 07:21 08.04.2020
5259 Clouds 2 1017 89 0 2.74 253 06:28 08.04.2020
5260 Clouds 2 1017 89 0 2.74 253 04:55 08.04.2020
5261 Clouds 1 1017 85 0 2.59 222 02:50 08.04.2020
5262 Clouds 0 1017 87 0 2.71 217 02:21 08.04.2020
5263 Clouds 0 1017 87 0 2.71 217 01:56 08.04.2020
5264 Clouds 0 1017 87 0 2.71 217 01:28 08.04.2020
5265 Clouds 0 1017 87 0 2.71 217 00:47 08.04.2020
5266 Clouds -3 1017 91 0 3.38 200 00:25 08.04.2020
5267 Clouds -3 1017 91 0 3.38 200 23:56 07.04.2020
5268 Clouds -3 1017 91 0 3.38 200 23:37 07.04.2020
5269 Clouds -3 1017 91 0 3.38 200 23:18 07.04.2020
5270 Clouds -3 1017 91 0 3.38 200 22:54 07.04.2020
5271 Clouds -3 1017 91 0 3.38 200 22:54 07.04.2020
5272 Clouds -3 1017 91 0 3.38 200 22:36 07.04.2020
5273 Clouds -3 1017 91 0 3.38 200 22:18 07.04.2020
5274 Clouds -3 1017 91 0 3.38 200 21:42 07.04.2020
5275 Clouds -3 1016 91 0 4.94 202 21:21 07.04.2020
5276 Clouds -3 1016 91 0 4.94 202 20:59 07.04.2020
5277 Clouds -3 1016 91 0 4.94 202 20:40 07.04.2020
5278 Clouds -3 1016 91 0 4.94 202 20:21 07.04.2020
5279 Clouds -3 1016 91 0 4.94 202 19:57 07.04.2020
5280 Clouds -3 1016 91 0 4.94 202 19:38 07.04.2020
5281 Clouds -3 1016 91 0 4.94 202 19:19 07.04.2020
5282 Clouds -3 1016 91 0 4.94 202 18:58 07.04.2020
5283 Clouds -3 1016 91 0 4.94 202 18:40 07.04.2020
5284 Clouds -2 1016 90 0 6.37 215 18:20 07.04.2020
5285 Clouds -2 1016 90 0 6.37 215 17:47 07.04.2020
5286 Clouds -2 1016 90 0 6.37 215 17:24 07.04.2020
5287 Clouds -2 1016 90 0 6.37 215 16:55 07.04.2020
5288 Clouds -2 1016 90 0 6.37 215 16:55 07.04.2020
5289 Clouds -2 1016 90 0 6.37 215 16:37 07.04.2020
5290 Clouds -2 1016 90 0 6.37 215 16:19 07.04.2020
5291 Clouds -2 1016 90 0 6.37 215 15:42 07.04.2020
5292 Clouds -1 1016 90 0 6.92 218 15:24 07.04.2020
5293 Clouds -1 1016 90 0 6.92 218 14:43 07.04.2020
5294 Clouds -1 1016 90 0 6.92 218 14:23 07.04.2020
5295 Clouds -1 1016 90 0 6.85 216 13:58 07.04.2020
5296 Clouds -1 1016 90 0 6.85 216 13:39 07.04.2020
5297 Clouds -1 1016 90 0 6.85 216 13:19 07.04.2020
5298 Clouds -1 1016 90 0 6.85 216 12:56 07.04.2020
5299 Clouds -1 1016 90 0 6.85 216 12:37 07.04.2020
5300 Clouds 1 1016 84 0 6.44 200 12:19 07.04.2020
5301 Clouds 1 1016 84 0 6.44 200 11:45 07.04.2020
5302 Clouds 1 1016 84 0 6.44 200 11:27 07.04.2020
5303 Clouds 1 1016 84 0 6.44 200 10:59 07.04.2020
5304 Clouds 1 1016 84 0 6.44 200 10:39 07.04.2020
5305 Clouds 1 1016 84 0 6.44 200 10:39 07.04.2020
5306 Clouds 1 1016 84 0 6.44 200 10:39 07.04.2020
5307 Clouds 1 1016 84 0 6.44 200 10:20 07.04.2020
5308 Clouds 1 1016 84 0 6.44 200 09:54 07.04.2020
5309 Clouds 1 1016 84 0 6.44 200 09:36 07.04.2020
5310 Clouds 1 1018 87 0 5.4 199 09:18 07.04.2020
5311 Clouds 1 1018 87 0 5.4 199 08:39 07.04.2020
5312 Clouds 1 1018 87 0 5.4 199 08:20 07.04.2020
5313 Clouds 1 1018 87 0 5.4 199 07:44 07.04.2020
5314 Clouds 1 1018 87 0 5.4 199 07:44 07.04.2020
5315 Clouds 1 1018 87 0 5.4 199 07:26 07.04.2020
5316 Clouds 1 1018 87 0 5.4 199 07:26 07.04.2020
5317 Clouds 1 1018 87 0 5.4 199 06:52 07.04.2020
5318 Clouds -1 1020 93 0 4.54 201 06:26 07.04.2020
5319 Clouds -1 1020 93 0 4.54 201 05:54 07.04.2020
5320 Clouds -1 1020 93 0 4.54 201 05:25 07.04.2020
5321 Clouds -1 1020 93 0 4.54 201 04:18 07.04.2020
5322 Clear -4 1022 90 0 3.74 201 03:21 07.04.2020
5323 Clear -4 1022 90 0 3.74 201 02:45 07.04.2020
5324 Clear -4 1022 91 0 3.88 199 01:40 07.04.2020
5325 Clear -4 1022 91 0 3.88 199 01:21 07.04.2020
5326 Clear -9 1022 87 0 3.02 199 00:26 07.04.2020
5327 Clear -9 1022 87 0 3.02 199 23:43 06.04.2020
5328 Clear -9 1022 87 0 3.02 199 23:22 06.04.2020
5329 Clear -9 1022 87 0 3.02 199 22:55 06.04.2020
5330 Clear -9 1022 87 0 3.02 199 22:36 06.04.2020
5331 Clear -9 1022 87 0 3.02 199 22:18 06.04.2020
5332 Clear -9 1022 87 0 3.02 199 21:43 06.04.2020
5333 Clouds -8 1020 88 0 2.12 214 21:20 06.04.2020
5334 Clouds -8 1020 88 0 2.12 214 20:58 06.04.2020
5335 Clouds -8 1020 88 0 2.12 214 20:58 06.04.2020
5336 Clouds -8 1020 88 0 2.12 214 20:40 06.04.2020
5337 Clouds -8 1020 88 0 2.12 214 20:21 06.04.2020
5338 Clouds -8 1020 88 0 2.12 214 19:58 06.04.2020
5339 Clouds -8 1020 88 0 2.12 214 19:39 06.04.2020
5340 Clouds -8 1020 88 0 2.12 214 19:20 06.04.2020
5341 Clouds -8 1020 88 0 2.12 214 18:45 06.04.2020
5342 Clouds -8 1018 91 0 0.7 238 18:24 06.04.2020
5343 Clouds -8 1018 91 0 0.7 238 17:59 06.04.2020
5344 Clouds -8 1018 91 0 0.7 238 17:41 06.04.2020
5345 Clouds -8 1018 91 0 0.7 238 17:19 06.04.2020
5346 Clouds -8 1018 91 0 0.7 238 16:49 06.04.2020
5347 Clouds -8 1018 91 0 0.7 238 16:49 06.04.2020
5348 Clouds -8 1018 91 0 0.7 238 16:31 06.04.2020
5349 Clouds -8 1018 91 0 0.7 238 15:27 06.04.2020
5350 Clouds -8 1018 91 0 0.7 238 15:25 06.04.2020
5351 Clouds -4 1016 93 0 2.27 196 13:45 06.04.2020
5352 Clouds -4 1016 93 0 2.27 196 13:45 06.04.2020
5353 Clouds -4 1016 93 0 2.27 196 13:23 06.04.2020
5354 Clouds -4 1016 93 0 2.27 196 12:50 06.04.2020
5355 Clouds -4 1016 93 0 2.27 196 12:50 06.04.2020
5356 Clouds -4 1016 93 0 2.27 196 12:50 06.04.2020
5357 Clouds -4 1016 93 0 2.27 196 12:50 06.04.2020
5358 Clouds -4 1016 93 0 2.27 196 12:50 06.04.2020
5359 Clouds -4 1016 93 0 2.27 196 12:21 06.04.2020
5360 Clouds -4 1016 93 0 2.27 196 12:21 06.04.2020
5361 Clouds -2 1014 93 0 3.8 194 11:54 06.04.2020
5362 Clouds -2 1014 93 0 3.8 194 11:54 06.04.2020
5363 Clouds -2 1014 93 0 3.8 194 11:54 06.04.2020
5364 Clouds -2 1014 93 0 3.8 194 11:54 06.04.2020
5365 Clouds -2 1014 93 0 3.8 194 11:54 06.04.2020
5366 Clouds -2 1014 93 0 3.8 194 11:28 06.04.2020
5367 Clouds -2 1014 93 0 3.8 194 11:28 06.04.2020
5368 Clouds -2 1014 93 0 3.8 194 11:28 06.04.2020
5369 Clouds -2 1014 93 0 3.8 194 11:28 06.04.2020
5370 Clouds -2 1014 93 0 3.8 194 11:28 06.04.2020
5371 Clouds -2 1014 93 0 3.8 194 10:49 06.04.2020
5372 Clouds -2 1014 93 0 3.8 194 10:49 06.04.2020
5373 Clouds -2 1014 93 0 3.8 194 10:49 06.04.2020
5374 Clouds -2 1014 93 0 3.8 194 10:49 06.04.2020
5375 Clouds -2 1014 93 0 3.8 194 10:49 06.04.2020
5376 Clouds -2 1014 93 0 3.8 194 10:21 06.04.2020
5377 Clouds -2 1014 93 0 3.8 194 10:21 06.04.2020
5378 Clouds -2 1014 93 0 3.8 194 09:43 06.04.2020
5379 Clouds -2 1014 93 0 3.8 194 09:43 06.04.2020
5380 Clouds -3 1014 92 0 5.09 196 09:20 06.04.2020
5381 Clouds -3 1014 91 0 5.78 198 08:51 06.04.2020
5382 Clouds -3 1014 91 0 5.78 198 08:30 06.04.2020
5383 Clouds -3 1014 91 0 5.78 198 07:26 06.04.2020
5384 Clouds -3 1014 91 0 5.78 198 06:40 06.04.2020
5385 Clouds -3 1014 91 0 5.78 198 06:40 06.04.2020
5386 Clouds -6 1014 89 0 4.66 202 06:18 06.04.2020
5387 Clouds -6 1014 89 0 4.66 202 04:18 06.04.2020
5388 Clouds -9 1015 88 0 4.41 199 02:56 06.04.2020
5389 Clouds -9 1015 88 0 4.19 198 02:18 06.04.2020
5390 Clouds -9 1015 88 0 4.19 198 01:23 06.04.2020
5391 Clouds -9 1015 88 0 4.19 198 00:41 06.04.2020
5392 Clouds -9 1015 88 0 4.19 198 00:21 06.04.2020
5393 Clouds -9 1015 88 0 4.19 198 00:21 06.04.2020
5394 Clouds -9 1015 88 0 4.19 198 00:21 06.04.2020
5395 Clouds -9 1015 88 0 4.19 198 00:21 06.04.2020
5396 Clouds -13 1015 88 0 3.23 203 23:43 05.04.2020
5397 Clouds -13 1015 88 0 3.23 203 23:23 05.04.2020
5398 Clouds -13 1015 88 0 3.23 203 23:23 05.04.2020
5399 Clouds -13 1015 88 0 3.23 203 22:55 05.04.2020
5400 Clouds -13 1015 88 0 3.23 203 22:37 05.04.2020
5401 Clouds -13 1015 88 0 3.23 203 22:18 05.04.2020
5402 Clouds -13 1015 88 0 3.23 203 21:44 05.04.2020
5403 Clouds -13 1015 88 0 3.23 203 21:44 05.04.2020
5404 Clouds -14 1015 87 0 3.07 204 21:23 05.04.2020
5405 Clouds -12 1014 91 0 1.95 214 20:26 05.04.2020
5406 Clouds -12 1014 91 0 1.95 214 19:58 05.04.2020
5407 Clouds -12 1014 91 0 1.95 214 19:37 05.04.2020
5408 Clouds -12 1014 91 0 1.95 214 19:19 05.04.2020
5409 Clouds -12 1014 91 0 1.95 214 18:42 05.04.2020
5410 Clouds -12 1014 91 0 1.95 214 18:42 05.04.2020
5411 Clouds -12 1014 91 0 1.95 214 18:42 05.04.2020
5412 Clouds -12 1014 91 0 1.95 214 18:42 05.04.2020
5413 Clouds -12 1014 91 0 1.95 214 18:42 05.04.2020
5414 Clouds -8 1013 93 0 1.18 175 17:51 05.04.2020
5415 Clouds -8 1013 93 0 1.18 175 17:51 05.04.2020
5416 Clouds -8 1013 93 0 1.18 175 17:51 05.04.2020
5417 Clouds -8 1013 93 0 1.18 175 17:51 05.04.2020
5418 Clouds -8 1013 93 0 1.18 175 17:51 05.04.2020
5419 Clouds -8 1013 93 0 1.18 175 17:23 05.04.2020
5420 Clouds -8 1013 93 0 1.18 175 16:47 05.04.2020
5421 Clouds -8 1013 93 0 1.18 175 16:20 05.04.2020
5422 Clouds -8 1013 93 0 1.18 175 16:20 05.04.2020
5423 Clouds -8 1013 93 0 1.18 175 15:49 05.04.2020
5424 Clouds -8 1013 93 0 1.18 175 15:30 05.04.2020
5425 Snow -7 1011 94 0 0.56 192 14:48 05.04.2020
5426 Snow -8 1011 94 0 0.06 244 14:24 05.04.2020
5427 Snow -8 1011 94 0 0.06 244 13:41 05.04.2020
5428 Snow -8 1011 94 0 0.06 244 12:48 05.04.2020
5429 Snow -5 1009 95 0 0.43 242 11:41 05.04.2020
5430 Snow -5 1009 95 0 0.43 242 11:20 05.04.2020
5431 Snow -5 1009 95 0 0.43 242 11:20 05.04.2020
5432 Snow -5 1009 95 0 0.43 242 10:48 05.04.2020
5433 Snow -5 1009 95 0 0.43 242 10:24 05.04.2020
5434 Snow -5 1009 95 0 0.43 242 09:57 05.04.2020
5435 Snow -5 1009 95 0 0.43 242 09:31 05.04.2020
5436 Snow -5 1006 94 0 2.21 270 09:02 05.04.2020
5437 Snow -5 1006 94 0 2.21 270 09:01 05.04.2020
5438 Snow -5 1006 94 0 2.21 270 09:01 05.04.2020
5439 Snow -5 1006 94 0 2.21 270 07:25 05.04.2020
5440 Snow -7 1006 93 0 0.7 149 04:36 05.04.2020
5441 Snow -7 1006 93 0 0.7 149 03:31 05.04.2020
5442 Snow -9 1007 93 0 2.47 142 02:49 05.04.2020
5443 Snow -8 1006 93 0 2.67 145 01:47 05.04.2020
5444 Snow -8 1006 93 0 2.67 145 01:28 05.04.2020
5445 Snow -8 1006 93 0 2.67 145 00:44 05.04.2020
5446 Snow -8 1006 93 0 2.67 145 00:21 05.04.2020
5447 Clouds -11 1007 92 0 2.28 135 23:54 04.04.2020
5448 Clouds -11 1007 92 0 2.28 135 23:36 04.04.2020
5449 Clouds -11 1007 92 0 2.28 135 23:18 04.04.2020
5450 Clouds -11 1007 92 0 2.28 135 22:40 04.04.2020
5451 Clouds -11 1007 92 0 2.28 135 22:21 04.04.2020
5452 Clouds -11 1007 92 0 2.28 135 21:58 04.04.2020
5453 Clouds -11 1007 92 0 2.28 135 21:39 04.04.2020
5454 Clouds -12 1007 86 0 2.63 127 21:19 04.04.2020
5455 Clouds -12 1007 87 0 2.7 125 20:59 04.04.2020
5456 Clouds -12 1007 86 0 2.63 127 20:40 04.04.2020
5457 Clouds -12 1007 86 0 2.63 127 20:21 04.04.2020
5458 Clouds -12 1007 86 0 2.63 127 19:57 04.04.2020
5459 Clouds -12 1007 86 0 2.63 127 19:37 04.04.2020
5460 Clouds -12 1007 86 0 2.63 127 19:19 04.04.2020
5461 Clouds -12 1007 86 0 2.63 127 18:56 04.04.2020
5462 Clouds -12 1007 86 0 2.63 127 18:38 04.04.2020
5463 Clouds -10 1008 88 0 2.78 132 18:19 04.04.2020
5464 Clouds -10 1008 88 0 2.78 132 17:56 04.04.2020
5465 Clouds -10 1008 89 0 2.81 131 17:38 04.04.2020
5466 Clouds -10 1008 88 0 2.78 132 17:18 04.04.2020
5467 Clouds -10 1008 88 0 2.78 132 16:42 04.04.2020
5468 Clouds -10 1008 88 0 2.78 132 16:22 04.04.2020
5469 Clouds -10 1008 88 0 2.78 132 15:55 04.04.2020
5470 Clouds -10 1008 88 0 2.78 132 15:37 04.04.2020
5471 Clouds -11 1008 88 0 2.82 128 15:18 04.04.2020
5472 Clouds -11 1009 88 0 3.05 129 14:43 04.04.2020
5473 Clouds -11 1009 88 0 3.05 129 14:23 04.04.2020
5474 Clouds -11 1008 88 0 2.82 128 13:56 04.04.2020
5475 Clouds -11 1008 88 0 2.82 128 13:38 04.04.2020
5476 Clouds -11 1008 88 0 2.82 128 13:19 04.04.2020
5477 Clouds -11 1008 88 0 2.82 128 12:45 04.04.2020
5478 Clouds -11 1008 88 0 2.82 128 12:27 04.04.2020
5479 Clouds -8 1010 90 0 3.1 130 11:59 04.04.2020
5480 Clouds -8 1010 90 0 3.1 130 11:40 04.04.2020
5481 Clouds -8 1010 90 0 3.1 130 11:21 04.04.2020
5482 Clouds -8 1010 90 0 3.1 130 10:57 04.04.2020
5483 Clouds -8 1010 90 0 3.1 130 10:39 04.04.2020
5484 Clouds -8 1010 90 0 3.1 130 10:21 04.04.2020
5485 Clouds -8 1010 90 0 3.1 130 09:55 04.04.2020
5486 Clouds -8 1010 90 0 3.1 130 09:37 04.04.2020
5487 Clouds -8 1012 87 0 4.84 172 09:19 04.04.2020
5488 Clouds -8 1012 87 0 4.84 172 08:42 04.04.2020
5489 Clouds -8 1012 87 0 4.84 172 08:23 04.04.2020
5490 Clouds -8 1012 87 0 4.84 172 07:47 04.04.2020
5491 Clouds -8 1012 87 0 4.84 172 07:28 04.04.2020
5492 Clouds -8 1012 87 0 4.84 172 06:58 04.04.2020
5493 Clouds -8 1012 87 0 4.84 172 06:21 04.04.2020
5494 Clouds -11 1016 85 0 4.35 165 05:51 04.04.2020
5495 Clouds -11 1016 85 0 4.35 165 05:32 04.04.2020
5496 Clouds -11 1016 85 0 4.35 165 04:33 04.04.2020
5497 Clouds -11 1016 85 0 4.35 165 03:55 04.04.2020
5498 Clouds -11 1016 85 0 4.35 165 03:27 04.04.2020
5499 Clouds -16 1020 85 0 2.16 142 02:42 04.04.2020
5500 Clear -16 1020 85 0 2.32 145 02:24 04.04.2020
5501 Clear -16 1020 85 0 2.32 145 01:27 04.04.2020
5502 Clear -16 1020 85 0 2.32 145 00:57 04.04.2020
5503 Clear -16 1020 85 0 2.32 145 00:30 04.04.2020
5504 Clear -22 1024 84 0 1.67 142 23:56 03.04.2020
5505 Clear -22 1024 84 0 1.67 142 23:37 03.04.2020
5506 Clear -22 1024 84 0 1.67 142 23:18 03.04.2020
5507 Clear -22 1024 84 0 1.67 142 22:40 03.04.2020
5508 Clear -22 1024 84 0 1.67 142 22:19 03.04.2020
5509 Clear -22 1024 84 0 1.67 142 21:56 03.04.2020
5510 Clear -22 1024 84 0 1.67 142 21:56 03.04.2020
5511 Clear -22 1024 84 0 1.67 142 21:37 03.04.2020
5512 Clear -21 1026 86 0 1.77 134 21:19 03.04.2020
5513 Clear -21 1026 85 0 1.74 135 20:55 03.04.2020
5514 Clear -21 1026 85 0 1.74 135 20:36 03.04.2020
5515 Clear -21 1026 85 0 1.74 135 20:18 03.04.2020
5516 Clear -21 1026 85 0 1.74 135 19:54 03.04.2020
5517 Clear -21 1026 85 0 1.74 135 19:36 03.04.2020
5518 Clear -21 1026 85 0 1.74 135 19:36 03.04.2020
5519 Clear -21 1026 85 0 1.74 135 19:18 03.04.2020
5520 Clear -21 1026 85 0 1.74 135 19:18 03.04.2020
5521 Clear -21 1026 85 0 1.74 135 18:56 03.04.2020
5522 Clear -21 1026 85 0 1.74 135 18:38 03.04.2020
5523 Clear -19 1028 87 0 1.76 128 18:20 03.04.2020
5524 Clear -19 1028 87 0 1.76 128 17:40 03.04.2020
5525 Clear -19 1028 87 0 1.76 128 17:19 03.04.2020
5526 Clear -19 1028 87 0 1.76 128 16:55 03.04.2020
5527 Clear -19 1028 87 0 1.76 128 16:36 03.04.2020
5528 Clear -19 1028 87 0 1.76 128 16:18 03.04.2020
5529 Clear -19 1028 87 0 1.76 128 15:41 03.04.2020
5530 Clear -19 1028 87 0 1.76 128 15:22 03.04.2020
5531 Clouds -17 1029 87 0 1.7 137 14:58 03.04.2020
5532 Clouds -17 1029 87 0 1.7 137 14:40 03.04.2020
5533 Clouds -17 1029 87 0 1.7 137 14:22 03.04.2020
5534 Clouds -17 1029 87 0 1.68 136 13:46 03.04.2020
5535 Clouds -17 1029 87 0 1.68 136 13:27 03.04.2020
5536 Clouds -17 1029 87 0 1.68 136 12:58 03.04.2020
5537 Clouds -17 1029 87 0 1.68 136 12:40 03.04.2020
5538 Clouds -12 1028 88 0 1.34 137 12:18 03.04.2020
5539 Clouds -12 1028 88 0 1.34 137 11:56 03.04.2020
5540 Clouds -12 1028 88 0 1.34 137 11:37 03.04.2020
5541 Clouds -12 1028 88 0 1.34 137 11:18 03.04.2020
5542 Clouds -12 1028 88 0 1.34 137 10:57 03.04.2020
5543 Clouds -12 1028 88 0 1.34 137 10:57 03.04.2020
5544 Clouds -12 1028 88 0 1.34 137 10:38 03.04.2020
5545 Clouds -12 1028 88 0 1.34 137 10:20 03.04.2020
5546 Clouds -12 1028 88 0 1.34 137 10:20 03.04.2020
5547 Clouds -12 1028 88 0 1.34 137 09:56 03.04.2020
5548 Clouds -12 1028 88 0 1.34 137 09:38 03.04.2020
5549 Clouds -10 1028 85 0 1.06 180 09:20 03.04.2020
5550 Clouds -10 1028 85 0 1.06 180 08:45 03.04.2020
5551 Clouds -10 1028 85 0 1.06 180 08:25 03.04.2020
5552 Clouds -10 1028 85 0 1.06 180 07:59 03.04.2020
5553 Clouds -10 1028 85 0 1.06 180 07:40 03.04.2020
5554 Clouds -10 1028 85 0 1.06 180 07:22 03.04.2020
5555 Clouds -10 1028 85 0 1.06 180 06:29 03.04.2020
5556 Clouds -13 1029 85 0 0.82 219 05:43 03.04.2020
5557 Clouds -13 1029 85 0 0.82 219 04:30 03.04.2020
5558 Clouds -13 1029 85 0 0.82 219 03:35 03.04.2020
5559 Clouds -16 1029 87 0 0.63 215 02:40 03.04.2020
5560 Clouds -16 1029 87 0 0.7 210 01:27 03.04.2020
5561 Clouds -16 1029 87 0 0.7 210 00:56 03.04.2020
5562 Clouds -16 1029 87 0 0.7 210 00:33 03.04.2020
5563 Clouds -21 1028 87 0 0.34 236 23:57 02.04.2020
5564 Clouds -21 1028 87 0 0.34 236 23:38 02.04.2020
5565 Clouds -21 1028 87 0 0.34 236 23:19 02.04.2020
5566 Clouds -21 1028 87 0 0.34 236 22:42 02.04.2020
5567 Clouds -21 1028 87 0 0.34 236 22:42 02.04.2020
5568 Clouds -21 1028 87 0 0.34 236 22:23 02.04.2020
5569 Clouds -21 1028 87 0 0.34 236 21:59 02.04.2020
5570 Clouds -21 1028 87 0 0.34 236 21:59 02.04.2020
5571 Clouds -21 1028 87 0 0.34 236 21:37 02.04.2020
5572 Clear -22 1026 87 0 0.5 318 21:19 02.04.2020
5573 Clear -22 1026 87 0 0.5 318 20:54 02.04.2020
5574 Clear -22 1026 87 0 0.5 318 20:36 02.04.2020
5575 Clear -22 1026 87 0 0.5 318 20:18 02.04.2020
5576 Clear -22 1026 87 0 0.5 318 19:42 02.04.2020
5577 Clear -22 1026 87 0 0.5 318 19:20 02.04.2020
5578 Clear -22 1026 87 0 0.5 318 18:56 02.04.2020
5579 Clear -22 1026 87 0 0.5 318 18:38 02.04.2020
5580 Clear -21 1024 88 0 0.9 352 18:19 02.04.2020
5581 Clear -21 1024 88 0 0.9 352 17:44 02.04.2020
5582 Clear -21 1024 88 0 0.9 352 17:26 02.04.2020
5583 Clear -21 1024 88 0 0.9 352 16:59 02.04.2020
5584 Clear -21 1024 88 0 0.9 352 16:41 02.04.2020
5585 Clear -21 1024 88 0 0.9 352 16:22 02.04.2020
5586 Clear -21 1024 88 0 0.9 352 15:59 02.04.2020
5587 Clear -21 1024 88 0 0.9 352 15:40 02.04.2020
5588 Clouds -18 1022 88 0 1.61 1 15:20 02.04.2020
5589 Clouds -18 1022 88 0 1.61 1 14:58 02.04.2020
5590 Clouds -18 1022 88 0 1.61 1 14:39 02.04.2020
5591 Clouds -18 1021 88 0 1.76 0 14:19 02.04.2020
5592 Clouds -18 1021 88 0 1.76 0 13:55 02.04.2020
5593 Clouds -18 1021 88 0 1.76 0 13:37 02.04.2020
5594 Clouds -18 1021 88 0 1.76 0 13:19 02.04.2020
5595 Clouds -18 1021 88 0 1.76 0 12:47 02.04.2020
5596 Clouds -18 1021 88 0 1.76 0 12:21 02.04.2020
5597 Clouds -13 1018 89 0 2.29 7 11:58 02.04.2020
5598 Clouds -13 1018 89 0 2.29 7 11:40 02.04.2020
5599 Clouds -13 1018 89 0 2.29 7 11:39 02.04.2020
5600 Clouds -13 1018 89 0 2.29 7 11:21 02.04.2020
5601 Clouds -13 1018 89 0 2.29 7 10:57 02.04.2020
5602 Clouds -13 1018 89 0 2.29 7 10:39 02.04.2020
5603 Clouds -13 1018 89 0 2.29 7 10:21 02.04.2020
5604 Clouds -13 1018 89 0 2.29 7 09:59 02.04.2020
5605 Clouds -13 1018 89 0 2.29 7 09:41 02.04.2020
5606 Clouds -13 1018 89 0 2.29 7 09:23 02.04.2020
5607 Clouds -10 1014 88 0 3.17 17 08:57 02.04.2020
5608 Clouds -10 1014 88 0 3.17 17 08:38 02.04.2020
5609 Clouds -10 1014 88 0 3.17 17 08:19 02.04.2020
5610 Clouds -10 1014 88 0 3.17 17 07:42 02.04.2020
5611 Clouds -10 1014 88 0 3.17 17 07:19 02.04.2020
5612 Clouds -10 1014 88 0 3.17 17 06:26 02.04.2020
5613 Clouds -11 1013 88 0 2.58 7 05:59 02.04.2020
5614 Clouds -11 1013 88 0 2.58 7 05:41 02.04.2020
5615 Clouds -13 1011 88 0 1.62 322 02:46 02.04.2020
5616 Clouds -13 1011 88 0 1.53 326 01:28 02.04.2020
5617 Clouds -13 1011 88 0 1.53 326 00:42 02.04.2020
5618 Clouds -13 1011 88 0 1.53 326 00:24 02.04.2020
5619 Clouds -18 1009 87 0 1.12 307 23:41 01.04.2020
5620 Clouds -18 1009 87 0 1.12 307 23:20 01.04.2020
5621 Clouds -18 1009 87 0 1.12 307 22:58 01.04.2020
5622 Clouds -18 1009 87 0 1.12 307 22:58 01.04.2020
5623 Clouds -18 1009 87 0 1.12 307 22:39 01.04.2020
5624 Clouds -18 1009 87 0 1.12 307 22:21 01.04.2020
5625 Clouds -18 1009 87 0 1.12 307 22:21 01.04.2020
5626 Clouds -18 1009 87 0 1.12 307 21:42 01.04.2020
5627 Clouds -18 1009 87 0 1.12 307 21:42 01.04.2020
5628 Clouds -18 1009 87 0 1.12 307 21:22 01.04.2020
5629 Clouds -18 1009 88 0 1.19 300 21:22 01.04.2020
5630 Clouds -18 1009 88 0 1.19 300 21:22 01.04.2020
5631 Clouds -16 1006 89 0 1.16 290 20:58 01.04.2020
5632 Clouds -16 1006 89 0 1.16 290 20:40 01.04.2020
5633 Clouds -16 1006 89 0 1.16 290 20:21 01.04.2020
5634 Clouds -16 1006 89 0 1.16 290 20:00 01.04.2020
5635 Clouds -16 1006 89 0 1.16 290 19:41 01.04.2020
5636 Clouds -16 1006 89 0 1.16 290 19:21 01.04.2020
5637 Clouds -16 1006 89 0 1.16 290 18:46 01.04.2020
5638 Clouds -16 1006 89 0 1.16 290 18:26 01.04.2020
5639 Clouds -17 1004 89 0 1.08 294 17:58 01.04.2020
5640 Clouds -17 1004 89 0 1.08 294 17:38 01.04.2020
5641 Clouds -17 1004 89 0 1.08 294 17:20 01.04.2020
5642 Clouds -17 1004 89 0 1.08 294 16:59 01.04.2020
5643 Clouds -17 1004 89 0 1.08 294 16:40 01.04.2020
5644 Clouds -17 1004 89 0 1.08 294 16:22 01.04.2020
5645 Clouds -17 1004 89 0 1.08 294 15:58 01.04.2020
5646 Clouds -17 1004 89 0 1.08 294 15:38 01.04.2020
5647 Clouds -17 1004 89 0 1.08 294 15:38 01.04.2020
5648 Clouds -17 1004 89 0 1.08 294 15:20 01.04.2020
5649 Clouds -17 1002 90 0 0.92 279 14:57 01.04.2020
5650 Clouds -17 1002 90 0 0.92 279 14:38 01.04.2020
5651 Clouds -16 1002 90 0 0.97 282 14:19 01.04.2020
5652 Clouds -16 1002 90 0 0.97 282 13:57 01.04.2020
5653 Clouds -16 1002 90 0 0.97 282 13:37 01.04.2020
5654 Clouds -16 1002 90 0 0.97 282 13:18 01.04.2020
5655 Clouds -16 1002 90 0 0.97 282 12:54 01.04.2020
5656 Clouds -16 1002 90 0 0.97 282 12:36 01.04.2020
5657 Clouds -12 1000 91 0 0.92 309 12:18 01.04.2020
5658 Clouds -12 1000 91 0 0.92 309 11:40 01.04.2020
5659 Clouds -12 1000 91 0 0.92 309 11:21 01.04.2020
5660 Clouds -12 1000 91 0 0.92 309 10:57 01.04.2020
5661 Clouds -12 1000 91 0 0.92 309 10:37 01.04.2020
5662 Clouds -12 1000 91 0 0.92 309 10:18 01.04.2020
5663 Clouds -12 1000 91 0 0.92 309 09:54 01.04.2020
5664 Clouds -12 1000 91 0 0.92 309 09:36 01.04.2020
5665 Clouds -11 998 88 0 0.69 333 09:18 01.04.2020
5666 Clouds -11 998 88 0 0.69 333 08:40 01.04.2020
5667 Clouds -11 998 88 0 0.69 333 08:18 01.04.2020
5668 Clouds -11 998 88 0 0.69 333 07:42 01.04.2020
5669 Clouds -11 998 88 0 0.69 333 07:20 01.04.2020
5670 Clouds -11 998 88 0 0.69 333 06:47 01.04.2020
5671 Clouds -11 998 88 0 0.69 333 06:23 01.04.2020
5672 Clouds -13 997 87 0 0.51 338 05:55 01.04.2020
5673 Clouds -13 997 87 0 0.51 338 04:30 01.04.2020
5674 Clouds -13 997 87 0 0.51 338 03:28 01.04.2020
5675 Clouds -15 998 89 0 0.74 282 02:49 01.04.2020
5676 Clouds -15 997 89 0 0.8 279 01:56 01.04.2020
5677 Clouds -15 997 89 0 0.8 279 01:37 01.04.2020
5678 Clouds -15 997 89 0 0.8 279 01:18 01.04.2020
5679 Clouds -15 997 89 0 0.8 279 00:43 01.04.2020
5680 Clouds -20 998 89 0 0.16 112 00:18 01.04.2020
5681 Clouds -20 998 89 0 0.16 112 23:42 31.03.2020
5682 Clouds -20 998 89 0 0.16 112 23:23 31.03.2020
5683 Clouds -20 998 89 0 0.16 112 22:58 31.03.2020
5684 Clouds -20 998 89 0 0.16 112 22:37 31.03.2020
5685 Clouds -20 998 89 0 0.16 112 22:19 31.03.2020
5686 Clouds -20 998 89 0 0.16 112 21:56 31.03.2020
5687 Clouds -20 998 89 0 0.16 112 21:37 31.03.2020
5688 Clouds -18 997 90 0 0.36 265 21:19 31.03.2020
5689 Clouds -18 997 90 0 0.36 265 20:55 31.03.2020
5690 Clouds -18 997 90 0 0.36 265 20:36 31.03.2020
5691 Clouds -18 997 90 0 0.36 265 20:18 31.03.2020
5692 Clouds -18 997 90 0 0.36 265 19:41 31.03.2020
5693 Clouds -18 997 90 0 0.36 265 19:22 31.03.2020
5694 Clouds -18 997 90 0 0.36 265 18:56 31.03.2020
5695 Clouds -18 997 90 0 0.36 265 18:37 31.03.2020
5696 Clouds -17 997 91 0 0.2 3 18:18 31.03.2020
5697 Clouds -17 997 91 0 0.2 3 17:54 31.03.2020
5698 Clouds -17 997 91 0 0.2 3 17:36 31.03.2020
5699 Clouds -17 997 91 0 0.2 3 17:18 31.03.2020
5700 Clouds -17 997 91 0 0.2 3 16:39 31.03.2020
5701 Clouds -17 997 91 0 0.2 3 16:19 31.03.2020
5702 Clouds -17 997 91 0 0.2 3 15:57 31.03.2020
5703 Clouds -17 997 91 0 0.2 3 15:39 31.03.2020
5704 Clouds -17 997 91 0 0.2 3 15:20 31.03.2020
5705 Clouds -17 997 91 0 0.2 3 15:20 31.03.2020
5706 Clouds -15 996 91 0 1.04 18 14:57 31.03.2020
5707 Clouds -15 996 91 0 1.04 18 14:38 31.03.2020
5708 Clouds -15 996 91 0 1.32 17 14:20 31.03.2020
5709 Clouds -15 996 91 0 1.32 17 13:43 31.03.2020
5710 Clouds -15 996 91 0 1.32 17 13:20 31.03.2020
5711 Clouds -15 996 91 0 1.32 17 13:20 31.03.2020
5712 Clouds -15 996 91 0 1.32 17 13:20 31.03.2020
5713 Clouds -15 996 91 0 1.32 17 12:56 31.03.2020
5714 Clouds -15 996 91 0 1.32 17 12:38 31.03.2020
5715 Clouds -12 995 92 0 1.54 17 12:19 31.03.2020
5716 Clouds -12 995 92 0 1.54 17 11:39 31.03.2020
5717 Clouds -12 995 92 0 1.54 17 11:20 31.03.2020
5718 Clouds -12 995 92 0 1.54 17 10:58 31.03.2020
5719 Clouds -12 995 92 0 1.54 17 10:40 31.03.2020
5720 Clouds -12 995 92 0 1.54 17 10:21 31.03.2020
5721 Clouds -12 995 92 0 1.54 17 09:57 31.03.2020
5722 Clouds -12 995 92 0 1.54 17 09:39 31.03.2020
5723 Clouds -13 995 91 0 1.3 24 09:21 31.03.2020
5724 Clouds -10 994 84 0 0.56 148 08:57 31.03.2020
5725 Clouds -10 994 84 0 0.56 148 08:38 31.03.2020
5726 Clouds -10 994 84 0 0.56 148 08:19 31.03.2020
5727 Clouds -10 994 84 0 0.56 148 07:56 31.03.2020
5728 Clouds -10 994 84 0 0.56 148 07:37 31.03.2020
5729 Clouds -10 994 84 0 0.56 148 07:18 31.03.2020
5730 Clouds -10 994 84 0 0.56 148 06:43 31.03.2020
5731 Clouds -13 995 82 0 1.02 142 06:18 31.03.2020
5732 Clouds -13 995 82 0 1.02 142 05:39 31.03.2020
5733 Clouds -13 995 82 0 1.02 142 03:34 31.03.2020
5734 Clouds -15 996 85 0 1.21 182 01:54 31.03.2020
5735 Clouds -15 996 85 0 1.21 182 01:34 31.03.2020
5736 Clouds -15 996 85 0 1.21 182 00:47 31.03.2020
5737 Clouds -15 996 85 0 1.21 182 00:25 31.03.2020
5738 Clouds -18 998 87 0 1.07 183 23:42 30.03.2020
5739 Clouds -18 998 87 0 1.07 183 23:20 30.03.2020
5740 -273 0 0 0 0 0 22:59 30.03.2020
5741 Clouds -18 998 87 0 1.07 183 22:41 30.03.2020
5742 Clouds -18 998 87 0 1.07 183 22:22 30.03.2020
5743 Clouds -18 998 87 0 1.07 183 21:58 30.03.2020
5744 Clouds -18 998 87 0 1.07 183 21:39 30.03.2020
5745 Clouds -19 997 87 0 0.7 171 21:21 30.03.2020
5746 Clouds -18 998 88 0 0.74 206 20:59 30.03.2020
5747 Clouds -18 998 88 0 0.74 206 20:39 30.03.2020
5748 Clouds -18 998 88 0 0.74 206 20:21 30.03.2020
5749 Clouds -18 998 88 0 0.74 206 19:58 30.03.2020
5750 Clouds -18 998 88 0 0.74 206 19:39 30.03.2020
5751 Clouds -18 998 88 0 0.74 206 19:21 30.03.2020
5752 Clouds -18 998 88 0 0.74 206 18:56 30.03.2020
5753 Clouds -18 998 88 0 0.74 206 18:36 30.03.2020
5754 Clouds -19 998 88 0 0.94 184 18:18 30.03.2020
5755 Clouds -19 998 88 0 0.94 184 17:55 30.03.2020
5756 Clouds -19 998 88 0 0.94 184 17:36 30.03.2020
5757 Clouds -19 998 88 0 0.94 184 17:18 30.03.2020
5758 Clouds -19 998 88 0 0.94 184 16:41 30.03.2020
5759 Clouds -19 998 88 0 0.94 184 16:21 30.03.2020
5760 Clouds -19 998 88 0 0.94 184 16:21 30.03.2020
5761 Clouds -19 998 88 0 0.94 184 15:57 30.03.2020
5762 Clouds -19 998 88 0 0.94 184 15:39 30.03.2020
5763 Clouds -19 998 88 0 0.94 184 15:21 30.03.2020
5764 Clouds -16 999 89 0 1.13 146 14:58 30.03.2020
5765 Clouds -16 999 89 0 1.13 146 14:38 30.03.2020
5766 Clouds -16 999 89 0 1.11 145 14:19 30.03.2020
5767 Clouds -16 999 89 0 1.13 146 14:19 30.03.2020
5768 Clouds -16 999 89 0 1.11 145 13:58 30.03.2020
5769 Clouds -16 999 89 0 1.11 145 13:39 30.03.2020
5770 Clouds -16 999 89 0 1.11 145 13:20 30.03.2020
5771 Clouds -16 999 89 0 1.11 145 12:45 30.03.2020
5772 Clouds -16 999 89 0 1.11 145 12:45 30.03.2020
5773 Clouds -16 999 89 0 1.11 145 12:22 30.03.2020
5774 Clouds -12 998 90 0 0.9 207 11:59 30.03.2020
5775 Clouds -12 998 90 0 0.9 207 11:41 30.03.2020
5776 Clouds -12 998 90 0 0.9 207 11:22 30.03.2020
5777 Clouds -12 998 90 0 0.9 207 10:57 30.03.2020
5778 Clouds -12 998 90 0 0.9 207 10:37 30.03.2020
5779 Clouds -12 998 90 0 0.9 207 10:19 30.03.2020
5780 Clouds -12 998 90 0 0.9 207 09:41 30.03.2020
5781 Clouds -11 996 87 0 1.86 217 09:20 30.03.2020
5782 Clouds -11 996 87 0 1.86 217 08:58 30.03.2020
5783 Clouds -11 996 87 0 1.86 217 08:38 30.03.2020
5784 Clouds -11 996 87 0 1.86 217 08:20 30.03.2020
5785 Clouds -11 996 87 0 1.86 217 07:44 30.03.2020
5786 Clouds -11 996 87 0 1.86 217 07:23 30.03.2020
5787 Clouds -11 996 87 0 1.86 217 06:47 30.03.2020
5788 Clouds -11 996 87 0 1.86 217 06:27 30.03.2020
5789 Clouds -13 996 88 0 1.93 221 05:44 30.03.2020
5790 Clouds -13 996 88 0 1.93 221 04:37 30.03.2020
5791 Clouds -13 996 88 0 1.93 221 04:18 30.03.2020
5792 Clouds -16 996 89 0 1.6 233 02:52 30.03.2020
5793 Clouds -15 996 89 0 1.59 236 01:58 30.03.2020
5794 Clouds -15 996 89 0 1.59 236 01:18 30.03.2020
5795 Clouds -15 996 89 0 1.59 236 00:29 30.03.2020
5796 Clouds -18 996 89 0 1.21 255 23:59 29.03.2020
5797 Clouds -18 996 89 0 1.21 255 23:40 29.03.2020
5798 Clouds -18 996 89 0 1.21 255 23:21 29.03.2020
5799 Clouds -18 996 89 0 1.21 255 22:55 29.03.2020
5800 Clouds -18 996 89 0 1.21 255 22:37 29.03.2020
5801 Clouds -18 996 89 0 1.21 255 22:18 29.03.2020
5802 Clouds -18 996 89 0 1.21 255 21:40 29.03.2020
5803 Clouds -20 996 88 0 1.22 257 21:21 29.03.2020
5804 Clouds -18 995 89 0 1.29 271 20:56 29.03.2020
5805 Clouds -18 995 89 0 1.29 271 20:38 29.03.2020
5806 Clouds -18 995 89 0 1.29 271 20:19 29.03.2020
5807 Clouds -18 995 89 0 1.29 271 20:19 29.03.2020
5808 Clouds -18 995 89 0 1.29 271 19:59 29.03.2020
5809 Clouds -18 995 89 0 1.29 271 19:41 29.03.2020
5810 Clouds -18 995 89 0 1.29 271 19:23 29.03.2020
5811 Clouds -18 995 89 0 1.29 271 18:57 29.03.2020
5812 Clouds -18 995 89 0 1.29 271 18:39 29.03.2020
5813 Clouds -18 994 89 0 1.08 276 18:20 29.03.2020
5814 Clouds -18 994 89 0 1.08 276 17:56 29.03.2020
5815 Clouds -18 994 89 0 1.08 276 17:38 29.03.2020
5816 Clouds -18 994 89 0 1.08 276 17:20 29.03.2020
5817 Clouds -18 994 89 0 1.08 276 16:57 29.03.2020
5818 Clouds -18 994 89 0 1.08 276 16:39 29.03.2020
5819 Clouds -18 994 89 0 1.08 276 16:20 29.03.2020
5820 Clouds -18 994 89 0 1.08 276 15:43 29.03.2020
5821 Clouds -18 994 89 0 1.08 276 15:25 29.03.2020
5822 Clouds -17 994 89 0 1.31 274 14:59 29.03.2020
5823 Clouds -17 994 89 0 1.31 274 14:40 29.03.2020
5824 Clouds -17 994 89 0 1.31 274 14:21 29.03.2020
5825 Clouds -17 993 89 0 1.34 282 13:59 29.03.2020
5826 Clouds -17 993 89 0 1.34 282 13:41 29.03.2020
5827 Clouds -17 993 89 0 1.34 282 13:21 29.03.2020
5828 Clouds -17 993 89 0 1.34 282 12:58 29.03.2020
5829 Clouds -17 993 89 0 1.34 282 12:39 29.03.2020
5830 Clouds -12 992 91 0 2.08 299 12:19 29.03.2020
5831 Clouds -12 992 91 0 2.08 299 11:57 29.03.2020
5832 Clouds -12 992 91 0 2.08 299 11:57 29.03.2020
5833 Clouds -12 992 91 0 2.08 299 11:37 29.03.2020
5834 Clouds -12 992 91 0 2.08 299 11:19 29.03.2020
5835 Clouds -12 992 91 0 2.08 299 10:39 29.03.2020
5836 Clouds -12 992 91 0 2.08 299 10:20 29.03.2020
5837 Clouds -12 992 91 0 2.08 299 09:55 29.03.2020
5838 Clouds -12 992 91 0 2.08 299 09:55 29.03.2020
5839 Clouds -12 992 91 0 2.08 299 09:37 29.03.2020
5840 Clouds -10 991 90 0 3.19 295 09:18 29.03.2020
5841 Clouds -10 991 90 0 3.19 295 08:43 29.03.2020
5842 Clouds -10 991 90 0 3.19 295 08:24 29.03.2020
5843 Clouds -10 991 90 0 3.19 295 07:47 29.03.2020
5844 Clouds -10 991 90 0 3.19 295 07:23 29.03.2020
5845 Clouds -10 991 90 0 3.19 295 06:34 29.03.2020
5846 Clouds -12 992 88 0 1.43 297 04:56 29.03.2020
5847 Clouds -12 992 88 0 1.43 297 03:41 29.03.2020
5848 Clouds -14 993 90 0 1.26 282 03:20 29.03.2020
5849 Clouds -14 993 90 0 1.26 282 01:43 29.03.2020
5850 Clouds -14 993 90 0 1.26 282 01:22 29.03.2020
5851 Clouds -14 994 90 0 1.27 282 00:45 29.03.2020
5852 Clouds -14 994 90 0 1.27 282 00:27 29.03.2020
5853 Clouds -14 994 90 0 1.27 282 23:41 28.03.2020
5854 Clouds -14 994 90 0 1.27 282 23:22 28.03.2020
5855 Clouds -17 994 90 0 0.23 194 22:54 28.03.2020
5856 Clouds -17 994 90 0 0.23 194 22:36 28.03.2020
5857 Clouds -17 994 90 0 0.23 194 22:18 28.03.2020
5858 Clouds -17 994 90 0 0.23 194 21:40 28.03.2020
5859 Clouds -17 994 90 0 0.23 194 21:21 28.03.2020
5860 Clouds -17 994 90 0 0.23 194 20:58 28.03.2020
5861 Clouds -17 994 90 0 0.23 194 20:38 28.03.2020
5862 Clouds -18 994 90 0 0.23 132 20:20 28.03.2020
5863 Clouds -18 994 90 0 0.23 132 19:56 28.03.2020
5864 Clouds -18 994 90 0 0.23 132 19:36 28.03.2020
5865 Clouds -18 994 90 0 0.23 132 19:36 28.03.2020
5866 Clouds -18 994 90 0 0.23 132 19:18 28.03.2020
5867 Clouds -18 994 90 0 0.23 132 18:42 28.03.2020
5868 Clouds -18 994 90 0 0.23 132 18:22 28.03.2020
5869 Clouds -18 994 90 0 0.23 132 17:56 28.03.2020
5870 Clouds -18 994 90 0 0.23 132 17:36 28.03.2020
5871 Clouds -17 994 90 0 0.93 176 17:18 28.03.2020
5872 Clouds -17 994 90 0 0.93 176 16:42 28.03.2020
5873 Clouds -17 994 90 0 0.93 176 16:20 28.03.2020
5874 Clouds -17 994 90 0 0.93 176 15:55 28.03.2020
5875 Clouds -17 994 90 0 0.93 176 15:37 28.03.2020
5876 Clouds -17 994 90 0 0.93 176 15:18 28.03.2020
5877 Clouds -17 994 90 0 0.93 176 14:42 28.03.2020
5878 Clouds -17 994 90 0 0.93 176 14:22 28.03.2020
5879 Clouds -15 994 91 0 0.97 186 13:55 28.03.2020
5880 Clouds -15 994 91 0 0.97 186 13:36 28.03.2020
5881 Clouds -15 994 91 0 0.97 186 13:18 28.03.2020
5882 Clouds -17 994 91 0 0.96 177 12:37 28.03.2020
5883 Clouds -17 994 91 0 0.96 177 12:19 28.03.2020
5884 Clouds -17 994 91 0 0.96 177 11:42 28.03.2020
5885 Clouds -17 994 91 0 0.96 177 11:21 28.03.2020
5886 Clouds -13 993 91 0 0.45 115 10:43 28.03.2020
5887 Clouds -13 993 91 0 0.45 115 10:24 28.03.2020
5888 Clouds -13 993 91 0 0.45 115 09:59 28.03.2020
5889 Clouds -13 993 91 0 0.45 115 09:40 28.03.2020
5890 Clouds -13 993 91 0 0.45 115 09:21 28.03.2020
5891 Clouds -13 993 91 0 0.45 115 08:43 28.03.2020
5892 Clouds -13 993 91 0 0.45 115 08:24 28.03.2020
5893 Clouds -12 994 88 0 0.85 240 07:53 28.03.2020
5894 Clouds -12 994 88 0 0.85 240 07:35 28.03.2020
5895 Clouds -12 994 88 0 0.85 240 06:52 28.03.2020
5896 Clouds -12 994 88 0 0.85 240 06:26 28.03.2020
5897 Clouds -12 994 88 0 0.85 240 05:30 28.03.2020
5898 Clouds -12 994 88 0 0.85 240 05:30 28.03.2020
5899 Clouds -14 995 87 0 0.37 290 04:58 28.03.2020
5900 Clouds -14 995 87 0 0.37 290 04:39 28.03.2020
5901 Clouds -14 995 87 0 0.37 290 02:51 28.03.2020
5902 Clouds -16 998 88 0 1.15 43 01:48 28.03.2020
5903 Clouds -16 998 88 0 1.15 43 01:23 28.03.2020
5904 Clouds -16 997 88 0 1.12 44 00:51 28.03.2020
5905 Clouds -16 997 88 0 1.12 44 00:25 28.03.2020
5906 Clouds -16 997 88 0 1.12 44 23:44 27.03.2020
5907 Clouds -16 997 88 0 1.12 44 23:26 27.03.2020
5908 Clouds -19 999 89 0 0.68 30 22:57 27.03.2020
5909 Clouds -19 999 89 0 0.68 30 22:39 27.03.2020
5910 Clouds -19 999 89 0 0.68 30 22:20 27.03.2020
5911 Clouds -19 999 89 0 0.68 30 21:58 27.03.2020
5912 Clouds -19 999 89 0 0.68 30 21:40 27.03.2020
5913 Clouds -19 999 89 0 0.68 30 21:22 27.03.2020
5914 Clouds -19 999 89 0 0.68 30 21:22 27.03.2020
5915 Clouds -19 999 89 0 0.68 30 20:57 27.03.2020
5916 Clouds -19 999 89 0 0.68 30 20:38 27.03.2020
5917 Clouds -20 1002 89 0 0.47 40 20:19 27.03.2020
5918 Clouds -20 1002 89 0 0.47 40 19:54 27.03.2020
5919 Clouds -20 1002 89 0 0.47 40 19:54 27.03.2020
5920 Clouds -20 1002 89 0 0.47 40 19:36 27.03.2020
5921 Clouds -20 1002 89 0 0.47 40 19:18 27.03.2020
5922 Clouds -20 1002 89 0 0.47 40 18:42 27.03.2020
5923 Clouds -20 1002 89 0 0.47 40 18:22 27.03.2020
5924 Clouds -20 1002 89 0 0.47 40 17:54 27.03.2020
5925 Clouds -20 1002 89 0 0.47 40 17:54 27.03.2020
5926 Clouds -20 1002 89 0 0.47 40 17:36 27.03.2020
5927 Clouds -20 1004 89 0 0.38 71 17:18 27.03.2020
5928 Clouds -20 1004 89 0 0.38 71 16:42 27.03.2020
5929 Clouds -20 1004 89 0 0.38 71 16:23 27.03.2020
5930 Clouds -20 1004 89 0 0.38 71 15:44 27.03.2020
5931 Clouds -20 1004 89 0 0.38 71 15:26 27.03.2020
5932 Clouds -20 1004 89 0 0.38 71 14:56 27.03.2020
5933 Clouds -20 1004 89 0 0.38 71 14:36 27.03.2020
5934 Clouds -18 1006 89 0 0.65 104 14:18 27.03.2020
5935 Clouds -18 1006 89 0 0.65 104 13:42 27.03.2020
5936 Clouds -18 1006 89 0 0.65 104 13:22 27.03.2020
5937 Clouds -17 1006 89 0 0.78 102 12:59 27.03.2020
5938 Clouds -17 1006 89 0 0.78 102 12:39 27.03.2020
5939 Clouds -17 1006 89 0 0.78 102 12:19 27.03.2020
5940 Clouds -17 1006 89 0 0.78 102 11:42 27.03.2020
5941 Clouds -17 1006 89 0 0.78 102 11:24 27.03.2020
5942 Clouds -16 1007 89 0 0.57 129 10:56 27.03.2020
5943 Clouds -16 1007 89 0 0.57 129 10:38 27.03.2020
5944 Clouds -16 1007 89 0 0.57 129 10:20 27.03.2020
5945 Clouds -16 1007 89 0 0.57 129 09:58 27.03.2020
5946 Clouds -16 1007 89 0 0.57 129 09:38 27.03.2020
5947 Clouds -16 1007 89 0 0.57 129 09:20 27.03.2020
5948 Clouds -16 1007 89 0 0.57 129 08:57 27.03.2020
5949 Clouds -16 1007 89 0 0.57 129 08:39 27.03.2020
5950 Clouds -16 1007 89 0 0.57 129 08:20 27.03.2020
5951 Clouds -14 1008 85 0 0.92 205 07:52 27.03.2020
5952 Clouds -14 1008 85 0 0.92 205 07:26 27.03.2020
5953 Clouds -14 1008 85 0 0.92 205 06:55 27.03.2020
5954 Clouds -14 1008 85 0 0.92 205 06:37 27.03.2020
5955 Clouds -14 1008 85 0 0.92 205 05:37 27.03.2020
5956 Clouds -16 1011 84 0 1.14 187 02:50 27.03.2020
5957 Snow -18 1013 87 0 0.79 26 01:50 27.03.2020
5958 Snow -18 1013 87 0 0.79 21 00:55 27.03.2020
5959 Snow -18 1013 87 0 0.79 21 00:32 27.03.2020
5960 Snow -18 1013 87 0 0.79 21 23:44 26.03.2020
5961 Snow -18 1013 87 0 0.79 21 23:24 26.03.2020
5962 Snow -19 1015 89 0 0.95 336 22:59 26.03.2020
5963 Snow -19 1015 89 0 0.95 336 22:59 26.03.2020
5964 Snow -19 1015 89 0 0.95 336 22:39 26.03.2020
5965 Snow -19 1015 89 0 0.95 336 22:20 26.03.2020
5966 Snow -19 1015 89 0 0.95 336 21:59 26.03.2020
5967 Snow -19 1015 89 0 0.95 336 21:39 26.03.2020
5968 Snow -19 1015 89 0 0.95 336 21:21 26.03.2020
5969 Snow -19 1015 89 0 0.95 336 20:58 26.03.2020
5970 Snow -19 1015 89 0 0.95 336 20:38 26.03.2020
5971 Snow -18 1016 89 0 2.31 9 20:20 26.03.2020
5972 Snow -18 1016 89 0 2.31 9 19:56 26.03.2020
5973 Snow -18 1016 89 0 2.31 9 19:38 26.03.2020
5974 Snow -18 1016 89 0 2.31 9 19:20 26.03.2020
5975 Snow -18 1016 89 0 2.31 9 18:57 26.03.2020
5976 Snow -18 1016 89 0 2.31 9 18:39 26.03.2020
5977 Snow -18 1016 89 0 2.31 9 18:21 26.03.2020
5978 Snow -18 1016 89 0 2.31 9 17:43 26.03.2020
5979 Clouds -19 1019 87 0 1.99 14 17:19 26.03.2020
5980 Clouds -19 1019 87 0 1.99 14 16:47 26.03.2020
5981 Clouds -19 1019 87 0 1.99 14 16:28 26.03.2020
5982 Clouds -19 1019 87 0 1.99 14 15:59 26.03.2020
5983 Clouds -19 1019 87 0 1.99 14 15:41 26.03.2020
5984 Clouds -19 1019 87 0 1.99 14 15:22 26.03.2020
5985 Clouds -19 1019 87 0 1.99 14 14:58 26.03.2020
5986 Clouds -19 1019 87 0 1.99 14 14:39 26.03.2020
5987 Clouds -20 1023 87 0 2.58 6 14:19 26.03.2020
5988 Clouds -20 1023 87 0 2.58 6 13:44 26.03.2020
5989 Clouds -20 1023 87 0 2.58 6 13:24 26.03.2020
5990 Clouds -19 1022 87 0 3.03 7 12:58 26.03.2020
5991 Clouds -19 1022 87 0 3.03 7 12:38 26.03.2020
5992 Clouds -19 1022 87 0 3.03 7 12:20 26.03.2020
5993 Clouds -19 1022 87 0 3.03 7 11:45 26.03.2020
5994 Clouds -19 1022 87 0 3.03 7 11:22 26.03.2020
5995 Clouds -19 1024 87 0 1.54 26 10:56 26.03.2020
5996 Clouds -19 1024 87 0 1.54 26 10:37 26.03.2020
5997 Clouds -19 1024 87 0 1.54 26 10:19 26.03.2020
5998 Clouds -19 1024 87 0 1.54 26 09:44 26.03.2020
5999 Clouds -19 1024 87 0 1.54 26 09:20 26.03.2020
6000 Clouds -19 1024 87 0 1.54 26 08:55 26.03.2020
6001 Clouds -19 1024 87 0 1.54 26 08:37 26.03.2020
6002 Clouds -16 1026 85 0 1.63 50 08:18 26.03.2020
6003 Clouds -16 1026 84 0 1.33 65 07:44 26.03.2020
6004 Clouds -16 1026 84 0 1.33 65 07:21 26.03.2020
6005 Clouds -16 1026 84 0 1.33 65 06:56 26.03.2020
6006 Clouds -16 1026 84 0 1.33 65 05:59 26.03.2020
6007 Clouds -19 1027 83 0 0.78 53 04:33 26.03.2020
6008 Clouds -19 1027 83 0 0.78 53 03:44 26.03.2020
6009 Clouds -19 1027 83 0 0.78 53 02:55 26.03.2020
6010 Clear -22 1029 84 0 0.22 316 01:50 26.03.2020
6011 Clear -22 1029 84 0 0.36 341 00:53 26.03.2020
6012 Clear -22 1029 84 0 0.36 341 00:20 26.03.2020
6013 Clear -22 1029 84 0 0.36 341 23:40 25.03.2020
6014 Clear -28 1028 84 0 0.34 49 23:20 25.03.2020
6015 Clear -28 1028 84 0 0.34 49 22:40 25.03.2020
6016 Clear -28 1028 84 0 0.34 49 22:21 25.03.2020
6017 Clear -28 1028 84 0 0.34 49 21:56 25.03.2020
6018 Clear -28 1028 84 0 0.34 49 21:38 25.03.2020
6019 Clear -28 1028 84 0 0.34 49 21:19 25.03.2020
6020 Clear -28 1028 84 0 0.34 49 20:55 25.03.2020
6021 Clear -28 1028 84 0 0.34 49 20:37 25.03.2020
6022 Clear -27 1027 85 0 0.57 309 20:18 25.03.2020
6023 Clear -27 1027 85 0 0.57 309 19:43 25.03.2020
6024 Clear -27 1027 85 0 0.57 309 19:43 25.03.2020
6025 Clear -27 1027 85 0 0.57 309 19:23 25.03.2020
6026 Clear -27 1027 85 0 0.57 309 18:58 25.03.2020
6027 Clear -27 1027 85 0 0.57 309 18:40 25.03.2020
6028 Clear -27 1027 85 0 0.57 309 18:21 25.03.2020
6029 Clear -27 1027 85 0 0.57 309 17:55 25.03.2020
6030 Clouds -27 1026 85 0 0.78 304 17:37 25.03.2020
6031 Clouds -25 1025 85 0 0.86 340 17:19 25.03.2020
6032 Clouds -25 1025 85 0 0.86 340 16:43 25.03.2020
6033 Clouds -25 1025 85 0 0.86 340 16:24 25.03.2020
6034 Clouds -25 1025 85 0 0.86 340 15:59 25.03.2020
6035 Clouds -25 1025 85 0 0.86 340 15:40 25.03.2020
6036 Clouds -25 1025 85 0 0.86 340 15:19 25.03.2020
6037 Clouds -25 1025 85 0 0.86 340 14:42 25.03.2020
6038 Clouds -25 1025 85 0 0.86 340 14:22 25.03.2020
6039 Clouds -22 1022 86 0 1.5 0 13:59 25.03.2020
6040 Clouds -22 1022 86 0 1.5 0 13:41 25.03.2020
6041 Clouds -23 1023 86 0 1.19 6 13:22 25.03.2020
6042 Clouds -22 1022 86 0 1.5 0 12:38 25.03.2020
6043 Clouds -22 1022 86 0 1.5 0 12:19 25.03.2020
6044 Clouds -22 1022 86 0 1.5 0 11:55 25.03.2020
6045 Clouds -22 1022 86 0 1.5 0 11:36 25.03.2020
6046 Clouds -18 1019 88 0 1.26 6 11:18 25.03.2020
6047 Clouds -18 1019 88 0 1.26 6 10:56 25.03.2020
6048 Clouds -18 1019 88 0 1.26 6 10:37 25.03.2020
6049 Clouds -18 1019 88 0 1.26 6 10:18 25.03.2020
6050 Clouds -18 1019 88 0 1.26 6 09:42 25.03.2020
6051 Clouds -18 1019 88 0 1.26 6 09:23 25.03.2020
6052 Clouds -18 1019 88 0 1.26 6 08:56 25.03.2020
6053 Clouds -18 1019 88 0 1.26 6 08:38 25.03.2020
6054 Clouds -15 1017 85 0 1.71 342 08:19 25.03.2020
6055 Clouds -15 1017 85 0 1.76 341 07:41 25.03.2020
6056 Clouds -15 1017 85 0 1.76 341 07:20 25.03.2020
6057 Clouds -15 1017 85 0 1.76 341 06:48 25.03.2020
6058 Clouds -15 1017 85 0 1.76 341 06:28 25.03.2020
6059 Clouds -15 1017 85 0 1.76 341 05:56 25.03.2020
6060 Clouds -15 1017 85 0 1.76 341 05:30 25.03.2020
6061 Clouds -17 1016 85 0 1.91 345 04:39 25.03.2020
6062 Clouds -17 1016 85 0 1.91 345 03:36 25.03.2020
6063 Clouds -17 1016 85 0 1.91 345 02:40 25.03.2020
6064 Clouds -18 1016 87 0 1.94 323 01:23 25.03.2020
6065 Clouds -18 1015 87 0 1.95 322 00:49 25.03.2020
6066 Clouds -18 1015 87 0 1.95 322 00:24 25.03.2020
6067 Clouds -18 1015 87 0 1.95 322 23:45 24.03.2020
6068 Clouds -18 1015 87 0 1.95 322 23:26 24.03.2020
6069 Snow -19 1013 89 0 1.81 331 22:57 24.03.2020
6070 Snow -19 1013 89 0 1.81 331 22:38 24.03.2020
6071 Snow -19 1013 89 0 1.81 331 22:19 24.03.2020
6072 Snow -19 1013 89 0 1.81 331 21:56 24.03.2020
6073 Snow -19 1013 89 0 1.81 331 21:37 24.03.2020
6074 Snow -19 1013 89 0 1.81 331 21:18 24.03.2020
6075 Snow -19 1013 89 0 1.81 331 20:56 24.03.2020
6076 Snow -19 1013 89 0 1.81 331 20:38 24.03.2020
6077 Snow -17 1010 90 0 2.04 316 20:20 24.03.2020
6078 Snow -18 1011 89 0 2.09 323 19:44 24.03.2020
6079 Snow -18 1011 89 0 2.09 323 19:19 24.03.2020
6080 Snow -18 1011 89 0 2.09 323 18:56 24.03.2020
6081 Snow -18 1011 89 0 2.09 323 18:56 24.03.2020
6082 Snow -18 1011 89 0 2.09 323 18:37 24.03.2020
6083 Snow -18 1011 89 0 2.09 323 18:19 24.03.2020
6084 Snow -18 1011 89 0 2.09 323 17:42 24.03.2020
6085 Snow -18 1011 89 0 2.09 323 17:24 24.03.2020
6086 Snow -16 1007 94 0 2.29 332 16:59 24.03.2020
6087 Snow -16 1007 94 0 2.29 332 16:41 24.03.2020
6088 Snow -16 1007 94 0 2.29 332 16:23 24.03.2020
6089 Snow -16 1007 94 0 2.29 332 16:23 24.03.2020
6090 Snow -16 1007 94 0 2.29 332 16:23 24.03.2020
6091 Snow -16 1007 94 0 2.29 332 15:59 24.03.2020
6092 Snow -16 1007 94 0 2.29 332 15:39 24.03.2020
6093 Snow -16 1007 94 0 2.29 332 15:21 24.03.2020
6094 Snow -16 1007 94 0 2.29 332 15:21 24.03.2020
6095 Snow -16 1007 94 0 2.29 332 14:43 24.03.2020
6096 Snow -16 1007 94 0 2.29 332 14:43 24.03.2020
6097 Snow -16 1007 90 0 2.37 330 14:22 24.03.2020
6098 Snow -13 1004 92 0 1.65 314 13:55 24.03.2020
6099 Snow -13 1004 92 0 1.65 314 13:36 24.03.2020
6100 Snow -12 1004 92 0 1.56 314 13:18 24.03.2020
6101 Snow -12 1004 92 0 1.56 314 12:41 24.03.2020
6102 Snow -12 1004 92 0 1.56 314 12:23 24.03.2020
6103 Snow -12 1004 92 0 1.56 314 11:41 24.03.2020
6104 Snow -13 1004 95 0 1.27 310 11:20 24.03.2020
6105 Snow -11 1001 95 0 1.21 336 10:57 24.03.2020
6106 Snow -11 1001 95 0 1.21 336 10:38 24.03.2020
6107 Snow -11 1001 95 0 1.21 336 10:18 24.03.2020
6108 Snow -11 1001 95 0 1.21 336 09:44 24.03.2020
6109 Snow -11 1001 95 0 1.21 336 09:25 24.03.2020
6110 Snow -11 1001 95 0 1.21 336 08:57 24.03.2020
6111 Snow -11 1001 95 0 1.21 336 08:37 24.03.2020
6112 Snow -12 999 89 0 2.12 36 08:18 24.03.2020
6113 Snow -12 999 89 0 2.12 36 07:44 24.03.2020
6114 Snow -12 999 89 0 2.12 36 07:22 24.03.2020
6115 Snow -12 999 89 0 2.12 36 06:38 24.03.2020
6116 Snow -12 999 89 0 2.12 36 05:42 24.03.2020
6117 Snow -14 999 92 0 1.91 62 04:51 24.03.2020
6118 Snow -14 999 92 0 1.91 62 03:22 24.03.2020
6119 Snow -14 999 92 0 1.91 62 02:41 24.03.2020
6120 Snow -16 1000 93 0 1.83 73 00:54 24.03.2020
6121 Snow -16 1000 93 0 1.83 73 00:27 24.03.2020
6122 Snow -16 1000 93 0 1.83 73 23:56 23.03.2020
6123 Snow -16 1000 93 0 1.83 73 23:38 23.03.2020
6124 Clouds -18 1001 85 0 1.73 72 23:19 23.03.2020
6125 Clouds -18 1001 85 0 1.73 72 22:44 23.03.2020
6126 Clouds -18 1001 85 0 1.73 72 22:23 23.03.2020
6127 Clouds -18 1001 85 0 1.73 72 21:55 23.03.2020
6128 Clouds -18 1001 85 0 1.73 72 21:37 23.03.2020
6129 Clouds -18 1001 85 0 1.73 72 21:18 23.03.2020
6130 Clouds -18 1001 85 0 1.73 72 21:18 23.03.2020
6131 Clouds -18 1001 85 0 1.73 72 20:54 23.03.2020
6132 Clouds -18 1001 85 0 1.73 72 20:36 23.03.2020
6133 Clouds -18 1003 81 0 1.8 96 20:18 23.03.2020
6134 Clouds -17 1003 80 0 1.8 95 20:18 23.03.2020
6135 Clouds -18 1003 81 0 1.8 96 19:41 23.03.2020
6136 Clouds -18 1003 81 0 1.8 96 19:22 23.03.2020
6137 Clouds -18 1003 81 0 1.8 96 18:56 23.03.2020
6138 Clouds -18 1003 81 0 1.8 96 18:38 23.03.2020
6139 Clouds -18 1003 81 0 1.8 96 18:18 23.03.2020
6140 Clouds -18 1003 81 0 1.8 96 17:41 23.03.2020
6141 Clouds -19 1005 80 0 1.65 99 17:20 23.03.2020
6142 Clouds -19 1005 80 0 1.65 99 16:56 23.03.2020
6143 Clouds -19 1005 80 0 1.65 99 16:37 23.03.2020
6144 Clouds -19 1005 80 0 1.65 99 16:18 23.03.2020
6145 Clouds -19 1005 80 0 1.65 99 15:41 23.03.2020
6146 Clouds -19 1005 80 0 1.65 99 15:19 23.03.2020
6147 Clouds -19 1005 80 0 1.65 99 14:38 23.03.2020
6148 Clouds -19 1007 82 0 1.52 108 14:20 23.03.2020
6149 Clouds -19 1007 82 0 1.52 108 13:57 23.03.2020
6150 Clouds -19 1007 82 0 1.52 108 13:39 23.03.2020
6151 Clouds -19 1007 82 0 1.5 108 13:20 23.03.2020
6152 Clouds -19 1007 82 0 1.5 108 12:44 23.03.2020
6153 Clouds -19 1007 82 0 1.5 108 12:25 23.03.2020
6154 Clouds -19 1007 82 0 1.5 108 11:58 23.03.2020
6155 Clouds -19 1007 82 0 1.5 108 11:38 23.03.2020
6156 Clear -17 1008 80 0 1.42 145 11:19 23.03.2020
6157 Clear -17 1008 80 0 1.42 145 10:56 23.03.2020
6158 Clear -17 1008 80 0 1.42 145 10:37 23.03.2020
6159 Clear -17 1008 80 0 1.42 145 10:19 23.03.2020
6160 Clear -17 1008 80 0 1.42 145 09:44 23.03.2020
6161 Clear -17 1008 80 0 1.42 145 09:21 23.03.2020
6162 Clear -17 1008 80 0 1.42 145 08:56 23.03.2020
6163 Clear -17 1008 80 0 1.42 145 08:36 23.03.2020
6164 Clouds -13 1008 72 0 3.15 193 08:18 23.03.2020
6165 Clouds -13 1008 72 0 3.15 193 08:18 23.03.2020
6166 Clouds -13 1008 71 0 3.15 201 07:42 23.03.2020
6167 Clouds -13 1008 71 0 3.15 201 07:21 23.03.2020
6168 Clouds -13 1008 71 0 3.15 201 06:49 23.03.2020
6169 Clouds -13 1008 71 0 3.15 201 05:54 23.03.2020
6170 Clouds -13 1008 71 0 3.15 201 05:29 23.03.2020
6171 Clouds -14 1009 73 0 2.6 210 03:28 23.03.2020
6172 Clouds -17 1009 89 0 2.14 225 01:51 23.03.2020
6173 Clouds -17 1009 89 0 2.14 225 01:32 23.03.2020
6174 Clouds -16 1009 91 0 2.21 226 00:36 23.03.2020
6175 Clouds -16 1009 91 0 2.21 226 23:47 22.03.2020
6176 Clouds -16 1009 91 0 2.21 226 23:26 22.03.2020
6177 Clouds -19 1009 99 0 1.59 253 22:45 22.03.2020
6178 Clouds -19 1009 99 0 1.59 253 22:24 22.03.2020
6179 Clouds -19 1009 99 0 1.59 253 21:56 22.03.2020
6180 Clouds -19 1009 99 0 1.59 253 21:37 22.03.2020
6181 Clouds -19 1009 99 0 1.59 253 21:19 22.03.2020
6182 Clouds -19 1009 99 0 1.59 253 20:46 22.03.2020
6183 Clouds -19 1009 99 0 1.59 253 20:25 22.03.2020
6184 Clouds -17 1008 96 0 1.56 266 19:58 22.03.2020
6185 Clouds -17 1008 96 0 1.56 266 19:40 22.03.2020
6186 Clouds -17 1008 96 0 1.56 266 19:40 22.03.2020
6187 Clouds -17 1008 96 0 1.56 266 19:20 22.03.2020
6188 Clouds -17 1008 96 0 1.56 266 18:59 22.03.2020
6189 Clouds -17 1008 96 0 1.56 266 18:41 22.03.2020
6190 Clouds -17 1008 96 0 1.56 266 18:22 22.03.2020
6191 Clouds -17 1008 96 0 1.56 266 17:59 22.03.2020
6192 Clouds -17 1008 96 0 1.56 266 17:39 22.03.2020
6193 Clouds -17 1008 96 0 1.56 266 17:39 22.03.2020
6194 Clouds -17 1008 96 0 1.56 266 17:21 22.03.2020
6195 Snow -16 1007 98 0 1.38 287 16:59 22.03.2020
6196 Snow -16 1007 98 0 1.38 287 16:41 22.03.2020
6197 Snow -16 1007 98 0 1.38 287 16:21 22.03.2020
6198 Snow -16 1007 98 0 1.38 287 15:58 22.03.2020
6199 Snow -16 1007 98 0 1.38 287 15:39 22.03.2020
6200 Snow -16 1007 98 0 1.38 287 14:47 22.03.2020
6201 Snow -13 1007 96 0 1.08 342 14:19 22.03.2020
6202 Snow -13 1007 96 0 1.08 342 13:57 22.03.2020
6203 Snow -13 1007 96 0 1.08 342 13:39 22.03.2020
6204 Snow -13 1007 96 0 1 346 13:19 22.03.2020
6205 Snow -13 1007 96 0 1 346 12:44 22.03.2020
6206 Snow -13 1007 96 0 1 346 12:20 22.03.2020
6207 Snow -13 1007 96 0 1 346 11:56 22.03.2020
6208 Snow -13 1007 96 0 1 346 11:38 22.03.2020
6209 Snow -12 1006 95 0 1.43 24 11:19 22.03.2020
6210 Snow -12 1006 95 0 1.43 24 10:43 22.03.2020
6211 Snow -12 1006 95 0 1.43 24 10:24 22.03.2020
6212 Snow -12 1006 95 0 1.43 24 09:49 22.03.2020
6213 Snow -12 1006 95 0 1.43 24 09:30 22.03.2020
6214 Snow -12 1006 95 0 1.43 24 08:55 22.03.2020
6215 Snow -12 1006 95 0 1.43 24 08:37 22.03.2020
6216 Clouds -11 1007 82 0 1.69 25 08:18 22.03.2020
6217 Clouds -11 1007 82 0 1.69 25 07:49 22.03.2020
6218 Clouds -11 1007 82 0 1.69 25 07:19 22.03.2020
6219 Clouds -11 1007 82 0 1.69 25 05:56 22.03.2020
6220 Clouds -12 1008 75 0 1.09 75 04:58 22.03.2020
6221 Clouds -12 1008 75 0 1.09 75 02:50 22.03.2020
6222 Clouds -14 1009 77 0 0.63 80 01:22 22.03.2020
6223 Clouds -14 1009 77 0 0.63 80 00:39 22.03.2020
6224 Clouds -14 1009 77 0 0.63 80 00:21 22.03.2020
6225 Clouds -14 1009 77 0 0.63 80 23:41 21.03.2020
6226 Clouds -14 1009 77 0 0.63 80 23:41 21.03.2020
6227 Clouds -18 1009 85 0 0.83 162 23:19 21.03.2020
6228 Clouds -18 1009 85 0 0.83 162 22:38 21.03.2020
6229 Clouds -18 1009 85 0 0.83 162 22:20 21.03.2020
6230 Clouds -18 1009 85 0 0.83 162 21:59 21.03.2020
6231 Clouds -18 1009 85 0 0.83 162 21:41 21.03.2020
6232 Clouds -18 1009 85 0 0.83 162 21:22 21.03.2020
6233 Clouds -18 1009 85 0 0.83 162 20:56 21.03.2020
6234 Clouds -18 1009 85 0 0.83 162 20:38 21.03.2020
6235 Clouds -17 1009 94 0 0.52 274 20:18 21.03.2020
6236 Clouds -17 1009 94 0 0.52 274 19:43 21.03.2020
6237 Clouds -17 1009 94 0 0.52 274 19:23 21.03.2020
6238 Clouds -17 1009 94 0 0.52 274 18:55 21.03.2020
6239 Clouds -17 1009 94 0 0.52 274 18:37 21.03.2020
6240 Clouds -17 1009 94 0 0.52 274 18:19 21.03.2020
6241 Clouds -17 1009 94 0 0.52 274 17:55 21.03.2020
6242 Clouds -17 1009 94 0 0.52 274 17:37 21.03.2020
6243 Clouds -15 1009 88 0 0.52 291 17:18 21.03.2020
6244 Clouds -15 1009 88 0 0.52 291 16:40 21.03.2020
6245 Clouds -15 1009 88 0 0.52 291 16:19 21.03.2020
6246 Clouds -15 1009 88 0 0.52 291 15:55 21.03.2020
6247 Clouds -15 1009 88 0 0.52 291 15:37 21.03.2020
6248 Clouds -15 1009 88 0 0.52 291 15:18 21.03.2020
6249 Clouds -15 1009 88 0 0.52 291 14:54 21.03.2020
6250 Clouds -15 1009 88 0 0.52 291 14:36 21.03.2020
6251 Clouds -13 1008 84 0 0.86 84 14:18 21.03.2020
6252 Clouds -13 1008 84 0 0.86 84 13:56 21.03.2020
6253 Clouds -13 1008 84 0 0.86 84 13:38 21.03.2020
6254 Clouds -13 1008 86 0 1.25 85 13:19 21.03.2020
6255 Clouds -13 1008 86 0 1.25 85 12:39 21.03.2020
6256 Clouds -13 1008 86 0 1.25 85 12:19 21.03.2020
6257 Clouds -13 1008 86 0 1.25 85 11:58 21.03.2020
6258 Clouds -13 1008 86 0 1.25 85 11:39 21.03.2020
6259 Clouds -12 1007 81 0 1.54 66 11:19 21.03.2020
6260 Clouds -12 1007 81 0 1.54 66 11:19 21.03.2020
6261 Clouds -12 1007 81 0 1.54 66 10:57 21.03.2020
6262 Clouds -12 1007 81 0 1.54 66 10:57 21.03.2020
6263 Clouds -12 1007 81 0 1.54 66 10:39 21.03.2020
6264 Clouds -12 1007 81 0 1.54 66 10:21 21.03.2020
6265 Clouds -12 1007 81 0 1.54 66 10:20 21.03.2020
6266 Clouds -12 1007 81 0 1.54 66 09:58 21.03.2020
6267 Clouds -12 1007 81 0 1.54 66 09:38 21.03.2020
6268 Clouds -12 1007 81 0 1.54 66 09:20 21.03.2020
6269 Clouds -12 1007 81 0 1.54 66 08:55 21.03.2020
6270 Clouds -12 1007 81 0 1.54 66 08:37 21.03.2020
6271 Clouds -10 1006 70 0 1.73 178 08:18 21.03.2020
6272 Clouds -11 1007 70 0 1.91 201 07:32 21.03.2020
6273 Clouds -11 1007 70 0 1.91 201 06:56 21.03.2020
6274 Clouds -11 1007 70 0 1.91 201 06:36 21.03.2020
6275 Clouds -11 1007 70 0 1.91 201 06:18 21.03.2020
6276 Clouds -11 1007 70 0 1.91 201 05:39 21.03.2020
6277 Clear -14 1006 70 0 2.44 213 03:39 21.03.2020
6278 Clear -14 1006 70 0 2.44 213 02:36 21.03.2020
6279 Clear -19 1006 78 0 1.98 222 01:43 21.03.2020
6280 Clear -18 1006 79 0 1.99 223 01:23 21.03.2020
6281 Clear -18 1006 79 0 1.99 223 00:39 21.03.2020
6282 Clear -18 1006 79 0 1.99 223 00:21 21.03.2020
6283 Clear -18 1006 79 0 1.99 223 23:42 20.03.2020
6284 Clear -18 1006 79 0 1.99 223 23:22 20.03.2020
6285 Clear -23 1005 80 0 2.8 211 22:44 20.03.2020
6286 Clear -23 1005 80 0 2.8 211 22:25 20.03.2020
6287 Clear -23 1005 80 0 2.8 211 21:58 20.03.2020
6288 Clear -23 1005 80 0 2.8 211 21:40 20.03.2020
6289 Clear -23 1005 80 0 2.8 211 21:20 20.03.2020
6290 Clear -23 1005 80 0 2.8 211 20:58 20.03.2020
6291 Clear -23 1005 80 0 2.8 211 20:40 20.03.2020
6292 Clear -22 1005 69 0 2.7 188 20:19 20.03.2020
6293 Clear -22 1005 69 0 2.7 188 19:48 20.03.2020
6294 Clear -22 1005 69 0 2.7 188 19:20 20.03.2020
6295 Clear -22 1005 69 0 2.7 188 18:58 20.03.2020
6296 Clear -22 1005 69 0 2.7 188 18:38 20.03.2020
6297 Clear -22 1005 69 0 2.7 188 18:20 20.03.2020
6298 Clear -22 1005 69 0 2.7 188 17:56 20.03.2020
6299 Clear -22 1005 69 0 2.7 188 17:37 20.03.2020
6300 Clear -22 1004 67 0 2.57 203 17:19 20.03.2020
6301 Clear -22 1004 67 0 2.57 203 16:42 20.03.2020
6302 Clear -22 1004 67 0 2.57 203 16:21 20.03.2020
6303 Clear -22 1004 67 0 2.57 203 15:55 20.03.2020
6304 Clear -22 1004 67 0 2.57 203 15:37 20.03.2020
6305 Clear -22 1004 67 0 2.57 203 15:37 20.03.2020
6306 Clear -22 1004 67 0 2.57 203 15:18 20.03.2020
6307 Clear -22 1004 67 0 2.57 203 14:42 20.03.2020
6308 Clear -22 1004 67 0 2.57 203 14:21 20.03.2020
6309 Clear -19 1001 70 0 3.19 244 13:50 20.03.2020
6310 Clear -19 1001 70 0 3.19 244 13:50 20.03.2020
6311 Clear -19 1001 70 0 3.19 244 13:26 20.03.2020
6312 Clear -19 1001 70 0 3.62 244 12:59 20.03.2020
6313 Clear -19 1001 70 0 3.62 244 12:38 20.03.2020
6314 Clear -19 1001 70 0 3.62 244 12:20 20.03.2020
6315 Clear -19 1001 70 0 3.62 244 11:40 20.03.2020
6316 Clear -19 1001 70 0 3.62 244 11:21 20.03.2020
6317 Clear -13 997 70 0 6.17 223 10:57 20.03.2020
6318 Clear -13 997 70 0 6.17 223 10:38 20.03.2020
6319 Clear -13 997 70 0 6.17 223 10:18 20.03.2020
6320 Clear -13 997 70 0 6.17 223 09:46 20.03.2020
6321 Clear -13 997 70 0 6.17 223 09:21 20.03.2020
6322 Clear -13 997 70 0 6.17 223 08:58 20.03.2020
6323 Clear -13 997 70 0 6.17 223 08:39 20.03.2020
6324 Clouds -10 994 65 0 7.66 248 08:19 20.03.2020
6325 Clouds -10 994 65 0 7.66 248 07:43 20.03.2020
6326 Clouds -10 994 65 0 7.66 248 07:25 20.03.2020
6327 Clouds -10 994 65 0 7.66 248 06:43 20.03.2020
6328 Clouds -10 994 65 0 7.66 248 06:22 20.03.2020
6329 Clouds -9 993 66 0 9.58 242 04:48 20.03.2020
6330 Clouds -9 993 66 0 9.58 242 02:54 20.03.2020
6331 Clouds -14 992 76 0 4.56 213 01:51 20.03.2020
6332 Clouds -14 991 77 0 4.67 212 00:46 20.03.2020
6333 Clouds -14 991 77 0 4.67 212 00:24 20.03.2020
6334 Clouds -14 991 77 0 4.67 212 23:42 19.03.2020
6335 Clouds -14 991 77 0 4.67 212 23:23 19.03.2020
6336 Clouds -17 991 75 0 3.96 181 22:55 19.03.2020
6337 Clouds -17 991 75 0 3.96 181 22:37 19.03.2020
6338 Clouds -17 991 75 0 3.96 181 22:18 19.03.2020
6339 Clouds -17 991 75 0 3.96 181 21:40 19.03.2020
6340 Clouds -17 991 75 0 3.96 181 21:20 19.03.2020
6341 Clouds -17 991 75 0 3.96 181 20:55 19.03.2020
6342 Clouds -17 991 75 0 3.96 181 20:37 19.03.2020
6343 Clouds -16 990 74 0 4.7 186 20:19 19.03.2020
6344 Clouds -18 990 76 0 3.39 164 19:54 19.03.2020
6345 Clouds -18 990 76 0 3.39 164 19:36 19.03.2020
6346 Clouds -18 990 76 0 3.39 164 19:18 19.03.2020
6347 Clouds -18 990 76 0 3.39 164 18:41 19.03.2020
6348 Clouds -18 990 76 0 3.39 164 18:22 19.03.2020
6349 Clouds -18 990 76 0 3.39 164 17:56 19.03.2020
6350 Clouds -18 990 76 0 3.39 164 17:37 19.03.2020
6351 Clouds -17 992 78 0 2.94 167 17:18 19.03.2020
6352 Clouds -17 992 78 0 2.94 167 16:43 19.03.2020
6353 Clouds -17 992 78 0 2.94 167 16:22 19.03.2020
6354 Clouds -17 992 78 0 2.94 167 15:44 19.03.2020
6355 Clouds -17 992 78 0 2.94 167 15:25 19.03.2020
6356 Clouds -17 992 78 0 2.94 167 14:55 19.03.2020
6357 Clouds -17 992 78 0 2.94 167 14:37 19.03.2020
6358 Clouds -20 992 77 0 2.61 142 14:18 19.03.2020
6359 Clouds -20 992 77 0 2.61 142 13:39 19.03.2020
6360 Clouds -19 992 78 0 2.49 140 13:18 19.03.2020
6361 Clouds -19 992 78 0 2.49 140 12:42 19.03.2020
6362 Clouds -19 992 78 0 2.49 140 12:24 19.03.2020
6363 Clouds -19 992 78 0 2.49 140 11:59 19.03.2020
6364 Clouds -19 992 78 0 2.49 140 11:41 19.03.2020
6365 Clouds -19 992 78 0 2.49 140 11:22 19.03.2020
6366 Clouds -19 993 85 0 2.28 119 10:44 19.03.2020
6367 Clouds -19 993 85 0 2.28 119 10:22 19.03.2020
6368 Clouds -19 993 85 0 2.28 119 09:59 19.03.2020
6369 Clouds -19 993 85 0 2.28 119 09:40 19.03.2020
6370 Clouds -19 993 85 0 2.28 119 09:22 19.03.2020
6371 Clouds -19 993 85 0 2.28 119 08:48 19.03.2020
6372 Clouds -19 993 85 0 2.31 119 08:23 19.03.2020
6373 Clouds -16 995 73 0 2.26 125 07:57 19.03.2020
6374 Clouds -16 995 73 0 2.26 125 07:37 19.03.2020
6375 Clouds -16 995 73 0 2.26 125 07:18 19.03.2020
6376 Clouds -16 995 73 0 2.26 125 06:23 19.03.2020
6377 Clouds -16 995 73 0 2.26 125 05:25 19.03.2020
6378 Clouds -19 999 79 0 2.07 118 04:47 19.03.2020
6379 Clouds -19 999 79 0 2.07 118 03:55 19.03.2020
6380 Clouds -24 1004 89 0 1.27 111 01:46 19.03.2020
6381 Clear -24 1004 90 0 1.2 111 00:42 19.03.2020
6382 Clear -24 1004 90 0 1.2 111 00:19 19.03.2020
6383 Clear -24 1004 90 0 1.2 111 23:43 18.03.2020
6384 Clear -24 1004 90 0 1.2 111 23:23 18.03.2020
6385 Clear -29 1007 97 0 1.46 129 22:43 18.03.2020
6386 Clear -29 1007 97 0 1.46 129 22:23 18.03.2020
6387 Clear -29 1007 97 0 1.46 129 21:57 18.03.2020
6388 Clear -29 1007 97 0 1.46 129 21:39 18.03.2020
6389 Clear -29 1007 97 0 1.46 129 21:20 18.03.2020
6390 Clear -29 1007 97 0 1.46 129 20:55 18.03.2020
6391 Clear -29 1007 97 0 1.46 129 20:37 18.03.2020
6392 Clear -28 1009 94 0 1.51 140 20:19 18.03.2020
6393 Clear -28 1009 94 0 1.51 140 19:41 18.03.2020
6394 Clear -28 1009 94 0 1.51 140 19:21 18.03.2020
6395 Clear -28 1009 94 0 1.51 140 18:59 18.03.2020
6396 Clear -28 1009 94 0 1.51 140 18:40 18.03.2020
6397 Clear -28 1009 94 0 1.51 140 18:19 18.03.2020
6398 Clear -28 1009 94 0 1.51 140 17:57 18.03.2020
6399 Clear -28 1009 94 0 1.51 140 17:39 18.03.2020
6400 Clear -28 1011 91 0 1.16 144 17:19 18.03.2020
6401 Clear -28 1011 91 0 1.16 144 16:43 18.03.2020
6402 Clear -28 1011 91 0 1.16 144 16:21 18.03.2020
6403 Clear -28 1011 91 0 1.16 144 15:59 18.03.2020
6404 Clear -28 1011 91 0 1.16 144 15:39 18.03.2020
6405 Clear -28 1011 91 0 1.16 144 15:20 18.03.2020
6406 Clear -28 1011 91 0 1.16 144 14:44 18.03.2020
6407 Clear -28 1011 91 0 1.16 144 14:21 18.03.2020
6408 Clear -27 1011 94 0 0.57 119 13:42 18.03.2020
6409 Clear -28 1011 93 0 0.46 82 13:20 18.03.2020
6410 Clear -28 1011 93 0 0.46 82 12:59 18.03.2020
6411 Clear -28 1011 93 0 0.46 82 12:41 18.03.2020
6412 Clear -28 1011 93 0 0.46 82 12:19 18.03.2020
6413 Clear -28 1011 93 0 0.46 82 11:39 18.03.2020
6414 Clear -28 1011 93 0 0.46 82 11:21 18.03.2020
6415 Clear -23 1010 89 0 1.55 22 10:58 18.03.2020
6416 Clear -23 1010 89 0 1.55 22 10:39 18.03.2020
6417 Clear -23 1010 89 0 1.55 22 10:20 18.03.2020
6418 Clear -23 1010 89 0 1.55 22 09:44 18.03.2020
6419 Clear -23 1010 89 0 1.55 22 09:26 18.03.2020
6420 Clear -23 1010 89 0 1.55 22 08:58 18.03.2020
6421 Clear -23 1010 89 0 1.55 22 08:39 18.03.2020
6422 Clouds -23 1009 92 0 1.46 23 08:21 18.03.2020
6423 Clouds -17 1006 77 0 2.48 19 07:49 18.03.2020
6424 Clouds -17 1006 77 0 2.48 19 07:30 18.03.2020
6425 Clouds -17 1006 77 0 2.48 19 06:45 18.03.2020
6426 Clouds -17 1006 77 0 2.48 19 06:23 18.03.2020
6427 Clouds -17 1006 77 0 2.48 19 05:35 18.03.2020
6428 Clouds -18 1005 85 0 2.74 11 04:27 18.03.2020
6429 Clouds -18 1005 85 0 2.74 11 02:49 18.03.2020
6430 Snow -19 1004 93 0 2.17 345 01:48 18.03.2020
6431 Snow -19 1004 93 0 2.01 331 01:27 18.03.2020
6432 Snow -19 1004 93 0 2.21 337 00:26 18.03.2020
6433 Snow -19 1004 93 0 2.21 337 23:57 17.03.2020
6434 Snow -19 1004 93 0 2.21 337 23:37 17.03.2020
6435 Snow -21 1003 99 0 1.36 322 23:18 17.03.2020
6436 Snow -21 1003 99 0 1.41 324 22:41 17.03.2020
6437 Snow -21 1003 99 0 1.41 324 22:22 17.03.2020
6438 Snow -21 1003 99 0 1.41 324 21:40 17.03.2020
6439 Snow -21 1003 99 0 1.36 322 21:21 17.03.2020
6440 Snow -21 1003 99 0 1.41 324 20:41 17.03.2020
6441 Snow -21 1003 99 0 1.36 322 20:23 17.03.2020
6442 Snow -22 1001 99 0 1.18 326 19:59 17.03.2020
6443 Snow -22 1001 99 0 1.18 326 19:40 17.03.2020
6444 Snow -22 1001 99 0 1.18 326 19:18 17.03.2020
6445 Snow -22 1001 99 0 1.18 326 18:56 17.03.2020
6446 Snow -22 1001 99 0 1.18 326 18:38 17.03.2020
6447 Snow -22 1001 99 0 1.18 326 18:38 17.03.2020
6448 Snow -22 1001 99 0 1.18 326 18:20 17.03.2020
6449 Snow -22 1001 99 0 1.18 326 17:41 17.03.2020
6450 Snow -22 1001 99 0 1.18 326 17:22 17.03.2020
6451 Clouds -22 999 99 0 1.38 324 16:57 17.03.2020
6452 Clouds -22 999 99 0 1.38 324 16:39 17.03.2020
6453 Clouds -22 999 99 0 1.38 324 16:18 17.03.2020
6454 Clouds -22 999 99 0 1.38 324 15:44 17.03.2020
6455 Clouds -22 999 99 0 1.38 324 15:22 17.03.2020
6456 Clouds -22 999 99 0 1.38 324 14:44 17.03.2020
6457 Clouds -22 999 99 0 1.38 324 14:24 17.03.2020
6458 Clouds -21 998 99 0 0.89 345 13:57 17.03.2020
6459 Clouds -21 998 99 0 0.89 345 13:39 17.03.2020
6460 Clouds -21 997 100 0 0.82 331 13:21 17.03.2020
6461 Clouds -21 997 100 0 0.82 331 13:21 17.03.2020
6462 Clouds -21 997 100 0 0.82 331 12:43 17.03.2020
6463 Clouds -22 997 100 0 0.59 325 12:24 17.03.2020
6464 Clouds -22 997 100 0 0.59 325 11:48 17.03.2020
6465 Clouds -21 997 100 0 0.82 331 11:29 17.03.2020
6466 Clouds -19 995 99 0 0.85 359 10:58 17.03.2020
6467 Clouds -19 995 99 0 0.85 359 10:58 17.03.2020
6468 Clouds -19 995 99 0 0.85 359 10:40 17.03.2020
6469 Clouds -19 995 99 0 0.85 359 10:22 17.03.2020
6470 Clouds -19 995 99 0 0.85 359 09:59 17.03.2020
6471 Clouds -19 995 99 0 0.85 359 09:41 17.03.2020
6472 Clouds -19 995 99 0 0.85 359 09:20 17.03.2020
6473 Clouds -18 995 95 0 0.68 340 08:50 17.03.2020
6474 Clouds -18 995 95 0 0.68 340 08:23 17.03.2020
6475 Snow -16 993 88 0 1.15 43 07:57 17.03.2020
6476 Snow -16 993 88 0 1.15 43 07:38 17.03.2020
6477 Snow -16 993 88 0 1.15 43 07:19 17.03.2020
6478 Snow -16 993 88 0 1.15 43 06:39 17.03.2020
6479 Snow -16 993 88 0 1.15 43 05:58 17.03.2020
6480 Snow -18 993 90 0 1.14 44 03:58 17.03.2020
6481 Snow -18 993 90 0 1.14 44 03:58 17.03.2020
6482 Snow -18 993 90 0 1.14 44 02:54 17.03.2020
6483 Clouds -20 994 81 0 1.28 68 01:49 17.03.2020
6484 Clouds -20 994 81 0 1.31 70 01:25 17.03.2020
6485 Clouds -20 994 81 0 1.31 70 00:47 17.03.2020
6486 Clouds -20 994 81 0 1.31 70 23:50 16.03.2020
6487 Clouds -20 994 81 0 1.31 70 23:32 16.03.2020
6488 Clouds -23 995 84 0 1.09 100 22:43 16.03.2020
6489 Clouds -23 995 84 0 1.09 100 22:25 16.03.2020
6490 Clouds -23 995 84 0 1.09 100 21:59 16.03.2020
6491 Clouds -23 995 84 0 1.09 100 21:40 16.03.2020
6492 Clouds -23 995 84 0 1.09 100 21:22 16.03.2020
6493 Clouds -23 995 84 0 1.09 100 20:56 16.03.2020
6494 Clouds -23 995 84 0 1.09 100 20:38 16.03.2020
6495 Clouds -22 996 83 0 1.13 105 20:19 16.03.2020
6496 Clouds -22 996 82 0 1.12 108 19:41 16.03.2020
6497 Clouds -22 996 82 0 1.12 108 19:21 16.03.2020
6498 Clouds -22 996 82 0 1.12 108 18:56 16.03.2020
6499 Clouds -22 996 82 0 1.12 108 18:37 16.03.2020
6500 Clouds -22 996 82 0 1.12 108 18:18 16.03.2020
6501 Clouds -22 996 82 0 1.12 108 17:42 16.03.2020
6502 Clouds -22 996 82 0 1.12 108 17:22 16.03.2020
6503 Clouds -23 997 82 0 1.58 118 16:46 16.03.2020
6504 Clouds -23 997 82 0 1.58 118 16:28 16.03.2020
6505 Clouds -23 997 82 0 1.58 118 15:56 16.03.2020
6506 Clouds -23 997 82 0 1.58 118 15:37 16.03.2020
6507 Clouds -23 997 82 0 1.58 118 15:18 16.03.2020
6508 Clouds -23 997 82 0 1.58 118 14:42 16.03.2020
6509 Clouds -22 999 83 0 1.77 120 14:19 16.03.2020
6510 Clouds -22 999 83 0 1.77 120 13:42 16.03.2020
6511 Clouds -22 999 83 0 1.77 120 13:23 16.03.2020
6512 Clouds -23 999 85 0 1.72 118 12:46 16.03.2020
6513 Clouds -23 999 85 0 1.72 118 12:27 16.03.2020
6514 Clouds -23 999 85 0 1.72 118 11:59 16.03.2020
6515 Clouds -23 999 85 0 1.72 118 11:41 16.03.2020
6516 Clouds -21 1000 85 0 1.83 125 11:18 16.03.2020
6517 Clouds -21 1000 85 0 1.83 125 10:42 16.03.2020
6518 Clouds -21 1000 85 0 1.83 125 10:24 16.03.2020
6519 Clouds -21 1000 85 0 1.83 125 09:45 16.03.2020
6520 Clouds -21 1000 85 0 1.83 125 09:27 16.03.2020
6521 Clouds -21 1000 85 0 1.83 125 08:56 16.03.2020
6522 Clouds -21 1000 85 0 1.83 125 08:26 16.03.2020
6523 Clouds -17 1000 72 0 3.15 159 07:50 16.03.2020
6524 Clouds -17 1000 72 0 3.15 159 07:28 16.03.2020
6525 Clouds -17 1000 72 0 3.15 159 06:54 16.03.2020
6526 Clouds -17 1000 72 0 3.15 159 06:54 16.03.2020
6527 Clouds -17 1000 72 0 3.15 159 06:27 16.03.2020
6528 Clouds -17 1000 72 0 3.15 159 05:54 16.03.2020
6529 Clouds -20 1003 71 0 2.56 157 02:46 16.03.2020
6530 Clouds -25 1005 76 0 1.97 143 01:20 16.03.2020
6531 Clouds -25 1005 76 0 1.97 143 00:42 16.03.2020
6532 Clouds -25 1005 76 0 1.97 143 23:49 15.03.2020
6533 Clouds -25 1005 76 0 1.97 143 23:21 15.03.2020
6534 Clear -29 1006 79 0 1.88 144 22:58 15.03.2020
6535 Clear -29 1006 79 0 1.88 144 22:37 15.03.2020
6536 Clear -29 1006 79 0 1.88 144 22:19 15.03.2020
6537 Clear -29 1006 79 0 1.88 144 21:39 15.03.2020
6538 Clear -29 1006 79 0 1.88 144 21:19 15.03.2020
6539 Clear -29 1006 79 0 1.88 144 20:43 15.03.2020
6540 Clear -29 1006 79 0 1.88 144 20:22 15.03.2020
6541 Clear -30 1007 79 0 1.77 132 19:59 15.03.2020
6542 Clear -30 1007 79 0 1.77 132 19:40 15.03.2020
6543 Clear -30 1007 79 0 1.77 132 19:22 15.03.2020
6544 Clear -30 1007 79 0 1.77 132 18:57 15.03.2020
6545 Clear -30 1007 79 0 1.77 132 18:38 15.03.2020
6546 Clear -30 1007 79 0 1.77 132 18:20 15.03.2020
6547 Clear -30 1007 79 0 1.77 132 17:54 15.03.2020
6548 Clear -30 1007 79 0 1.77 132 17:36 15.03.2020
6549 Clear -30 1007 82 0 1.54 132 17:18 15.03.2020
6550 Clear -30 1007 82 0 1.54 132 16:42 15.03.2020
6551 Clear -30 1007 82 0 1.54 132 16:23 15.03.2020
6552 Clear -30 1007 82 0 1.54 132 15:57 15.03.2020
6553 Clear -30 1007 82 0 1.54 132 15:38 15.03.2020
6554 Clear -30 1007 82 0 1.54 132 15:19 15.03.2020
6555 Clear -30 1007 82 0 1.54 132 14:43 15.03.2020
6556 Clear -30 1007 82 0 1.54 132 14:24 15.03.2020
6557 Clear -29 1007 88 0 1.62 104 13:57 15.03.2020
6558 Clear -29 1007 88 0 1.62 104 13:38 15.03.2020
6559 Clear -29 1007 90 0 1.58 105 13:19 15.03.2020
6560 Clear -29 1007 90 0 1.58 105 12:43 15.03.2020
6561 Clear -29 1007 90 0 1.58 105 12:25 15.03.2020
6562 Clear -29 1007 90 0 1.58 105 11:54 15.03.2020
6563 Clear -29 1007 90 0 1.58 105 11:36 15.03.2020
6564 Clear -28 1007 94 0 1.41 62 11:18 15.03.2020
6565 Clear -28 1007 94 0 1.41 62 10:55 15.03.2020
6566 Clear -28 1007 94 0 1.41 62 10:36 15.03.2020
6567 Clear -28 1007 94 0 1.41 62 10:18 15.03.2020
6568 Clear -28 1007 94 0 1.41 62 09:39 15.03.2020
6569 Clear -28 1007 94 0 1.41 62 09:20 15.03.2020
6570 Clear -28 1007 94 0 1.41 62 08:42 15.03.2020
6571 Clear -23 1005 78 0 1.28 93 08:20 15.03.2020
6572 Clear -23 1006 73 0 1.16 121 07:51 15.03.2020
6573 Clear -23 1006 73 0 1.16 121 07:23 15.03.2020
6574 Clear -23 1006 73 0 1.16 121 06:45 15.03.2020
6575 Clear -23 1006 73 0 1.16 121 05:50 15.03.2020
6576 Clear -27 1007 72 0 1.1 112 05:18 15.03.2020
6577 Clear -27 1007 72 0 1.1 112 04:41 15.03.2020
6578 Clear -27 1007 72 0 1.1 112 04:23 15.03.2020
6579 Clear -27 1007 72 0 1.1 112 03:30 15.03.2020
6580 Clear -27 1007 72 0 1.1 112 02:37 15.03.2020
6581 Clouds -31 1009 87 0 0.73 98 01:34 15.03.2020
6582 Clouds -30 1009 86 0 0.81 102 00:45 15.03.2020
6583 Clouds -30 1009 86 0 0.81 102 00:22 15.03.2020
6584 Clouds -30 1009 86 0 0.81 102 23:42 14.03.2020
6585 Clouds -30 1009 86 0 0.81 102 23:22 14.03.2020
6586 Clear -36 1011 97 0 0.86 92 22:59 14.03.2020
6587 Clear -36 1011 97 0 0.86 92 22:41 14.03.2020
6588 Clear -36 1011 97 0 0.86 92 22:23 14.03.2020
6589 Clear -36 1011 97 0 0.86 92 21:56 14.03.2020
6590 Clear -36 1011 97 0 0.86 92 21:36 14.03.2020
6591 Clear -36 1011 97 0 0.86 92 21:18 14.03.2020
6592 Clear -36 1011 97 0 0.86 92 20:58 14.03.2020
6593 Clear -36 1011 97 0 0.86 92 20:40 14.03.2020
6594 Clouds -34 1012 97 0 1.09 102 20:19 14.03.2020
6595 Clouds -34 1012 97 0 1.09 102 19:43 14.03.2020
6596 Clouds -34 1012 97 0 1.09 102 19:25 14.03.2020
6597 Clouds -34 1012 97 0 1.09 102 18:42 14.03.2020
6598 Clouds -34 1012 97 0 1.09 102 18:24 14.03.2020
6599 Clouds -34 1012 97 0 1.09 102 17:58 14.03.2020
6600 Clouds -34 1012 97 0 1.09 102 17:38 14.03.2020
6601 Clouds -34 1012 97 0 1.09 102 17:38 14.03.2020
6602 Clouds -33 1013 96 0 1.5 103 17:20 14.03.2020
6603 Clouds -33 1013 96 0 1.5 103 17:20 14.03.2020
6604 Clouds -33 1013 96 0 1.5 103 16:41 14.03.2020
6605 Clouds -33 1013 96 0 1.5 103 16:23 14.03.2020
6606 Clouds -33 1013 96 0 1.5 103 15:58 14.03.2020
6607 Clouds -33 1013 96 0 1.5 103 15:27 14.03.2020
6608 Clouds -33 1013 96 0 1.5 103 14:58 14.03.2020
6609 Clouds -33 1013 96 0 1.5 103 14:37 14.03.2020
6610 Clouds -31 1015 93 0 1.57 121 14:18 14.03.2020
6611 Clouds -31 1015 93 0 1.57 121 13:42 14.03.2020
6612 Clouds -31 1015 93 0 1.57 121 13:23 14.03.2020
6613 Clouds -31 1015 94 0 1.48 118 12:57 14.03.2020
6614 Clouds -31 1015 94 0 1.48 118 12:38 14.03.2020
6615 Clouds -31 1015 94 0 1.48 118 12:19 14.03.2020
6616 Clouds -31 1015 94 0 1.48 118 11:40 14.03.2020
6617 Clouds -29 1015 92 0 1.46 128 11:20 14.03.2020
6618 Clouds -29 1015 92 0 1.46 128 10:46 14.03.2020
6619 Clouds -29 1015 92 0 1.46 128 10:27 14.03.2020
6620 Clouds -29 1015 92 0 1.46 128 09:58 14.03.2020
6621 Clouds -29 1015 92 0 1.46 128 09:40 14.03.2020
6622 Clouds -29 1015 92 0 1.46 128 09:20 14.03.2020
6623 Clouds -29 1015 92 0 1.46 128 08:46 14.03.2020
6624 Clouds -29 1015 93 0 1.48 132 08:24 14.03.2020
6625 Clouds -23 1014 81 0 1.92 186 07:40 14.03.2020
6626 Clouds -23 1014 81 0 1.92 186 07:21 14.03.2020
6627 Clouds -23 1014 81 0 1.92 186 06:44 14.03.2020
6628 Clouds -23 1014 81 0 1.92 186 06:26 14.03.2020
6629 Clouds -26 1016 84 0 1.8 206 04:53 14.03.2020
6630 Clouds -26 1016 84 0 1.8 206 03:34 14.03.2020
6631 Clouds -26 1016 84 0 1.8 206 02:43 14.03.2020
6632 Clear -30 1017 92 0 1.51 223 01:42 14.03.2020
6633 Clear -30 1016 92 0 1.51 221 00:34 14.03.2020
6634 Clear -30 1016 92 0 1.51 221 23:42 13.03.2020
6635 Clear -30 1016 92 0 1.51 221 23:23 13.03.2020
6636 Clear -35 1015 100 0 1.27 236 22:44 13.03.2020
6637 Clear -35 1015 100 0 1.27 236 22:22 13.03.2020
6638 Clear -35 1015 100 0 1.27 236 21:41 13.03.2020
6639 Clear -35 1015 100 0 1.27 236 21:19 13.03.2020
6640 Clear -35 1015 100 0 1.27 236 20:43 13.03.2020
6641 Clear -34 1014 100 0 0.98 254 20:23 13.03.2020
6642 Clear -34 1014 100 0 0.98 254 19:58 13.03.2020
6643 Clear -34 1014 100 0 0.98 254 19:39 13.03.2020
6644 Clear -34 1014 100 0 0.98 254 19:19 13.03.2020
6645 Clear -34 1014 100 0 0.98 254 18:43 13.03.2020
6646 Clear -34 1014 100 0 0.98 254 18:23 13.03.2020
6647 Clear -34 1014 100 0 0.98 254 17:43 13.03.2020
6648 Clear -34 1014 100 0 0.98 254 17:21 13.03.2020
6649 Clear -33 1012 100 0 0.95 270 16:59 13.03.2020
6650 Clear -33 1012 100 0 0.95 270 16:39 13.03.2020
6651 Clear -33 1012 100 0 0.95 270 16:20 13.03.2020
6652 Clear -33 1012 100 0 0.95 270 15:46 13.03.2020
6653 Clear -33 1012 100 0 0.95 270 15:23 13.03.2020
6654 Clear -33 1012 100 0 0.95 270 14:59 13.03.2020
6655 Clear -33 1012 100 0 0.95 270 14:40 13.03.2020
6656 Clear -33 1012 100 0 0.95 270 14:21 13.03.2020
6657 Clear -32 1009 99 0 0.89 290 13:43 13.03.2020
6658 Clear -32 1009 99 0 0.89 290 13:24 13.03.2020
6659 Clear -32 1009 98 0 1.05 288 12:59 13.03.2020
6660 Clear -32 1009 98 0 1.05 288 12:39 13.03.2020
6661 Clear -32 1009 98 0 1.05 288 12:20 13.03.2020
6662 Clear -32 1009 98 0 1.05 288 11:56 13.03.2020
6663 Clear -32 1009 98 0 1.05 288 11:37 13.03.2020
6664 Clear -31 1006 100 0 0.72 320 11:19 13.03.2020
6665 Clear -31 1006 100 0 0.72 320 10:47 13.03.2020
6666 Clear -31 1006 100 0 0.72 320 10:26 13.03.2020
6667 Clear -31 1006 100 0 0.72 320 09:56 13.03.2020
6668 Clear -31 1006 100 0 0.72 320 09:38 13.03.2020
6669 Clear -31 1006 100 0 0.72 320 09:18 13.03.2020
6670 Clear -31 1006 100 0 0.72 320 08:41 13.03.2020
6671 Clear -31 1006 100 0 0.48 318 08:22 13.03.2020
6672 Clouds -25 1002 83 0 0.94 4 07:45 13.03.2020
6673 Clouds -25 1002 83 0 0.94 4 07:27 13.03.2020
6674 Clouds -25 1002 83 0 0.94 4 06:46 13.03.2020
6675 Clouds -25 1002 83 0 0.94 4 06:23 13.03.2020
6676 Clouds -25 1002 83 0 0.94 4 05:46 13.03.2020
6677 Clouds -27 1001 83 0 1.13 21 04:57 13.03.2020
6678 Clouds -27 1001 83 0 1.13 21 04:26 13.03.2020
6679 Clouds -27 1001 83 0 1.13 21 02:58 13.03.2020
6680 Clear -30 1000 92 0 0.97 52 01:41 13.03.2020
6681 Clear -30 1000 92 0 0.97 52 01:18 13.03.2020
6682 Clouds -30 1000 93 0 1.02 48 00:43 13.03.2020
6683 Clouds -30 1000 93 0 1.02 48 00:20 13.03.2020
6684 Clouds -30 1000 93 0 1.02 48 23:45 12.03.2020
6685 Clouds -30 1000 93 0 1.02 48 23:26 12.03.2020
6686 Clear -35 1000 99 0 0.65 65 22:55 12.03.2020
6687 Clear -35 1000 99 0 0.65 65 22:37 12.03.2020
6688 Clear -35 1000 99 0 0.65 65 22:37 12.03.2020
6689 Clear -35 1000 99 0 0.65 65 22:18 12.03.2020
6690 Clear -35 1000 99 0 0.65 65 21:42 12.03.2020
6691 Clear -35 1000 99 0 0.65 65 21:24 12.03.2020
6692 Clear -35 1000 99 0 0.65 65 20:55 12.03.2020
6693 Clear -35 1000 99 0 0.65 65 20:37 12.03.2020
6694 Clear -34 1001 99 0 0.9 94 20:18 12.03.2020
6695 Clear -34 1001 99 0 0.9 94 19:39 12.03.2020
6696 Clear -34 1001 99 0 0.9 94 19:19 12.03.2020
6697 Clear -34 1001 99 0 0.9 94 18:43 12.03.2020
6698 Clear -34 1001 99 0 0.9 94 18:23 12.03.2020
6699 Clear -34 1001 99 0 0.9 94 17:56 12.03.2020
6700 Clear -34 1001 99 0 0.9 94 17:37 12.03.2020
6701 Clear -32 1002 99 0 1.18 92 17:18 12.03.2020
6702 Clear -32 1002 99 0 1.18 92 16:54 12.03.2020
6703 Clear -32 1002 99 0 1.18 92 16:36 12.03.2020
6704 Clear -32 1002 99 0 1.18 92 16:18 12.03.2020
6705 Clear -32 1002 99 0 1.18 92 15:41 12.03.2020
6706 Clear -32 1002 99 0 1.18 92 15:22 12.03.2020
6707 Clear -32 1002 99 0 1.18 92 14:39 12.03.2020
6708 Clouds -31 1003 99 0 1.19 96 14:19 12.03.2020
6709 Clouds -31 1003 99 0 1.19 96 13:41 12.03.2020
6710 Clouds -31 1004 99 0 1.13 95 13:22 12.03.2020
6711 Clouds -31 1004 99 0 1.13 95 12:56 12.03.2020
6712 Clouds -31 1004 99 0 1.13 95 12:38 12.03.2020
6713 Clouds -31 1004 99 0 1.13 95 12:19 12.03.2020
6714 Clouds -31 1004 99 0 1.13 95 11:56 12.03.2020
6715 Clouds -31 1004 99 0 1.13 95 11:37 12.03.2020
6716 Clouds -30 1005 99 0 1 82 11:19 12.03.2020
6717 Clouds -30 1005 99 0 1 82 11:19 12.03.2020
6718 Clouds -30 1005 99 0 1 82 10:57 12.03.2020
6719 Clouds -30 1005 99 0 1 82 10:57 12.03.2020
6720 Clouds -30 1005 99 0 1 82 10:39 12.03.2020
6721 Clouds -30 1005 99 0 1 82 10:21 12.03.2020
6722 Clouds -30 1005 99 0 1 82 09:43 12.03.2020
6723 Clouds -30 1005 99 0 1 82 09:43 12.03.2020
6724 Clouds -30 1005 99 0 1 82 09:25 12.03.2020
6725 Clouds -30 1005 99 0 1 82 08:41 12.03.2020
6726 Clouds -23 1006 83 0 0.82 110 08:20 12.03.2020
6727 Clouds -23 1006 83 0 0.82 110 07:53 12.03.2020
6728 Clouds -23 1006 83 0 0.82 110 07:23 12.03.2020
6729 Clouds -23 1006 83 0 0.82 110 06:59 12.03.2020
6730 Clouds -23 1006 83 0 0.82 110 05:43 12.03.2020
6731 Clouds -23 1006 83 0 0.82 110 05:21 12.03.2020
6732 Clouds -27 1010 80 0 0.8 181 02:41 12.03.2020
6733 Clouds -30 1013 89 0 0.74 213 01:31 12.03.2020
6734 Clouds -30 1014 90 0 0.65 217 00:45 12.03.2020
6735 Clouds -30 1014 90 0 0.65 217 00:26 12.03.2020
6736 Clouds -30 1014 90 0 0.65 217 23:47 11.03.2020
6737 Clouds -30 1014 90 0 0.65 217 23:24 11.03.2020
6738 Clouds -35 1016 99 0 0.65 209 22:48 11.03.2020
6739 Clouds -35 1016 99 0 0.65 209 22:30 11.03.2020
6740 Clouds -35 1016 99 0 0.65 209 22:30 11.03.2020
6741 Clouds -35 1016 99 0 0.65 209 21:59 11.03.2020
6742 Clouds -35 1016 99 0 0.65 209 21:41 11.03.2020
6743 Clouds -35 1016 99 0 0.65 209 21:22 11.03.2020
6744 Clouds -35 1016 99 0 0.65 209 20:58 11.03.2020
6745 Clouds -35 1016 99 0 0.65 209 20:39 11.03.2020
6746 Clear -34 1017 97 0 0.61 171 20:20 11.03.2020
6747 Clear -34 1017 97 0 0.61 171 19:44 11.03.2020
6748 Clear -34 1017 97 0 0.61 171 19:26 11.03.2020
6749 Clear -34 1017 97 0 0.61 171 18:59 11.03.2020
6750 Clear -34 1017 97 0 0.61 171 18:40 11.03.2020
6751 Clear -34 1017 97 0 0.61 171 18:22 11.03.2020
6752 Clear -34 1017 97 0 0.61 171 17:58 11.03.2020
6753 Clear -34 1017 97 0 0.61 171 17:39 11.03.2020
6754 Clear -33 1019 94 0 0.64 139 17:20 11.03.2020
6755 Clear -33 1019 94 0 0.64 139 16:47 11.03.2020
6756 Clear -33 1019 94 0 0.64 139 16:23 11.03.2020
6757 Clear -33 1019 94 0 0.64 139 15:59 11.03.2020
6758 Clear -33 1019 94 0 0.64 139 15:40 11.03.2020
6759 Clear -33 1019 94 0 0.64 139 15:22 11.03.2020
6760 Clear -33 1019 94 0 0.64 139 14:42 11.03.2020
6761 Clear -33 1019 94 0 0.64 139 14:23 11.03.2020
6762 Clear -33 1019 94 0 0.64 139 14:23 11.03.2020
6763 Clouds -32 1019 93 0 0.96 150 13:57 11.03.2020
6764 Clouds -32 1019 93 0 0.96 150 13:38 11.03.2020
6765 Clouds -32 1019 94 0 0.82 152 13:20 11.03.2020
6766 Clouds -32 1019 94 0 0.82 152 12:40 11.03.2020
6767 Clouds -32 1019 94 0 0.82 152 12:20 11.03.2020
6768 Clouds -32 1019 94 0 0.82 152 11:56 11.03.2020
6769 Clouds -32 1019 94 0 0.82 152 11:37 11.03.2020
6770 Clouds -31 1019 95 0 0.91 161 11:19 11.03.2020
6771 Clouds -31 1019 95 0 0.91 161 10:43 11.03.2020
6772 Clouds -31 1019 95 0 0.91 161 10:19 11.03.2020
6773 Clouds -31 1019 95 0 0.91 161 09:43 11.03.2020
6774 Clouds -31 1019 95 0 0.91 161 09:25 11.03.2020
6775 Clouds -31 1019 95 0 0.91 161 08:58 11.03.2020
6776 Clouds -31 1019 95 0 0.91 161 08:40 11.03.2020
6777 Clouds -24 1017 80 0 1.31 211 08:19 11.03.2020
6778 Clouds -24 1017 80 0 1.31 211 07:44 11.03.2020
6779 Clouds -24 1017 80 0 1.31 211 07:19 11.03.2020
6780 Clouds -24 1017 80 0 1.31 211 06:46 11.03.2020
6781 Clouds -24 1017 80 0 1.31 211 05:41 11.03.2020
6782 Clouds -27 1018 82 0 1.44 230 04:50 11.03.2020
6783 Clouds -27 1018 82 0 1.44 230 02:30 11.03.2020
6784 Clouds -30 1018 95 0 0.78 238 01:30 11.03.2020
6785 Clouds -30 1018 95 0 0.78 238 00:49 11.03.2020
6786 Clouds -30 1018 95 0 0.78 238 00:21 11.03.2020
6787 Clouds -30 1018 95 0 0.78 238 23:42 10.03.2020
6788 Clouds -30 1018 95 0 0.78 238 23:22 10.03.2020
6789 Clouds -34 1018 100 0 0.51 255 22:40 10.03.2020
6790 Clouds -34 1018 100 0 0.51 255 22:20 10.03.2020
6791 Clouds -34 1018 100 0 0.51 255 21:57 10.03.2020
6792 Clouds -34 1018 100 0 0.51 255 21:39 10.03.2020
6793 Clouds -34 1018 100 0 0.51 255 21:20 10.03.2020
6794 Clouds -34 1018 100 0 0.51 255 20:59 10.03.2020
6795 Clouds -34 1018 100 0 0.51 255 20:41 10.03.2020
6796 Clouds -33 1017 100 0 0.46 316 20:19 10.03.2020
6797 Clouds -33 1017 100 0 0.46 316 19:57 10.03.2020
6798 Clouds -33 1017 100 0 0.46 316 19:39 10.03.2020
6799 Clouds -33 1017 100 0 0.46 316 19:21 10.03.2020
6800 Clouds -33 1017 100 0 0.46 316 18:45 10.03.2020
6801 Clouds -33 1017 100 0 0.46 316 18:45 10.03.2020
6802 Clouds -33 1017 100 0 0.46 316 18:27 10.03.2020
6803 Clouds -33 1017 100 0 0.46 316 17:58 10.03.2020
6804 Clouds -33 1017 100 0 0.46 316 17:40 10.03.2020
6805 Clouds -33 1017 100 0 0.46 316 17:21 10.03.2020
6806